<?xml version="1.0" encoding="UTF-8" standalone="no" ?>
<gpx xmlns="http://www.topografix.com/GPX/1/1" xmlns:xsi="http://www.w3.org/2001/XMLSchema-instance" xsi:schemaLocation="http://www.topografix.com/GPX/1/1 http://www.topografix.com/GPX/1/1/gpx.xsd" version="1.1" creator="VisuGPX - https://www.visugpx.com">
  <metadata>
    <name>Rando VTT autour de st martin</name>
    <desc><![CDATA[Sens, st Martin, nailly, courtois.
Une rando technique et sportive]]></desc>
  </metadata>
  <trk>
    <name><![CDATA[Rando VTT autour de st martin_1]]></name>
    <trkseg>
      <trkpt lat="48.20257" lon="3.28035">
        <ele>67</ele>
        <time>2017-07-30T07:42:11Z</time>
      </trkpt>
      <trkpt lat="48.20257" lon="3.28035">
        <ele>67</ele>
        <time>2017-07-30T07:42:55Z</time>
      </trkpt>
      <trkpt lat="48.20265" lon="3.2804">
        <ele>67</ele>
        <time>2017-07-30T07:43:01Z</time>
      </trkpt>
      <trkpt lat="48.20261" lon="3.28051">
        <ele>67</ele>
        <time>2017-07-30T07:43:07Z</time>
      </trkpt>
      <trkpt lat="48.20261" lon="3.2805">
        <ele>67</ele>
        <time>2017-07-30T07:43:14Z</time>
      </trkpt>
      <trkpt lat="48.20261" lon="3.2805">
        <ele>67</ele>
        <time>2017-07-30T07:43:20Z</time>
      </trkpt>
      <trkpt lat="48.2026" lon="3.28039">
        <ele>67</ele>
        <time>2017-07-30T07:43:45Z</time>
      </trkpt>
      <trkpt lat="48.20266" lon="3.28046">
        <ele>67</ele>
        <time>2017-07-30T07:43:52Z</time>
      </trkpt>
      <trkpt lat="48.20273" lon="3.28044">
        <ele>67</ele>
        <time>2017-07-30T07:43:58Z</time>
      </trkpt>
      <trkpt lat="48.20279" lon="3.28036">
        <ele>67</ele>
        <time>2017-07-30T07:44:02Z</time>
      </trkpt>
      <trkpt lat="48.20285" lon="3.28029">
        <ele>67</ele>
        <time>2017-07-30T07:44:05Z</time>
      </trkpt>
      <trkpt lat="48.20292" lon="3.28023">
        <ele>66</ele>
        <time>2017-07-30T07:44:07Z</time>
      </trkpt>
      <trkpt lat="48.20299" lon="3.28016">
        <ele>66</ele>
        <time>2017-07-30T07:44:09Z</time>
      </trkpt>
      <trkpt lat="48.20304" lon="3.28009">
        <ele>66</ele>
        <time>2017-07-30T07:44:11Z</time>
      </trkpt>
      <trkpt lat="48.20311" lon="3.28003">
        <ele>66</ele>
        <time>2017-07-30T07:44:13Z</time>
      </trkpt>
      <trkpt lat="48.20317" lon="3.27996">
        <ele>66</ele>
        <time>2017-07-30T07:44:15Z</time>
      </trkpt>
      <trkpt lat="48.20325" lon="3.2799">
        <ele>66</ele>
        <time>2017-07-30T07:44:17Z</time>
      </trkpt>
      <trkpt lat="48.20332" lon="3.27982">
        <ele>66</ele>
        <time>2017-07-30T07:44:19Z</time>
      </trkpt>
      <trkpt lat="48.2034" lon="3.27975">
        <ele>67</ele>
        <time>2017-07-30T07:44:21Z</time>
      </trkpt>
      <trkpt lat="48.20347" lon="3.27968">
        <ele>67</ele>
        <time>2017-07-30T07:44:23Z</time>
      </trkpt>
      <trkpt lat="48.20353" lon="3.27961">
        <ele>67</ele>
        <time>2017-07-30T07:44:25Z</time>
      </trkpt>
      <trkpt lat="48.2036" lon="3.27954">
        <ele>67</ele>
        <time>2017-07-30T07:44:27Z</time>
      </trkpt>
      <trkpt lat="48.20367" lon="3.27947">
        <ele>67</ele>
        <time>2017-07-30T07:44:29Z</time>
      </trkpt>
      <trkpt lat="48.20376" lon="3.27939">
        <ele>67</ele>
        <time>2017-07-30T07:44:31Z</time>
      </trkpt>
      <trkpt lat="48.20383" lon="3.27931">
        <ele>67</ele>
        <time>2017-07-30T07:44:33Z</time>
      </trkpt>
      <trkpt lat="48.20391" lon="3.27925">
        <ele>67</ele>
        <time>2017-07-30T07:44:35Z</time>
      </trkpt>
      <trkpt lat="48.20399" lon="3.27918">
        <ele>67</ele>
        <time>2017-07-30T07:44:37Z</time>
      </trkpt>
      <trkpt lat="48.20406" lon="3.2791">
        <ele>67</ele>
        <time>2017-07-30T07:44:39Z</time>
      </trkpt>
      <trkpt lat="48.20413" lon="3.27902">
        <ele>67</ele>
        <time>2017-07-30T07:44:41Z</time>
      </trkpt>
      <trkpt lat="48.2042" lon="3.27894">
        <ele>66</ele>
        <time>2017-07-30T07:44:43Z</time>
      </trkpt>
      <trkpt lat="48.20427" lon="3.27885">
        <ele>66</ele>
        <time>2017-07-30T07:44:45Z</time>
      </trkpt>
      <trkpt lat="48.20435" lon="3.27877">
        <ele>65</ele>
        <time>2017-07-30T07:44:47Z</time>
      </trkpt>
      <trkpt lat="48.20442" lon="3.2787">
        <ele>65</ele>
        <time>2017-07-30T07:44:49Z</time>
      </trkpt>
      <trkpt lat="48.2045" lon="3.27862">
        <ele>65</ele>
        <time>2017-07-30T07:44:51Z</time>
      </trkpt>
      <trkpt lat="48.20457" lon="3.27854">
        <ele>65</ele>
        <time>2017-07-30T07:44:53Z</time>
      </trkpt>
      <trkpt lat="48.20465" lon="3.27845">
        <ele>65</ele>
        <time>2017-07-30T07:44:55Z</time>
      </trkpt>
      <trkpt lat="48.20472" lon="3.27837">
        <ele>65</ele>
        <time>2017-07-30T07:44:57Z</time>
      </trkpt>
      <trkpt lat="48.20478" lon="3.2783">
        <ele>64</ele>
        <time>2017-07-30T07:44:59Z</time>
      </trkpt>
      <trkpt lat="48.20486" lon="3.27822">
        <ele>64</ele>
        <time>2017-07-30T07:45:01Z</time>
      </trkpt>
      <trkpt lat="48.20493" lon="3.27814">
        <ele>64</ele>
        <time>2017-07-30T07:45:03Z</time>
      </trkpt>
      <trkpt lat="48.20501" lon="3.2781">
        <ele>64</ele>
        <time>2017-07-30T07:45:05Z</time>
      </trkpt>
      <trkpt lat="48.20511" lon="3.27809">
        <ele>64</ele>
        <time>2017-07-30T07:45:07Z</time>
      </trkpt>
      <trkpt lat="48.20521" lon="3.27814">
        <ele>64</ele>
        <time>2017-07-30T07:45:09Z</time>
      </trkpt>
      <trkpt lat="48.2053" lon="3.27816">
        <ele>65</ele>
        <time>2017-07-30T07:45:11Z</time>
      </trkpt>
      <trkpt lat="48.20539" lon="3.27809">
        <ele>65</ele>
        <time>2017-07-30T07:45:13Z</time>
      </trkpt>
      <trkpt lat="48.20546" lon="3.27797">
        <ele>65</ele>
        <time>2017-07-30T07:45:15Z</time>
      </trkpt>
      <trkpt lat="48.20548" lon="3.27787">
        <ele>65</ele>
        <time>2017-07-30T07:45:17Z</time>
      </trkpt>
      <trkpt lat="48.20553" lon="3.27771">
        <ele>65</ele>
        <time>2017-07-30T07:45:19Z</time>
      </trkpt>
      <trkpt lat="48.20543" lon="3.27764">
        <ele>65</ele>
        <time>2017-07-30T07:45:20Z</time>
      </trkpt>
      <trkpt lat="48.20535" lon="3.27752">
        <ele>65</ele>
        <time>2017-07-30T07:45:22Z</time>
      </trkpt>
      <trkpt lat="48.2053" lon="3.27738">
        <ele>65</ele>
        <time>2017-07-30T07:45:24Z</time>
      </trkpt>
      <trkpt lat="48.20529" lon="3.27723">
        <ele>65</ele>
        <time>2017-07-30T07:45:26Z</time>
      </trkpt>
      <trkpt lat="48.20526" lon="3.27708">
        <ele>65</ele>
        <time>2017-07-30T07:45:28Z</time>
      </trkpt>
      <trkpt lat="48.20522" lon="3.27694">
        <ele>65</ele>
        <time>2017-07-30T07:45:30Z</time>
      </trkpt>
      <trkpt lat="48.20519" lon="3.2768">
        <ele>65</ele>
        <time>2017-07-30T07:45:32Z</time>
      </trkpt>
      <trkpt lat="48.20517" lon="3.27668">
        <ele>65</ele>
        <time>2017-07-30T07:45:34Z</time>
      </trkpt>
      <trkpt lat="48.20516" lon="3.27657">
        <ele>65</ele>
        <time>2017-07-30T07:45:36Z</time>
      </trkpt>
      <trkpt lat="48.20514" lon="3.27645">
        <ele>65</ele>
        <time>2017-07-30T07:45:38Z</time>
      </trkpt>
      <trkpt lat="48.20512" lon="3.27633">
        <ele>65</ele>
        <time>2017-07-30T07:45:40Z</time>
      </trkpt>
      <trkpt lat="48.2051" lon="3.27622">
        <ele>65</ele>
        <time>2017-07-30T07:45:42Z</time>
      </trkpt>
      <trkpt lat="48.20508" lon="3.27611">
        <ele>65</ele>
        <time>2017-07-30T07:45:44Z</time>
      </trkpt>
      <trkpt lat="48.20507" lon="3.276">
        <ele>65</ele>
        <time>2017-07-30T07:45:46Z</time>
      </trkpt>
      <trkpt lat="48.20505" lon="3.27589">
        <ele>65</ele>
        <time>2017-07-30T07:45:48Z</time>
      </trkpt>
      <trkpt lat="48.20503" lon="3.27577">
        <ele>65</ele>
        <time>2017-07-30T07:45:50Z</time>
      </trkpt>
      <trkpt lat="48.20502" lon="3.27567">
        <ele>65</ele>
        <time>2017-07-30T07:45:52Z</time>
      </trkpt>
      <trkpt lat="48.205" lon="3.27555">
        <ele>65</ele>
        <time>2017-07-30T07:45:54Z</time>
      </trkpt>
      <trkpt lat="48.20498" lon="3.27542">
        <ele>65</ele>
        <time>2017-07-30T07:45:56Z</time>
      </trkpt>
      <trkpt lat="48.20496" lon="3.27531">
        <ele>65</ele>
        <time>2017-07-30T07:45:58Z</time>
      </trkpt>
      <trkpt lat="48.20494" lon="3.27519">
        <ele>65</ele>
        <time>2017-07-30T07:46:00Z</time>
      </trkpt>
      <trkpt lat="48.2049" lon="3.27506">
        <ele>65</ele>
        <time>2017-07-30T07:46:02Z</time>
      </trkpt>
      <trkpt lat="48.20488" lon="3.27494">
        <ele>66</ele>
        <time>2017-07-30T07:46:04Z</time>
      </trkpt>
      <trkpt lat="48.20486" lon="3.27482">
        <ele>66</ele>
        <time>2017-07-30T07:46:06Z</time>
      </trkpt>
      <trkpt lat="48.20484" lon="3.27469">
        <ele>66</ele>
        <time>2017-07-30T07:46:08Z</time>
      </trkpt>
      <trkpt lat="48.20482" lon="3.27456">
        <ele>67</ele>
        <time>2017-07-30T07:46:10Z</time>
      </trkpt>
      <trkpt lat="48.20479" lon="3.27444">
        <ele>67</ele>
        <time>2017-07-30T07:46:12Z</time>
      </trkpt>
      <trkpt lat="48.20477" lon="3.27432">
        <ele>67</ele>
        <time>2017-07-30T07:46:14Z</time>
      </trkpt>
      <trkpt lat="48.20476" lon="3.2742">
        <ele>67</ele>
        <time>2017-07-30T07:46:16Z</time>
      </trkpt>
      <trkpt lat="48.20473" lon="3.27407">
        <ele>67</ele>
        <time>2017-07-30T07:46:18Z</time>
      </trkpt>
      <trkpt lat="48.20471" lon="3.27394">
        <ele>67</ele>
        <time>2017-07-30T07:46:20Z</time>
      </trkpt>
      <trkpt lat="48.20468" lon="3.27382">
        <ele>67</ele>
        <time>2017-07-30T07:46:22Z</time>
      </trkpt>
      <trkpt lat="48.20468" lon="3.27371">
        <ele>67</ele>
        <time>2017-07-30T07:46:24Z</time>
      </trkpt>
      <trkpt lat="48.20466" lon="3.27358">
        <ele>67</ele>
        <time>2017-07-30T07:46:26Z</time>
      </trkpt>
      <trkpt lat="48.20463" lon="3.27346">
        <ele>67</ele>
        <time>2017-07-30T07:46:28Z</time>
      </trkpt>
      <trkpt lat="48.2046" lon="3.27334">
        <ele>67</ele>
        <time>2017-07-30T07:46:30Z</time>
      </trkpt>
      <trkpt lat="48.20458" lon="3.2732">
        <ele>66</ele>
        <time>2017-07-30T07:46:32Z</time>
      </trkpt>
      <trkpt lat="48.20455" lon="3.27305">
        <ele>66</ele>
        <time>2017-07-30T07:46:34Z</time>
      </trkpt>
      <trkpt lat="48.20452" lon="3.27289">
        <ele>66</ele>
        <time>2017-07-30T07:46:36Z</time>
      </trkpt>
      <trkpt lat="48.2045" lon="3.27272">
        <ele>66</ele>
        <time>2017-07-30T07:46:38Z</time>
      </trkpt>
      <trkpt lat="48.20447" lon="3.27255">
        <ele>66</ele>
        <time>2017-07-30T07:46:40Z</time>
      </trkpt>
      <trkpt lat="48.20445" lon="3.27235">
        <ele>66</ele>
        <time>2017-07-30T07:46:42Z</time>
      </trkpt>
      <trkpt lat="48.20445" lon="3.27224">
        <ele>66</ele>
        <time>2017-07-30T07:46:43Z</time>
      </trkpt>
      <trkpt lat="48.20447" lon="3.27204">
        <ele>65</ele>
        <time>2017-07-30T07:46:45Z</time>
      </trkpt>
      <trkpt lat="48.20451" lon="3.27195">
        <ele>65</ele>
        <time>2017-07-30T07:46:46Z</time>
      </trkpt>
      <trkpt lat="48.20458" lon="3.27179">
        <ele>65</ele>
        <time>2017-07-30T07:46:48Z</time>
      </trkpt>
      <trkpt lat="48.2047" lon="3.27167">
        <ele>65</ele>
        <time>2017-07-30T07:46:50Z</time>
      </trkpt>
      <trkpt lat="48.20481" lon="3.27161">
        <ele>65</ele>
        <time>2017-07-30T07:46:52Z</time>
      </trkpt>
      <trkpt lat="48.20493" lon="3.27155">
        <ele>65</ele>
        <time>2017-07-30T07:46:54Z</time>
      </trkpt>
      <trkpt lat="48.20505" lon="3.27148">
        <ele>65</ele>
        <time>2017-07-30T07:46:56Z</time>
      </trkpt>
      <trkpt lat="48.20516" lon="3.27144">
        <ele>65</ele>
        <time>2017-07-30T07:46:58Z</time>
      </trkpt>
      <trkpt lat="48.20528" lon="3.27137">
        <ele>65</ele>
        <time>2017-07-30T07:47:00Z</time>
      </trkpt>
      <trkpt lat="48.20539" lon="3.27131">
        <ele>65</ele>
        <time>2017-07-30T07:47:02Z</time>
      </trkpt>
      <trkpt lat="48.2055" lon="3.27126">
        <ele>65</ele>
        <time>2017-07-30T07:47:04Z</time>
      </trkpt>
      <trkpt lat="48.20563" lon="3.27119">
        <ele>66</ele>
        <time>2017-07-30T07:47:06Z</time>
      </trkpt>
      <trkpt lat="48.20575" lon="3.27113">
        <ele>66</ele>
        <time>2017-07-30T07:47:08Z</time>
      </trkpt>
      <trkpt lat="48.20586" lon="3.27108">
        <ele>66</ele>
        <time>2017-07-30T07:47:10Z</time>
      </trkpt>
      <trkpt lat="48.20599" lon="3.271">
        <ele>66</ele>
        <time>2017-07-30T07:47:12Z</time>
      </trkpt>
      <trkpt lat="48.20611" lon="3.27094">
        <ele>66</ele>
        <time>2017-07-30T07:47:14Z</time>
      </trkpt>
      <trkpt lat="48.20623" lon="3.27086">
        <ele>66</ele>
        <time>2017-07-30T07:47:16Z</time>
      </trkpt>
      <trkpt lat="48.2063" lon="3.27083">
        <ele>67</ele>
        <time>2017-07-30T07:47:17Z</time>
      </trkpt>
      <trkpt lat="48.20643" lon="3.27078">
        <ele>66</ele>
        <time>2017-07-30T07:47:19Z</time>
      </trkpt>
      <trkpt lat="48.20656" lon="3.27072">
        <ele>66</ele>
        <time>2017-07-30T07:47:21Z</time>
      </trkpt>
      <trkpt lat="48.20669" lon="3.27067">
        <ele>65</ele>
        <time>2017-07-30T07:47:23Z</time>
      </trkpt>
      <trkpt lat="48.20681" lon="3.27062">
        <ele>65</ele>
        <time>2017-07-30T07:47:25Z</time>
      </trkpt>
      <trkpt lat="48.20693" lon="3.27055">
        <ele>65</ele>
        <time>2017-07-30T07:47:27Z</time>
      </trkpt>
      <trkpt lat="48.20704" lon="3.27046">
        <ele>65</ele>
        <time>2017-07-30T07:47:29Z</time>
      </trkpt>
      <trkpt lat="48.20715" lon="3.27039">
        <ele>65</ele>
        <time>2017-07-30T07:47:31Z</time>
      </trkpt>
      <trkpt lat="48.20726" lon="3.2703">
        <ele>64</ele>
        <time>2017-07-30T07:47:33Z</time>
      </trkpt>
      <trkpt lat="48.20733" lon="3.27024">
        <ele>64</ele>
        <time>2017-07-30T07:47:34Z</time>
      </trkpt>
      <trkpt lat="48.20744" lon="3.27013">
        <ele>64</ele>
        <time>2017-07-30T07:47:36Z</time>
      </trkpt>
      <trkpt lat="48.20755" lon="3.27002">
        <ele>63</ele>
        <time>2017-07-30T07:47:38Z</time>
      </trkpt>
      <trkpt lat="48.20764" lon="3.2699">
        <ele>64</ele>
        <time>2017-07-30T07:47:40Z</time>
      </trkpt>
      <trkpt lat="48.20774" lon="3.26979">
        <ele>64</ele>
        <time>2017-07-30T07:47:42Z</time>
      </trkpt>
      <trkpt lat="48.20783" lon="3.26967">
        <ele>64</ele>
        <time>2017-07-30T07:47:44Z</time>
      </trkpt>
      <trkpt lat="48.2079" lon="3.26955">
        <ele>64</ele>
        <time>2017-07-30T07:47:46Z</time>
      </trkpt>
      <trkpt lat="48.20797" lon="3.26946">
        <ele>64</ele>
        <time>2017-07-30T07:47:47Z</time>
      </trkpt>
      <trkpt lat="48.20807" lon="3.26937">
        <ele>65</ele>
        <time>2017-07-30T07:47:49Z</time>
      </trkpt>
      <trkpt lat="48.20814" lon="3.26924">
        <ele>65</ele>
        <time>2017-07-30T07:47:51Z</time>
      </trkpt>
      <trkpt lat="48.20823" lon="3.26912">
        <ele>66</ele>
        <time>2017-07-30T07:47:53Z</time>
      </trkpt>
      <trkpt lat="48.2083" lon="3.26898">
        <ele>66</ele>
        <time>2017-07-30T07:47:55Z</time>
      </trkpt>
      <trkpt lat="48.20839" lon="3.26887">
        <ele>65</ele>
        <time>2017-07-30T07:47:57Z</time>
      </trkpt>
      <trkpt lat="48.20846" lon="3.26876">
        <ele>65</ele>
        <time>2017-07-30T07:47:59Z</time>
      </trkpt>
      <trkpt lat="48.20857" lon="3.26862">
        <ele>65</ele>
        <time>2017-07-30T07:48:01Z</time>
      </trkpt>
      <trkpt lat="48.20865" lon="3.26849">
        <ele>65</ele>
        <time>2017-07-30T07:48:03Z</time>
      </trkpt>
      <trkpt lat="48.20873" lon="3.26836">
        <ele>65</ele>
        <time>2017-07-30T07:48:05Z</time>
      </trkpt>
      <trkpt lat="48.20883" lon="3.26822">
        <ele>64</ele>
        <time>2017-07-30T07:48:07Z</time>
      </trkpt>
      <trkpt lat="48.20892" lon="3.26809">
        <ele>64</ele>
        <time>2017-07-30T07:48:09Z</time>
      </trkpt>
      <trkpt lat="48.20901" lon="3.26794">
        <ele>64</ele>
        <time>2017-07-30T07:48:11Z</time>
      </trkpt>
      <trkpt lat="48.20909" lon="3.26784">
        <ele>64</ele>
        <time>2017-07-30T07:48:13Z</time>
      </trkpt>
      <trkpt lat="48.20918" lon="3.26772">
        <ele>64</ele>
        <time>2017-07-30T07:48:15Z</time>
      </trkpt>
      <trkpt lat="48.20926" lon="3.26759">
        <ele>64</ele>
        <time>2017-07-30T07:48:17Z</time>
      </trkpt>
      <trkpt lat="48.20935" lon="3.26746">
        <ele>64</ele>
        <time>2017-07-30T07:48:19Z</time>
      </trkpt>
      <trkpt lat="48.20944" lon="3.26733">
        <ele>65</ele>
        <time>2017-07-30T07:48:21Z</time>
      </trkpt>
      <trkpt lat="48.20953" lon="3.26721">
        <ele>65</ele>
        <time>2017-07-30T07:48:23Z</time>
      </trkpt>
      <trkpt lat="48.20961" lon="3.26706">
        <ele>65</ele>
        <time>2017-07-30T07:48:25Z</time>
      </trkpt>
      <trkpt lat="48.20967" lon="3.26692">
        <ele>65</ele>
        <time>2017-07-30T07:48:27Z</time>
      </trkpt>
      <trkpt lat="48.20972" lon="3.26676">
        <ele>65</ele>
        <time>2017-07-30T07:48:29Z</time>
      </trkpt>
      <trkpt lat="48.20973" lon="3.26658">
        <ele>65</ele>
        <time>2017-07-30T07:48:31Z</time>
      </trkpt>
      <trkpt lat="48.20973" lon="3.26638">
        <ele>65</ele>
        <time>2017-07-30T07:48:33Z</time>
      </trkpt>
      <trkpt lat="48.20973" lon="3.26619">
        <ele>65</ele>
        <time>2017-07-30T07:48:35Z</time>
      </trkpt>
      <trkpt lat="48.20973" lon="3.26601">
        <ele>65</ele>
        <time>2017-07-30T07:48:37Z</time>
      </trkpt>
      <trkpt lat="48.20978" lon="3.26586">
        <ele>65</ele>
        <time>2017-07-30T07:48:39Z</time>
      </trkpt>
      <trkpt lat="48.20986" lon="3.26575">
        <ele>65</ele>
        <time>2017-07-30T07:48:41Z</time>
      </trkpt>
      <trkpt lat="48.20996" lon="3.26566">
        <ele>65</ele>
        <time>2017-07-30T07:48:43Z</time>
      </trkpt>
      <trkpt lat="48.21005" lon="3.26564">
        <ele>66</ele>
        <time>2017-07-30T07:48:45Z</time>
      </trkpt>
      <trkpt lat="48.21014" lon="3.26568">
        <ele>66</ele>
        <time>2017-07-30T07:48:47Z</time>
      </trkpt>
      <trkpt lat="48.21023" lon="3.26572">
        <ele>66</ele>
        <time>2017-07-30T07:48:49Z</time>
      </trkpt>
      <trkpt lat="48.21032" lon="3.26575">
        <ele>66</ele>
        <time>2017-07-30T07:48:51Z</time>
      </trkpt>
      <trkpt lat="48.21042" lon="3.26577">
        <ele>66</ele>
        <time>2017-07-30T07:48:53Z</time>
      </trkpt>
      <trkpt lat="48.21052" lon="3.2658">
        <ele>66</ele>
        <time>2017-07-30T07:48:55Z</time>
      </trkpt>
      <trkpt lat="48.21062" lon="3.26584">
        <ele>65</ele>
        <time>2017-07-30T07:48:57Z</time>
      </trkpt>
      <trkpt lat="48.21073" lon="3.26584">
        <ele>65</ele>
        <time>2017-07-30T07:48:59Z</time>
      </trkpt>
      <trkpt lat="48.21083" lon="3.26585">
        <ele>65</ele>
        <time>2017-07-30T07:49:01Z</time>
      </trkpt>
      <trkpt lat="48.21092" lon="3.26587">
        <ele>65</ele>
        <time>2017-07-30T07:49:03Z</time>
      </trkpt>
      <trkpt lat="48.21102" lon="3.26586">
        <ele>65</ele>
        <time>2017-07-30T07:49:05Z</time>
      </trkpt>
      <trkpt lat="48.21111" lon="3.26584">
        <ele>65</ele>
        <time>2017-07-30T07:49:07Z</time>
      </trkpt>
      <trkpt lat="48.21122" lon="3.26581">
        <ele>66</ele>
        <time>2017-07-30T07:49:09Z</time>
      </trkpt>
      <trkpt lat="48.21132" lon="3.26578">
        <ele>66</ele>
        <time>2017-07-30T07:49:11Z</time>
      </trkpt>
      <trkpt lat="48.21143" lon="3.26574">
        <ele>66</ele>
        <time>2017-07-30T07:49:13Z</time>
      </trkpt>
      <trkpt lat="48.21153" lon="3.26569">
        <ele>66</ele>
        <time>2017-07-30T07:49:15Z</time>
      </trkpt>
      <trkpt lat="48.21162" lon="3.26563">
        <ele>66</ele>
        <time>2017-07-30T07:49:17Z</time>
      </trkpt>
      <trkpt lat="48.21172" lon="3.26555">
        <ele>66</ele>
        <time>2017-07-30T07:49:19Z</time>
      </trkpt>
      <trkpt lat="48.21183" lon="3.26546">
        <ele>66</ele>
        <time>2017-07-30T07:49:21Z</time>
      </trkpt>
      <trkpt lat="48.21192" lon="3.26536">
        <ele>66</ele>
        <time>2017-07-30T07:49:23Z</time>
      </trkpt>
      <trkpt lat="48.21199" lon="3.2653">
        <ele>66</ele>
        <time>2017-07-30T07:49:24Z</time>
      </trkpt>
      <trkpt lat="48.21207" lon="3.26521">
        <ele>67</ele>
        <time>2017-07-30T07:49:26Z</time>
      </trkpt>
      <trkpt lat="48.21216" lon="3.2651">
        <ele>67</ele>
        <time>2017-07-30T07:49:29Z</time>
      </trkpt>
      <trkpt lat="48.21225" lon="3.26498">
        <ele>72</ele>
        <time>2017-07-30T07:49:31Z</time>
      </trkpt>
      <trkpt lat="48.2123" lon="3.2649">
        <ele>72</ele>
        <time>2017-07-30T07:49:33Z</time>
      </trkpt>
      <trkpt lat="48.21232" lon="3.26477">
        <ele>73</ele>
        <time>2017-07-30T07:49:35Z</time>
      </trkpt>
      <trkpt lat="48.2124" lon="3.26465">
        <ele>74</ele>
        <time>2017-07-30T07:49:37Z</time>
      </trkpt>
      <trkpt lat="48.21247" lon="3.26452">
        <ele>76</ele>
        <time>2017-07-30T07:49:39Z</time>
      </trkpt>
      <trkpt lat="48.21254" lon="3.26441">
        <ele>75</ele>
        <time>2017-07-30T07:49:41Z</time>
      </trkpt>
      <trkpt lat="48.21262" lon="3.26429">
        <ele>76</ele>
        <time>2017-07-30T07:49:43Z</time>
      </trkpt>
      <trkpt lat="48.21272" lon="3.26421">
        <ele>75</ele>
        <time>2017-07-30T07:49:45Z</time>
      </trkpt>
      <trkpt lat="48.21281" lon="3.26414">
        <ele>83</ele>
        <time>2017-07-30T07:49:47Z</time>
      </trkpt>
      <trkpt lat="48.21292" lon="3.26409">
        <ele>82</ele>
        <time>2017-07-30T07:49:49Z</time>
      </trkpt>
      <trkpt lat="48.21303" lon="3.26405">
        <ele>82</ele>
        <time>2017-07-30T07:49:51Z</time>
      </trkpt>
      <trkpt lat="48.21316" lon="3.26404">
        <ele>80</ele>
        <time>2017-07-30T07:49:53Z</time>
      </trkpt>
      <trkpt lat="48.21327" lon="3.26406">
        <ele>78</ele>
        <time>2017-07-30T07:49:55Z</time>
      </trkpt>
      <trkpt lat="48.21339" lon="3.26406">
        <ele>75</ele>
        <time>2017-07-30T07:49:57Z</time>
      </trkpt>
      <trkpt lat="48.2135" lon="3.26407">
        <ele>76</ele>
        <time>2017-07-30T07:49:59Z</time>
      </trkpt>
      <trkpt lat="48.21361" lon="3.26407">
        <ele>76</ele>
        <time>2017-07-30T07:50:01Z</time>
      </trkpt>
      <trkpt lat="48.21374" lon="3.26406">
        <ele>76</ele>
        <time>2017-07-30T07:50:03Z</time>
      </trkpt>
      <trkpt lat="48.21385" lon="3.26403">
        <ele>75</ele>
        <time>2017-07-30T07:50:05Z</time>
      </trkpt>
      <trkpt lat="48.21398" lon="3.26401">
        <ele>75</ele>
        <time>2017-07-30T07:50:07Z</time>
      </trkpt>
      <trkpt lat="48.21409" lon="3.26399">
        <ele>74</ele>
        <time>2017-07-30T07:50:09Z</time>
      </trkpt>
      <trkpt lat="48.21421" lon="3.26397">
        <ele>71</ele>
        <time>2017-07-30T07:50:11Z</time>
      </trkpt>
      <trkpt lat="48.21433" lon="3.26394">
        <ele>71</ele>
        <time>2017-07-30T07:50:13Z</time>
      </trkpt>
      <trkpt lat="48.21446" lon="3.26392">
        <ele>71</ele>
        <time>2017-07-30T07:50:15Z</time>
      </trkpt>
      <trkpt lat="48.21458" lon="3.26389">
        <ele>71</ele>
        <time>2017-07-30T07:50:17Z</time>
      </trkpt>
      <trkpt lat="48.21471" lon="3.26386">
        <ele>71</ele>
        <time>2017-07-30T07:50:19Z</time>
      </trkpt>
      <trkpt lat="48.21484" lon="3.26384">
        <ele>70</ele>
        <time>2017-07-30T07:50:21Z</time>
      </trkpt>
      <trkpt lat="48.21498" lon="3.26382">
        <ele>70</ele>
        <time>2017-07-30T07:50:23Z</time>
      </trkpt>
      <trkpt lat="48.21511" lon="3.26378">
        <ele>67</ele>
        <time>2017-07-30T07:50:25Z</time>
      </trkpt>
      <trkpt lat="48.21524" lon="3.26372">
        <ele>67</ele>
        <time>2017-07-30T07:50:27Z</time>
      </trkpt>
      <trkpt lat="48.21536" lon="3.26366">
        <ele>67</ele>
        <time>2017-07-30T07:50:29Z</time>
      </trkpt>
      <trkpt lat="48.21538" lon="3.26348">
        <ele>67</ele>
        <time>2017-07-30T07:50:31Z</time>
      </trkpt>
      <trkpt lat="48.21536" lon="3.26339">
        <ele>67</ele>
        <time>2017-07-30T07:50:32Z</time>
      </trkpt>
      <trkpt lat="48.21528" lon="3.26324">
        <ele>68</ele>
        <time>2017-07-30T07:50:34Z</time>
      </trkpt>
      <trkpt lat="48.21521" lon="3.26309">
        <ele>68</ele>
        <time>2017-07-30T07:50:36Z</time>
      </trkpt>
      <trkpt lat="48.21514" lon="3.26295">
        <ele>67</ele>
        <time>2017-07-30T07:50:38Z</time>
      </trkpt>
      <trkpt lat="48.21507" lon="3.26282">
        <ele>67</ele>
        <time>2017-07-30T07:50:40Z</time>
      </trkpt>
      <trkpt lat="48.215" lon="3.26271">
        <ele>71</ele>
        <time>2017-07-30T07:50:42Z</time>
      </trkpt>
      <trkpt lat="48.21492" lon="3.26261">
        <ele>71</ele>
        <time>2017-07-30T07:50:44Z</time>
      </trkpt>
      <trkpt lat="48.21484" lon="3.26251">
        <ele>71</ele>
        <time>2017-07-30T07:50:46Z</time>
      </trkpt>
      <trkpt lat="48.21476" lon="3.26241">
        <ele>70</ele>
        <time>2017-07-30T07:50:48Z</time>
      </trkpt>
      <trkpt lat="48.21468" lon="3.26234">
        <ele>71</ele>
        <time>2017-07-30T07:50:50Z</time>
      </trkpt>
      <trkpt lat="48.21461" lon="3.26227">
        <ele>71</ele>
        <time>2017-07-30T07:50:52Z</time>
      </trkpt>
      <trkpt lat="48.21452" lon="3.2622">
        <ele>72</ele>
        <time>2017-07-30T07:50:54Z</time>
      </trkpt>
      <trkpt lat="48.21443" lon="3.26214">
        <ele>72</ele>
        <time>2017-07-30T07:50:56Z</time>
      </trkpt>
      <trkpt lat="48.21434" lon="3.2621">
        <ele>72</ele>
        <time>2017-07-30T07:50:58Z</time>
      </trkpt>
      <trkpt lat="48.21426" lon="3.26206">
        <ele>72</ele>
        <time>2017-07-30T07:51:00Z</time>
      </trkpt>
      <trkpt lat="48.21416" lon="3.26201">
        <ele>76</ele>
        <time>2017-07-30T07:51:02Z</time>
      </trkpt>
      <trkpt lat="48.21407" lon="3.26195">
        <ele>75</ele>
        <time>2017-07-30T07:51:04Z</time>
      </trkpt>
      <trkpt lat="48.21397" lon="3.2619">
        <ele>76</ele>
        <time>2017-07-30T07:51:06Z</time>
      </trkpt>
      <trkpt lat="48.21388" lon="3.26185">
        <ele>76</ele>
        <time>2017-07-30T07:51:08Z</time>
      </trkpt>
      <trkpt lat="48.21379" lon="3.26178">
        <ele>76</ele>
        <time>2017-07-30T07:51:10Z</time>
      </trkpt>
      <trkpt lat="48.2137" lon="3.26173">
        <ele>76</ele>
        <time>2017-07-30T07:51:12Z</time>
      </trkpt>
      <trkpt lat="48.21361" lon="3.26168">
        <ele>76</ele>
        <time>2017-07-30T07:51:14Z</time>
      </trkpt>
      <trkpt lat="48.21352" lon="3.26163">
        <ele>73</ele>
        <time>2017-07-30T07:51:16Z</time>
      </trkpt>
      <trkpt lat="48.21343" lon="3.26157">
        <ele>74</ele>
        <time>2017-07-30T07:51:18Z</time>
      </trkpt>
      <trkpt lat="48.21334" lon="3.26151">
        <ele>73</ele>
        <time>2017-07-30T07:51:20Z</time>
      </trkpt>
      <trkpt lat="48.21325" lon="3.26144">
        <ele>75</ele>
        <time>2017-07-30T07:51:22Z</time>
      </trkpt>
      <trkpt lat="48.21316" lon="3.26139">
        <ele>75</ele>
        <time>2017-07-30T07:51:24Z</time>
      </trkpt>
      <trkpt lat="48.21307" lon="3.26131">
        <ele>75</ele>
        <time>2017-07-30T07:51:26Z</time>
      </trkpt>
      <trkpt lat="48.21298" lon="3.26124">
        <ele>75</ele>
        <time>2017-07-30T07:51:28Z</time>
      </trkpt>
      <trkpt lat="48.21291" lon="3.26115">
        <ele>75</ele>
        <time>2017-07-30T07:51:30Z</time>
      </trkpt>
      <trkpt lat="48.21284" lon="3.26106">
        <ele>75</ele>
        <time>2017-07-30T07:51:32Z</time>
      </trkpt>
      <trkpt lat="48.21276" lon="3.26098">
        <ele>75</ele>
        <time>2017-07-30T07:51:34Z</time>
      </trkpt>
      <trkpt lat="48.21269" lon="3.26089">
        <ele>75</ele>
        <time>2017-07-30T07:51:36Z</time>
      </trkpt>
      <trkpt lat="48.21262" lon="3.26079">
        <ele>73</ele>
        <time>2017-07-30T07:51:38Z</time>
      </trkpt>
      <trkpt lat="48.21253" lon="3.26069">
        <ele>73</ele>
        <time>2017-07-30T07:51:40Z</time>
      </trkpt>
      <trkpt lat="48.21245" lon="3.26059">
        <ele>77</ele>
        <time>2017-07-30T07:51:42Z</time>
      </trkpt>
      <trkpt lat="48.21236" lon="3.26049">
        <ele>77</ele>
        <time>2017-07-30T07:51:44Z</time>
      </trkpt>
      <trkpt lat="48.21229" lon="3.26037">
        <ele>77</ele>
        <time>2017-07-30T07:51:46Z</time>
      </trkpt>
      <trkpt lat="48.2122" lon="3.26027">
        <ele>77</ele>
        <time>2017-07-30T07:51:48Z</time>
      </trkpt>
      <trkpt lat="48.21213" lon="3.26015">
        <ele>77</ele>
        <time>2017-07-30T07:51:50Z</time>
      </trkpt>
      <trkpt lat="48.21206" lon="3.26003">
        <ele>78</ele>
        <time>2017-07-30T07:51:52Z</time>
      </trkpt>
      <trkpt lat="48.21196" lon="3.2599">
        <ele>76</ele>
        <time>2017-07-30T07:51:54Z</time>
      </trkpt>
      <trkpt lat="48.21189" lon="3.2598">
        <ele>76</ele>
        <time>2017-07-30T07:51:56Z</time>
      </trkpt>
      <trkpt lat="48.21181" lon="3.25969">
        <ele>76</ele>
        <time>2017-07-30T07:51:58Z</time>
      </trkpt>
      <trkpt lat="48.21173" lon="3.25957">
        <ele>76</ele>
        <time>2017-07-30T07:52:00Z</time>
      </trkpt>
      <trkpt lat="48.21166" lon="3.25944">
        <ele>83</ele>
        <time>2017-07-30T07:52:02Z</time>
      </trkpt>
      <trkpt lat="48.21161" lon="3.25931">
        <ele>82</ele>
        <time>2017-07-30T07:52:04Z</time>
      </trkpt>
      <trkpt lat="48.21155" lon="3.25917">
        <ele>79</ele>
        <time>2017-07-30T07:52:06Z</time>
      </trkpt>
      <trkpt lat="48.21152" lon="3.25903">
        <ele>81</ele>
        <time>2017-07-30T07:52:08Z</time>
      </trkpt>
      <trkpt lat="48.21146" lon="3.25889">
        <ele>82</ele>
        <time>2017-07-30T07:52:10Z</time>
      </trkpt>
      <trkpt lat="48.21139" lon="3.25873">
        <ele>82</ele>
        <time>2017-07-30T07:52:12Z</time>
      </trkpt>
      <trkpt lat="48.21135" lon="3.25859">
        <ele>82</ele>
        <time>2017-07-30T07:52:14Z</time>
      </trkpt>
      <trkpt lat="48.2113" lon="3.25844">
        <ele>82</ele>
        <time>2017-07-30T07:52:16Z</time>
      </trkpt>
      <trkpt lat="48.21126" lon="3.25831">
        <ele>80</ele>
        <time>2017-07-30T07:52:18Z</time>
      </trkpt>
      <trkpt lat="48.21121" lon="3.25816">
        <ele>81</ele>
        <time>2017-07-30T07:52:20Z</time>
      </trkpt>
      <trkpt lat="48.21117" lon="3.25801">
        <ele>81</ele>
        <time>2017-07-30T07:52:22Z</time>
      </trkpt>
      <trkpt lat="48.21114" lon="3.25785">
        <ele>81</ele>
        <time>2017-07-30T07:52:24Z</time>
      </trkpt>
      <trkpt lat="48.21109" lon="3.25768">
        <ele>81</ele>
        <time>2017-07-30T07:52:26Z</time>
      </trkpt>
      <trkpt lat="48.21104" lon="3.2575">
        <ele>79</ele>
        <time>2017-07-30T07:52:28Z</time>
      </trkpt>
      <trkpt lat="48.211" lon="3.25733">
        <ele>79</ele>
        <time>2017-07-30T07:52:30Z</time>
      </trkpt>
      <trkpt lat="48.21094" lon="3.25718">
        <ele>79</ele>
        <time>2017-07-30T07:52:32Z</time>
      </trkpt>
      <trkpt lat="48.21095" lon="3.25704">
        <ele>78</ele>
        <time>2017-07-30T07:52:34Z</time>
      </trkpt>
      <trkpt lat="48.2109" lon="3.2569">
        <ele>78</ele>
        <time>2017-07-30T07:52:36Z</time>
      </trkpt>
      <trkpt lat="48.21081" lon="3.25676">
        <ele>80</ele>
        <time>2017-07-30T07:52:38Z</time>
      </trkpt>
      <trkpt lat="48.21073" lon="3.25665">
        <ele>79</ele>
        <time>2017-07-30T07:52:40Z</time>
      </trkpt>
      <trkpt lat="48.21065" lon="3.25656">
        <ele>80</ele>
        <time>2017-07-30T07:52:42Z</time>
      </trkpt>
      <trkpt lat="48.21056" lon="3.25645">
        <ele>81</ele>
        <time>2017-07-30T07:52:44Z</time>
      </trkpt>
      <trkpt lat="48.21047" lon="3.25636">
        <ele>81</ele>
        <time>2017-07-30T07:52:46Z</time>
      </trkpt>
      <trkpt lat="48.21039" lon="3.25627">
        <ele>82</ele>
        <time>2017-07-30T07:52:48Z</time>
      </trkpt>
      <trkpt lat="48.2103" lon="3.25617">
        <ele>82</ele>
        <time>2017-07-30T07:52:50Z</time>
      </trkpt>
      <trkpt lat="48.21023" lon="3.25613">
        <ele>82</ele>
        <time>2017-07-30T07:52:51Z</time>
      </trkpt>
      <trkpt lat="48.21014" lon="3.25607">
        <ele>82</ele>
        <time>2017-07-30T07:52:53Z</time>
      </trkpt>
      <trkpt lat="48.21001" lon="3.25606">
        <ele>82</ele>
        <time>2017-07-30T07:52:55Z</time>
      </trkpt>
      <trkpt lat="48.20993" lon="3.25601">
        <ele>85</ele>
        <time>2017-07-30T07:52:57Z</time>
      </trkpt>
      <trkpt lat="48.20984" lon="3.25595">
        <ele>85</ele>
        <time>2017-07-30T07:52:59Z</time>
      </trkpt>
      <trkpt lat="48.20975" lon="3.25591">
        <ele>86</ele>
        <time>2017-07-30T07:53:01Z</time>
      </trkpt>
      <trkpt lat="48.20968" lon="3.25586">
        <ele>86</ele>
        <time>2017-07-30T07:53:03Z</time>
      </trkpt>
      <trkpt lat="48.20961" lon="3.2558">
        <ele>82</ele>
        <time>2017-07-30T07:53:05Z</time>
      </trkpt>
      <trkpt lat="48.20953" lon="3.25574">
        <ele>83</ele>
        <time>2017-07-30T07:53:07Z</time>
      </trkpt>
      <trkpt lat="48.20947" lon="3.25568">
        <ele>83</ele>
        <time>2017-07-30T07:53:09Z</time>
      </trkpt>
      <trkpt lat="48.20941" lon="3.25561">
        <ele>83</ele>
        <time>2017-07-30T07:53:11Z</time>
      </trkpt>
      <trkpt lat="48.20933" lon="3.25554">
        <ele>83</ele>
        <time>2017-07-30T07:53:13Z</time>
      </trkpt>
      <trkpt lat="48.20925" lon="3.25547">
        <ele>83</ele>
        <time>2017-07-30T07:53:15Z</time>
      </trkpt>
      <trkpt lat="48.20918" lon="3.2554">
        <ele>83</ele>
        <time>2017-07-30T07:53:17Z</time>
      </trkpt>
      <trkpt lat="48.20911" lon="3.25533">
        <ele>84</ele>
        <time>2017-07-30T07:53:19Z</time>
      </trkpt>
      <trkpt lat="48.20902" lon="3.25525">
        <ele>84</ele>
        <time>2017-07-30T07:53:21Z</time>
      </trkpt>
      <trkpt lat="48.20892" lon="3.25518">
        <ele>84</ele>
        <time>2017-07-30T07:53:23Z</time>
      </trkpt>
      <trkpt lat="48.20884" lon="3.25515">
        <ele>84</ele>
        <time>2017-07-30T07:53:24Z</time>
      </trkpt>
      <trkpt lat="48.20876" lon="3.25512">
        <ele>84</ele>
        <time>2017-07-30T07:53:26Z</time>
      </trkpt>
      <trkpt lat="48.20869" lon="3.25509">
        <ele>84</ele>
        <time>2017-07-30T07:53:28Z</time>
      </trkpt>
      <trkpt lat="48.20862" lon="3.25506">
        <ele>84</ele>
        <time>2017-07-30T07:53:32Z</time>
      </trkpt>
      <trkpt lat="48.2087" lon="3.25514">
        <ele>84</ele>
        <time>2017-07-30T07:53:38Z</time>
      </trkpt>
      <trkpt lat="48.20879" lon="3.25519">
        <ele>84</ele>
        <time>2017-07-30T07:53:41Z</time>
      </trkpt>
      <trkpt lat="48.20887" lon="3.25522">
        <ele>84</ele>
        <time>2017-07-30T07:53:43Z</time>
      </trkpt>
      <trkpt lat="48.20894" lon="3.25526">
        <ele>84</ele>
        <time>2017-07-30T07:53:45Z</time>
      </trkpt>
      <trkpt lat="48.20901" lon="3.25531">
        <ele>84</ele>
        <time>2017-07-30T07:53:47Z</time>
      </trkpt>
      <trkpt lat="48.20909" lon="3.25536">
        <ele>85</ele>
        <time>2017-07-30T07:53:49Z</time>
      </trkpt>
      <trkpt lat="48.20916" lon="3.25541">
        <ele>85</ele>
        <time>2017-07-30T07:53:51Z</time>
      </trkpt>
      <trkpt lat="48.20923" lon="3.25547">
        <ele>83</ele>
        <time>2017-07-30T07:53:53Z</time>
      </trkpt>
      <trkpt lat="48.2093" lon="3.25553">
        <ele>83</ele>
        <time>2017-07-30T07:53:55Z</time>
      </trkpt>
      <trkpt lat="48.20936" lon="3.25561">
        <ele>83</ele>
        <time>2017-07-30T07:53:57Z</time>
      </trkpt>
      <trkpt lat="48.20944" lon="3.25568">
        <ele>83</ele>
        <time>2017-07-30T07:53:59Z</time>
      </trkpt>
      <trkpt lat="48.20952" lon="3.25577">
        <ele>83</ele>
        <time>2017-07-30T07:54:00Z</time>
      </trkpt>
      <trkpt lat="48.20961" lon="3.25584">
        <ele>87</ele>
        <time>2017-07-30T07:54:03Z</time>
      </trkpt>
      <trkpt lat="48.20973" lon="3.25592">
        <ele>86</ele>
        <time>2017-07-30T07:54:05Z</time>
      </trkpt>
      <trkpt lat="48.20986" lon="3.25599">
        <ele>85</ele>
        <time>2017-07-30T07:54:07Z</time>
      </trkpt>
      <trkpt lat="48.20994" lon="3.25602">
        <ele>85</ele>
        <time>2017-07-30T07:54:08Z</time>
      </trkpt>
      <trkpt lat="48.21007" lon="3.25607">
        <ele>82</ele>
        <time>2017-07-30T07:54:10Z</time>
      </trkpt>
      <trkpt lat="48.21015" lon="3.25611">
        <ele>82</ele>
        <time>2017-07-30T07:54:11Z</time>
      </trkpt>
      <trkpt lat="48.21025" lon="3.25618">
        <ele>82</ele>
        <time>2017-07-30T07:54:13Z</time>
      </trkpt>
      <trkpt lat="48.21037" lon="3.25628">
        <ele>82</ele>
        <time>2017-07-30T07:54:15Z</time>
      </trkpt>
      <trkpt lat="48.21048" lon="3.25642">
        <ele>82</ele>
        <time>2017-07-30T07:54:17Z</time>
      </trkpt>
      <trkpt lat="48.21055" lon="3.25648">
        <ele>81</ele>
        <time>2017-07-30T07:54:18Z</time>
      </trkpt>
      <trkpt lat="48.21067" lon="3.25658">
        <ele>80</ele>
        <time>2017-07-30T07:54:20Z</time>
      </trkpt>
      <trkpt lat="48.21079" lon="3.25669">
        <ele>79</ele>
        <time>2017-07-30T07:54:22Z</time>
      </trkpt>
      <trkpt lat="48.21087" lon="3.25679">
        <ele>77</ele>
        <time>2017-07-30T07:54:24Z</time>
      </trkpt>
      <trkpt lat="48.21096" lon="3.25685">
        <ele>77</ele>
        <time>2017-07-30T07:54:26Z</time>
      </trkpt>
      <trkpt lat="48.21103" lon="3.25677">
        <ele>77</ele>
        <time>2017-07-30T07:54:28Z</time>
      </trkpt>
      <trkpt lat="48.21105" lon="3.25666">
        <ele>77</ele>
        <time>2017-07-30T07:54:30Z</time>
      </trkpt>
      <trkpt lat="48.21108" lon="3.25651">
        <ele>77</ele>
        <time>2017-07-30T07:54:33Z</time>
      </trkpt>
      <trkpt lat="48.21108" lon="3.2564">
        <ele>77</ele>
        <time>2017-07-30T07:54:35Z</time>
      </trkpt>
      <trkpt lat="48.21111" lon="3.25628">
        <ele>77</ele>
        <time>2017-07-30T07:54:37Z</time>
      </trkpt>
      <trkpt lat="48.2111" lon="3.25613">
        <ele>77</ele>
        <time>2017-07-30T07:54:40Z</time>
      </trkpt>
      <trkpt lat="48.21112" lon="3.256">
        <ele>77</ele>
        <time>2017-07-30T07:54:42Z</time>
      </trkpt>
      <trkpt lat="48.21114" lon="3.25588">
        <ele>78</ele>
        <time>2017-07-30T07:54:44Z</time>
      </trkpt>
      <trkpt lat="48.21115" lon="3.25576">
        <ele>79</ele>
        <time>2017-07-30T07:54:46Z</time>
      </trkpt>
      <trkpt lat="48.21117" lon="3.25562">
        <ele>80</ele>
        <time>2017-07-30T07:54:48Z</time>
      </trkpt>
      <trkpt lat="48.2112" lon="3.2555">
        <ele>80</ele>
        <time>2017-07-30T07:54:50Z</time>
      </trkpt>
      <trkpt lat="48.21123" lon="3.25538">
        <ele>80</ele>
        <time>2017-07-30T07:54:52Z</time>
      </trkpt>
      <trkpt lat="48.21125" lon="3.25526">
        <ele>81</ele>
        <time>2017-07-30T07:54:54Z</time>
      </trkpt>
      <trkpt lat="48.21128" lon="3.25515">
        <ele>81</ele>
        <time>2017-07-30T07:54:56Z</time>
      </trkpt>
      <trkpt lat="48.21132" lon="3.25502">
        <ele>81</ele>
        <time>2017-07-30T07:54:59Z</time>
      </trkpt>
      <trkpt lat="48.21138" lon="3.2549">
        <ele>84</ele>
        <time>2017-07-30T07:55:02Z</time>
      </trkpt>
      <trkpt lat="48.21143" lon="3.25479">
        <ele>84</ele>
        <time>2017-07-30T07:55:05Z</time>
      </trkpt>
      <trkpt lat="48.21142" lon="3.25465">
        <ele>84</ele>
        <time>2017-07-30T07:55:08Z</time>
      </trkpt>
      <trkpt lat="48.21136" lon="3.25456">
        <ele>85</ele>
        <time>2017-07-30T07:55:11Z</time>
      </trkpt>
      <trkpt lat="48.21129" lon="3.25449">
        <ele>85</ele>
        <time>2017-07-30T07:55:14Z</time>
      </trkpt>
      <trkpt lat="48.21122" lon="3.2544">
        <ele>85</ele>
        <time>2017-07-30T07:55:18Z</time>
      </trkpt>
      <trkpt lat="48.21116" lon="3.25432">
        <ele>86</ele>
        <time>2017-07-30T07:55:21Z</time>
      </trkpt>
      <trkpt lat="48.2111" lon="3.25423">
        <ele>86</ele>
        <time>2017-07-30T07:55:24Z</time>
      </trkpt>
      <trkpt lat="48.21103" lon="3.25412">
        <ele>89</ele>
        <time>2017-07-30T07:55:28Z</time>
      </trkpt>
      <trkpt lat="48.21098" lon="3.25403">
        <ele>90</ele>
        <time>2017-07-30T07:55:31Z</time>
      </trkpt>
      <trkpt lat="48.21092" lon="3.25393">
        <ele>90</ele>
        <time>2017-07-30T07:55:34Z</time>
      </trkpt>
      <trkpt lat="48.21086" lon="3.25386">
        <ele>90</ele>
        <time>2017-07-30T07:55:37Z</time>
      </trkpt>
      <trkpt lat="48.21081" lon="3.25375">
        <ele>94</ele>
        <time>2017-07-30T07:55:41Z</time>
      </trkpt>
      <trkpt lat="48.21073" lon="3.25367">
        <ele>95</ele>
        <time>2017-07-30T07:55:45Z</time>
      </trkpt>
      <trkpt lat="48.21067" lon="3.2536">
        <ele>95</ele>
        <time>2017-07-30T07:55:49Z</time>
      </trkpt>
      <trkpt lat="48.21062" lon="3.25351">
        <ele>96</ele>
        <time>2017-07-30T07:55:53Z</time>
      </trkpt>
      <trkpt lat="48.21057" lon="3.25342">
        <ele>96</ele>
        <time>2017-07-30T07:55:57Z</time>
      </trkpt>
      <trkpt lat="48.21051" lon="3.25336">
        <ele>96</ele>
        <time>2017-07-30T07:56:00Z</time>
      </trkpt>
      <trkpt lat="48.21044" lon="3.2533">
        <ele>100</ele>
        <time>2017-07-30T07:56:05Z</time>
      </trkpt>
      <trkpt lat="48.21036" lon="3.25321">
        <ele>100</ele>
        <time>2017-07-30T07:56:09Z</time>
      </trkpt>
      <trkpt lat="48.21031" lon="3.2531">
        <ele>101</ele>
        <time>2017-07-30T07:56:13Z</time>
      </trkpt>
      <trkpt lat="48.21027" lon="3.25299">
        <ele>101</ele>
        <time>2017-07-30T07:56:17Z</time>
      </trkpt>
      <trkpt lat="48.21023" lon="3.25289">
        <ele>101</ele>
        <time>2017-07-30T07:56:20Z</time>
      </trkpt>
      <trkpt lat="48.21019" lon="3.25278">
        <ele>102</ele>
        <time>2017-07-30T07:56:24Z</time>
      </trkpt>
      <trkpt lat="48.21016" lon="3.25266">
        <ele>103</ele>
        <time>2017-07-30T07:56:28Z</time>
      </trkpt>
      <trkpt lat="48.21011" lon="3.25255">
        <ele>105</ele>
        <time>2017-07-30T07:56:32Z</time>
      </trkpt>
      <trkpt lat="48.21004" lon="3.25247">
        <ele>107</ele>
        <time>2017-07-30T07:56:35Z</time>
      </trkpt>
      <trkpt lat="48.20997" lon="3.2524">
        <ele>109</ele>
        <time>2017-07-30T07:56:38Z</time>
      </trkpt>
      <trkpt lat="48.20991" lon="3.25231">
        <ele>110</ele>
        <time>2017-07-30T07:56:42Z</time>
      </trkpt>
      <trkpt lat="48.20983" lon="3.25223">
        <ele>110</ele>
        <time>2017-07-30T07:56:46Z</time>
      </trkpt>
      <trkpt lat="48.20975" lon="3.25218">
        <ele>111</ele>
        <time>2017-07-30T07:56:50Z</time>
      </trkpt>
      <trkpt lat="48.20966" lon="3.25215">
        <ele>111</ele>
        <time>2017-07-30T07:56:54Z</time>
      </trkpt>
      <trkpt lat="48.20958" lon="3.25211">
        <ele>111</ele>
        <time>2017-07-30T07:56:58Z</time>
      </trkpt>
      <trkpt lat="48.20951" lon="3.25207">
        <ele>112</ele>
        <time>2017-07-30T07:57:00Z</time>
      </trkpt>
      <trkpt lat="48.20944" lon="3.25197">
        <ele>113</ele>
        <time>2017-07-30T07:57:05Z</time>
      </trkpt>
      <trkpt lat="48.20938" lon="3.25187">
        <ele>114</ele>
        <time>2017-07-30T07:57:08Z</time>
      </trkpt>
      <trkpt lat="48.20932" lon="3.25179">
        <ele>115</ele>
        <time>2017-07-30T07:57:13Z</time>
      </trkpt>
      <trkpt lat="48.20926" lon="3.2517">
        <ele>116</ele>
        <time>2017-07-30T07:57:17Z</time>
      </trkpt>
      <trkpt lat="48.20919" lon="3.25162">
        <ele>118</ele>
        <time>2017-07-30T07:57:21Z</time>
      </trkpt>
      <trkpt lat="48.20912" lon="3.25155">
        <ele>120</ele>
        <time>2017-07-30T07:57:25Z</time>
      </trkpt>
      <trkpt lat="48.20906" lon="3.25147">
        <ele>121</ele>
        <time>2017-07-30T07:57:29Z</time>
      </trkpt>
      <trkpt lat="48.20899" lon="3.2514">
        <ele>121</ele>
        <time>2017-07-30T07:57:33Z</time>
      </trkpt>
      <trkpt lat="48.20894" lon="3.25132">
        <ele>121</ele>
        <time>2017-07-30T07:57:37Z</time>
      </trkpt>
      <trkpt lat="48.20888" lon="3.25124">
        <ele>122</ele>
        <time>2017-07-30T07:57:41Z</time>
      </trkpt>
      <trkpt lat="48.20882" lon="3.25113">
        <ele>122</ele>
        <time>2017-07-30T07:57:45Z</time>
      </trkpt>
      <trkpt lat="48.20876" lon="3.25106">
        <ele>122</ele>
        <time>2017-07-30T07:57:48Z</time>
      </trkpt>
      <trkpt lat="48.20869" lon="3.25097">
        <ele>123</ele>
        <time>2017-07-30T07:57:52Z</time>
      </trkpt>
      <trkpt lat="48.20863" lon="3.25091">
        <ele>124</ele>
        <time>2017-07-30T07:57:55Z</time>
      </trkpt>
      <trkpt lat="48.20856" lon="3.25084">
        <ele>125</ele>
        <time>2017-07-30T07:57:59Z</time>
      </trkpt>
      <trkpt lat="48.20848" lon="3.25075">
        <ele>127</ele>
        <time>2017-07-30T07:58:03Z</time>
      </trkpt>
      <trkpt lat="48.20841" lon="3.25068">
        <ele>127</ele>
        <time>2017-07-30T07:58:07Z</time>
      </trkpt>
      <trkpt lat="48.20835" lon="3.2506">
        <ele>127</ele>
        <time>2017-07-30T07:58:10Z</time>
      </trkpt>
      <trkpt lat="48.20828" lon="3.25052">
        <ele>130</ele>
        <time>2017-07-30T07:58:14Z</time>
      </trkpt>
      <trkpt lat="48.20822" lon="3.25044">
        <ele>130</ele>
        <time>2017-07-30T07:58:17Z</time>
      </trkpt>
      <trkpt lat="48.20816" lon="3.25036">
        <ele>130</ele>
        <time>2017-07-30T07:58:21Z</time>
      </trkpt>
      <trkpt lat="48.2081" lon="3.25027">
        <ele>131</ele>
        <time>2017-07-30T07:58:25Z</time>
      </trkpt>
      <trkpt lat="48.20802" lon="3.2502">
        <ele>131</ele>
        <time>2017-07-30T07:58:29Z</time>
      </trkpt>
      <trkpt lat="48.20794" lon="3.25012">
        <ele>131</ele>
        <time>2017-07-30T07:58:33Z</time>
      </trkpt>
      <trkpt lat="48.20788" lon="3.25005">
        <ele>131</ele>
        <time>2017-07-30T07:58:36Z</time>
      </trkpt>
      <trkpt lat="48.20782" lon="3.24999">
        <ele>132</ele>
        <time>2017-07-30T07:58:39Z</time>
      </trkpt>
      <trkpt lat="48.20776" lon="3.24991">
        <ele>132</ele>
        <time>2017-07-30T07:58:42Z</time>
      </trkpt>
      <trkpt lat="48.20769" lon="3.24984">
        <ele>132</ele>
        <time>2017-07-30T07:58:45Z</time>
      </trkpt>
      <trkpt lat="48.20761" lon="3.24975">
        <ele>132</ele>
        <time>2017-07-30T07:58:48Z</time>
      </trkpt>
      <trkpt lat="48.20754" lon="3.24969">
        <ele>132</ele>
        <time>2017-07-30T07:58:51Z</time>
      </trkpt>
      <trkpt lat="48.20747" lon="3.24963">
        <ele>134</ele>
        <time>2017-07-30T07:58:53Z</time>
      </trkpt>
      <trkpt lat="48.2074" lon="3.24957">
        <ele>134</ele>
        <time>2017-07-30T07:58:56Z</time>
      </trkpt>
      <trkpt lat="48.20733" lon="3.24948">
        <ele>134</ele>
        <time>2017-07-30T07:59:00Z</time>
      </trkpt>
      <trkpt lat="48.20726" lon="3.24942">
        <ele>134</ele>
        <time>2017-07-30T07:59:03Z</time>
      </trkpt>
      <trkpt lat="48.2072" lon="3.24933">
        <ele>134</ele>
        <time>2017-07-30T07:59:07Z</time>
      </trkpt>
      <trkpt lat="48.20713" lon="3.24925">
        <ele>135</ele>
        <time>2017-07-30T07:59:10Z</time>
      </trkpt>
      <trkpt lat="48.20706" lon="3.24917">
        <ele>135</ele>
        <time>2017-07-30T07:59:12Z</time>
      </trkpt>
      <trkpt lat="48.207" lon="3.24907">
        <ele>136</ele>
        <time>2017-07-30T07:59:17Z</time>
      </trkpt>
      <trkpt lat="48.20693" lon="3.24899">
        <ele>136</ele>
        <time>2017-07-30T07:59:20Z</time>
      </trkpt>
      <trkpt lat="48.20688" lon="3.24891">
        <ele>136</ele>
        <time>2017-07-30T07:59:23Z</time>
      </trkpt>
      <trkpt lat="48.20682" lon="3.24883">
        <ele>136</ele>
        <time>2017-07-30T07:59:26Z</time>
      </trkpt>
      <trkpt lat="48.20677" lon="3.24874">
        <ele>136</ele>
        <time>2017-07-30T07:59:29Z</time>
      </trkpt>
      <trkpt lat="48.20672" lon="3.24865">
        <ele>137</ele>
        <time>2017-07-30T07:59:32Z</time>
      </trkpt>
      <trkpt lat="48.20668" lon="3.24856">
        <ele>138</ele>
        <time>2017-07-30T07:59:35Z</time>
      </trkpt>
      <trkpt lat="48.20662" lon="3.24846">
        <ele>141</ele>
        <time>2017-07-30T07:59:38Z</time>
      </trkpt>
      <trkpt lat="48.20658" lon="3.24836">
        <ele>141</ele>
        <time>2017-07-30T07:59:41Z</time>
      </trkpt>
      <trkpt lat="48.20653" lon="3.24826">
        <ele>142</ele>
        <time>2017-07-30T07:59:44Z</time>
      </trkpt>
      <trkpt lat="48.20648" lon="3.24815">
        <ele>142</ele>
        <time>2017-07-30T07:59:47Z</time>
      </trkpt>
      <trkpt lat="48.20642" lon="3.24803">
        <ele>142</ele>
        <time>2017-07-30T07:59:50Z</time>
      </trkpt>
      <trkpt lat="48.20637" lon="3.24795">
        <ele>142</ele>
        <time>2017-07-30T07:59:52Z</time>
      </trkpt>
      <trkpt lat="48.20631" lon="3.24784">
        <ele>142</ele>
        <time>2017-07-30T07:59:55Z</time>
      </trkpt>
      <trkpt lat="48.20625" lon="3.24776">
        <ele>143</ele>
        <time>2017-07-30T07:59:57Z</time>
      </trkpt>
      <trkpt lat="48.20619" lon="3.24769">
        <ele>143</ele>
        <time>2017-07-30T07:59:59Z</time>
      </trkpt>
      <trkpt lat="48.20612" lon="3.24762">
        <ele>144</ele>
        <time>2017-07-30T08:00:00Z</time>
      </trkpt>
      <trkpt lat="48.20605" lon="3.24758">
        <ele>145</ele>
        <time>2017-07-30T08:00:03Z</time>
      </trkpt>
      <trkpt lat="48.20595" lon="3.24754">
        <ele>146</ele>
        <time>2017-07-30T08:00:06Z</time>
      </trkpt>
      <trkpt lat="48.20587" lon="3.24751">
        <ele>148</ele>
        <time>2017-07-30T08:00:09Z</time>
      </trkpt>
      <trkpt lat="48.20581" lon="3.24746">
        <ele>149</ele>
        <time>2017-07-30T08:00:12Z</time>
      </trkpt>
      <trkpt lat="48.20571" lon="3.24746">
        <ele>150</ele>
        <time>2017-07-30T08:00:18Z</time>
      </trkpt>
      <trkpt lat="48.20563" lon="3.24741">
        <ele>150</ele>
        <time>2017-07-30T08:00:22Z</time>
      </trkpt>
      <trkpt lat="48.20555" lon="3.24739">
        <ele>150</ele>
        <time>2017-07-30T08:00:25Z</time>
      </trkpt>
      <trkpt lat="48.20549" lon="3.24732">
        <ele>151</ele>
        <time>2017-07-30T08:00:30Z</time>
      </trkpt>
      <trkpt lat="48.2055" lon="3.24719">
        <ele>151</ele>
        <time>2017-07-30T08:00:35Z</time>
      </trkpt>
      <trkpt lat="48.20553" lon="3.24709">
        <ele>151</ele>
        <time>2017-07-30T08:00:38Z</time>
      </trkpt>
      <trkpt lat="48.20552" lon="3.24695">
        <ele>152</ele>
        <time>2017-07-30T08:00:41Z</time>
      </trkpt>
      <trkpt lat="48.20555" lon="3.24679">
        <ele>152</ele>
        <time>2017-07-30T08:00:44Z</time>
      </trkpt>
      <trkpt lat="48.20555" lon="3.24668">
        <ele>152</ele>
        <time>2017-07-30T08:00:46Z</time>
      </trkpt>
      <trkpt lat="48.20559" lon="3.24653">
        <ele>154</ele>
        <time>2017-07-30T08:00:48Z</time>
      </trkpt>
      <trkpt lat="48.2056" lon="3.24637">
        <ele>154</ele>
        <time>2017-07-30T08:00:51Z</time>
      </trkpt>
      <trkpt lat="48.20562" lon="3.24626">
        <ele>154</ele>
        <time>2017-07-30T08:00:53Z</time>
      </trkpt>
      <trkpt lat="48.20562" lon="3.24611">
        <ele>153</ele>
        <time>2017-07-30T08:00:55Z</time>
      </trkpt>
      <trkpt lat="48.20562" lon="3.24598">
        <ele>153</ele>
        <time>2017-07-30T08:00:58Z</time>
      </trkpt>
      <trkpt lat="48.20557" lon="3.24584">
        <ele>153</ele>
        <time>2017-07-30T08:01:01Z</time>
      </trkpt>
      <trkpt lat="48.20555" lon="3.24572">
        <ele>152</ele>
        <time>2017-07-30T08:01:03Z</time>
      </trkpt>
      <trkpt lat="48.20547" lon="3.24557">
        <ele>152</ele>
        <time>2017-07-30T08:01:05Z</time>
      </trkpt>
      <trkpt lat="48.20538" lon="3.24546">
        <ele>152</ele>
        <time>2017-07-30T08:01:07Z</time>
      </trkpt>
      <trkpt lat="48.20535" lon="3.24535">
        <ele>152</ele>
        <time>2017-07-30T08:01:10Z</time>
      </trkpt>
      <trkpt lat="48.20537" lon="3.24522">
        <ele>152</ele>
        <time>2017-07-30T08:01:13Z</time>
      </trkpt>
      <trkpt lat="48.20538" lon="3.24509">
        <ele>152</ele>
        <time>2017-07-30T08:01:15Z</time>
      </trkpt>
      <trkpt lat="48.20542" lon="3.2449">
        <ele>149</ele>
        <time>2017-07-30T08:01:17Z</time>
      </trkpt>
      <trkpt lat="48.20542" lon="3.24474">
        <ele>148</ele>
        <time>2017-07-30T08:01:19Z</time>
      </trkpt>
      <trkpt lat="48.2054" lon="3.2446">
        <ele>149</ele>
        <time>2017-07-30T08:01:21Z</time>
      </trkpt>
      <trkpt lat="48.20539" lon="3.24446">
        <ele>148</ele>
        <time>2017-07-30T08:01:23Z</time>
      </trkpt>
      <trkpt lat="48.20535" lon="3.24431">
        <ele>149</ele>
        <time>2017-07-30T08:01:25Z</time>
      </trkpt>
      <trkpt lat="48.20532" lon="3.2442">
        <ele>149</ele>
        <time>2017-07-30T08:01:30Z</time>
      </trkpt>
      <trkpt lat="48.20525" lon="3.24411">
        <ele>149</ele>
        <time>2017-07-30T08:01:32Z</time>
      </trkpt>
      <trkpt lat="48.20523" lon="3.244">
        <ele>149</ele>
        <time>2017-07-30T08:01:35Z</time>
      </trkpt>
      <trkpt lat="48.2053" lon="3.2439">
        <ele>148</ele>
        <time>2017-07-30T08:01:38Z</time>
      </trkpt>
      <trkpt lat="48.20526" lon="3.2438">
        <ele>148</ele>
        <time>2017-07-30T08:01:41Z</time>
      </trkpt>
      <trkpt lat="48.20527" lon="3.24368">
        <ele>147</ele>
        <time>2017-07-30T08:01:43Z</time>
      </trkpt>
      <trkpt lat="48.20523" lon="3.24357">
        <ele>148</ele>
        <time>2017-07-30T08:01:45Z</time>
      </trkpt>
      <trkpt lat="48.20518" lon="3.24348">
        <ele>149</ele>
        <time>2017-07-30T08:01:47Z</time>
      </trkpt>
      <trkpt lat="48.20518" lon="3.24332">
        <ele>149</ele>
        <time>2017-07-30T08:01:49Z</time>
      </trkpt>
      <trkpt lat="48.20515" lon="3.24317">
        <ele>148</ele>
        <time>2017-07-30T08:01:51Z</time>
      </trkpt>
      <trkpt lat="48.20516" lon="3.24295">
        <ele>147</ele>
        <time>2017-07-30T08:01:53Z</time>
      </trkpt>
      <trkpt lat="48.20509" lon="3.24289">
        <ele>147</ele>
        <time>2017-07-30T08:01:55Z</time>
      </trkpt>
      <trkpt lat="48.20512" lon="3.24276">
        <ele>147</ele>
        <time>2017-07-30T08:01:57Z</time>
      </trkpt>
      <trkpt lat="48.20509" lon="3.2426">
        <ele>149</ele>
        <time>2017-07-30T08:01:59Z</time>
      </trkpt>
      <trkpt lat="48.20506" lon="3.24247">
        <ele>149</ele>
        <time>2017-07-30T08:02:01Z</time>
      </trkpt>
      <trkpt lat="48.20496" lon="3.24235">
        <ele>153</ele>
        <time>2017-07-30T08:02:03Z</time>
      </trkpt>
      <trkpt lat="48.20495" lon="3.24222">
        <ele>153</ele>
        <time>2017-07-30T08:02:05Z</time>
      </trkpt>
      <trkpt lat="48.20496" lon="3.24211">
        <ele>152</ele>
        <time>2017-07-30T08:02:07Z</time>
      </trkpt>
      <trkpt lat="48.20497" lon="3.24198">
        <ele>151</ele>
        <time>2017-07-30T08:02:09Z</time>
      </trkpt>
      <trkpt lat="48.205" lon="3.24187">
        <ele>150</ele>
        <time>2017-07-30T08:02:11Z</time>
      </trkpt>
      <trkpt lat="48.20501" lon="3.24174">
        <ele>145</ele>
        <time>2017-07-30T08:02:13Z</time>
      </trkpt>
      <trkpt lat="48.20505" lon="3.24159">
        <ele>143</ele>
        <time>2017-07-30T08:02:15Z</time>
      </trkpt>
      <trkpt lat="48.20504" lon="3.24146">
        <ele>141</ele>
        <time>2017-07-30T08:02:17Z</time>
      </trkpt>
      <trkpt lat="48.20504" lon="3.24135">
        <ele>140</ele>
        <time>2017-07-30T08:02:20Z</time>
      </trkpt>
      <trkpt lat="48.20501" lon="3.24124">
        <ele>139</ele>
        <time>2017-07-30T08:02:25Z</time>
      </trkpt>
      <trkpt lat="48.20509" lon="3.24121">
        <ele>139</ele>
        <time>2017-07-30T08:02:29Z</time>
      </trkpt>
      <trkpt lat="48.20518" lon="3.24111">
        <ele>138</ele>
        <time>2017-07-30T08:02:31Z</time>
      </trkpt>
      <trkpt lat="48.20523" lon="3.241">
        <ele>138</ele>
        <time>2017-07-30T08:02:34Z</time>
      </trkpt>
      <trkpt lat="48.20534" lon="3.24088">
        <ele>137</ele>
        <time>2017-07-30T08:02:36Z</time>
      </trkpt>
      <trkpt lat="48.20541" lon="3.24076">
        <ele>135</ele>
        <time>2017-07-30T08:02:38Z</time>
      </trkpt>
      <trkpt lat="48.20546" lon="3.24063">
        <ele>135</ele>
        <time>2017-07-30T08:02:40Z</time>
      </trkpt>
      <trkpt lat="48.20549" lon="3.24052">
        <ele>135</ele>
        <time>2017-07-30T08:02:43Z</time>
      </trkpt>
      <trkpt lat="48.20554" lon="3.24044">
        <ele>135</ele>
        <time>2017-07-30T08:02:50Z</time>
      </trkpt>
      <trkpt lat="48.2056" lon="3.24036">
        <ele>135</ele>
        <time>2017-07-30T08:02:53Z</time>
      </trkpt>
      <trkpt lat="48.20565" lon="3.24028">
        <ele>135</ele>
        <time>2017-07-30T08:02:57Z</time>
      </trkpt>
      <trkpt lat="48.20565" lon="3.24023">
        <ele>135</ele>
        <time>2017-07-30T08:03:04Z</time>
      </trkpt>
      <trkpt lat="48.20564" lon="3.24022">
        <ele>135</ele>
        <time>2017-07-30T08:03:09Z</time>
      </trkpt>
      <trkpt lat="48.20569" lon="3.24013">
        <ele>135</ele>
        <time>2017-07-30T08:03:16Z</time>
      </trkpt>
      <trkpt lat="48.20568" lon="3.24009">
        <ele>135</ele>
        <time>2017-07-30T08:03:23Z</time>
      </trkpt>
      <trkpt lat="48.20568" lon="3.24009">
        <ele>135</ele>
        <time>2017-07-30T08:03:27Z</time>
      </trkpt>
      <trkpt lat="48.2057" lon="3.24008">
        <ele>135</ele>
        <time>2017-07-30T08:03:35Z</time>
      </trkpt>
      <trkpt lat="48.20571" lon="3.24002">
        <ele>135</ele>
        <time>2017-07-30T08:03:42Z</time>
      </trkpt>
      <trkpt lat="48.20562" lon="3.23993">
        <ele>135</ele>
        <time>2017-07-30T08:03:45Z</time>
      </trkpt>
      <trkpt lat="48.20557" lon="3.23985">
        <ele>135</ele>
        <time>2017-07-30T08:03:47Z</time>
      </trkpt>
      <trkpt lat="48.20556" lon="3.23974">
        <ele>135</ele>
        <time>2017-07-30T08:03:49Z</time>
      </trkpt>
      <trkpt lat="48.20553" lon="3.23959">
        <ele>135</ele>
        <time>2017-07-30T08:03:52Z</time>
      </trkpt>
      <trkpt lat="48.20552" lon="3.23947">
        <ele>135</ele>
        <time>2017-07-30T08:03:56Z</time>
      </trkpt>
      <trkpt lat="48.20543" lon="3.23941">
        <ele>135</ele>
        <time>2017-07-30T08:03:59Z</time>
      </trkpt>
      <trkpt lat="48.20544" lon="3.23928">
        <ele>135</ele>
        <time>2017-07-30T08:04:03Z</time>
      </trkpt>
      <trkpt lat="48.20545" lon="3.23917">
        <ele>134</ele>
        <time>2017-07-30T08:04:06Z</time>
      </trkpt>
      <trkpt lat="48.20547" lon="3.23904">
        <ele>135</ele>
        <time>2017-07-30T08:04:09Z</time>
      </trkpt>
      <trkpt lat="48.20547" lon="3.23893">
        <ele>134</ele>
        <time>2017-07-30T08:04:11Z</time>
      </trkpt>
      <trkpt lat="48.20544" lon="3.23879">
        <ele>134</ele>
        <time>2017-07-30T08:04:13Z</time>
      </trkpt>
      <trkpt lat="48.20541" lon="3.23868">
        <ele>134</ele>
        <time>2017-07-30T08:04:15Z</time>
      </trkpt>
      <trkpt lat="48.20535" lon="3.23852">
        <ele>134</ele>
        <time>2017-07-30T08:04:18Z</time>
      </trkpt>
      <trkpt lat="48.20532" lon="3.23835">
        <ele>134</ele>
        <time>2017-07-30T08:04:21Z</time>
      </trkpt>
      <trkpt lat="48.20532" lon="3.23824">
        <ele>135</ele>
        <time>2017-07-30T08:04:23Z</time>
      </trkpt>
      <trkpt lat="48.20529" lon="3.23817">
        <ele>135</ele>
        <time>2017-07-30T08:04:30Z</time>
      </trkpt>
      <trkpt lat="48.20531" lon="3.23811">
        <ele>135</ele>
        <time>2017-07-30T08:04:37Z</time>
      </trkpt>
      <trkpt lat="48.20535" lon="3.23803">
        <ele>135</ele>
        <time>2017-07-30T08:04:44Z</time>
      </trkpt>
      <trkpt lat="48.20539" lon="3.23798">
        <ele>135</ele>
        <time>2017-07-30T08:04:51Z</time>
      </trkpt>
      <trkpt lat="48.20541" lon="3.23792">
        <ele>135</ele>
        <time>2017-07-30T08:04:58Z</time>
      </trkpt>
      <trkpt lat="48.20542" lon="3.23792">
        <ele>136</ele>
        <time>2017-07-30T08:05:05Z</time>
      </trkpt>
      <trkpt lat="48.20542" lon="3.23791">
        <ele>136</ele>
        <time>2017-07-30T08:05:06Z</time>
      </trkpt>
      <trkpt lat="48.20543" lon="3.23791">
        <ele>136</ele>
        <time>2017-07-30T08:05:14Z</time>
      </trkpt>
      <trkpt lat="48.20548" lon="3.23782">
        <ele>136</ele>
        <time>2017-07-30T08:05:18Z</time>
      </trkpt>
      <trkpt lat="48.20555" lon="3.23774">
        <ele>136</ele>
        <time>2017-07-30T08:05:22Z</time>
      </trkpt>
      <trkpt lat="48.20562" lon="3.23768">
        <ele>137</ele>
        <time>2017-07-30T08:05:27Z</time>
      </trkpt>
      <trkpt lat="48.2057" lon="3.23761">
        <ele>138</ele>
        <time>2017-07-30T08:05:31Z</time>
      </trkpt>
      <trkpt lat="48.20574" lon="3.23749">
        <ele>139</ele>
        <time>2017-07-30T08:05:34Z</time>
      </trkpt>
      <trkpt lat="48.20579" lon="3.23738">
        <ele>139</ele>
        <time>2017-07-30T08:05:39Z</time>
      </trkpt>
      <trkpt lat="48.20577" lon="3.23724">
        <ele>138</ele>
        <time>2017-07-30T08:05:43Z</time>
      </trkpt>
      <trkpt lat="48.20583" lon="3.23717">
        <ele>138</ele>
        <time>2017-07-30T08:05:48Z</time>
      </trkpt>
      <trkpt lat="48.20588" lon="3.23707">
        <ele>141</ele>
        <time>2017-07-30T08:05:52Z</time>
      </trkpt>
      <trkpt lat="48.2059" lon="3.23696">
        <ele>141</ele>
        <time>2017-07-30T08:05:56Z</time>
      </trkpt>
      <trkpt lat="48.2059" lon="3.23685">
        <ele>141</ele>
        <time>2017-07-30T08:05:59Z</time>
      </trkpt>
      <trkpt lat="48.20591" lon="3.23674">
        <ele>140</ele>
        <time>2017-07-30T08:06:02Z</time>
      </trkpt>
      <trkpt lat="48.20597" lon="3.23667">
        <ele>141</ele>
        <time>2017-07-30T08:06:06Z</time>
      </trkpt>
      <trkpt lat="48.20602" lon="3.23657">
        <ele>142</ele>
        <time>2017-07-30T08:06:09Z</time>
      </trkpt>
      <trkpt lat="48.20604" lon="3.23643">
        <ele>143</ele>
        <time>2017-07-30T08:06:13Z</time>
      </trkpt>
      <trkpt lat="48.20607" lon="3.23629">
        <ele>143</ele>
        <time>2017-07-30T08:06:16Z</time>
      </trkpt>
      <trkpt lat="48.20608" lon="3.23617">
        <ele>143</ele>
        <time>2017-07-30T08:06:19Z</time>
      </trkpt>
      <trkpt lat="48.20604" lon="3.23607">
        <ele>143</ele>
        <time>2017-07-30T08:06:21Z</time>
      </trkpt>
      <trkpt lat="48.20599" lon="3.2359">
        <ele>142</ele>
        <time>2017-07-30T08:06:23Z</time>
      </trkpt>
      <trkpt lat="48.20599" lon="3.23579">
        <ele>143</ele>
        <time>2017-07-30T08:06:25Z</time>
      </trkpt>
      <trkpt lat="48.20593" lon="3.23568">
        <ele>144</ele>
        <time>2017-07-30T08:06:27Z</time>
      </trkpt>
      <trkpt lat="48.20581" lon="3.23567">
        <ele>140</ele>
        <time>2017-07-30T08:06:29Z</time>
      </trkpt>
      <trkpt lat="48.20572" lon="3.23561">
        <ele>139</ele>
        <time>2017-07-30T08:06:31Z</time>
      </trkpt>
      <trkpt lat="48.20562" lon="3.23555">
        <ele>139</ele>
        <time>2017-07-30T08:06:33Z</time>
      </trkpt>
      <trkpt lat="48.20552" lon="3.23554">
        <ele>138</ele>
        <time>2017-07-30T08:06:35Z</time>
      </trkpt>
      <trkpt lat="48.20539" lon="3.23555">
        <ele>138</ele>
        <time>2017-07-30T08:06:37Z</time>
      </trkpt>
      <trkpt lat="48.20529" lon="3.23553">
        <ele>137</ele>
        <time>2017-07-30T08:06:39Z</time>
      </trkpt>
      <trkpt lat="48.20521" lon="3.23554">
        <ele>136</ele>
        <time>2017-07-30T08:06:40Z</time>
      </trkpt>
      <trkpt lat="48.20513" lon="3.23553">
        <ele>136</ele>
        <time>2017-07-30T08:06:41Z</time>
      </trkpt>
      <trkpt lat="48.20504" lon="3.23553">
        <ele>136</ele>
        <time>2017-07-30T08:06:42Z</time>
      </trkpt>
      <trkpt lat="48.20496" lon="3.23547">
        <ele>132</ele>
        <time>2017-07-30T08:06:43Z</time>
      </trkpt>
      <trkpt lat="48.2049" lon="3.23537">
        <ele>132</ele>
        <time>2017-07-30T08:06:45Z</time>
      </trkpt>
      <trkpt lat="48.20486" lon="3.23525">
        <ele>132</ele>
        <time>2017-07-30T08:06:47Z</time>
      </trkpt>
      <trkpt lat="48.20481" lon="3.23513">
        <ele>132</ele>
        <time>2017-07-30T08:06:50Z</time>
      </trkpt>
      <trkpt lat="48.20476" lon="3.235">
        <ele>134</ele>
        <time>2017-07-30T08:06:53Z</time>
      </trkpt>
      <trkpt lat="48.20472" lon="3.23487">
        <ele>134</ele>
        <time>2017-07-30T08:06:56Z</time>
      </trkpt>
      <trkpt lat="48.20467" lon="3.23474">
        <ele>134</ele>
        <time>2017-07-30T08:06:59Z</time>
      </trkpt>
      <trkpt lat="48.20463" lon="3.23465">
        <ele>134</ele>
        <time>2017-07-30T08:07:01Z</time>
      </trkpt>
      <trkpt lat="48.20458" lon="3.23457">
        <ele>135</ele>
        <time>2017-07-30T08:07:03Z</time>
      </trkpt>
      <trkpt lat="48.20453" lon="3.23445">
        <ele>135</ele>
        <time>2017-07-30T08:07:06Z</time>
      </trkpt>
      <trkpt lat="48.20448" lon="3.23433">
        <ele>135</ele>
        <time>2017-07-30T08:07:09Z</time>
      </trkpt>
      <trkpt lat="48.20444" lon="3.23425">
        <ele>135</ele>
        <time>2017-07-30T08:07:11Z</time>
      </trkpt>
      <trkpt lat="48.20439" lon="3.23415">
        <ele>139</ele>
        <time>2017-07-30T08:07:14Z</time>
      </trkpt>
      <trkpt lat="48.20436" lon="3.23405">
        <ele>139</ele>
        <time>2017-07-30T08:07:16Z</time>
      </trkpt>
      <trkpt lat="48.20431" lon="3.23394">
        <ele>139</ele>
        <time>2017-07-30T08:07:18Z</time>
      </trkpt>
      <trkpt lat="48.20425" lon="3.23384">
        <ele>140</ele>
        <time>2017-07-30T08:07:20Z</time>
      </trkpt>
      <trkpt lat="48.2042" lon="3.23375">
        <ele>141</ele>
        <time>2017-07-30T08:07:22Z</time>
      </trkpt>
      <trkpt lat="48.20414" lon="3.23362">
        <ele>138</ele>
        <time>2017-07-30T08:07:24Z</time>
      </trkpt>
      <trkpt lat="48.20409" lon="3.23351">
        <ele>138</ele>
        <time>2017-07-30T08:07:26Z</time>
      </trkpt>
      <trkpt lat="48.20407" lon="3.2334">
        <ele>139</ele>
        <time>2017-07-30T08:07:28Z</time>
      </trkpt>
      <trkpt lat="48.20403" lon="3.23326">
        <ele>141</ele>
        <time>2017-07-30T08:07:31Z</time>
      </trkpt>
      <trkpt lat="48.204" lon="3.23313">
        <ele>141</ele>
        <time>2017-07-30T08:07:34Z</time>
      </trkpt>
      <trkpt lat="48.20398" lon="3.23299">
        <ele>142</ele>
        <time>2017-07-30T08:07:37Z</time>
      </trkpt>
      <trkpt lat="48.20395" lon="3.23284">
        <ele>142</ele>
        <time>2017-07-30T08:07:40Z</time>
      </trkpt>
      <trkpt lat="48.20393" lon="3.2327">
        <ele>143</ele>
        <time>2017-07-30T08:07:43Z</time>
      </trkpt>
      <trkpt lat="48.20389" lon="3.23256">
        <ele>143</ele>
        <time>2017-07-30T08:07:46Z</time>
      </trkpt>
      <trkpt lat="48.20384" lon="3.23243">
        <ele>146</ele>
        <time>2017-07-30T08:07:49Z</time>
      </trkpt>
      <trkpt lat="48.20378" lon="3.23232">
        <ele>146</ele>
        <time>2017-07-30T08:07:52Z</time>
      </trkpt>
      <trkpt lat="48.20372" lon="3.23221">
        <ele>146</ele>
        <time>2017-07-30T08:07:55Z</time>
      </trkpt>
      <trkpt lat="48.20368" lon="3.23207">
        <ele>146</ele>
        <time>2017-07-30T08:07:58Z</time>
      </trkpt>
      <trkpt lat="48.20364" lon="3.23197">
        <ele>146</ele>
        <time>2017-07-30T08:08:00Z</time>
      </trkpt>
      <trkpt lat="48.20361" lon="3.23182">
        <ele>146</ele>
        <time>2017-07-30T08:08:03Z</time>
      </trkpt>
      <trkpt lat="48.20358" lon="3.23168">
        <ele>145</ele>
        <time>2017-07-30T08:08:06Z</time>
      </trkpt>
      <trkpt lat="48.20354" lon="3.23155">
        <ele>148</ele>
        <time>2017-07-30T08:08:09Z</time>
      </trkpt>
      <trkpt lat="48.20349" lon="3.23144">
        <ele>148</ele>
        <time>2017-07-30T08:08:12Z</time>
      </trkpt>
      <trkpt lat="48.20344" lon="3.23134">
        <ele>149</ele>
        <time>2017-07-30T08:08:15Z</time>
      </trkpt>
      <trkpt lat="48.20338" lon="3.2312">
        <ele>149</ele>
        <time>2017-07-30T08:08:18Z</time>
      </trkpt>
      <trkpt lat="48.20332" lon="3.2311">
        <ele>146</ele>
        <time>2017-07-30T08:08:21Z</time>
      </trkpt>
      <trkpt lat="48.20326" lon="3.23097">
        <ele>147</ele>
        <time>2017-07-30T08:08:24Z</time>
      </trkpt>
      <trkpt lat="48.20322" lon="3.23083">
        <ele>147</ele>
        <time>2017-07-30T08:08:27Z</time>
      </trkpt>
      <trkpt lat="48.20315" lon="3.23073">
        <ele>148</ele>
        <time>2017-07-30T08:08:30Z</time>
      </trkpt>
      <trkpt lat="48.2031" lon="3.23064">
        <ele>148</ele>
        <time>2017-07-30T08:08:32Z</time>
      </trkpt>
      <trkpt lat="48.20306" lon="3.23055">
        <ele>148</ele>
        <time>2017-07-30T08:08:34Z</time>
      </trkpt>
      <trkpt lat="48.20301" lon="3.23043">
        <ele>148</ele>
        <time>2017-07-30T08:08:37Z</time>
      </trkpt>
      <trkpt lat="48.203" lon="3.23029">
        <ele>148</ele>
        <time>2017-07-30T08:08:40Z</time>
      </trkpt>
      <trkpt lat="48.20299" lon="3.23017">
        <ele>148</ele>
        <time>2017-07-30T08:08:43Z</time>
      </trkpt>
      <trkpt lat="48.203" lon="3.23003">
        <ele>148</ele>
        <time>2017-07-30T08:08:46Z</time>
      </trkpt>
      <trkpt lat="48.20297" lon="3.2299">
        <ele>150</ele>
        <time>2017-07-30T08:08:49Z</time>
      </trkpt>
      <trkpt lat="48.20297" lon="3.22978">
        <ele>150</ele>
        <time>2017-07-30T08:08:51Z</time>
      </trkpt>
      <trkpt lat="48.20297" lon="3.22965">
        <ele>150</ele>
        <time>2017-07-30T08:08:53Z</time>
      </trkpt>
      <trkpt lat="48.20294" lon="3.22954">
        <ele>150</ele>
        <time>2017-07-30T08:08:55Z</time>
      </trkpt>
      <trkpt lat="48.20292" lon="3.22943">
        <ele>150</ele>
        <time>2017-07-30T08:08:57Z</time>
      </trkpt>
      <trkpt lat="48.20288" lon="3.22929">
        <ele>150</ele>
        <time>2017-07-30T08:09:00Z</time>
      </trkpt>
      <trkpt lat="48.20286" lon="3.22916">
        <ele>150</ele>
        <time>2017-07-30T08:09:03Z</time>
      </trkpt>
      <trkpt lat="48.20283" lon="3.22904">
        <ele>150</ele>
        <time>2017-07-30T08:09:06Z</time>
      </trkpt>
      <trkpt lat="48.20282" lon="3.22889">
        <ele>150</ele>
        <time>2017-07-30T08:09:09Z</time>
      </trkpt>
      <trkpt lat="48.20282" lon="3.22874">
        <ele>150</ele>
        <time>2017-07-30T08:09:12Z</time>
      </trkpt>
      <trkpt lat="48.20282" lon="3.22863">
        <ele>151</ele>
        <time>2017-07-30T08:09:15Z</time>
      </trkpt>
      <trkpt lat="48.20284" lon="3.22851">
        <ele>151</ele>
        <time>2017-07-30T08:09:18Z</time>
      </trkpt>
      <trkpt lat="48.20288" lon="3.22838">
        <ele>151</ele>
        <time>2017-07-30T08:09:21Z</time>
      </trkpt>
      <trkpt lat="48.2029" lon="3.22827">
        <ele>151</ele>
        <time>2017-07-30T08:09:24Z</time>
      </trkpt>
      <trkpt lat="48.20293" lon="3.22816">
        <ele>151</ele>
        <time>2017-07-30T08:09:27Z</time>
      </trkpt>
      <trkpt lat="48.20298" lon="3.22805">
        <ele>151</ele>
        <time>2017-07-30T08:09:29Z</time>
      </trkpt>
      <trkpt lat="48.20302" lon="3.22795">
        <ele>151</ele>
        <time>2017-07-30T08:09:32Z</time>
      </trkpt>
      <trkpt lat="48.20304" lon="3.22781">
        <ele>152</ele>
        <time>2017-07-30T08:09:35Z</time>
      </trkpt>
      <trkpt lat="48.20309" lon="3.2277">
        <ele>152</ele>
        <time>2017-07-30T08:09:37Z</time>
      </trkpt>
      <trkpt lat="48.20311" lon="3.22758">
        <ele>152</ele>
        <time>2017-07-30T08:09:41Z</time>
      </trkpt>
      <trkpt lat="48.20315" lon="3.22745">
        <ele>152</ele>
        <time>2017-07-30T08:09:43Z</time>
      </trkpt>
      <trkpt lat="48.20318" lon="3.22734">
        <ele>151</ele>
        <time>2017-07-30T08:09:45Z</time>
      </trkpt>
      <trkpt lat="48.20323" lon="3.22719">
        <ele>151</ele>
        <time>2017-07-30T08:09:48Z</time>
      </trkpt>
      <trkpt lat="48.20327" lon="3.22708">
        <ele>151</ele>
        <time>2017-07-30T08:09:50Z</time>
      </trkpt>
      <trkpt lat="48.20333" lon="3.22695">
        <ele>150</ele>
        <time>2017-07-30T08:09:53Z</time>
      </trkpt>
      <trkpt lat="48.20335" lon="3.22683">
        <ele>153</ele>
        <time>2017-07-30T08:09:55Z</time>
      </trkpt>
      <trkpt lat="48.20335" lon="3.22672">
        <ele>151</ele>
        <time>2017-07-30T08:09:57Z</time>
      </trkpt>
      <trkpt lat="48.20335" lon="3.2266">
        <ele>151</ele>
        <time>2017-07-30T08:09:59Z</time>
      </trkpt>
      <trkpt lat="48.20335" lon="3.22649">
        <ele>152</ele>
        <time>2017-07-30T08:10:01Z</time>
      </trkpt>
      <trkpt lat="48.20335" lon="3.22638">
        <ele>152</ele>
        <time>2017-07-30T08:10:03Z</time>
      </trkpt>
      <trkpt lat="48.20335" lon="3.22624">
        <ele>152</ele>
        <time>2017-07-30T08:10:06Z</time>
      </trkpt>
      <trkpt lat="48.20335" lon="3.22608">
        <ele>152</ele>
        <time>2017-07-30T08:10:09Z</time>
      </trkpt>
      <trkpt lat="48.20335" lon="3.22594">
        <ele>152</ele>
        <time>2017-07-30T08:10:12Z</time>
      </trkpt>
      <trkpt lat="48.20334" lon="3.22579">
        <ele>152</ele>
        <time>2017-07-30T08:10:15Z</time>
      </trkpt>
      <trkpt lat="48.20333" lon="3.22568">
        <ele>151</ele>
        <time>2017-07-30T08:10:17Z</time>
      </trkpt>
      <trkpt lat="48.20332" lon="3.22553">
        <ele>151</ele>
        <time>2017-07-30T08:10:20Z</time>
      </trkpt>
      <trkpt lat="48.20331" lon="3.22538">
        <ele>151</ele>
        <time>2017-07-30T08:10:23Z</time>
      </trkpt>
      <trkpt lat="48.20331" lon="3.22524">
        <ele>151</ele>
        <time>2017-07-30T08:10:26Z</time>
      </trkpt>
      <trkpt lat="48.20331" lon="3.22509">
        <ele>151</ele>
        <time>2017-07-30T08:10:29Z</time>
      </trkpt>
      <trkpt lat="48.20331" lon="3.22494">
        <ele>151</ele>
        <time>2017-07-30T08:10:32Z</time>
      </trkpt>
      <trkpt lat="48.2033" lon="3.22479">
        <ele>152</ele>
        <time>2017-07-30T08:10:35Z</time>
      </trkpt>
      <trkpt lat="48.2033" lon="3.22464">
        <ele>152</ele>
        <time>2017-07-30T08:10:38Z</time>
      </trkpt>
      <trkpt lat="48.2033" lon="3.22449">
        <ele>152</ele>
        <time>2017-07-30T08:10:41Z</time>
      </trkpt>
      <trkpt lat="48.20329" lon="3.22438">
        <ele>152</ele>
        <time>2017-07-30T08:10:43Z</time>
      </trkpt>
      <trkpt lat="48.20329" lon="3.22423">
        <ele>152</ele>
        <time>2017-07-30T08:10:46Z</time>
      </trkpt>
      <trkpt lat="48.20328" lon="3.22408">
        <ele>152</ele>
        <time>2017-07-30T08:10:49Z</time>
      </trkpt>
      <trkpt lat="48.20328" lon="3.22393">
        <ele>153</ele>
        <time>2017-07-30T08:10:52Z</time>
      </trkpt>
      <trkpt lat="48.20327" lon="3.22379">
        <ele>154</ele>
        <time>2017-07-30T08:10:55Z</time>
      </trkpt>
      <trkpt lat="48.20327" lon="3.22364">
        <ele>154</ele>
        <time>2017-07-30T08:10:58Z</time>
      </trkpt>
      <trkpt lat="48.20327" lon="3.22349">
        <ele>154</ele>
        <time>2017-07-30T08:11:01Z</time>
      </trkpt>
      <trkpt lat="48.20327" lon="3.22333">
        <ele>155</ele>
        <time>2017-07-30T08:11:04Z</time>
      </trkpt>
      <trkpt lat="48.20327" lon="3.22318">
        <ele>155</ele>
        <time>2017-07-30T08:11:07Z</time>
      </trkpt>
      <trkpt lat="48.20327" lon="3.22303">
        <ele>156</ele>
        <time>2017-07-30T08:11:10Z</time>
      </trkpt>
      <trkpt lat="48.20327" lon="3.22289">
        <ele>157</ele>
        <time>2017-07-30T08:11:13Z</time>
      </trkpt>
      <trkpt lat="48.20327" lon="3.22274">
        <ele>157</ele>
        <time>2017-07-30T08:11:16Z</time>
      </trkpt>
      <trkpt lat="48.20327" lon="3.22259">
        <ele>157</ele>
        <time>2017-07-30T08:11:19Z</time>
      </trkpt>
      <trkpt lat="48.20327" lon="3.22244">
        <ele>157</ele>
        <time>2017-07-30T08:11:22Z</time>
      </trkpt>
      <trkpt lat="48.20326" lon="3.22229">
        <ele>158</ele>
        <time>2017-07-30T08:11:25Z</time>
      </trkpt>
      <trkpt lat="48.20326" lon="3.22214">
        <ele>158</ele>
        <time>2017-07-30T08:11:28Z</time>
      </trkpt>
      <trkpt lat="48.20326" lon="3.22198">
        <ele>158</ele>
        <time>2017-07-30T08:11:31Z</time>
      </trkpt>
      <trkpt lat="48.20325" lon="3.22184">
        <ele>158</ele>
        <time>2017-07-30T08:11:34Z</time>
      </trkpt>
      <trkpt lat="48.20326" lon="3.22168">
        <ele>158</ele>
        <time>2017-07-30T08:11:37Z</time>
      </trkpt>
      <trkpt lat="48.20325" lon="3.22152">
        <ele>158</ele>
        <time>2017-07-30T08:11:40Z</time>
      </trkpt>
      <trkpt lat="48.20325" lon="3.22137">
        <ele>159</ele>
        <time>2017-07-30T08:11:43Z</time>
      </trkpt>
      <trkpt lat="48.20325" lon="3.22121">
        <ele>159</ele>
        <time>2017-07-30T08:11:46Z</time>
      </trkpt>
      <trkpt lat="48.20325" lon="3.22106">
        <ele>159</ele>
        <time>2017-07-30T08:11:49Z</time>
      </trkpt>
      <trkpt lat="48.20324" lon="3.2209">
        <ele>159</ele>
        <time>2017-07-30T08:11:52Z</time>
      </trkpt>
      <trkpt lat="48.20324" lon="3.22077">
        <ele>159</ele>
        <time>2017-07-30T08:11:54Z</time>
      </trkpt>
      <trkpt lat="48.20324" lon="3.22062">
        <ele>159</ele>
        <time>2017-07-30T08:11:56Z</time>
      </trkpt>
      <trkpt lat="48.20324" lon="3.22044">
        <ele>160</ele>
        <time>2017-07-30T08:11:58Z</time>
      </trkpt>
      <trkpt lat="48.20325" lon="3.22028">
        <ele>160</ele>
        <time>2017-07-30T08:12:00Z</time>
      </trkpt>
      <trkpt lat="48.20325" lon="3.22011">
        <ele>160</ele>
        <time>2017-07-30T08:12:02Z</time>
      </trkpt>
      <trkpt lat="48.20325" lon="3.21998">
        <ele>160</ele>
        <time>2017-07-30T08:12:04Z</time>
      </trkpt>
      <trkpt lat="48.20325" lon="3.21987">
        <ele>161</ele>
        <time>2017-07-30T08:12:06Z</time>
      </trkpt>
      <trkpt lat="48.20326" lon="3.21975">
        <ele>161</ele>
        <time>2017-07-30T08:12:08Z</time>
      </trkpt>
      <trkpt lat="48.20326" lon="3.21961">
        <ele>161</ele>
        <time>2017-07-30T08:12:11Z</time>
      </trkpt>
      <trkpt lat="48.20326" lon="3.21946">
        <ele>162</ele>
        <time>2017-07-30T08:12:14Z</time>
      </trkpt>
      <trkpt lat="48.20324" lon="3.21932">
        <ele>162</ele>
        <time>2017-07-30T08:12:17Z</time>
      </trkpt>
      <trkpt lat="48.20325" lon="3.21917">
        <ele>162</ele>
        <time>2017-07-30T08:12:20Z</time>
      </trkpt>
      <trkpt lat="48.20324" lon="3.21904">
        <ele>164</ele>
        <time>2017-07-30T08:12:23Z</time>
      </trkpt>
      <trkpt lat="48.20324" lon="3.2189">
        <ele>164</ele>
        <time>2017-07-30T08:12:26Z</time>
      </trkpt>
      <trkpt lat="48.20325" lon="3.21879">
        <ele>165</ele>
        <time>2017-07-30T08:12:29Z</time>
      </trkpt>
      <trkpt lat="48.20323" lon="3.21867">
        <ele>165</ele>
        <time>2017-07-30T08:12:32Z</time>
      </trkpt>
      <trkpt lat="48.2032" lon="3.21857">
        <ele>165</ele>
        <time>2017-07-30T08:12:35Z</time>
      </trkpt>
      <trkpt lat="48.2032" lon="3.21845">
        <ele>166</ele>
        <time>2017-07-30T08:12:39Z</time>
      </trkpt>
      <trkpt lat="48.20319" lon="3.21834">
        <ele>166</ele>
        <time>2017-07-30T08:12:42Z</time>
      </trkpt>
      <trkpt lat="48.2032" lon="3.21821">
        <ele>168</ele>
        <time>2017-07-30T08:12:45Z</time>
      </trkpt>
      <trkpt lat="48.2032" lon="3.21807">
        <ele>169</ele>
        <time>2017-07-30T08:12:48Z</time>
      </trkpt>
      <trkpt lat="48.2032" lon="3.21796">
        <ele>169</ele>
        <time>2017-07-30T08:12:51Z</time>
      </trkpt>
      <trkpt lat="48.20321" lon="3.21782">
        <ele>169</ele>
        <time>2017-07-30T08:12:55Z</time>
      </trkpt>
      <trkpt lat="48.20321" lon="3.21769">
        <ele>170</ele>
        <time>2017-07-30T08:12:58Z</time>
      </trkpt>
      <trkpt lat="48.20317" lon="3.21757">
        <ele>170</ele>
        <time>2017-07-30T08:13:00Z</time>
      </trkpt>
      <trkpt lat="48.20318" lon="3.21743">
        <ele>171</ele>
        <time>2017-07-30T08:13:03Z</time>
      </trkpt>
      <trkpt lat="48.20315" lon="3.21733">
        <ele>171</ele>
        <time>2017-07-30T08:13:05Z</time>
      </trkpt>
      <trkpt lat="48.20315" lon="3.2172">
        <ele>172</ele>
        <time>2017-07-30T08:13:07Z</time>
      </trkpt>
      <trkpt lat="48.20313" lon="3.21709">
        <ele>172</ele>
        <time>2017-07-30T08:13:09Z</time>
      </trkpt>
      <trkpt lat="48.20313" lon="3.21693">
        <ele>172</ele>
        <time>2017-07-30T08:13:11Z</time>
      </trkpt>
      <trkpt lat="48.20314" lon="3.21682">
        <ele>172</ele>
        <time>2017-07-30T08:13:14Z</time>
      </trkpt>
      <trkpt lat="48.20312" lon="3.21668">
        <ele>172</ele>
        <time>2017-07-30T08:13:17Z</time>
      </trkpt>
      <trkpt lat="48.20304" lon="3.21659">
        <ele>173</ele>
        <time>2017-07-30T08:13:19Z</time>
      </trkpt>
      <trkpt lat="48.20301" lon="3.21647">
        <ele>173</ele>
        <time>2017-07-30T08:13:21Z</time>
      </trkpt>
      <trkpt lat="48.20298" lon="3.21635">
        <ele>173</ele>
        <time>2017-07-30T08:13:23Z</time>
      </trkpt>
      <trkpt lat="48.20288" lon="3.21622">
        <ele>173</ele>
        <time>2017-07-30T08:13:25Z</time>
      </trkpt>
      <trkpt lat="48.20283" lon="3.21611">
        <ele>173</ele>
        <time>2017-07-30T08:13:28Z</time>
      </trkpt>
      <trkpt lat="48.2028" lon="3.21601">
        <ele>173</ele>
        <time>2017-07-30T08:13:31Z</time>
      </trkpt>
      <trkpt lat="48.20277" lon="3.21587">
        <ele>173</ele>
        <time>2017-07-30T08:13:34Z</time>
      </trkpt>
      <trkpt lat="48.20276" lon="3.21575">
        <ele>173</ele>
        <time>2017-07-30T08:13:37Z</time>
      </trkpt>
      <trkpt lat="48.20273" lon="3.21565">
        <ele>173</ele>
        <time>2017-07-30T08:13:39Z</time>
      </trkpt>
      <trkpt lat="48.20267" lon="3.21557">
        <ele>173</ele>
        <time>2017-07-30T08:13:41Z</time>
      </trkpt>
      <trkpt lat="48.20258" lon="3.21548">
        <ele>173</ele>
        <time>2017-07-30T08:13:44Z</time>
      </trkpt>
      <trkpt lat="48.20255" lon="3.21534">
        <ele>173</ele>
        <time>2017-07-30T08:13:47Z</time>
      </trkpt>
      <trkpt lat="48.20251" lon="3.21522">
        <ele>174</ele>
        <time>2017-07-30T08:13:49Z</time>
      </trkpt>
      <trkpt lat="48.20246" lon="3.21514">
        <ele>175</ele>
        <time>2017-07-30T08:13:52Z</time>
      </trkpt>
      <trkpt lat="48.20238" lon="3.21504">
        <ele>175</ele>
        <time>2017-07-30T08:13:55Z</time>
      </trkpt>
      <trkpt lat="48.20232" lon="3.21497">
        <ele>175</ele>
        <time>2017-07-30T08:13:57Z</time>
      </trkpt>
      <trkpt lat="48.20226" lon="3.21491">
        <ele>175</ele>
        <time>2017-07-30T08:13:59Z</time>
      </trkpt>
      <trkpt lat="48.20221" lon="3.21477">
        <ele>175</ele>
        <time>2017-07-30T08:14:02Z</time>
      </trkpt>
      <trkpt lat="48.20214" lon="3.21468">
        <ele>175</ele>
        <time>2017-07-30T08:14:05Z</time>
      </trkpt>
      <trkpt lat="48.20216" lon="3.21456">
        <ele>175</ele>
        <time>2017-07-30T08:14:08Z</time>
      </trkpt>
      <trkpt lat="48.20218" lon="3.21446">
        <ele>175</ele>
        <time>2017-07-30T08:14:11Z</time>
      </trkpt>
      <trkpt lat="48.20226" lon="3.21439">
        <ele>174</ele>
        <time>2017-07-30T08:14:14Z</time>
      </trkpt>
      <trkpt lat="48.20225" lon="3.21425">
        <ele>174</ele>
        <time>2017-07-30T08:14:17Z</time>
      </trkpt>
      <trkpt lat="48.20226" lon="3.21413">
        <ele>174</ele>
        <time>2017-07-30T08:14:20Z</time>
      </trkpt>
      <trkpt lat="48.20232" lon="3.21405">
        <ele>174</ele>
        <time>2017-07-30T08:14:22Z</time>
      </trkpt>
      <trkpt lat="48.20235" lon="3.21394">
        <ele>174</ele>
        <time>2017-07-30T08:14:25Z</time>
      </trkpt>
      <trkpt lat="48.20235" lon="3.21382">
        <ele>174</ele>
        <time>2017-07-30T08:14:28Z</time>
      </trkpt>
      <trkpt lat="48.20238" lon="3.21372">
        <ele>174</ele>
        <time>2017-07-30T08:14:30Z</time>
      </trkpt>
      <trkpt lat="48.20241" lon="3.21362">
        <ele>174</ele>
        <time>2017-07-30T08:14:32Z</time>
      </trkpt>
      <trkpt lat="48.20246" lon="3.21348">
        <ele>175</ele>
        <time>2017-07-30T08:14:36Z</time>
      </trkpt>
      <trkpt lat="48.20251" lon="3.21334">
        <ele>176</ele>
        <time>2017-07-30T08:14:39Z</time>
      </trkpt>
      <trkpt lat="48.20258" lon="3.21326">
        <ele>176</ele>
        <time>2017-07-30T08:14:41Z</time>
      </trkpt>
      <trkpt lat="48.20264" lon="3.2131">
        <ele>176</ele>
        <time>2017-07-30T08:14:44Z</time>
      </trkpt>
      <trkpt lat="48.20266" lon="3.21295">
        <ele>176</ele>
        <time>2017-07-30T08:14:47Z</time>
      </trkpt>
      <trkpt lat="48.20265" lon="3.21283">
        <ele>177</ele>
        <time>2017-07-30T08:14:49Z</time>
      </trkpt>
      <trkpt lat="48.20265" lon="3.21268">
        <ele>177</ele>
        <time>2017-07-30T08:14:52Z</time>
      </trkpt>
      <trkpt lat="48.20263" lon="3.21257">
        <ele>177</ele>
        <time>2017-07-30T08:14:54Z</time>
      </trkpt>
      <trkpt lat="48.20261" lon="3.21245">
        <ele>177</ele>
        <time>2017-07-30T08:14:57Z</time>
      </trkpt>
      <trkpt lat="48.20266" lon="3.21232">
        <ele>177</ele>
        <time>2017-07-30T08:15:00Z</time>
      </trkpt>
      <trkpt lat="48.20271" lon="3.21222">
        <ele>177</ele>
        <time>2017-07-30T08:15:03Z</time>
      </trkpt>
      <trkpt lat="48.20272" lon="3.21209">
        <ele>177</ele>
        <time>2017-07-30T08:15:07Z</time>
      </trkpt>
      <trkpt lat="48.20268" lon="3.21199">
        <ele>177</ele>
        <time>2017-07-30T08:15:10Z</time>
      </trkpt>
      <trkpt lat="48.20266" lon="3.21188">
        <ele>177</ele>
        <time>2017-07-30T08:15:13Z</time>
      </trkpt>
      <trkpt lat="48.20259" lon="3.21181">
        <ele>177</ele>
        <time>2017-07-30T08:15:15Z</time>
      </trkpt>
      <trkpt lat="48.20252" lon="3.21173">
        <ele>178</ele>
        <time>2017-07-30T08:15:19Z</time>
      </trkpt>
      <trkpt lat="48.20246" lon="3.21164">
        <ele>178</ele>
        <time>2017-07-30T08:15:23Z</time>
      </trkpt>
      <trkpt lat="48.20246" lon="3.21151">
        <ele>178</ele>
        <time>2017-07-30T08:15:27Z</time>
      </trkpt>
      <trkpt lat="48.20251" lon="3.21143">
        <ele>178</ele>
        <time>2017-07-30T08:15:31Z</time>
      </trkpt>
      <trkpt lat="48.20249" lon="3.21133">
        <ele>178</ele>
        <time>2017-07-30T08:15:36Z</time>
      </trkpt>
      <trkpt lat="48.20254" lon="3.2112">
        <ele>178</ele>
        <time>2017-07-30T08:15:39Z</time>
      </trkpt>
      <trkpt lat="48.20259" lon="3.21107">
        <ele>179</ele>
        <time>2017-07-30T08:15:42Z</time>
      </trkpt>
      <trkpt lat="48.20259" lon="3.21094">
        <ele>179</ele>
        <time>2017-07-30T08:15:46Z</time>
      </trkpt>
      <trkpt lat="48.20262" lon="3.21078">
        <ele>180</ele>
        <time>2017-07-30T08:15:49Z</time>
      </trkpt>
      <trkpt lat="48.20263" lon="3.21065">
        <ele>180</ele>
        <time>2017-07-30T08:15:52Z</time>
      </trkpt>
      <trkpt lat="48.20266" lon="3.21051">
        <ele>180</ele>
        <time>2017-07-30T08:15:55Z</time>
      </trkpt>
      <trkpt lat="48.20265" lon="3.21039">
        <ele>180</ele>
        <time>2017-07-30T08:15:57Z</time>
      </trkpt>
      <trkpt lat="48.20264" lon="3.21026">
        <ele>181</ele>
        <time>2017-07-30T08:16:00Z</time>
      </trkpt>
      <trkpt lat="48.20261" lon="3.21015">
        <ele>181</ele>
        <time>2017-07-30T08:16:03Z</time>
      </trkpt>
      <trkpt lat="48.2026" lon="3.20999">
        <ele>181</ele>
        <time>2017-07-30T08:16:06Z</time>
      </trkpt>
      <trkpt lat="48.2026" lon="3.20986">
        <ele>181</ele>
        <time>2017-07-30T08:16:09Z</time>
      </trkpt>
      <trkpt lat="48.20259" lon="3.20972">
        <ele>181</ele>
        <time>2017-07-30T08:16:12Z</time>
      </trkpt>
      <trkpt lat="48.20257" lon="3.20959">
        <ele>181</ele>
        <time>2017-07-30T08:16:15Z</time>
      </trkpt>
      <trkpt lat="48.20263" lon="3.20951">
        <ele>180</ele>
        <time>2017-07-30T08:16:18Z</time>
      </trkpt>
      <trkpt lat="48.20265" lon="3.20936">
        <ele>180</ele>
        <time>2017-07-30T08:16:22Z</time>
      </trkpt>
      <trkpt lat="48.2027" lon="3.20927">
        <ele>180</ele>
        <time>2017-07-30T08:16:24Z</time>
      </trkpt>
      <trkpt lat="48.20277" lon="3.20918">
        <ele>180</ele>
        <time>2017-07-30T08:16:27Z</time>
      </trkpt>
      <trkpt lat="48.20284" lon="3.2091">
        <ele>179</ele>
        <time>2017-07-30T08:16:30Z</time>
      </trkpt>
      <trkpt lat="48.20291" lon="3.20902">
        <ele>179</ele>
        <time>2017-07-30T08:16:33Z</time>
      </trkpt>
      <trkpt lat="48.20296" lon="3.20894">
        <ele>179</ele>
        <time>2017-07-30T08:16:36Z</time>
      </trkpt>
      <trkpt lat="48.20301" lon="3.20883">
        <ele>179</ele>
        <time>2017-07-30T08:16:39Z</time>
      </trkpt>
      <trkpt lat="48.20297" lon="3.20869">
        <ele>179</ele>
        <time>2017-07-30T08:16:41Z</time>
      </trkpt>
      <trkpt lat="48.20295" lon="3.20855">
        <ele>179</ele>
        <time>2017-07-30T08:16:43Z</time>
      </trkpt>
      <trkpt lat="48.20292" lon="3.20843">
        <ele>179</ele>
        <time>2017-07-30T08:16:45Z</time>
      </trkpt>
      <trkpt lat="48.20288" lon="3.20831">
        <ele>178</ele>
        <time>2017-07-30T08:16:47Z</time>
      </trkpt>
      <trkpt lat="48.20287" lon="3.20819">
        <ele>178</ele>
        <time>2017-07-30T08:16:50Z</time>
      </trkpt>
      <trkpt lat="48.20293" lon="3.2081">
        <ele>178</ele>
        <time>2017-07-30T08:16:52Z</time>
      </trkpt>
      <trkpt lat="48.20296" lon="3.20798">
        <ele>178</ele>
        <time>2017-07-30T08:16:54Z</time>
      </trkpt>
      <trkpt lat="48.20301" lon="3.20792">
        <ele>178</ele>
        <time>2017-07-30T08:17:01Z</time>
      </trkpt>
      <trkpt lat="48.20309" lon="3.20781">
        <ele>178</ele>
        <time>2017-07-30T08:17:06Z</time>
      </trkpt>
      <trkpt lat="48.20312" lon="3.20767">
        <ele>178</ele>
        <time>2017-07-30T08:17:09Z</time>
      </trkpt>
      <trkpt lat="48.20312" lon="3.20753">
        <ele>178</ele>
        <time>2017-07-30T08:17:11Z</time>
      </trkpt>
      <trkpt lat="48.20311" lon="3.20739">
        <ele>176</ele>
        <time>2017-07-30T08:17:13Z</time>
      </trkpt>
      <trkpt lat="48.20308" lon="3.20724">
        <ele>176</ele>
        <time>2017-07-30T08:17:16Z</time>
      </trkpt>
      <trkpt lat="48.20304" lon="3.20715">
        <ele>175</ele>
        <time>2017-07-30T08:17:19Z</time>
      </trkpt>
      <trkpt lat="48.20306" lon="3.20715">
        <ele>175</ele>
        <time>2017-07-30T08:17:26Z</time>
      </trkpt>
      <trkpt lat="48.20316" lon="3.20715">
        <ele>175</ele>
        <time>2017-07-30T08:17:30Z</time>
      </trkpt>
      <trkpt lat="48.20325" lon="3.20707">
        <ele>175</ele>
        <time>2017-07-30T08:17:32Z</time>
      </trkpt>
      <trkpt lat="48.2033" lon="3.20698">
        <ele>174</ele>
        <time>2017-07-30T08:17:33Z</time>
      </trkpt>
      <trkpt lat="48.20332" lon="3.20687">
        <ele>174</ele>
        <time>2017-07-30T08:17:37Z</time>
      </trkpt>
      <trkpt lat="48.20337" lon="3.20679">
        <ele>173</ele>
        <time>2017-07-30T08:17:39Z</time>
      </trkpt>
      <trkpt lat="48.20344" lon="3.20666">
        <ele>171</ele>
        <time>2017-07-30T08:17:41Z</time>
      </trkpt>
      <trkpt lat="48.20351" lon="3.20659">
        <ele>171</ele>
        <time>2017-07-30T08:17:44Z</time>
      </trkpt>
      <trkpt lat="48.20358" lon="3.2066">
        <ele>171</ele>
        <time>2017-07-30T08:17:46Z</time>
      </trkpt>
      <trkpt lat="48.2037" lon="3.2066">
        <ele>171</ele>
        <time>2017-07-30T08:17:51Z</time>
      </trkpt>
      <trkpt lat="48.20373" lon="3.20672">
        <ele>172</ele>
        <time>2017-07-30T08:17:55Z</time>
      </trkpt>
      <trkpt lat="48.20379" lon="3.20683">
        <ele>173</ele>
        <time>2017-07-30T08:17:58Z</time>
      </trkpt>
      <trkpt lat="48.20387" lon="3.20694">
        <ele>173</ele>
        <time>2017-07-30T08:18:01Z</time>
      </trkpt>
      <trkpt lat="48.20394" lon="3.20702">
        <ele>173</ele>
        <time>2017-07-30T08:18:03Z</time>
      </trkpt>
      <trkpt lat="48.20399" lon="3.20709">
        <ele>173</ele>
        <time>2017-07-30T08:18:05Z</time>
      </trkpt>
      <trkpt lat="48.20406" lon="3.20718">
        <ele>173</ele>
        <time>2017-07-30T08:18:07Z</time>
      </trkpt>
      <trkpt lat="48.20414" lon="3.20724">
        <ele>173</ele>
        <time>2017-07-30T08:18:10Z</time>
      </trkpt>
      <trkpt lat="48.2042" lon="3.20731">
        <ele>171</ele>
        <time>2017-07-30T08:18:12Z</time>
      </trkpt>
      <trkpt lat="48.20426" lon="3.20743">
        <ele>172</ele>
        <time>2017-07-30T08:18:15Z</time>
      </trkpt>
      <trkpt lat="48.20433" lon="3.20752">
        <ele>172</ele>
        <time>2017-07-30T08:18:19Z</time>
      </trkpt>
      <trkpt lat="48.20438" lon="3.20764">
        <ele>172</ele>
        <time>2017-07-30T08:18:22Z</time>
      </trkpt>
      <trkpt lat="48.20443" lon="3.20774">
        <ele>172</ele>
        <time>2017-07-30T08:18:24Z</time>
      </trkpt>
      <trkpt lat="48.20447" lon="3.20788">
        <ele>172</ele>
        <time>2017-07-30T08:18:27Z</time>
      </trkpt>
      <trkpt lat="48.20449" lon="3.208">
        <ele>172</ele>
        <time>2017-07-30T08:18:31Z</time>
      </trkpt>
      <trkpt lat="48.20452" lon="3.20811">
        <ele>173</ele>
        <time>2017-07-30T08:18:34Z</time>
      </trkpt>
      <trkpt lat="48.20458" lon="3.2082">
        <ele>172</ele>
        <time>2017-07-30T08:18:38Z</time>
      </trkpt>
      <trkpt lat="48.20465" lon="3.20814">
        <ele>172</ele>
        <time>2017-07-30T08:18:41Z</time>
      </trkpt>
      <trkpt lat="48.20474" lon="3.20807">
        <ele>171</ele>
        <time>2017-07-30T08:18:43Z</time>
      </trkpt>
      <trkpt lat="48.20482" lon="3.20804">
        <ele>171</ele>
        <time>2017-07-30T08:18:45Z</time>
      </trkpt>
      <trkpt lat="48.20486" lon="3.20809">
        <ele>171</ele>
        <time>2017-07-30T08:18:52Z</time>
      </trkpt>
      <trkpt lat="48.20493" lon="3.20815">
        <ele>170</ele>
        <time>2017-07-30T08:18:56Z</time>
      </trkpt>
      <trkpt lat="48.20501" lon="3.20821">
        <ele>168</ele>
        <time>2017-07-30T08:19:00Z</time>
      </trkpt>
      <trkpt lat="48.20504" lon="3.20829">
        <ele>169</ele>
        <time>2017-07-30T08:19:07Z</time>
      </trkpt>
      <trkpt lat="48.20508" lon="3.20837">
        <ele>169</ele>
        <time>2017-07-30T08:19:14Z</time>
      </trkpt>
      <trkpt lat="48.20516" lon="3.20847">
        <ele>169</ele>
        <time>2017-07-30T08:19:17Z</time>
      </trkpt>
      <trkpt lat="48.20526" lon="3.20857">
        <ele>169</ele>
        <time>2017-07-30T08:19:20Z</time>
      </trkpt>
      <trkpt lat="48.20535" lon="3.20862">
        <ele>169</ele>
        <time>2017-07-30T08:19:22Z</time>
      </trkpt>
      <trkpt lat="48.20545" lon="3.2087">
        <ele>169</ele>
        <time>2017-07-30T08:19:25Z</time>
      </trkpt>
      <trkpt lat="48.20554" lon="3.20874">
        <ele>169</ele>
        <time>2017-07-30T08:19:27Z</time>
      </trkpt>
      <trkpt lat="48.20565" lon="3.20883">
        <ele>169</ele>
        <time>2017-07-30T08:19:30Z</time>
      </trkpt>
      <trkpt lat="48.20574" lon="3.20893">
        <ele>168</ele>
        <time>2017-07-30T08:19:32Z</time>
      </trkpt>
      <trkpt lat="48.20581" lon="3.20902">
        <ele>168</ele>
        <time>2017-07-30T08:19:34Z</time>
      </trkpt>
      <trkpt lat="48.20589" lon="3.20908">
        <ele>166</ele>
        <time>2017-07-30T08:19:36Z</time>
      </trkpt>
      <trkpt lat="48.20598" lon="3.20915">
        <ele>166</ele>
        <time>2017-07-30T08:19:38Z</time>
      </trkpt>
      <trkpt lat="48.20599" lon="3.20926">
        <ele>166</ele>
        <time>2017-07-30T08:19:40Z</time>
      </trkpt>
      <trkpt lat="48.20599" lon="3.20942">
        <ele>166</ele>
        <time>2017-07-30T08:19:43Z</time>
      </trkpt>
      <trkpt lat="48.206" lon="3.20953">
        <ele>166</ele>
        <time>2017-07-30T08:19:48Z</time>
      </trkpt>
      <trkpt lat="48.206" lon="3.20962">
        <ele>166</ele>
        <time>2017-07-30T08:19:55Z</time>
      </trkpt>
      <trkpt lat="48.206" lon="3.20976">
        <ele>167</ele>
        <time>2017-07-30T08:19:58Z</time>
      </trkpt>
      <trkpt lat="48.20599" lon="3.20991">
        <ele>168</ele>
        <time>2017-07-30T08:20:00Z</time>
      </trkpt>
      <trkpt lat="48.206" lon="3.21005">
        <ele>169</ele>
        <time>2017-07-30T08:20:02Z</time>
      </trkpt>
      <trkpt lat="48.20601" lon="3.21018">
        <ele>169</ele>
        <time>2017-07-30T08:20:04Z</time>
      </trkpt>
      <trkpt lat="48.20601" lon="3.21031">
        <ele>169</ele>
        <time>2017-07-30T08:20:06Z</time>
      </trkpt>
      <trkpt lat="48.206" lon="3.21043">
        <ele>169</ele>
        <time>2017-07-30T08:20:09Z</time>
      </trkpt>
      <trkpt lat="48.20597" lon="3.21058">
        <ele>169</ele>
        <time>2017-07-30T08:20:13Z</time>
      </trkpt>
      <trkpt lat="48.20595" lon="3.21072">
        <ele>170</ele>
        <time>2017-07-30T08:20:16Z</time>
      </trkpt>
      <trkpt lat="48.20595" lon="3.21086">
        <ele>171</ele>
        <time>2017-07-30T08:20:19Z</time>
      </trkpt>
      <trkpt lat="48.20593" lon="3.21099">
        <ele>171</ele>
        <time>2017-07-30T08:20:22Z</time>
      </trkpt>
      <trkpt lat="48.20593" lon="3.21112">
        <ele>172</ele>
        <time>2017-07-30T08:20:26Z</time>
      </trkpt>
      <trkpt lat="48.20593" lon="3.21125">
        <ele>172</ele>
        <time>2017-07-30T08:20:29Z</time>
      </trkpt>
      <trkpt lat="48.20592" lon="3.21139">
        <ele>172</ele>
        <time>2017-07-30T08:20:32Z</time>
      </trkpt>
      <trkpt lat="48.20591" lon="3.21151">
        <ele>172</ele>
        <time>2017-07-30T08:20:35Z</time>
      </trkpt>
      <trkpt lat="48.20591" lon="3.21167">
        <ele>173</ele>
        <time>2017-07-30T08:20:38Z</time>
      </trkpt>
      <trkpt lat="48.20589" lon="3.2118">
        <ele>174</ele>
        <time>2017-07-30T08:20:42Z</time>
      </trkpt>
      <trkpt lat="48.20589" lon="3.21192">
        <ele>174</ele>
        <time>2017-07-30T08:20:46Z</time>
      </trkpt>
      <trkpt lat="48.20587" lon="3.21208">
        <ele>175</ele>
        <time>2017-07-30T08:20:50Z</time>
      </trkpt>
      <trkpt lat="48.20585" lon="3.2122">
        <ele>175</ele>
        <time>2017-07-30T08:20:53Z</time>
      </trkpt>
      <trkpt lat="48.20584" lon="3.21233">
        <ele>176</ele>
        <time>2017-07-30T08:20:56Z</time>
      </trkpt>
      <trkpt lat="48.20583" lon="3.21246">
        <ele>176</ele>
        <time>2017-07-30T08:21:00Z</time>
      </trkpt>
      <trkpt lat="48.20583" lon="3.21259">
        <ele>175</ele>
        <time>2017-07-30T08:21:04Z</time>
      </trkpt>
      <trkpt lat="48.20584" lon="3.2127">
        <ele>177</ele>
        <time>2017-07-30T08:21:06Z</time>
      </trkpt>
      <trkpt lat="48.20582" lon="3.2128">
        <ele>174</ele>
        <time>2017-07-30T08:21:09Z</time>
      </trkpt>
      <trkpt lat="48.20581" lon="3.21291">
        <ele>174</ele>
        <time>2017-07-30T08:21:12Z</time>
      </trkpt>
      <trkpt lat="48.2058" lon="3.21307">
        <ele>174</ele>
        <time>2017-07-30T08:21:16Z</time>
      </trkpt>
      <trkpt lat="48.20578" lon="3.21318">
        <ele>175</ele>
        <time>2017-07-30T08:21:19Z</time>
      </trkpt>
      <trkpt lat="48.20577" lon="3.2133">
        <ele>176</ele>
        <time>2017-07-30T08:21:22Z</time>
      </trkpt>
      <trkpt lat="48.20573" lon="3.21342">
        <ele>175</ele>
        <time>2017-07-30T08:21:25Z</time>
      </trkpt>
      <trkpt lat="48.20573" lon="3.21356">
        <ele>175</ele>
        <time>2017-07-30T08:21:28Z</time>
      </trkpt>
      <trkpt lat="48.20572" lon="3.21368">
        <ele>174</ele>
        <time>2017-07-30T08:21:30Z</time>
      </trkpt>
      <trkpt lat="48.20569" lon="3.21384">
        <ele>174</ele>
        <time>2017-07-30T08:21:33Z</time>
      </trkpt>
      <trkpt lat="48.20566" lon="3.21396">
        <ele>174</ele>
        <time>2017-07-30T08:21:36Z</time>
      </trkpt>
      <trkpt lat="48.2057" lon="3.21408">
        <ele>175</ele>
        <time>2017-07-30T08:21:38Z</time>
      </trkpt>
      <trkpt lat="48.20576" lon="3.21418">
        <ele>176</ele>
        <time>2017-07-30T08:21:41Z</time>
      </trkpt>
      <trkpt lat="48.20583" lon="3.21422">
        <ele>176</ele>
        <time>2017-07-30T08:21:43Z</time>
      </trkpt>
      <trkpt lat="48.20587" lon="3.21434">
        <ele>179</ele>
        <time>2017-07-30T08:21:46Z</time>
      </trkpt>
      <trkpt lat="48.20589" lon="3.21449">
        <ele>179</ele>
        <time>2017-07-30T08:21:50Z</time>
      </trkpt>
      <trkpt lat="48.20592" lon="3.21459">
        <ele>179</ele>
        <time>2017-07-30T08:21:52Z</time>
      </trkpt>
      <trkpt lat="48.20595" lon="3.21469">
        <ele>179</ele>
        <time>2017-07-30T08:21:55Z</time>
      </trkpt>
      <trkpt lat="48.20598" lon="3.21485">
        <ele>179</ele>
        <time>2017-07-30T08:21:59Z</time>
      </trkpt>
      <trkpt lat="48.206" lon="3.21496">
        <ele>179</ele>
        <time>2017-07-30T08:22:01Z</time>
      </trkpt>
      <trkpt lat="48.206" lon="3.21508">
        <ele>179</ele>
        <time>2017-07-30T08:22:03Z</time>
      </trkpt>
      <trkpt lat="48.20605" lon="3.21517">
        <ele>180</ele>
        <time>2017-07-30T08:22:05Z</time>
      </trkpt>
      <trkpt lat="48.20615" lon="3.21517">
        <ele>181</ele>
        <time>2017-07-30T08:22:07Z</time>
      </trkpt>
      <trkpt lat="48.20623" lon="3.21522">
        <ele>181</ele>
        <time>2017-07-30T08:22:11Z</time>
      </trkpt>
      <trkpt lat="48.20633" lon="3.21523">
        <ele>182</ele>
        <time>2017-07-30T08:22:14Z</time>
      </trkpt>
      <trkpt lat="48.20641" lon="3.21523">
        <ele>182</ele>
        <time>2017-07-30T08:22:17Z</time>
      </trkpt>
      <trkpt lat="48.20651" lon="3.21525">
        <ele>183</ele>
        <time>2017-07-30T08:22:22Z</time>
      </trkpt>
      <trkpt lat="48.20659" lon="3.21527">
        <ele>183</ele>
        <time>2017-07-30T08:22:24Z</time>
      </trkpt>
      <trkpt lat="48.20668" lon="3.21528">
        <ele>186</ele>
        <time>2017-07-30T08:22:27Z</time>
      </trkpt>
      <trkpt lat="48.20677" lon="3.21529">
        <ele>186</ele>
        <time>2017-07-30T08:22:30Z</time>
      </trkpt>
      <trkpt lat="48.20685" lon="3.2153">
        <ele>186</ele>
        <time>2017-07-30T08:22:32Z</time>
      </trkpt>
      <trkpt lat="48.20693" lon="3.21533">
        <ele>185</ele>
        <time>2017-07-30T08:22:35Z</time>
      </trkpt>
      <trkpt lat="48.20702" lon="3.21534">
        <ele>185</ele>
        <time>2017-07-30T08:22:38Z</time>
      </trkpt>
      <trkpt lat="48.20711" lon="3.21538">
        <ele>185</ele>
        <time>2017-07-30T08:22:40Z</time>
      </trkpt>
      <trkpt lat="48.2072" lon="3.2154">
        <ele>185</ele>
        <time>2017-07-30T08:22:42Z</time>
      </trkpt>
      <trkpt lat="48.20727" lon="3.2154">
        <ele>185</ele>
        <time>2017-07-30T08:22:44Z</time>
      </trkpt>
      <trkpt lat="48.20736" lon="3.21541">
        <ele>185</ele>
        <time>2017-07-30T08:22:46Z</time>
      </trkpt>
      <trkpt lat="48.20743" lon="3.21541">
        <ele>185</ele>
        <time>2017-07-30T08:22:49Z</time>
      </trkpt>
      <trkpt lat="48.20753" lon="3.21541">
        <ele>184</ele>
        <time>2017-07-30T08:22:51Z</time>
      </trkpt>
      <trkpt lat="48.20762" lon="3.21542">
        <ele>184</ele>
        <time>2017-07-30T08:22:53Z</time>
      </trkpt>
      <trkpt lat="48.20771" lon="3.21545">
        <ele>184</ele>
        <time>2017-07-30T08:22:55Z</time>
      </trkpt>
      <trkpt lat="48.2078" lon="3.21548">
        <ele>184</ele>
        <time>2017-07-30T08:22:58Z</time>
      </trkpt>
      <trkpt lat="48.20787" lon="3.2155">
        <ele>184</ele>
        <time>2017-07-30T08:23:00Z</time>
      </trkpt>
      <trkpt lat="48.20799" lon="3.2155">
        <ele>184</ele>
        <time>2017-07-30T08:23:03Z</time>
      </trkpt>
      <trkpt lat="48.20807" lon="3.2155">
        <ele>184</ele>
        <time>2017-07-30T08:23:05Z</time>
      </trkpt>
      <trkpt lat="48.2082" lon="3.21552">
        <ele>184</ele>
        <time>2017-07-30T08:23:08Z</time>
      </trkpt>
      <trkpt lat="48.20829" lon="3.21549">
        <ele>183</ele>
        <time>2017-07-30T08:23:11Z</time>
      </trkpt>
      <trkpt lat="48.20839" lon="3.21545">
        <ele>181</ele>
        <time>2017-07-30T08:23:15Z</time>
      </trkpt>
      <trkpt lat="48.20842" lon="3.21532">
        <ele>181</ele>
        <time>2017-07-30T08:23:18Z</time>
      </trkpt>
      <trkpt lat="48.20851" lon="3.21517">
        <ele>180</ele>
        <time>2017-07-30T08:23:20Z</time>
      </trkpt>
      <trkpt lat="48.20855" lon="3.21507">
        <ele>180</ele>
        <time>2017-07-30T08:23:22Z</time>
      </trkpt>
      <trkpt lat="48.20864" lon="3.21503">
        <ele>180</ele>
        <time>2017-07-30T08:23:25Z</time>
      </trkpt>
      <trkpt lat="48.20868" lon="3.21505">
        <ele>180</ele>
        <time>2017-07-30T08:23:32Z</time>
      </trkpt>
      <trkpt lat="48.20875" lon="3.21511">
        <ele>179</ele>
        <time>2017-07-30T08:23:35Z</time>
      </trkpt>
      <trkpt lat="48.20883" lon="3.21517">
        <ele>179</ele>
        <time>2017-07-30T08:23:38Z</time>
      </trkpt>
      <trkpt lat="48.20888" lon="3.21525">
        <ele>179</ele>
        <time>2017-07-30T08:23:42Z</time>
      </trkpt>
      <trkpt lat="48.20895" lon="3.21523">
        <ele>179</ele>
        <time>2017-07-30T08:23:47Z</time>
      </trkpt>
      <trkpt lat="48.20895" lon="3.21523">
        <ele>179</ele>
        <time>2017-07-30T08:23:54Z</time>
      </trkpt>
      <trkpt lat="48.20895" lon="3.21523">
        <ele>179</ele>
        <time>2017-07-30T08:23:55Z</time>
      </trkpt>
      <trkpt lat="48.20896" lon="3.21523">
        <ele>179</ele>
        <time>2017-07-30T08:24:05Z</time>
      </trkpt>
      <trkpt lat="48.20896" lon="3.21523">
        <ele>179</ele>
        <time>2017-07-30T08:24:06Z</time>
      </trkpt>
      <trkpt lat="48.20897" lon="3.2151">
        <ele>178</ele>
        <time>2017-07-30T08:24:31Z</time>
      </trkpt>
      <trkpt lat="48.20896" lon="3.21498">
        <ele>175</ele>
        <time>2017-07-30T08:24:33Z</time>
      </trkpt>
      <trkpt lat="48.20896" lon="3.21487">
        <ele>175</ele>
        <time>2017-07-30T08:24:35Z</time>
      </trkpt>
      <trkpt lat="48.20901" lon="3.21474">
        <ele>175</ele>
        <time>2017-07-30T08:24:38Z</time>
      </trkpt>
      <trkpt lat="48.20903" lon="3.2146">
        <ele>174</ele>
        <time>2017-07-30T08:24:41Z</time>
      </trkpt>
      <trkpt lat="48.20902" lon="3.21448">
        <ele>174</ele>
        <time>2017-07-30T08:24:45Z</time>
      </trkpt>
      <trkpt lat="48.20899" lon="3.21441">
        <ele>174</ele>
        <time>2017-07-30T08:24:52Z</time>
      </trkpt>
      <trkpt lat="48.209" lon="3.21439">
        <ele>173</ele>
        <time>2017-07-30T08:24:58Z</time>
      </trkpt>
      <trkpt lat="48.2089" lon="3.21432">
        <ele>174</ele>
        <time>2017-07-30T08:25:06Z</time>
      </trkpt>
      <trkpt lat="48.2088" lon="3.21427">
        <ele>174</ele>
        <time>2017-07-30T08:25:08Z</time>
      </trkpt>
      <trkpt lat="48.20873" lon="3.21423">
        <ele>174</ele>
        <time>2017-07-30T08:25:10Z</time>
      </trkpt>
      <trkpt lat="48.20862" lon="3.2142">
        <ele>174</ele>
        <time>2017-07-30T08:25:13Z</time>
      </trkpt>
      <trkpt lat="48.20853" lon="3.21422">
        <ele>174</ele>
        <time>2017-07-30T08:25:17Z</time>
      </trkpt>
      <trkpt lat="48.20845" lon="3.21421">
        <ele>174</ele>
        <time>2017-07-30T08:25:20Z</time>
      </trkpt>
      <trkpt lat="48.20837" lon="3.21415">
        <ele>173</ele>
        <time>2017-07-30T08:25:25Z</time>
      </trkpt>
      <trkpt lat="48.20834" lon="3.21401">
        <ele>171</ele>
        <time>2017-07-30T08:25:28Z</time>
      </trkpt>
      <trkpt lat="48.20833" lon="3.2139">
        <ele>173</ele>
        <time>2017-07-30T08:25:29Z</time>
      </trkpt>
      <trkpt lat="48.20831" lon="3.21377">
        <ele>173</ele>
        <time>2017-07-30T08:25:31Z</time>
      </trkpt>
      <trkpt lat="48.20835" lon="3.21367">
        <ele>169</ele>
        <time>2017-07-30T08:25:33Z</time>
      </trkpt>
      <trkpt lat="48.20838" lon="3.21355">
        <ele>169</ele>
        <time>2017-07-30T08:25:35Z</time>
      </trkpt>
      <trkpt lat="48.20836" lon="3.21335">
        <ele>168</ele>
        <time>2017-07-30T08:25:37Z</time>
      </trkpt>
      <trkpt lat="48.20837" lon="3.21318">
        <ele>166</ele>
        <time>2017-07-30T08:25:40Z</time>
      </trkpt>
      <trkpt lat="48.20832" lon="3.21309">
        <ele>169</ele>
        <time>2017-07-30T08:25:42Z</time>
      </trkpt>
      <trkpt lat="48.20836" lon="3.21292">
        <ele>165</ele>
        <time>2017-07-30T08:25:45Z</time>
      </trkpt>
      <trkpt lat="48.20837" lon="3.21278">
        <ele>165</ele>
        <time>2017-07-30T08:25:47Z</time>
      </trkpt>
      <trkpt lat="48.20837" lon="3.21262">
        <ele>165</ele>
        <time>2017-07-30T08:25:49Z</time>
      </trkpt>
      <trkpt lat="48.20834" lon="3.21251">
        <ele>165</ele>
        <time>2017-07-30T08:25:51Z</time>
      </trkpt>
      <trkpt lat="48.20836" lon="3.21233">
        <ele>163</ele>
        <time>2017-07-30T08:25:54Z</time>
      </trkpt>
      <trkpt lat="48.20835" lon="3.21218">
        <ele>162</ele>
        <time>2017-07-30T08:25:56Z</time>
      </trkpt>
      <trkpt lat="48.20829" lon="3.21207">
        <ele>166</ele>
        <time>2017-07-30T08:25:58Z</time>
      </trkpt>
      <trkpt lat="48.20821" lon="3.21196">
        <ele>166</ele>
        <time>2017-07-30T08:26:00Z</time>
      </trkpt>
      <trkpt lat="48.20809" lon="3.2118">
        <ele>166</ele>
        <time>2017-07-30T08:26:02Z</time>
      </trkpt>
      <trkpt lat="48.20803" lon="3.21174">
        <ele>166</ele>
        <time>2017-07-30T08:26:03Z</time>
      </trkpt>
      <trkpt lat="48.20796" lon="3.21169">
        <ele>166</ele>
        <time>2017-07-30T08:26:04Z</time>
      </trkpt>
      <trkpt lat="48.20788" lon="3.21162">
        <ele>163</ele>
        <time>2017-07-30T08:26:05Z</time>
      </trkpt>
      <trkpt lat="48.20777" lon="3.21151">
        <ele>164</ele>
        <time>2017-07-30T08:26:08Z</time>
      </trkpt>
      <trkpt lat="48.20769" lon="3.21146">
        <ele>164</ele>
        <time>2017-07-30T08:26:10Z</time>
      </trkpt>
      <trkpt lat="48.20759" lon="3.21139">
        <ele>164</ele>
        <time>2017-07-30T08:26:12Z</time>
      </trkpt>
      <trkpt lat="48.20751" lon="3.21129">
        <ele>163</ele>
        <time>2017-07-30T08:26:15Z</time>
      </trkpt>
      <trkpt lat="48.20742" lon="3.21125">
        <ele>167</ele>
        <time>2017-07-30T08:26:18Z</time>
      </trkpt>
      <trkpt lat="48.20734" lon="3.21119">
        <ele>167</ele>
        <time>2017-07-30T08:26:20Z</time>
      </trkpt>
      <trkpt lat="48.20726" lon="3.21117">
        <ele>167</ele>
        <time>2017-07-30T08:26:22Z</time>
      </trkpt>
      <trkpt lat="48.20716" lon="3.21109">
        <ele>167</ele>
        <time>2017-07-30T08:26:26Z</time>
      </trkpt>
      <trkpt lat="48.20709" lon="3.21105">
        <ele>168</ele>
        <time>2017-07-30T08:26:28Z</time>
      </trkpt>
      <trkpt lat="48.20702" lon="3.21096">
        <ele>168</ele>
        <time>2017-07-30T08:26:32Z</time>
      </trkpt>
      <trkpt lat="48.20693" lon="3.21092">
        <ele>168</ele>
        <time>2017-07-30T08:26:35Z</time>
      </trkpt>
      <trkpt lat="48.20686" lon="3.21092">
        <ele>168</ele>
        <time>2017-07-30T08:26:37Z</time>
      </trkpt>
      <trkpt lat="48.20681" lon="3.21083">
        <ele>167</ele>
        <time>2017-07-30T08:26:41Z</time>
      </trkpt>
      <trkpt lat="48.20677" lon="3.21067">
        <ele>166</ele>
        <time>2017-07-30T08:26:45Z</time>
      </trkpt>
      <trkpt lat="48.20673" lon="3.21056">
        <ele>165</ele>
        <time>2017-07-30T08:26:47Z</time>
      </trkpt>
      <trkpt lat="48.20666" lon="3.21047">
        <ele>168</ele>
        <time>2017-07-30T08:26:49Z</time>
      </trkpt>
      <trkpt lat="48.20666" lon="3.21035">
        <ele>167</ele>
        <time>2017-07-30T08:26:52Z</time>
      </trkpt>
      <trkpt lat="48.20673" lon="3.21025">
        <ele>164</ele>
        <time>2017-07-30T08:26:54Z</time>
      </trkpt>
      <trkpt lat="48.20679" lon="3.21014">
        <ele>164</ele>
        <time>2017-07-30T08:26:57Z</time>
      </trkpt>
      <trkpt lat="48.2068" lon="3.21011">
        <ele>164</ele>
        <time>2017-07-30T08:27:04Z</time>
      </trkpt>
      <trkpt lat="48.20676" lon="3.21009">
        <ele>164</ele>
        <time>2017-07-30T08:27:11Z</time>
      </trkpt>
      <trkpt lat="48.20675" lon="3.21009">
        <ele>164</ele>
        <time>2017-07-30T08:27:15Z</time>
      </trkpt>
      <trkpt lat="48.20681" lon="3.21018">
        <ele>164</ele>
        <time>2017-07-30T08:27:58Z</time>
      </trkpt>
      <trkpt lat="48.20689" lon="3.21027">
        <ele>164</ele>
        <time>2017-07-30T08:28:02Z</time>
      </trkpt>
      <trkpt lat="48.20693" lon="3.21036">
        <ele>164</ele>
        <time>2017-07-30T08:28:04Z</time>
      </trkpt>
      <trkpt lat="48.20697" lon="3.21047">
        <ele>164</ele>
        <time>2017-07-30T08:28:07Z</time>
      </trkpt>
      <trkpt lat="48.20703" lon="3.21056">
        <ele>164</ele>
        <time>2017-07-30T08:28:09Z</time>
      </trkpt>
      <trkpt lat="48.20708" lon="3.21067">
        <ele>164</ele>
        <time>2017-07-30T08:28:11Z</time>
      </trkpt>
      <trkpt lat="48.20714" lon="3.21077">
        <ele>164</ele>
        <time>2017-07-30T08:28:13Z</time>
      </trkpt>
      <trkpt lat="48.2072" lon="3.21083">
        <ele>164</ele>
        <time>2017-07-30T08:28:16Z</time>
      </trkpt>
      <trkpt lat="48.2073" lon="3.21083">
        <ele>163</ele>
        <time>2017-07-30T08:28:19Z</time>
      </trkpt>
      <trkpt lat="48.2074" lon="3.21087">
        <ele>164</ele>
        <time>2017-07-30T08:28:22Z</time>
      </trkpt>
      <trkpt lat="48.20747" lon="3.21092">
        <ele>164</ele>
        <time>2017-07-30T08:28:24Z</time>
      </trkpt>
      <trkpt lat="48.20754" lon="3.21094">
        <ele>162</ele>
        <time>2017-07-30T08:28:26Z</time>
      </trkpt>
      <trkpt lat="48.20765" lon="3.211">
        <ele>162</ele>
        <time>2017-07-30T08:28:28Z</time>
      </trkpt>
      <trkpt lat="48.20777" lon="3.21101">
        <ele>162</ele>
        <time>2017-07-30T08:28:30Z</time>
      </trkpt>
      <trkpt lat="48.20789" lon="3.21107">
        <ele>161</ele>
        <time>2017-07-30T08:28:32Z</time>
      </trkpt>
      <trkpt lat="48.20796" lon="3.2111">
        <ele>161</ele>
        <time>2017-07-30T08:28:33Z</time>
      </trkpt>
      <trkpt lat="48.20801" lon="3.21119">
        <ele>161</ele>
        <time>2017-07-30T08:28:35Z</time>
      </trkpt>
      <trkpt lat="48.20804" lon="3.21131">
        <ele>162</ele>
        <time>2017-07-30T08:28:37Z</time>
      </trkpt>
      <trkpt lat="48.20811" lon="3.21143">
        <ele>162</ele>
        <time>2017-07-30T08:28:39Z</time>
      </trkpt>
      <trkpt lat="48.20817" lon="3.21153">
        <ele>162</ele>
        <time>2017-07-30T08:28:41Z</time>
      </trkpt>
      <trkpt lat="48.20821" lon="3.21163">
        <ele>163</ele>
        <time>2017-07-30T08:28:43Z</time>
      </trkpt>
      <trkpt lat="48.20829" lon="3.21178">
        <ele>164</ele>
        <time>2017-07-30T08:28:45Z</time>
      </trkpt>
      <trkpt lat="48.20835" lon="3.21189">
        <ele>162</ele>
        <time>2017-07-30T08:28:47Z</time>
      </trkpt>
      <trkpt lat="48.20842" lon="3.21196">
        <ele>162</ele>
        <time>2017-07-30T08:28:49Z</time>
      </trkpt>
      <trkpt lat="48.2085" lon="3.21204">
        <ele>161</ele>
        <time>2017-07-30T08:28:51Z</time>
      </trkpt>
      <trkpt lat="48.2086" lon="3.21213">
        <ele>161</ele>
        <time>2017-07-30T08:28:54Z</time>
      </trkpt>
      <trkpt lat="48.20866" lon="3.21224">
        <ele>161</ele>
        <time>2017-07-30T08:28:56Z</time>
      </trkpt>
      <trkpt lat="48.2087" lon="3.21239">
        <ele>161</ele>
        <time>2017-07-30T08:28:59Z</time>
      </trkpt>
      <trkpt lat="48.20875" lon="3.21249">
        <ele>161</ele>
        <time>2017-07-30T08:29:01Z</time>
      </trkpt>
      <trkpt lat="48.20884" lon="3.21253">
        <ele>163</ele>
        <time>2017-07-30T08:29:03Z</time>
      </trkpt>
      <trkpt lat="48.20893" lon="3.2126">
        <ele>163</ele>
        <time>2017-07-30T08:29:06Z</time>
      </trkpt>
      <trkpt lat="48.20897" lon="3.21272">
        <ele>163</ele>
        <time>2017-07-30T08:29:08Z</time>
      </trkpt>
      <trkpt lat="48.20901" lon="3.21283">
        <ele>164</ele>
        <time>2017-07-30T08:29:10Z</time>
      </trkpt>
      <trkpt lat="48.20905" lon="3.21294">
        <ele>164</ele>
        <time>2017-07-30T08:29:13Z</time>
      </trkpt>
      <trkpt lat="48.20913" lon="3.21301">
        <ele>164</ele>
        <time>2017-07-30T08:29:16Z</time>
      </trkpt>
      <trkpt lat="48.2092" lon="3.2131">
        <ele>162</ele>
        <time>2017-07-30T08:29:20Z</time>
      </trkpt>
      <trkpt lat="48.20926" lon="3.21317">
        <ele>162</ele>
        <time>2017-07-30T08:29:24Z</time>
      </trkpt>
      <trkpt lat="48.20935" lon="3.2132">
        <ele>162</ele>
        <time>2017-07-30T08:29:27Z</time>
      </trkpt>
      <trkpt lat="48.20947" lon="3.21314">
        <ele>161</ele>
        <time>2017-07-30T08:29:29Z</time>
      </trkpt>
      <trkpt lat="48.20959" lon="3.21307">
        <ele>161</ele>
        <time>2017-07-30T08:29:31Z</time>
      </trkpt>
      <trkpt lat="48.20967" lon="3.21307">
        <ele>160</ele>
        <time>2017-07-30T08:29:33Z</time>
      </trkpt>
      <trkpt lat="48.20978" lon="3.21308">
        <ele>160</ele>
        <time>2017-07-30T08:29:35Z</time>
      </trkpt>
      <trkpt lat="48.20992" lon="3.21302">
        <ele>160</ele>
        <time>2017-07-30T08:29:37Z</time>
      </trkpt>
      <trkpt lat="48.20999" lon="3.21285">
        <ele>159</ele>
        <time>2017-07-30T08:29:39Z</time>
      </trkpt>
      <trkpt lat="48.20992" lon="3.21274">
        <ele>158</ele>
        <time>2017-07-30T08:29:43Z</time>
      </trkpt>
      <trkpt lat="48.20995" lon="3.21259">
        <ele>156</ele>
        <time>2017-07-30T08:29:47Z</time>
      </trkpt>
      <trkpt lat="48.20995" lon="3.21247">
        <ele>154</ele>
        <time>2017-07-30T08:29:49Z</time>
      </trkpt>
      <trkpt lat="48.20999" lon="3.21233">
        <ele>154</ele>
        <time>2017-07-30T08:29:52Z</time>
      </trkpt>
      <trkpt lat="48.20995" lon="3.21227">
        <ele>154</ele>
        <time>2017-07-30T08:29:59Z</time>
      </trkpt>
      <trkpt lat="48.21001" lon="3.21235">
        <ele>151</ele>
        <time>2017-07-30T08:30:06Z</time>
      </trkpt>
      <trkpt lat="48.21009" lon="3.21244">
        <ele>152</ele>
        <time>2017-07-30T08:30:09Z</time>
      </trkpt>
      <trkpt lat="48.2101" lon="3.21256">
        <ele>154</ele>
        <time>2017-07-30T08:30:13Z</time>
      </trkpt>
      <trkpt lat="48.21014" lon="3.21269">
        <ele>153</ele>
        <time>2017-07-30T08:30:15Z</time>
      </trkpt>
      <trkpt lat="48.21021" lon="3.21277">
        <ele>153</ele>
        <time>2017-07-30T08:30:18Z</time>
      </trkpt>
      <trkpt lat="48.21031" lon="3.21287">
        <ele>153</ele>
        <time>2017-07-30T08:30:20Z</time>
      </trkpt>
      <trkpt lat="48.2104" lon="3.2129">
        <ele>153</ele>
        <time>2017-07-30T08:30:23Z</time>
      </trkpt>
      <trkpt lat="48.21044" lon="3.21305">
        <ele>153</ele>
        <time>2017-07-30T08:30:26Z</time>
      </trkpt>
      <trkpt lat="48.21047" lon="3.21316">
        <ele>153</ele>
        <time>2017-07-30T08:30:28Z</time>
      </trkpt>
      <trkpt lat="48.21052" lon="3.21324">
        <ele>153</ele>
        <time>2017-07-30T08:30:30Z</time>
      </trkpt>
      <trkpt lat="48.21058" lon="3.2133">
        <ele>152</ele>
        <time>2017-07-30T08:30:32Z</time>
      </trkpt>
      <trkpt lat="48.21064" lon="3.2134">
        <ele>154</ele>
        <time>2017-07-30T08:30:34Z</time>
      </trkpt>
      <trkpt lat="48.2107" lon="3.21355">
        <ele>155</ele>
        <time>2017-07-30T08:30:36Z</time>
      </trkpt>
      <trkpt lat="48.21074" lon="3.21368">
        <ele>155</ele>
        <time>2017-07-30T08:30:38Z</time>
      </trkpt>
      <trkpt lat="48.2108" lon="3.21372">
        <ele>155</ele>
        <time>2017-07-30T08:30:39Z</time>
      </trkpt>
      <trkpt lat="48.21079" lon="3.21384">
        <ele>156</ele>
        <time>2017-07-30T08:30:41Z</time>
      </trkpt>
      <trkpt lat="48.21083" lon="3.21398">
        <ele>155</ele>
        <time>2017-07-30T08:30:43Z</time>
      </trkpt>
      <trkpt lat="48.21087" lon="3.21408">
        <ele>151</ele>
        <time>2017-07-30T08:30:45Z</time>
      </trkpt>
      <trkpt lat="48.21087" lon="3.21421">
        <ele>153</ele>
        <time>2017-07-30T08:30:47Z</time>
      </trkpt>
      <trkpt lat="48.21092" lon="3.21437">
        <ele>151</ele>
        <time>2017-07-30T08:30:49Z</time>
      </trkpt>
      <trkpt lat="48.21099" lon="3.21449">
        <ele>151</ele>
        <time>2017-07-30T08:30:52Z</time>
      </trkpt>
      <trkpt lat="48.21097" lon="3.2146">
        <ele>151</ele>
        <time>2017-07-30T08:30:55Z</time>
      </trkpt>
      <trkpt lat="48.21096" lon="3.21475">
        <ele>152</ele>
        <time>2017-07-30T08:30:58Z</time>
      </trkpt>
      <trkpt lat="48.21099" lon="3.21487">
        <ele>153</ele>
        <time>2017-07-30T08:31:00Z</time>
      </trkpt>
      <trkpt lat="48.211" lon="3.21498">
        <ele>154</ele>
        <time>2017-07-30T08:31:03Z</time>
      </trkpt>
      <trkpt lat="48.21096" lon="3.21509">
        <ele>156</ele>
        <time>2017-07-30T08:31:08Z</time>
      </trkpt>
      <trkpt lat="48.21092" lon="3.21519">
        <ele>155</ele>
        <time>2017-07-30T08:31:12Z</time>
      </trkpt>
      <trkpt lat="48.21087" lon="3.21528">
        <ele>155</ele>
        <time>2017-07-30T08:31:17Z</time>
      </trkpt>
      <trkpt lat="48.21079" lon="3.21532">
        <ele>163</ele>
        <time>2017-07-30T08:31:21Z</time>
      </trkpt>
      <trkpt lat="48.21076" lon="3.21542">
        <ele>163</ele>
        <time>2017-07-30T08:31:25Z</time>
      </trkpt>
      <trkpt lat="48.21068" lon="3.21548">
        <ele>164</ele>
        <time>2017-07-30T08:31:28Z</time>
      </trkpt>
      <trkpt lat="48.21063" lon="3.21555">
        <ele>164</ele>
        <time>2017-07-30T08:31:32Z</time>
      </trkpt>
      <trkpt lat="48.21065" lon="3.21566">
        <ele>164</ele>
        <time>2017-07-30T08:31:35Z</time>
      </trkpt>
      <trkpt lat="48.21066" lon="3.21579">
        <ele>164</ele>
        <time>2017-07-30T08:31:39Z</time>
      </trkpt>
      <trkpt lat="48.21068" lon="3.2159">
        <ele>165</ele>
        <time>2017-07-30T08:31:44Z</time>
      </trkpt>
      <trkpt lat="48.21075" lon="3.21599">
        <ele>165</ele>
        <time>2017-07-30T08:31:49Z</time>
      </trkpt>
      <trkpt lat="48.21081" lon="3.21604">
        <ele>166</ele>
        <time>2017-07-30T08:31:52Z</time>
      </trkpt>
      <trkpt lat="48.21086" lon="3.21615">
        <ele>161</ele>
        <time>2017-07-30T08:31:56Z</time>
      </trkpt>
      <trkpt lat="48.21093" lon="3.21624">
        <ele>161</ele>
        <time>2017-07-30T08:32:01Z</time>
      </trkpt>
      <trkpt lat="48.21104" lon="3.21629">
        <ele>161</ele>
        <time>2017-07-30T08:32:04Z</time>
      </trkpt>
      <trkpt lat="48.21111" lon="3.21634">
        <ele>161</ele>
        <time>2017-07-30T08:32:07Z</time>
      </trkpt>
      <trkpt lat="48.2112" lon="3.21638">
        <ele>160</ele>
        <time>2017-07-30T08:32:11Z</time>
      </trkpt>
      <trkpt lat="48.21128" lon="3.21645">
        <ele>160</ele>
        <time>2017-07-30T08:32:14Z</time>
      </trkpt>
      <trkpt lat="48.21135" lon="3.21648">
        <ele>160</ele>
        <time>2017-07-30T08:32:16Z</time>
      </trkpt>
      <trkpt lat="48.21142" lon="3.21651">
        <ele>160</ele>
        <time>2017-07-30T08:32:18Z</time>
      </trkpt>
      <trkpt lat="48.21152" lon="3.21656">
        <ele>160</ele>
        <time>2017-07-30T08:32:22Z</time>
      </trkpt>
      <trkpt lat="48.21159" lon="3.2166">
        <ele>160</ele>
        <time>2017-07-30T08:32:25Z</time>
      </trkpt>
      <trkpt lat="48.21169" lon="3.21662">
        <ele>158</ele>
        <time>2017-07-30T08:32:27Z</time>
      </trkpt>
      <trkpt lat="48.21179" lon="3.21666">
        <ele>156</ele>
        <time>2017-07-30T08:32:29Z</time>
      </trkpt>
      <trkpt lat="48.21188" lon="3.2167">
        <ele>159</ele>
        <time>2017-07-30T08:32:31Z</time>
      </trkpt>
      <trkpt lat="48.21196" lon="3.21672">
        <ele>159</ele>
        <time>2017-07-30T08:32:33Z</time>
      </trkpt>
      <trkpt lat="48.21204" lon="3.21672">
        <ele>158</ele>
        <time>2017-07-30T08:32:36Z</time>
      </trkpt>
      <trkpt lat="48.21215" lon="3.21676">
        <ele>158</ele>
        <time>2017-07-30T08:32:39Z</time>
      </trkpt>
      <trkpt lat="48.21226" lon="3.21683">
        <ele>157</ele>
        <time>2017-07-30T08:32:41Z</time>
      </trkpt>
      <trkpt lat="48.21235" lon="3.2169">
        <ele>157</ele>
        <time>2017-07-30T08:32:43Z</time>
      </trkpt>
      <trkpt lat="48.21242" lon="3.21691">
        <ele>156</ele>
        <time>2017-07-30T08:32:48Z</time>
      </trkpt>
      <trkpt lat="48.21249" lon="3.21687">
        <ele>155</ele>
        <time>2017-07-30T08:32:56Z</time>
      </trkpt>
      <trkpt lat="48.21251" lon="3.21685">
        <ele>152</ele>
        <time>2017-07-30T08:33:03Z</time>
      </trkpt>
      <trkpt lat="48.21251" lon="3.21685">
        <ele>152</ele>
        <time>2017-07-30T08:33:07Z</time>
      </trkpt>
      <trkpt lat="48.2126" lon="3.2169">
        <ele>152</ele>
        <time>2017-07-30T08:33:32Z</time>
      </trkpt>
      <trkpt lat="48.21266" lon="3.21698">
        <ele>153</ele>
        <time>2017-07-30T08:33:36Z</time>
      </trkpt>
      <trkpt lat="48.21276" lon="3.21704">
        <ele>153</ele>
        <time>2017-07-30T08:33:39Z</time>
      </trkpt>
      <trkpt lat="48.21288" lon="3.2171">
        <ele>153</ele>
        <time>2017-07-30T08:33:41Z</time>
      </trkpt>
      <trkpt lat="48.21295" lon="3.21711">
        <ele>153</ele>
        <time>2017-07-30T08:33:43Z</time>
      </trkpt>
      <trkpt lat="48.21305" lon="3.21714">
        <ele>153</ele>
        <time>2017-07-30T08:33:45Z</time>
      </trkpt>
      <trkpt lat="48.21312" lon="3.21718">
        <ele>153</ele>
        <time>2017-07-30T08:33:47Z</time>
      </trkpt>
      <trkpt lat="48.21322" lon="3.2172">
        <ele>153</ele>
        <time>2017-07-30T08:33:49Z</time>
      </trkpt>
      <trkpt lat="48.21333" lon="3.21726">
        <ele>153</ele>
        <time>2017-07-30T08:33:52Z</time>
      </trkpt>
      <trkpt lat="48.21341" lon="3.21725">
        <ele>147</ele>
        <time>2017-07-30T08:33:53Z</time>
      </trkpt>
      <trkpt lat="48.2135" lon="3.21731">
        <ele>148</ele>
        <time>2017-07-30T08:33:55Z</time>
      </trkpt>
      <trkpt lat="48.21357" lon="3.21737">
        <ele>147</ele>
        <time>2017-07-30T08:33:57Z</time>
      </trkpt>
      <trkpt lat="48.21369" lon="3.21736">
        <ele>146</ele>
        <time>2017-07-30T08:33:59Z</time>
      </trkpt>
      <trkpt lat="48.2138" lon="3.21741">
        <ele>145</ele>
        <time>2017-07-30T08:34:01Z</time>
      </trkpt>
      <trkpt lat="48.21394" lon="3.21743">
        <ele>144</ele>
        <time>2017-07-30T08:34:03Z</time>
      </trkpt>
      <trkpt lat="48.2141" lon="3.21745">
        <ele>143</ele>
        <time>2017-07-30T08:34:05Z</time>
      </trkpt>
      <trkpt lat="48.21418" lon="3.21747">
        <ele>141</ele>
        <time>2017-07-30T08:34:06Z</time>
      </trkpt>
      <trkpt lat="48.2143" lon="3.21751">
        <ele>141</ele>
        <time>2017-07-30T08:34:08Z</time>
      </trkpt>
      <trkpt lat="48.21439" lon="3.21752">
        <ele>139</ele>
        <time>2017-07-30T08:34:09Z</time>
      </trkpt>
      <trkpt lat="48.21447" lon="3.21754">
        <ele>138</ele>
        <time>2017-07-30T08:34:10Z</time>
      </trkpt>
      <trkpt lat="48.21456" lon="3.21756">
        <ele>137</ele>
        <time>2017-07-30T08:34:11Z</time>
      </trkpt>
      <trkpt lat="48.21464" lon="3.21758">
        <ele>136</ele>
        <time>2017-07-30T08:34:13Z</time>
      </trkpt>
      <trkpt lat="48.21474" lon="3.21763">
        <ele>134</ele>
        <time>2017-07-30T08:34:15Z</time>
      </trkpt>
      <trkpt lat="48.21483" lon="3.21766">
        <ele>133</ele>
        <time>2017-07-30T08:34:17Z</time>
      </trkpt>
      <trkpt lat="48.21491" lon="3.21764">
        <ele>131</ele>
        <time>2017-07-30T08:34:19Z</time>
      </trkpt>
      <trkpt lat="48.215" lon="3.21769">
        <ele>124</ele>
        <time>2017-07-30T08:34:22Z</time>
      </trkpt>
      <trkpt lat="48.21509" lon="3.21774">
        <ele>124</ele>
        <time>2017-07-30T08:34:25Z</time>
      </trkpt>
      <trkpt lat="48.21511" lon="3.21776">
        <ele>124</ele>
        <time>2017-07-30T08:34:32Z</time>
      </trkpt>
      <trkpt lat="48.2151" lon="3.21776">
        <ele>124</ele>
        <time>2017-07-30T08:34:33Z</time>
      </trkpt>
      <trkpt lat="48.21517" lon="3.21777">
        <ele>124</ele>
        <time>2017-07-30T08:35:01Z</time>
      </trkpt>
      <trkpt lat="48.21525" lon="3.21781">
        <ele>124</ele>
        <time>2017-07-30T08:35:03Z</time>
      </trkpt>
      <trkpt lat="48.21534" lon="3.21785">
        <ele>123</ele>
        <time>2017-07-30T08:35:05Z</time>
      </trkpt>
      <trkpt lat="48.21546" lon="3.21788">
        <ele>123</ele>
        <time>2017-07-30T08:35:07Z</time>
      </trkpt>
      <trkpt lat="48.21559" lon="3.21793">
        <ele>122</ele>
        <time>2017-07-30T08:35:09Z</time>
      </trkpt>
      <trkpt lat="48.21574" lon="3.21799">
        <ele>121</ele>
        <time>2017-07-30T08:35:11Z</time>
      </trkpt>
      <trkpt lat="48.21582" lon="3.21799">
        <ele>121</ele>
        <time>2017-07-30T08:35:12Z</time>
      </trkpt>
      <trkpt lat="48.2159" lon="3.21801">
        <ele>116</ele>
        <time>2017-07-30T08:35:13Z</time>
      </trkpt>
      <trkpt lat="48.21598" lon="3.21804">
        <ele>116</ele>
        <time>2017-07-30T08:35:14Z</time>
      </trkpt>
      <trkpt lat="48.21607" lon="3.21805">
        <ele>116</ele>
        <time>2017-07-30T08:35:15Z</time>
      </trkpt>
      <trkpt lat="48.21615" lon="3.21807">
        <ele>115</ele>
        <time>2017-07-30T08:35:16Z</time>
      </trkpt>
      <trkpt lat="48.21623" lon="3.21809">
        <ele>115</ele>
        <time>2017-07-30T08:35:17Z</time>
      </trkpt>
      <trkpt lat="48.2163" lon="3.21812">
        <ele>115</ele>
        <time>2017-07-30T08:35:18Z</time>
      </trkpt>
      <trkpt lat="48.21638" lon="3.21815">
        <ele>115</ele>
        <time>2017-07-30T08:35:19Z</time>
      </trkpt>
      <trkpt lat="48.21647" lon="3.21817">
        <ele>115</ele>
        <time>2017-07-30T08:35:20Z</time>
      </trkpt>
      <trkpt lat="48.21654" lon="3.21819">
        <ele>115</ele>
        <time>2017-07-30T08:35:21Z</time>
      </trkpt>
      <trkpt lat="48.21661" lon="3.21822">
        <ele>115</ele>
        <time>2017-07-30T08:35:22Z</time>
      </trkpt>
      <trkpt lat="48.21669" lon="3.21824">
        <ele>115</ele>
        <time>2017-07-30T08:35:23Z</time>
      </trkpt>
      <trkpt lat="48.21681" lon="3.21828">
        <ele>114</ele>
        <time>2017-07-30T08:35:25Z</time>
      </trkpt>
      <trkpt lat="48.2169" lon="3.2183">
        <ele>114</ele>
        <time>2017-07-30T08:35:27Z</time>
      </trkpt>
      <trkpt lat="48.21697" lon="3.21832">
        <ele>113</ele>
        <time>2017-07-30T08:35:31Z</time>
      </trkpt>
      <trkpt lat="48.21701" lon="3.21831">
        <ele>113</ele>
        <time>2017-07-30T08:35:38Z</time>
      </trkpt>
      <trkpt lat="48.21702" lon="3.2183">
        <ele>113</ele>
        <time>2017-07-30T08:35:45Z</time>
      </trkpt>
      <trkpt lat="48.21707" lon="3.21817">
        <ele>113</ele>
        <time>2017-07-30T08:35:49Z</time>
      </trkpt>
      <trkpt lat="48.21711" lon="3.21805">
        <ele>112</ele>
        <time>2017-07-30T08:35:52Z</time>
      </trkpt>
      <trkpt lat="48.21716" lon="3.21795">
        <ele>112</ele>
        <time>2017-07-30T08:35:54Z</time>
      </trkpt>
      <trkpt lat="48.21721" lon="3.21782">
        <ele>111</ele>
        <time>2017-07-30T08:35:56Z</time>
      </trkpt>
      <trkpt lat="48.21728" lon="3.2177">
        <ele>110</ele>
        <time>2017-07-30T08:35:58Z</time>
      </trkpt>
      <trkpt lat="48.21736" lon="3.21756">
        <ele>109</ele>
        <time>2017-07-30T08:36:01Z</time>
      </trkpt>
      <trkpt lat="48.21744" lon="3.21747">
        <ele>106</ele>
        <time>2017-07-30T08:36:03Z</time>
      </trkpt>
      <trkpt lat="48.21754" lon="3.21738">
        <ele>105</ele>
        <time>2017-07-30T08:36:05Z</time>
      </trkpt>
      <trkpt lat="48.21762" lon="3.2173">
        <ele>105</ele>
        <time>2017-07-30T08:36:07Z</time>
      </trkpt>
      <trkpt lat="48.21767" lon="3.2172">
        <ele>104</ele>
        <time>2017-07-30T08:36:10Z</time>
      </trkpt>
      <trkpt lat="48.21771" lon="3.21711">
        <ele>104</ele>
        <time>2017-07-30T08:36:14Z</time>
      </trkpt>
      <trkpt lat="48.21778" lon="3.21717">
        <ele>104</ele>
        <time>2017-07-30T08:36:20Z</time>
      </trkpt>
      <trkpt lat="48.21787" lon="3.21721">
        <ele>104</ele>
        <time>2017-07-30T08:36:25Z</time>
      </trkpt>
      <trkpt lat="48.21794" lon="3.21727">
        <ele>104</ele>
        <time>2017-07-30T08:36:30Z</time>
      </trkpt>
      <trkpt lat="48.21803" lon="3.21732">
        <ele>103</ele>
        <time>2017-07-30T08:36:34Z</time>
      </trkpt>
      <trkpt lat="48.21812" lon="3.21735">
        <ele>103</ele>
        <time>2017-07-30T08:36:37Z</time>
      </trkpt>
      <trkpt lat="48.21822" lon="3.21739">
        <ele>102</ele>
        <time>2017-07-30T08:36:40Z</time>
      </trkpt>
      <trkpt lat="48.21828" lon="3.21743">
        <ele>102</ele>
        <time>2017-07-30T08:36:42Z</time>
      </trkpt>
      <trkpt lat="48.21835" lon="3.21746">
        <ele>101</ele>
        <time>2017-07-30T08:36:44Z</time>
      </trkpt>
      <trkpt lat="48.21843" lon="3.2175">
        <ele>101</ele>
        <time>2017-07-30T08:36:46Z</time>
      </trkpt>
      <trkpt lat="48.2185" lon="3.21754">
        <ele>101</ele>
        <time>2017-07-30T08:36:48Z</time>
      </trkpt>
      <trkpt lat="48.21857" lon="3.2176">
        <ele>101</ele>
        <time>2017-07-30T08:36:50Z</time>
      </trkpt>
      <trkpt lat="48.21865" lon="3.21765">
        <ele>101</ele>
        <time>2017-07-30T08:36:52Z</time>
      </trkpt>
      <trkpt lat="48.21872" lon="3.2177">
        <ele>101</ele>
        <time>2017-07-30T08:36:54Z</time>
      </trkpt>
      <trkpt lat="48.21879" lon="3.21774">
        <ele>101</ele>
        <time>2017-07-30T08:36:56Z</time>
      </trkpt>
      <trkpt lat="48.21887" lon="3.21777">
        <ele>101</ele>
        <time>2017-07-30T08:36:58Z</time>
      </trkpt>
      <trkpt lat="48.21895" lon="3.21782">
        <ele>101</ele>
        <time>2017-07-30T08:37:00Z</time>
      </trkpt>
      <trkpt lat="48.21903" lon="3.21785">
        <ele>101</ele>
        <time>2017-07-30T08:37:02Z</time>
      </trkpt>
      <trkpt lat="48.21911" lon="3.21789">
        <ele>101</ele>
        <time>2017-07-30T08:37:04Z</time>
      </trkpt>
      <trkpt lat="48.21918" lon="3.21793">
        <ele>99</ele>
        <time>2017-07-30T08:37:06Z</time>
      </trkpt>
      <trkpt lat="48.21926" lon="3.21796">
        <ele>99</ele>
        <time>2017-07-30T08:37:08Z</time>
      </trkpt>
      <trkpt lat="48.21936" lon="3.21795">
        <ele>99</ele>
        <time>2017-07-30T08:37:10Z</time>
      </trkpt>
      <trkpt lat="48.21944" lon="3.21798">
        <ele>99</ele>
        <time>2017-07-30T08:37:12Z</time>
      </trkpt>
      <trkpt lat="48.21953" lon="3.21803">
        <ele>99</ele>
        <time>2017-07-30T08:37:15Z</time>
      </trkpt>
      <trkpt lat="48.2196" lon="3.21806">
        <ele>99</ele>
        <time>2017-07-30T08:37:17Z</time>
      </trkpt>
      <trkpt lat="48.21967" lon="3.2181">
        <ele>99</ele>
        <time>2017-07-30T08:37:19Z</time>
      </trkpt>
      <trkpt lat="48.21976" lon="3.21817">
        <ele>99</ele>
        <time>2017-07-30T08:37:22Z</time>
      </trkpt>
      <trkpt lat="48.21985" lon="3.21819">
        <ele>99</ele>
        <time>2017-07-30T08:37:24Z</time>
      </trkpt>
      <trkpt lat="48.21992" lon="3.21822">
        <ele>99</ele>
        <time>2017-07-30T08:37:26Z</time>
      </trkpt>
      <trkpt lat="48.22002" lon="3.21827">
        <ele>98</ele>
        <time>2017-07-30T08:37:29Z</time>
      </trkpt>
      <trkpt lat="48.22009" lon="3.21832">
        <ele>98</ele>
        <time>2017-07-30T08:37:32Z</time>
      </trkpt>
      <trkpt lat="48.22019" lon="3.21839">
        <ele>99</ele>
        <time>2017-07-30T08:37:35Z</time>
      </trkpt>
      <trkpt lat="48.22026" lon="3.21842">
        <ele>98</ele>
        <time>2017-07-30T08:37:37Z</time>
      </trkpt>
      <trkpt lat="48.22032" lon="3.21846">
        <ele>98</ele>
        <time>2017-07-30T08:37:39Z</time>
      </trkpt>
      <trkpt lat="48.2204" lon="3.2185">
        <ele>98</ele>
        <time>2017-07-30T08:37:41Z</time>
      </trkpt>
      <trkpt lat="48.22048" lon="3.21855">
        <ele>98</ele>
        <time>2017-07-30T08:37:44Z</time>
      </trkpt>
      <trkpt lat="48.22057" lon="3.21859">
        <ele>98</ele>
        <time>2017-07-30T08:37:47Z</time>
      </trkpt>
      <trkpt lat="48.22066" lon="3.21864">
        <ele>97</ele>
        <time>2017-07-30T08:37:50Z</time>
      </trkpt>
      <trkpt lat="48.22074" lon="3.2187">
        <ele>97</ele>
        <time>2017-07-30T08:37:52Z</time>
      </trkpt>
      <trkpt lat="48.22082" lon="3.21874">
        <ele>97</ele>
        <time>2017-07-30T08:37:54Z</time>
      </trkpt>
      <trkpt lat="48.2209" lon="3.21884">
        <ele>95</ele>
        <time>2017-07-30T08:37:57Z</time>
      </trkpt>
      <trkpt lat="48.22098" lon="3.2189">
        <ele>95</ele>
        <time>2017-07-30T08:37:59Z</time>
      </trkpt>
      <trkpt lat="48.22106" lon="3.21898">
        <ele>95</ele>
        <time>2017-07-30T08:38:02Z</time>
      </trkpt>
      <trkpt lat="48.22114" lon="3.21904">
        <ele>94</ele>
        <time>2017-07-30T08:38:05Z</time>
      </trkpt>
      <trkpt lat="48.22124" lon="3.21909">
        <ele>94</ele>
        <time>2017-07-30T08:38:08Z</time>
      </trkpt>
      <trkpt lat="48.22131" lon="3.21915">
        <ele>94</ele>
        <time>2017-07-30T08:38:10Z</time>
      </trkpt>
      <trkpt lat="48.22136" lon="3.21924">
        <ele>96</ele>
        <time>2017-07-30T08:38:12Z</time>
      </trkpt>
      <trkpt lat="48.22138" lon="3.21935">
        <ele>96</ele>
        <time>2017-07-30T08:38:14Z</time>
      </trkpt>
      <trkpt lat="48.22143" lon="3.21944">
        <ele>96</ele>
        <time>2017-07-30T08:38:16Z</time>
      </trkpt>
      <trkpt lat="48.22148" lon="3.21956">
        <ele>96</ele>
        <time>2017-07-30T08:38:19Z</time>
      </trkpt>
      <trkpt lat="48.22153" lon="3.21967">
        <ele>96</ele>
        <time>2017-07-30T08:38:21Z</time>
      </trkpt>
      <trkpt lat="48.22152" lon="3.21979">
        <ele>97</ele>
        <time>2017-07-30T08:38:23Z</time>
      </trkpt>
      <trkpt lat="48.22157" lon="3.21993">
        <ele>96</ele>
        <time>2017-07-30T08:38:25Z</time>
      </trkpt>
      <trkpt lat="48.22159" lon="3.22003">
        <ele>97</ele>
        <time>2017-07-30T08:38:27Z</time>
      </trkpt>
      <trkpt lat="48.22162" lon="3.22016">
        <ele>98</ele>
        <time>2017-07-30T08:38:30Z</time>
      </trkpt>
      <trkpt lat="48.22166" lon="3.22027">
        <ele>98</ele>
        <time>2017-07-30T08:38:33Z</time>
      </trkpt>
      <trkpt lat="48.22172" lon="3.22035">
        <ele>95</ele>
        <time>2017-07-30T08:38:37Z</time>
      </trkpt>
      <trkpt lat="48.22179" lon="3.22043">
        <ele>95</ele>
        <time>2017-07-30T08:38:42Z</time>
      </trkpt>
      <trkpt lat="48.22186" lon="3.22051">
        <ele>95</ele>
        <time>2017-07-30T08:38:46Z</time>
      </trkpt>
      <trkpt lat="48.22191" lon="3.22059">
        <ele>95</ele>
        <time>2017-07-30T08:38:49Z</time>
      </trkpt>
      <trkpt lat="48.22194" lon="3.2207">
        <ele>95</ele>
        <time>2017-07-30T08:38:52Z</time>
      </trkpt>
      <trkpt lat="48.22196" lon="3.22083">
        <ele>95</ele>
        <time>2017-07-30T08:38:55Z</time>
      </trkpt>
      <trkpt lat="48.22199" lon="3.22097">
        <ele>95</ele>
        <time>2017-07-30T08:38:58Z</time>
      </trkpt>
      <trkpt lat="48.22203" lon="3.22111">
        <ele>95</ele>
        <time>2017-07-30T08:39:01Z</time>
      </trkpt>
      <trkpt lat="48.22206" lon="3.22125">
        <ele>94</ele>
        <time>2017-07-30T08:39:04Z</time>
      </trkpt>
      <trkpt lat="48.22207" lon="3.22138">
        <ele>94</ele>
        <time>2017-07-30T08:39:07Z</time>
      </trkpt>
      <trkpt lat="48.22211" lon="3.22151">
        <ele>94</ele>
        <time>2017-07-30T08:39:10Z</time>
      </trkpt>
      <trkpt lat="48.22213" lon="3.22163">
        <ele>94</ele>
        <time>2017-07-30T08:39:13Z</time>
      </trkpt>
      <trkpt lat="48.22218" lon="3.22171">
        <ele>92</ele>
        <time>2017-07-30T08:39:15Z</time>
      </trkpt>
      <trkpt lat="48.22225" lon="3.22175">
        <ele>92</ele>
        <time>2017-07-30T08:39:17Z</time>
      </trkpt>
      <trkpt lat="48.22232" lon="3.22179">
        <ele>92</ele>
        <time>2017-07-30T08:39:19Z</time>
      </trkpt>
      <trkpt lat="48.22238" lon="3.22187">
        <ele>92</ele>
        <time>2017-07-30T08:39:21Z</time>
      </trkpt>
      <trkpt lat="48.22244" lon="3.22193">
        <ele>92</ele>
        <time>2017-07-30T08:39:23Z</time>
      </trkpt>
      <trkpt lat="48.2225" lon="3.22201">
        <ele>92</ele>
        <time>2017-07-30T08:39:25Z</time>
      </trkpt>
      <trkpt lat="48.22254" lon="3.2221">
        <ele>95</ele>
        <time>2017-07-30T08:39:27Z</time>
      </trkpt>
      <trkpt lat="48.22258" lon="3.22219">
        <ele>95</ele>
        <time>2017-07-30T08:39:29Z</time>
      </trkpt>
      <trkpt lat="48.22263" lon="3.22227">
        <ele>94</ele>
        <time>2017-07-30T08:39:31Z</time>
      </trkpt>
      <trkpt lat="48.22273" lon="3.22232">
        <ele>95</ele>
        <time>2017-07-30T08:39:34Z</time>
      </trkpt>
      <trkpt lat="48.22282" lon="3.22234">
        <ele>95</ele>
        <time>2017-07-30T08:39:37Z</time>
      </trkpt>
      <trkpt lat="48.2229" lon="3.22236">
        <ele>96</ele>
        <time>2017-07-30T08:39:40Z</time>
      </trkpt>
      <trkpt lat="48.22297" lon="3.22238">
        <ele>97</ele>
        <time>2017-07-30T08:39:43Z</time>
      </trkpt>
      <trkpt lat="48.22306" lon="3.2224">
        <ele>97</ele>
        <time>2017-07-30T08:39:46Z</time>
      </trkpt>
      <trkpt lat="48.22314" lon="3.22243">
        <ele>98</ele>
        <time>2017-07-30T08:39:49Z</time>
      </trkpt>
      <trkpt lat="48.22321" lon="3.22246">
        <ele>99</ele>
        <time>2017-07-30T08:39:52Z</time>
      </trkpt>
      <trkpt lat="48.22328" lon="3.22243">
        <ele>99</ele>
        <time>2017-07-30T08:39:57Z</time>
      </trkpt>
      <trkpt lat="48.22328" lon="3.2223">
        <ele>98</ele>
        <time>2017-07-30T08:40:00Z</time>
      </trkpt>
      <trkpt lat="48.22332" lon="3.2222">
        <ele>98</ele>
        <time>2017-07-30T08:40:03Z</time>
      </trkpt>
      <trkpt lat="48.22335" lon="3.2221">
        <ele>104</ele>
        <time>2017-07-30T08:40:06Z</time>
      </trkpt>
      <trkpt lat="48.22339" lon="3.222">
        <ele>104</ele>
        <time>2017-07-30T08:40:09Z</time>
      </trkpt>
      <trkpt lat="48.22341" lon="3.22187">
        <ele>103</ele>
        <time>2017-07-30T08:40:13Z</time>
      </trkpt>
      <trkpt lat="48.22343" lon="3.22178">
        <ele>103</ele>
        <time>2017-07-30T08:40:16Z</time>
      </trkpt>
      <trkpt lat="48.22348" lon="3.22166">
        <ele>103</ele>
        <time>2017-07-30T08:40:20Z</time>
      </trkpt>
      <trkpt lat="48.22356" lon="3.22165">
        <ele>104</ele>
        <time>2017-07-30T08:40:23Z</time>
      </trkpt>
      <trkpt lat="48.22366" lon="3.22166">
        <ele>105</ele>
        <time>2017-07-30T08:40:27Z</time>
      </trkpt>
      <trkpt lat="48.22375" lon="3.22168">
        <ele>106</ele>
        <time>2017-07-30T08:40:31Z</time>
      </trkpt>
      <trkpt lat="48.22385" lon="3.22169">
        <ele>107</ele>
        <time>2017-07-30T08:40:35Z</time>
      </trkpt>
      <trkpt lat="48.22393" lon="3.2217">
        <ele>107</ele>
        <time>2017-07-30T08:40:38Z</time>
      </trkpt>
      <trkpt lat="48.22402" lon="3.22171">
        <ele>108</ele>
        <time>2017-07-30T08:40:41Z</time>
      </trkpt>
      <trkpt lat="48.22409" lon="3.2217">
        <ele>109</ele>
        <time>2017-07-30T08:40:44Z</time>
      </trkpt>
      <trkpt lat="48.22417" lon="3.22169">
        <ele>111</ele>
        <time>2017-07-30T08:40:47Z</time>
      </trkpt>
      <trkpt lat="48.22425" lon="3.22168">
        <ele>113</ele>
        <time>2017-07-30T08:40:50Z</time>
      </trkpt>
      <trkpt lat="48.22431" lon="3.22174">
        <ele>114</ele>
        <time>2017-07-30T08:40:55Z</time>
      </trkpt>
      <trkpt lat="48.22433" lon="3.22187">
        <ele>115</ele>
        <time>2017-07-30T08:40:59Z</time>
      </trkpt>
      <trkpt lat="48.22434" lon="3.22199">
        <ele>115</ele>
        <time>2017-07-30T08:41:02Z</time>
      </trkpt>
      <trkpt lat="48.22435" lon="3.2221">
        <ele>115</ele>
        <time>2017-07-30T08:41:05Z</time>
      </trkpt>
      <trkpt lat="48.22435" lon="3.22222">
        <ele>115</ele>
        <time>2017-07-30T08:41:08Z</time>
      </trkpt>
      <trkpt lat="48.22436" lon="3.22236">
        <ele>115</ele>
        <time>2017-07-30T08:41:11Z</time>
      </trkpt>
      <trkpt lat="48.22437" lon="3.22248">
        <ele>114</ele>
        <time>2017-07-30T08:41:14Z</time>
      </trkpt>
      <trkpt lat="48.22437" lon="3.22262">
        <ele>114</ele>
        <time>2017-07-30T08:41:17Z</time>
      </trkpt>
      <trkpt lat="48.22437" lon="3.22275">
        <ele>114</ele>
        <time>2017-07-30T08:41:20Z</time>
      </trkpt>
      <trkpt lat="48.22439" lon="3.22291">
        <ele>115</ele>
        <time>2017-07-30T08:41:23Z</time>
      </trkpt>
      <trkpt lat="48.2244" lon="3.22307">
        <ele>114</ele>
        <time>2017-07-30T08:41:26Z</time>
      </trkpt>
      <trkpt lat="48.2244" lon="3.22318">
        <ele>114</ele>
        <time>2017-07-30T08:41:28Z</time>
      </trkpt>
      <trkpt lat="48.22442" lon="3.22332">
        <ele>114</ele>
        <time>2017-07-30T08:41:31Z</time>
      </trkpt>
      <trkpt lat="48.22442" lon="3.22347">
        <ele>113</ele>
        <time>2017-07-30T08:41:34Z</time>
      </trkpt>
      <trkpt lat="48.22446" lon="3.22357">
        <ele>113</ele>
        <time>2017-07-30T08:41:37Z</time>
      </trkpt>
      <trkpt lat="48.22455" lon="3.22357">
        <ele>114</ele>
        <time>2017-07-30T08:41:41Z</time>
      </trkpt>
      <trkpt lat="48.22464" lon="3.22357">
        <ele>114</ele>
        <time>2017-07-30T08:41:44Z</time>
      </trkpt>
      <trkpt lat="48.22473" lon="3.22358">
        <ele>115</ele>
        <time>2017-07-30T08:41:48Z</time>
      </trkpt>
      <trkpt lat="48.2248" lon="3.22359">
        <ele>115</ele>
        <time>2017-07-30T08:41:51Z</time>
      </trkpt>
      <trkpt lat="48.22489" lon="3.22357">
        <ele>115</ele>
        <time>2017-07-30T08:41:54Z</time>
      </trkpt>
      <trkpt lat="48.22497" lon="3.22356">
        <ele>116</ele>
        <time>2017-07-30T08:41:57Z</time>
      </trkpt>
      <trkpt lat="48.22505" lon="3.22351">
        <ele>120</ele>
        <time>2017-07-30T08:42:01Z</time>
      </trkpt>
      <trkpt lat="48.22513" lon="3.22346">
        <ele>120</ele>
        <time>2017-07-30T08:42:05Z</time>
      </trkpt>
      <trkpt lat="48.22521" lon="3.22341">
        <ele>120</ele>
        <time>2017-07-30T08:42:08Z</time>
      </trkpt>
      <trkpt lat="48.22528" lon="3.22338">
        <ele>120</ele>
        <time>2017-07-30T08:42:11Z</time>
      </trkpt>
      <trkpt lat="48.22536" lon="3.22333">
        <ele>123</ele>
        <time>2017-07-30T08:42:15Z</time>
      </trkpt>
      <trkpt lat="48.22544" lon="3.2233">
        <ele>123</ele>
        <time>2017-07-30T08:42:18Z</time>
      </trkpt>
      <trkpt lat="48.22553" lon="3.22327">
        <ele>124</ele>
        <time>2017-07-30T08:42:21Z</time>
      </trkpt>
      <trkpt lat="48.22559" lon="3.22321">
        <ele>124</ele>
        <time>2017-07-30T08:42:24Z</time>
      </trkpt>
      <trkpt lat="48.2257" lon="3.22319">
        <ele>124</ele>
        <time>2017-07-30T08:42:29Z</time>
      </trkpt>
      <trkpt lat="48.22578" lon="3.22314">
        <ele>124</ele>
        <time>2017-07-30T08:42:33Z</time>
      </trkpt>
      <trkpt lat="48.22587" lon="3.2231">
        <ele>127</ele>
        <time>2017-07-30T08:42:37Z</time>
      </trkpt>
      <trkpt lat="48.22594" lon="3.22303">
        <ele>127</ele>
        <time>2017-07-30T08:42:41Z</time>
      </trkpt>
      <trkpt lat="48.22601" lon="3.22295">
        <ele>127</ele>
        <time>2017-07-30T08:42:44Z</time>
      </trkpt>
      <trkpt lat="48.22607" lon="3.22287">
        <ele>127</ele>
        <time>2017-07-30T08:42:47Z</time>
      </trkpt>
      <trkpt lat="48.22616" lon="3.22283">
        <ele>128</ele>
        <time>2017-07-30T08:42:50Z</time>
      </trkpt>
      <trkpt lat="48.22623" lon="3.22275">
        <ele>128</ele>
        <time>2017-07-30T08:42:54Z</time>
      </trkpt>
      <trkpt lat="48.2263" lon="3.2227">
        <ele>128</ele>
        <time>2017-07-30T08:42:57Z</time>
      </trkpt>
      <trkpt lat="48.22638" lon="3.22267">
        <ele>129</ele>
        <time>2017-07-30T08:43:00Z</time>
      </trkpt>
      <trkpt lat="48.22645" lon="3.22261">
        <ele>129</ele>
        <time>2017-07-30T08:43:04Z</time>
      </trkpt>
      <trkpt lat="48.22652" lon="3.22259">
        <ele>130</ele>
        <time>2017-07-30T08:43:08Z</time>
      </trkpt>
      <trkpt lat="48.22658" lon="3.22254">
        <ele>131</ele>
        <time>2017-07-30T08:43:12Z</time>
      </trkpt>
      <trkpt lat="48.22663" lon="3.22246">
        <ele>132</ele>
        <time>2017-07-30T08:43:15Z</time>
      </trkpt>
      <trkpt lat="48.22668" lon="3.22236">
        <ele>133</ele>
        <time>2017-07-30T08:43:19Z</time>
      </trkpt>
      <trkpt lat="48.2267" lon="3.22224">
        <ele>134</ele>
        <time>2017-07-30T08:43:23Z</time>
      </trkpt>
      <trkpt lat="48.2267" lon="3.22211">
        <ele>135</ele>
        <time>2017-07-30T08:43:27Z</time>
      </trkpt>
      <trkpt lat="48.22672" lon="3.22197">
        <ele>135</ele>
        <time>2017-07-30T08:43:31Z</time>
      </trkpt>
      <trkpt lat="48.22674" lon="3.22186">
        <ele>136</ele>
        <time>2017-07-30T08:43:34Z</time>
      </trkpt>
      <trkpt lat="48.22677" lon="3.22173">
        <ele>136</ele>
        <time>2017-07-30T08:43:38Z</time>
      </trkpt>
      <trkpt lat="48.22678" lon="3.22161">
        <ele>138</ele>
        <time>2017-07-30T08:43:41Z</time>
      </trkpt>
      <trkpt lat="48.2268" lon="3.2215">
        <ele>139</ele>
        <time>2017-07-30T08:43:44Z</time>
      </trkpt>
      <trkpt lat="48.2268" lon="3.22139">
        <ele>140</ele>
        <time>2017-07-30T08:43:47Z</time>
      </trkpt>
      <trkpt lat="48.22682" lon="3.22127">
        <ele>141</ele>
        <time>2017-07-30T08:43:50Z</time>
      </trkpt>
      <trkpt lat="48.22685" lon="3.22116">
        <ele>141</ele>
        <time>2017-07-30T08:43:53Z</time>
      </trkpt>
      <trkpt lat="48.22688" lon="3.22102">
        <ele>142</ele>
        <time>2017-07-30T08:43:57Z</time>
      </trkpt>
      <trkpt lat="48.22692" lon="3.22089">
        <ele>142</ele>
        <time>2017-07-30T08:44:01Z</time>
      </trkpt>
      <trkpt lat="48.22696" lon="3.22078">
        <ele>146</ele>
        <time>2017-07-30T08:44:04Z</time>
      </trkpt>
      <trkpt lat="48.22699" lon="3.22067">
        <ele>146</ele>
        <time>2017-07-30T08:44:07Z</time>
      </trkpt>
      <trkpt lat="48.22702" lon="3.22057">
        <ele>146</ele>
        <time>2017-07-30T08:44:10Z</time>
      </trkpt>
      <trkpt lat="48.22706" lon="3.22047">
        <ele>147</ele>
        <time>2017-07-30T08:44:13Z</time>
      </trkpt>
      <trkpt lat="48.2271" lon="3.22036">
        <ele>147</ele>
        <time>2017-07-30T08:44:16Z</time>
      </trkpt>
      <trkpt lat="48.22714" lon="3.22026">
        <ele>147</ele>
        <time>2017-07-30T08:44:19Z</time>
      </trkpt>
      <trkpt lat="48.22717" lon="3.22016">
        <ele>148</ele>
        <time>2017-07-30T08:44:22Z</time>
      </trkpt>
      <trkpt lat="48.22721" lon="3.22005">
        <ele>148</ele>
        <time>2017-07-30T08:44:25Z</time>
      </trkpt>
      <trkpt lat="48.22725" lon="3.21995">
        <ele>151</ele>
        <time>2017-07-30T08:44:28Z</time>
      </trkpt>
      <trkpt lat="48.22729" lon="3.21984">
        <ele>151</ele>
        <time>2017-07-30T08:44:32Z</time>
      </trkpt>
      <trkpt lat="48.22734" lon="3.21974">
        <ele>151</ele>
        <time>2017-07-30T08:44:35Z</time>
      </trkpt>
      <trkpt lat="48.2274" lon="3.21963">
        <ele>152</ele>
        <time>2017-07-30T08:44:38Z</time>
      </trkpt>
      <trkpt lat="48.22745" lon="3.21954">
        <ele>153</ele>
        <time>2017-07-30T08:44:41Z</time>
      </trkpt>
      <trkpt lat="48.22751" lon="3.21944">
        <ele>157</ele>
        <time>2017-07-30T08:44:45Z</time>
      </trkpt>
      <trkpt lat="48.22757" lon="3.21935">
        <ele>157</ele>
        <time>2017-07-30T08:44:49Z</time>
      </trkpt>
      <trkpt lat="48.22764" lon="3.21928">
        <ele>158</ele>
        <time>2017-07-30T08:44:53Z</time>
      </trkpt>
      <trkpt lat="48.22771" lon="3.21921">
        <ele>158</ele>
        <time>2017-07-30T08:44:57Z</time>
      </trkpt>
      <trkpt lat="48.2278" lon="3.21916">
        <ele>161</ele>
        <time>2017-07-30T08:45:01Z</time>
      </trkpt>
      <trkpt lat="48.22787" lon="3.21908">
        <ele>161</ele>
        <time>2017-07-30T08:45:05Z</time>
      </trkpt>
      <trkpt lat="48.22795" lon="3.21901">
        <ele>161</ele>
        <time>2017-07-30T08:45:09Z</time>
      </trkpt>
      <trkpt lat="48.22803" lon="3.21897">
        <ele>162</ele>
        <time>2017-07-30T08:45:13Z</time>
      </trkpt>
      <trkpt lat="48.22812" lon="3.21893">
        <ele>162</ele>
        <time>2017-07-30T08:45:17Z</time>
      </trkpt>
      <trkpt lat="48.2282" lon="3.21886">
        <ele>162</ele>
        <time>2017-07-30T08:45:21Z</time>
      </trkpt>
      <trkpt lat="48.22828" lon="3.21881">
        <ele>162</ele>
        <time>2017-07-30T08:45:25Z</time>
      </trkpt>
      <trkpt lat="48.22835" lon="3.21877">
        <ele>167</ele>
        <time>2017-07-30T08:45:28Z</time>
      </trkpt>
      <trkpt lat="48.22843" lon="3.21871">
        <ele>167</ele>
        <time>2017-07-30T08:45:32Z</time>
      </trkpt>
      <trkpt lat="48.2285" lon="3.21866">
        <ele>168</ele>
        <time>2017-07-30T08:45:35Z</time>
      </trkpt>
      <trkpt lat="48.22858" lon="3.21861">
        <ele>168</ele>
        <time>2017-07-30T08:45:40Z</time>
      </trkpt>
      <trkpt lat="48.22865" lon="3.21858">
        <ele>168</ele>
        <time>2017-07-30T08:45:45Z</time>
      </trkpt>
      <trkpt lat="48.22874" lon="3.21858">
        <ele>169</ele>
        <time>2017-07-30T08:45:50Z</time>
      </trkpt>
      <trkpt lat="48.22881" lon="3.2186">
        <ele>169</ele>
        <time>2017-07-30T08:45:55Z</time>
      </trkpt>
      <trkpt lat="48.22889" lon="3.21863">
        <ele>170</ele>
        <time>2017-07-30T08:45:59Z</time>
      </trkpt>
      <trkpt lat="48.22898" lon="3.21864">
        <ele>170</ele>
        <time>2017-07-30T08:46:02Z</time>
      </trkpt>
      <trkpt lat="48.22905" lon="3.21865">
        <ele>170</ele>
        <time>2017-07-30T08:46:05Z</time>
      </trkpt>
      <trkpt lat="48.22914" lon="3.21865">
        <ele>170</ele>
        <time>2017-07-30T08:46:08Z</time>
      </trkpt>
      <trkpt lat="48.22921" lon="3.2187">
        <ele>174</ele>
        <time>2017-07-30T08:46:11Z</time>
      </trkpt>
      <trkpt lat="48.2293" lon="3.2187">
        <ele>175</ele>
        <time>2017-07-30T08:46:14Z</time>
      </trkpt>
      <trkpt lat="48.22937" lon="3.21872">
        <ele>175</ele>
        <time>2017-07-30T08:46:17Z</time>
      </trkpt>
      <trkpt lat="48.22946" lon="3.21874">
        <ele>175</ele>
        <time>2017-07-30T08:46:20Z</time>
      </trkpt>
      <trkpt lat="48.22956" lon="3.21877">
        <ele>175</ele>
        <time>2017-07-30T08:46:23Z</time>
      </trkpt>
      <trkpt lat="48.22965" lon="3.21878">
        <ele>175</ele>
        <time>2017-07-30T08:46:26Z</time>
      </trkpt>
      <trkpt lat="48.22974" lon="3.2188">
        <ele>176</ele>
        <time>2017-07-30T08:46:29Z</time>
      </trkpt>
      <trkpt lat="48.22982" lon="3.21882">
        <ele>176</ele>
        <time>2017-07-30T08:46:33Z</time>
      </trkpt>
      <trkpt lat="48.22991" lon="3.2188">
        <ele>176</ele>
        <time>2017-07-30T08:46:37Z</time>
      </trkpt>
      <trkpt lat="48.22999" lon="3.21876">
        <ele>176</ele>
        <time>2017-07-30T08:46:41Z</time>
      </trkpt>
      <trkpt lat="48.23005" lon="3.21871">
        <ele>179</ele>
        <time>2017-07-30T08:46:46Z</time>
      </trkpt>
      <trkpt lat="48.23012" lon="3.21865">
        <ele>179</ele>
        <time>2017-07-30T08:46:51Z</time>
      </trkpt>
      <trkpt lat="48.23011" lon="3.21861">
        <ele>180</ele>
        <time>2017-07-30T08:46:58Z</time>
      </trkpt>
      <trkpt lat="48.23014" lon="3.21869">
        <ele>179</ele>
        <time>2017-07-30T08:47:05Z</time>
      </trkpt>
      <trkpt lat="48.2301" lon="3.21861">
        <ele>180</ele>
        <time>2017-07-30T08:47:12Z</time>
      </trkpt>
      <trkpt lat="48.23014" lon="3.21868">
        <ele>179</ele>
        <time>2017-07-30T08:47:19Z</time>
      </trkpt>
      <trkpt lat="48.23014" lon="3.21857">
        <ele>180</ele>
        <time>2017-07-30T08:47:25Z</time>
      </trkpt>
      <trkpt lat="48.23012" lon="3.21863">
        <ele>180</ele>
        <time>2017-07-30T08:47:32Z</time>
      </trkpt>
      <trkpt lat="48.23018" lon="3.21858">
        <ele>180</ele>
        <time>2017-07-30T08:47:39Z</time>
      </trkpt>
      <trkpt lat="48.23025" lon="3.21851">
        <ele>180</ele>
        <time>2017-07-30T08:47:44Z</time>
      </trkpt>
      <trkpt lat="48.23032" lon="3.21844">
        <ele>180</ele>
        <time>2017-07-30T08:47:49Z</time>
      </trkpt>
      <trkpt lat="48.23039" lon="3.21839">
        <ele>180</ele>
        <time>2017-07-30T08:47:53Z</time>
      </trkpt>
      <trkpt lat="48.23047" lon="3.21828">
        <ele>181</ele>
        <time>2017-07-30T08:47:59Z</time>
      </trkpt>
      <trkpt lat="48.23055" lon="3.21822">
        <ele>182</ele>
        <time>2017-07-30T08:48:03Z</time>
      </trkpt>
      <trkpt lat="48.23062" lon="3.21817">
        <ele>182</ele>
        <time>2017-07-30T08:48:06Z</time>
      </trkpt>
      <trkpt lat="48.23069" lon="3.21811">
        <ele>182</ele>
        <time>2017-07-30T08:48:09Z</time>
      </trkpt>
      <trkpt lat="48.23075" lon="3.21805">
        <ele>182</ele>
        <time>2017-07-30T08:48:12Z</time>
      </trkpt>
      <trkpt lat="48.23083" lon="3.21795">
        <ele>182</ele>
        <time>2017-07-30T08:48:15Z</time>
      </trkpt>
      <trkpt lat="48.23091" lon="3.21788">
        <ele>183</ele>
        <time>2017-07-30T08:48:18Z</time>
      </trkpt>
      <trkpt lat="48.23098" lon="3.21783">
        <ele>183</ele>
        <time>2017-07-30T08:48:21Z</time>
      </trkpt>
      <trkpt lat="48.23105" lon="3.21777">
        <ele>184</ele>
        <time>2017-07-30T08:48:24Z</time>
      </trkpt>
      <trkpt lat="48.23112" lon="3.21771">
        <ele>184</ele>
        <time>2017-07-30T08:48:27Z</time>
      </trkpt>
      <trkpt lat="48.23119" lon="3.21763">
        <ele>184</ele>
        <time>2017-07-30T08:48:30Z</time>
      </trkpt>
      <trkpt lat="48.23127" lon="3.21755">
        <ele>184</ele>
        <time>2017-07-30T08:48:33Z</time>
      </trkpt>
      <trkpt lat="48.23135" lon="3.21746">
        <ele>184</ele>
        <time>2017-07-30T08:48:36Z</time>
      </trkpt>
      <trkpt lat="48.23144" lon="3.21738">
        <ele>184</ele>
        <time>2017-07-30T08:48:39Z</time>
      </trkpt>
      <trkpt lat="48.23153" lon="3.2173">
        <ele>184</ele>
        <time>2017-07-30T08:48:42Z</time>
      </trkpt>
      <trkpt lat="48.2316" lon="3.21724">
        <ele>184</ele>
        <time>2017-07-30T08:48:44Z</time>
      </trkpt>
      <trkpt lat="48.23168" lon="3.21716">
        <ele>184</ele>
        <time>2017-07-30T08:48:47Z</time>
      </trkpt>
      <trkpt lat="48.23175" lon="3.2171">
        <ele>184</ele>
        <time>2017-07-30T08:48:50Z</time>
      </trkpt>
      <trkpt lat="48.23184" lon="3.21703">
        <ele>184</ele>
        <time>2017-07-30T08:48:54Z</time>
      </trkpt>
      <trkpt lat="48.23191" lon="3.21696">
        <ele>184</ele>
        <time>2017-07-30T08:48:57Z</time>
      </trkpt>
      <trkpt lat="48.23198" lon="3.2169">
        <ele>184</ele>
        <time>2017-07-30T08:48:59Z</time>
      </trkpt>
      <trkpt lat="48.23206" lon="3.21682">
        <ele>183</ele>
        <time>2017-07-30T08:49:01Z</time>
      </trkpt>
      <trkpt lat="48.23214" lon="3.21674">
        <ele>183</ele>
        <time>2017-07-30T08:49:03Z</time>
      </trkpt>
      <trkpt lat="48.23222" lon="3.21668">
        <ele>183</ele>
        <time>2017-07-30T08:49:05Z</time>
      </trkpt>
      <trkpt lat="48.23232" lon="3.21657">
        <ele>180</ele>
        <time>2017-07-30T08:49:07Z</time>
      </trkpt>
      <trkpt lat="48.23242" lon="3.21648">
        <ele>180</ele>
        <time>2017-07-30T08:49:09Z</time>
      </trkpt>
      <trkpt lat="48.23248" lon="3.21639">
        <ele>179</ele>
        <time>2017-07-30T08:49:10Z</time>
      </trkpt>
      <trkpt lat="48.23258" lon="3.21627">
        <ele>176</ele>
        <time>2017-07-30T08:49:11Z</time>
      </trkpt>
      <trkpt lat="48.23264" lon="3.21622">
        <ele>176</ele>
        <time>2017-07-30T08:49:12Z</time>
      </trkpt>
      <trkpt lat="48.2327" lon="3.21615">
        <ele>175</ele>
        <time>2017-07-30T08:49:13Z</time>
      </trkpt>
      <trkpt lat="48.23278" lon="3.2161">
        <ele>175</ele>
        <time>2017-07-30T08:49:14Z</time>
      </trkpt>
      <trkpt lat="48.23287" lon="3.21602">
        <ele>174</ele>
        <time>2017-07-30T08:49:15Z</time>
      </trkpt>
      <trkpt lat="48.23292" lon="3.21596">
        <ele>174</ele>
        <time>2017-07-30T08:49:16Z</time>
      </trkpt>
      <trkpt lat="48.23303" lon="3.21587">
        <ele>173</ele>
        <time>2017-07-30T08:49:18Z</time>
      </trkpt>
      <trkpt lat="48.23307" lon="3.21575">
        <ele>170</ele>
        <time>2017-07-30T08:49:20Z</time>
      </trkpt>
      <trkpt lat="48.23303" lon="3.21559">
        <ele>171</ele>
        <time>2017-07-30T08:49:22Z</time>
      </trkpt>
      <trkpt lat="48.23297" lon="3.2155">
        <ele>171</ele>
        <time>2017-07-30T08:49:26Z</time>
      </trkpt>
      <trkpt lat="48.2329" lon="3.21541">
        <ele>171</ele>
        <time>2017-07-30T08:49:28Z</time>
      </trkpt>
      <trkpt lat="48.23282" lon="3.21529">
        <ele>171</ele>
        <time>2017-07-30T08:49:31Z</time>
      </trkpt>
      <trkpt lat="48.23275" lon="3.21521">
        <ele>172</ele>
        <time>2017-07-30T08:49:34Z</time>
      </trkpt>
      <trkpt lat="48.23268" lon="3.21514">
        <ele>172</ele>
        <time>2017-07-30T08:49:36Z</time>
      </trkpt>
      <trkpt lat="48.23262" lon="3.21509">
        <ele>173</ele>
        <time>2017-07-30T08:49:39Z</time>
      </trkpt>
      <trkpt lat="48.23256" lon="3.215">
        <ele>174</ele>
        <time>2017-07-30T08:49:42Z</time>
      </trkpt>
      <trkpt lat="48.23251" lon="3.21487">
        <ele>173</ele>
        <time>2017-07-30T08:49:45Z</time>
      </trkpt>
      <trkpt lat="48.23244" lon="3.21477">
        <ele>176</ele>
        <time>2017-07-30T08:49:49Z</time>
      </trkpt>
      <trkpt lat="48.23237" lon="3.21468">
        <ele>176</ele>
        <time>2017-07-30T08:49:51Z</time>
      </trkpt>
      <trkpt lat="48.23232" lon="3.2146">
        <ele>176</ele>
        <time>2017-07-30T08:49:54Z</time>
      </trkpt>
      <trkpt lat="48.23227" lon="3.21449">
        <ele>177</ele>
        <time>2017-07-30T08:49:57Z</time>
      </trkpt>
      <trkpt lat="48.23222" lon="3.21441">
        <ele>177</ele>
        <time>2017-07-30T08:50:00Z</time>
      </trkpt>
      <trkpt lat="48.23217" lon="3.21431">
        <ele>177</ele>
        <time>2017-07-30T08:50:03Z</time>
      </trkpt>
      <trkpt lat="48.23211" lon="3.2142">
        <ele>177</ele>
        <time>2017-07-30T08:50:06Z</time>
      </trkpt>
      <trkpt lat="48.23206" lon="3.21412">
        <ele>179</ele>
        <time>2017-07-30T08:50:09Z</time>
      </trkpt>
      <trkpt lat="48.23202" lon="3.21403">
        <ele>179</ele>
        <time>2017-07-30T08:50:12Z</time>
      </trkpt>
      <trkpt lat="48.23196" lon="3.21391">
        <ele>179</ele>
        <time>2017-07-30T08:50:16Z</time>
      </trkpt>
      <trkpt lat="48.2319" lon="3.21379">
        <ele>179</ele>
        <time>2017-07-30T08:50:20Z</time>
      </trkpt>
      <trkpt lat="48.23184" lon="3.21367">
        <ele>179</ele>
        <time>2017-07-30T08:50:24Z</time>
      </trkpt>
      <trkpt lat="48.23178" lon="3.21357">
        <ele>179</ele>
        <time>2017-07-30T08:50:27Z</time>
      </trkpt>
      <trkpt lat="48.23175" lon="3.21348">
        <ele>179</ele>
        <time>2017-07-30T08:50:30Z</time>
      </trkpt>
      <trkpt lat="48.23169" lon="3.21338">
        <ele>180</ele>
        <time>2017-07-30T08:50:33Z</time>
      </trkpt>
      <trkpt lat="48.23163" lon="3.21328">
        <ele>180</ele>
        <time>2017-07-30T08:50:36Z</time>
      </trkpt>
      <trkpt lat="48.23157" lon="3.21316">
        <ele>181</ele>
        <time>2017-07-30T08:50:39Z</time>
      </trkpt>
      <trkpt lat="48.23152" lon="3.21306">
        <ele>181</ele>
        <time>2017-07-30T08:50:42Z</time>
      </trkpt>
      <trkpt lat="48.23147" lon="3.21294">
        <ele>181</ele>
        <time>2017-07-30T08:50:45Z</time>
      </trkpt>
      <trkpt lat="48.2314" lon="3.21281">
        <ele>181</ele>
        <time>2017-07-30T08:50:48Z</time>
      </trkpt>
      <trkpt lat="48.23136" lon="3.2127">
        <ele>181</ele>
        <time>2017-07-30T08:50:51Z</time>
      </trkpt>
      <trkpt lat="48.23138" lon="3.21259">
        <ele>181</ele>
        <time>2017-07-30T08:50:54Z</time>
      </trkpt>
      <trkpt lat="48.23144" lon="3.21251">
        <ele>181</ele>
        <time>2017-07-30T08:50:57Z</time>
      </trkpt>
      <trkpt lat="48.23151" lon="3.21245">
        <ele>181</ele>
        <time>2017-07-30T08:50:58Z</time>
      </trkpt>
      <trkpt lat="48.23158" lon="3.2124">
        <ele>181</ele>
        <time>2017-07-30T08:51:00Z</time>
      </trkpt>
      <trkpt lat="48.23166" lon="3.2123">
        <ele>181</ele>
        <time>2017-07-30T08:51:04Z</time>
      </trkpt>
      <trkpt lat="48.23173" lon="3.21221">
        <ele>180</ele>
        <time>2017-07-30T08:51:06Z</time>
      </trkpt>
      <trkpt lat="48.23181" lon="3.21215">
        <ele>180</ele>
        <time>2017-07-30T08:51:08Z</time>
      </trkpt>
      <trkpt lat="48.23188" lon="3.21205">
        <ele>179</ele>
        <time>2017-07-30T08:51:10Z</time>
      </trkpt>
      <trkpt lat="48.23196" lon="3.21198">
        <ele>179</ele>
        <time>2017-07-30T08:51:12Z</time>
      </trkpt>
      <trkpt lat="48.23203" lon="3.21189">
        <ele>179</ele>
        <time>2017-07-30T08:51:14Z</time>
      </trkpt>
      <trkpt lat="48.23212" lon="3.21181">
        <ele>179</ele>
        <time>2017-07-30T08:51:16Z</time>
      </trkpt>
      <trkpt lat="48.2322" lon="3.21171">
        <ele>179</ele>
        <time>2017-07-30T08:51:18Z</time>
      </trkpt>
      <trkpt lat="48.2323" lon="3.21161">
        <ele>177</ele>
        <time>2017-07-30T08:51:20Z</time>
      </trkpt>
      <trkpt lat="48.23238" lon="3.21153">
        <ele>177</ele>
        <time>2017-07-30T08:51:22Z</time>
      </trkpt>
      <trkpt lat="48.23247" lon="3.21139">
        <ele>176</ele>
        <time>2017-07-30T08:51:24Z</time>
      </trkpt>
      <trkpt lat="48.23257" lon="3.21129">
        <ele>175</ele>
        <time>2017-07-30T08:51:26Z</time>
      </trkpt>
      <trkpt lat="48.23267" lon="3.21119">
        <ele>174</ele>
        <time>2017-07-30T08:51:28Z</time>
      </trkpt>
      <trkpt lat="48.23273" lon="3.21113">
        <ele>174</ele>
        <time>2017-07-30T08:51:30Z</time>
      </trkpt>
      <trkpt lat="48.23279" lon="3.21106">
        <ele>174</ele>
        <time>2017-07-30T08:51:34Z</time>
      </trkpt>
      <trkpt lat="48.23286" lon="3.2111">
        <ele>174</ele>
        <time>2017-07-30T08:51:40Z</time>
      </trkpt>
      <trkpt lat="48.23294" lon="3.21119">
        <ele>174</ele>
        <time>2017-07-30T08:51:43Z</time>
      </trkpt>
      <trkpt lat="48.23301" lon="3.21127">
        <ele>174</ele>
        <time>2017-07-30T08:51:45Z</time>
      </trkpt>
      <trkpt lat="48.2331" lon="3.21139">
        <ele>173</ele>
        <time>2017-07-30T08:51:47Z</time>
      </trkpt>
      <trkpt lat="48.23318" lon="3.21151">
        <ele>173</ele>
        <time>2017-07-30T08:51:49Z</time>
      </trkpt>
      <trkpt lat="48.23326" lon="3.21164">
        <ele>173</ele>
        <time>2017-07-30T08:51:51Z</time>
      </trkpt>
      <trkpt lat="48.23335" lon="3.2118">
        <ele>171</ele>
        <time>2017-07-30T08:51:53Z</time>
      </trkpt>
      <trkpt lat="48.23346" lon="3.21194">
        <ele>171</ele>
        <time>2017-07-30T08:51:55Z</time>
      </trkpt>
      <trkpt lat="48.23353" lon="3.21201">
        <ele>171</ele>
        <time>2017-07-30T08:51:56Z</time>
      </trkpt>
      <trkpt lat="48.23359" lon="3.21208">
        <ele>171</ele>
        <time>2017-07-30T08:51:57Z</time>
      </trkpt>
      <trkpt lat="48.23365" lon="3.21217">
        <ele>171</ele>
        <time>2017-07-30T08:51:58Z</time>
      </trkpt>
      <trkpt lat="48.23371" lon="3.21236">
        <ele>170</ele>
        <time>2017-07-30T08:52:00Z</time>
      </trkpt>
      <trkpt lat="48.23379" lon="3.21253">
        <ele>168</ele>
        <time>2017-07-30T08:52:02Z</time>
      </trkpt>
      <trkpt lat="48.23386" lon="3.21267">
        <ele>168</ele>
        <time>2017-07-30T08:52:04Z</time>
      </trkpt>
      <trkpt lat="48.23392" lon="3.21278">
        <ele>168</ele>
        <time>2017-07-30T08:52:07Z</time>
      </trkpt>
      <trkpt lat="48.23398" lon="3.21288">
        <ele>167</ele>
        <time>2017-07-30T08:52:11Z</time>
      </trkpt>
      <trkpt lat="48.23403" lon="3.21301">
        <ele>167</ele>
        <time>2017-07-30T08:52:15Z</time>
      </trkpt>
      <trkpt lat="48.23408" lon="3.2131">
        <ele>166</ele>
        <time>2017-07-30T08:52:17Z</time>
      </trkpt>
      <trkpt lat="48.23413" lon="3.21319">
        <ele>165</ele>
        <time>2017-07-30T08:52:19Z</time>
      </trkpt>
      <trkpt lat="48.23418" lon="3.21331">
        <ele>163</ele>
        <time>2017-07-30T08:52:21Z</time>
      </trkpt>
      <trkpt lat="48.23422" lon="3.21348">
        <ele>161</ele>
        <time>2017-07-30T08:52:23Z</time>
      </trkpt>
      <trkpt lat="48.23424" lon="3.21359">
        <ele>160</ele>
        <time>2017-07-30T08:52:24Z</time>
      </trkpt>
      <trkpt lat="48.23427" lon="3.2137">
        <ele>160</ele>
        <time>2017-07-30T08:52:25Z</time>
      </trkpt>
      <trkpt lat="48.23429" lon="3.21385">
        <ele>159</ele>
        <time>2017-07-30T08:52:27Z</time>
      </trkpt>
      <trkpt lat="48.23435" lon="3.21395">
        <ele>159</ele>
        <time>2017-07-30T08:52:29Z</time>
      </trkpt>
      <trkpt lat="48.23443" lon="3.21401">
        <ele>158</ele>
        <time>2017-07-30T08:52:31Z</time>
      </trkpt>
      <trkpt lat="48.23448" lon="3.21413">
        <ele>158</ele>
        <time>2017-07-30T08:52:33Z</time>
      </trkpt>
      <trkpt lat="48.23448" lon="3.21429">
        <ele>155</ele>
        <time>2017-07-30T08:52:38Z</time>
      </trkpt>
      <trkpt lat="48.2344" lon="3.21439">
        <ele>155</ele>
        <time>2017-07-30T08:52:40Z</time>
      </trkpt>
      <trkpt lat="48.23441" lon="3.21455">
        <ele>155</ele>
        <time>2017-07-30T08:52:42Z</time>
      </trkpt>
      <trkpt lat="48.23445" lon="3.21468">
        <ele>154</ele>
        <time>2017-07-30T08:52:44Z</time>
      </trkpt>
      <trkpt lat="48.23453" lon="3.21482">
        <ele>154</ele>
        <time>2017-07-30T08:52:46Z</time>
      </trkpt>
      <trkpt lat="48.23459" lon="3.21488">
        <ele>153</ele>
        <time>2017-07-30T08:52:47Z</time>
      </trkpt>
      <trkpt lat="48.23469" lon="3.215">
        <ele>152</ele>
        <time>2017-07-30T08:52:49Z</time>
      </trkpt>
      <trkpt lat="48.23477" lon="3.2151">
        <ele>151</ele>
        <time>2017-07-30T08:52:51Z</time>
      </trkpt>
      <trkpt lat="48.23487" lon="3.21517">
        <ele>151</ele>
        <time>2017-07-30T08:52:53Z</time>
      </trkpt>
      <trkpt lat="48.235" lon="3.21523">
        <ele>151</ele>
        <time>2017-07-30T08:52:55Z</time>
      </trkpt>
      <trkpt lat="48.23512" lon="3.21528">
        <ele>148</ele>
        <time>2017-07-30T08:52:57Z</time>
      </trkpt>
      <trkpt lat="48.23524" lon="3.21535">
        <ele>148</ele>
        <time>2017-07-30T08:52:59Z</time>
      </trkpt>
      <trkpt lat="48.2353" lon="3.21541">
        <ele>148</ele>
        <time>2017-07-30T08:53:00Z</time>
      </trkpt>
      <trkpt lat="48.23536" lon="3.21549">
        <ele>147</ele>
        <time>2017-07-30T08:53:01Z</time>
      </trkpt>
      <trkpt lat="48.23541" lon="3.21557">
        <ele>147</ele>
        <time>2017-07-30T08:53:02Z</time>
      </trkpt>
      <trkpt lat="48.23553" lon="3.21568">
        <ele>147</ele>
        <time>2017-07-30T08:53:04Z</time>
      </trkpt>
      <trkpt lat="48.23559" lon="3.21576">
        <ele>146</ele>
        <time>2017-07-30T08:53:05Z</time>
      </trkpt>
      <trkpt lat="48.23564" lon="3.21585">
        <ele>146</ele>
        <time>2017-07-30T08:53:06Z</time>
      </trkpt>
      <trkpt lat="48.23572" lon="3.21601">
        <ele>146</ele>
        <time>2017-07-30T08:53:08Z</time>
      </trkpt>
      <trkpt lat="48.23585" lon="3.21618">
        <ele>141</ele>
        <time>2017-07-30T08:53:10Z</time>
      </trkpt>
      <trkpt lat="48.23593" lon="3.21626">
        <ele>140</ele>
        <time>2017-07-30T08:53:11Z</time>
      </trkpt>
      <trkpt lat="48.23598" lon="3.21635">
        <ele>140</ele>
        <time>2017-07-30T08:53:13Z</time>
      </trkpt>
      <trkpt lat="48.23599" lon="3.21647">
        <ele>140</ele>
        <time>2017-07-30T08:53:20Z</time>
      </trkpt>
      <trkpt lat="48.23604" lon="3.21656">
        <ele>140</ele>
        <time>2017-07-30T08:53:25Z</time>
      </trkpt>
      <trkpt lat="48.23612" lon="3.21662">
        <ele>140</ele>
        <time>2017-07-30T08:53:28Z</time>
      </trkpt>
      <trkpt lat="48.23619" lon="3.2167">
        <ele>140</ele>
        <time>2017-07-30T08:53:32Z</time>
      </trkpt>
      <trkpt lat="48.23627" lon="3.21676">
        <ele>140</ele>
        <time>2017-07-30T08:53:35Z</time>
      </trkpt>
      <trkpt lat="48.23635" lon="3.21684">
        <ele>139</ele>
        <time>2017-07-30T08:53:39Z</time>
      </trkpt>
      <trkpt lat="48.23644" lon="3.21691">
        <ele>139</ele>
        <time>2017-07-30T08:53:42Z</time>
      </trkpt>
      <trkpt lat="48.23651" lon="3.217">
        <ele>139</ele>
        <time>2017-07-30T08:53:45Z</time>
      </trkpt>
      <trkpt lat="48.23657" lon="3.21709">
        <ele>139</ele>
        <time>2017-07-30T08:53:48Z</time>
      </trkpt>
      <trkpt lat="48.23664" lon="3.21714">
        <ele>139</ele>
        <time>2017-07-30T08:53:50Z</time>
      </trkpt>
      <trkpt lat="48.2367" lon="3.21721">
        <ele>134</ele>
        <time>2017-07-30T08:53:52Z</time>
      </trkpt>
      <trkpt lat="48.23677" lon="3.2173">
        <ele>134</ele>
        <time>2017-07-30T08:53:54Z</time>
      </trkpt>
      <trkpt lat="48.23683" lon="3.21738">
        <ele>135</ele>
        <time>2017-07-30T08:53:56Z</time>
      </trkpt>
      <trkpt lat="48.23689" lon="3.21746">
        <ele>134</ele>
        <time>2017-07-30T08:53:58Z</time>
      </trkpt>
      <trkpt lat="48.23699" lon="3.21756">
        <ele>136</ele>
        <time>2017-07-30T08:54:00Z</time>
      </trkpt>
      <trkpt lat="48.23707" lon="3.21765">
        <ele>135</ele>
        <time>2017-07-30T08:54:01Z</time>
      </trkpt>
      <trkpt lat="48.23718" lon="3.21775">
        <ele>135</ele>
        <time>2017-07-30T08:54:03Z</time>
      </trkpt>
      <trkpt lat="48.23729" lon="3.21783">
        <ele>134</ele>
        <time>2017-07-30T08:54:05Z</time>
      </trkpt>
      <trkpt lat="48.23743" lon="3.21791">
        <ele>134</ele>
        <time>2017-07-30T08:54:07Z</time>
      </trkpt>
      <trkpt lat="48.2375" lon="3.21796">
        <ele>134</ele>
        <time>2017-07-30T08:54:08Z</time>
      </trkpt>
      <trkpt lat="48.23757" lon="3.21801">
        <ele>128</ele>
        <time>2017-07-30T08:54:09Z</time>
      </trkpt>
      <trkpt lat="48.23764" lon="3.21808">
        <ele>129</ele>
        <time>2017-07-30T08:54:10Z</time>
      </trkpt>
      <trkpt lat="48.23771" lon="3.21813">
        <ele>128</ele>
        <time>2017-07-30T08:54:11Z</time>
      </trkpt>
      <trkpt lat="48.23784" lon="3.21822">
        <ele>128</ele>
        <time>2017-07-30T08:54:13Z</time>
      </trkpt>
      <trkpt lat="48.23792" lon="3.21828">
        <ele>127</ele>
        <time>2017-07-30T08:54:14Z</time>
      </trkpt>
      <trkpt lat="48.238" lon="3.21835">
        <ele>129</ele>
        <time>2017-07-30T08:54:15Z</time>
      </trkpt>
      <trkpt lat="48.23807" lon="3.21839">
        <ele>129</ele>
        <time>2017-07-30T08:54:16Z</time>
      </trkpt>
      <trkpt lat="48.23816" lon="3.21845">
        <ele>128</ele>
        <time>2017-07-30T08:54:17Z</time>
      </trkpt>
      <trkpt lat="48.23824" lon="3.21849">
        <ele>127</ele>
        <time>2017-07-30T08:54:18Z</time>
      </trkpt>
      <trkpt lat="48.23831" lon="3.21854">
        <ele>128</ele>
        <time>2017-07-30T08:54:19Z</time>
      </trkpt>
      <trkpt lat="48.23836" lon="3.21862">
        <ele>124</ele>
        <time>2017-07-30T08:54:20Z</time>
      </trkpt>
      <trkpt lat="48.23843" lon="3.21867">
        <ele>124</ele>
        <time>2017-07-30T08:54:21Z</time>
      </trkpt>
      <trkpt lat="48.2385" lon="3.21872">
        <ele>124</ele>
        <time>2017-07-30T08:54:22Z</time>
      </trkpt>
      <trkpt lat="48.23857" lon="3.2188">
        <ele>124</ele>
        <time>2017-07-30T08:54:23Z</time>
      </trkpt>
      <trkpt lat="48.23869" lon="3.21887">
        <ele>124</ele>
        <time>2017-07-30T08:54:25Z</time>
      </trkpt>
      <trkpt lat="48.23878" lon="3.21893">
        <ele>124</ele>
        <time>2017-07-30T08:54:26Z</time>
      </trkpt>
      <trkpt lat="48.2389" lon="3.21903">
        <ele>123</ele>
        <time>2017-07-30T08:54:28Z</time>
      </trkpt>
      <trkpt lat="48.23897" lon="3.21908">
        <ele>123</ele>
        <time>2017-07-30T08:54:29Z</time>
      </trkpt>
      <trkpt lat="48.23908" lon="3.21918">
        <ele>125</ele>
        <time>2017-07-30T08:54:31Z</time>
      </trkpt>
      <trkpt lat="48.23919" lon="3.21927">
        <ele>123</ele>
        <time>2017-07-30T08:54:33Z</time>
      </trkpt>
      <trkpt lat="48.23926" lon="3.21931">
        <ele>123</ele>
        <time>2017-07-30T08:54:34Z</time>
      </trkpt>
      <trkpt lat="48.23939" lon="3.2194">
        <ele>123</ele>
        <time>2017-07-30T08:54:36Z</time>
      </trkpt>
      <trkpt lat="48.23949" lon="3.21948">
        <ele>123</ele>
        <time>2017-07-30T08:54:38Z</time>
      </trkpt>
      <trkpt lat="48.23956" lon="3.21953">
        <ele>124</ele>
        <time>2017-07-30T08:54:39Z</time>
      </trkpt>
      <trkpt lat="48.23962" lon="3.21959">
        <ele>124</ele>
        <time>2017-07-30T08:54:40Z</time>
      </trkpt>
      <trkpt lat="48.23968" lon="3.21963">
        <ele>124</ele>
        <time>2017-07-30T08:54:41Z</time>
      </trkpt>
      <trkpt lat="48.23976" lon="3.21971">
        <ele>124</ele>
        <time>2017-07-30T08:54:43Z</time>
      </trkpt>
      <trkpt lat="48.23984" lon="3.2197">
        <ele>124</ele>
        <time>2017-07-30T08:54:47Z</time>
      </trkpt>
      <trkpt lat="48.23995" lon="3.21963">
        <ele>123</ele>
        <time>2017-07-30T08:54:50Z</time>
      </trkpt>
      <trkpt lat="48.24002" lon="3.21953">
        <ele>119</ele>
        <time>2017-07-30T08:54:54Z</time>
      </trkpt>
      <trkpt lat="48.24008" lon="3.21944">
        <ele>118</ele>
        <time>2017-07-30T08:54:57Z</time>
      </trkpt>
      <trkpt lat="48.24017" lon="3.21943">
        <ele>118</ele>
        <time>2017-07-30T08:54:59Z</time>
      </trkpt>
      <trkpt lat="48.24025" lon="3.21944">
        <ele>118</ele>
        <time>2017-07-30T08:55:01Z</time>
      </trkpt>
      <trkpt lat="48.24033" lon="3.21948">
        <ele>118</ele>
        <time>2017-07-30T08:55:03Z</time>
      </trkpt>
      <trkpt lat="48.24042" lon="3.21952">
        <ele>118</ele>
        <time>2017-07-30T08:55:05Z</time>
      </trkpt>
      <trkpt lat="48.24054" lon="3.21955">
        <ele>118</ele>
        <time>2017-07-30T08:55:07Z</time>
      </trkpt>
      <trkpt lat="48.24066" lon="3.2196">
        <ele>118</ele>
        <time>2017-07-30T08:55:09Z</time>
      </trkpt>
      <trkpt lat="48.24073" lon="3.21963">
        <ele>118</ele>
        <time>2017-07-30T08:55:10Z</time>
      </trkpt>
      <trkpt lat="48.24081" lon="3.21966">
        <ele>118</ele>
        <time>2017-07-30T08:55:11Z</time>
      </trkpt>
      <trkpt lat="48.24089" lon="3.21969">
        <ele>115</ele>
        <time>2017-07-30T08:55:12Z</time>
      </trkpt>
      <trkpt lat="48.24097" lon="3.21972">
        <ele>115</ele>
        <time>2017-07-30T08:55:13Z</time>
      </trkpt>
      <trkpt lat="48.24104" lon="3.21975">
        <ele>115</ele>
        <time>2017-07-30T08:55:14Z</time>
      </trkpt>
      <trkpt lat="48.24118" lon="3.21981">
        <ele>115</ele>
        <time>2017-07-30T08:55:16Z</time>
      </trkpt>
      <trkpt lat="48.24125" lon="3.21978">
        <ele>114</ele>
        <time>2017-07-30T08:55:17Z</time>
      </trkpt>
      <trkpt lat="48.2413" lon="3.21965">
        <ele>114</ele>
        <time>2017-07-30T08:55:19Z</time>
      </trkpt>
      <trkpt lat="48.24131" lon="3.21962">
        <ele>114</ele>
        <time>2017-07-30T08:55:26Z</time>
      </trkpt>
      <trkpt lat="48.2413" lon="3.21962">
        <ele>114</ele>
        <time>2017-07-30T08:55:33Z</time>
      </trkpt>
      <trkpt lat="48.24129" lon="3.21963">
        <ele>114</ele>
        <time>2017-07-30T08:55:36Z</time>
      </trkpt>
      <trkpt lat="48.2413" lon="3.21962">
        <ele>114</ele>
        <time>2017-07-30T08:55:47Z</time>
      </trkpt>
      <trkpt lat="48.2413" lon="3.21962">
        <ele>114</ele>
        <time>2017-07-30T08:55:49Z</time>
      </trkpt>
      <trkpt lat="48.24131" lon="3.21951">
        <ele>113</ele>
        <time>2017-07-30T08:55:58Z</time>
      </trkpt>
      <trkpt lat="48.24133" lon="3.21935">
        <ele>113</ele>
        <time>2017-07-30T08:56:01Z</time>
      </trkpt>
      <trkpt lat="48.24134" lon="3.2192">
        <ele>112</ele>
        <time>2017-07-30T08:56:03Z</time>
      </trkpt>
      <trkpt lat="48.24136" lon="3.21907">
        <ele>110</ele>
        <time>2017-07-30T08:56:05Z</time>
      </trkpt>
      <trkpt lat="48.24138" lon="3.21893">
        <ele>110</ele>
        <time>2017-07-30T08:56:07Z</time>
      </trkpt>
      <trkpt lat="48.2414" lon="3.21879">
        <ele>110</ele>
        <time>2017-07-30T08:56:09Z</time>
      </trkpt>
      <trkpt lat="48.24142" lon="3.21863">
        <ele>109</ele>
        <time>2017-07-30T08:56:11Z</time>
      </trkpt>
      <trkpt lat="48.24143" lon="3.2185">
        <ele>109</ele>
        <time>2017-07-30T08:56:13Z</time>
      </trkpt>
      <trkpt lat="48.24145" lon="3.21839">
        <ele>109</ele>
        <time>2017-07-30T08:56:15Z</time>
      </trkpt>
      <trkpt lat="48.24148" lon="3.21826">
        <ele>110</ele>
        <time>2017-07-30T08:56:17Z</time>
      </trkpt>
      <trkpt lat="48.2415" lon="3.21814">
        <ele>110</ele>
        <time>2017-07-30T08:56:19Z</time>
      </trkpt>
      <trkpt lat="48.24152" lon="3.21803">
        <ele>110</ele>
        <time>2017-07-30T08:56:21Z</time>
      </trkpt>
      <trkpt lat="48.24153" lon="3.21791">
        <ele>111</ele>
        <time>2017-07-30T08:56:23Z</time>
      </trkpt>
      <trkpt lat="48.24155" lon="3.21778">
        <ele>111</ele>
        <time>2017-07-30T08:56:26Z</time>
      </trkpt>
      <trkpt lat="48.24157" lon="3.21765">
        <ele>111</ele>
        <time>2017-07-30T08:56:29Z</time>
      </trkpt>
      <trkpt lat="48.24158" lon="3.21751">
        <ele>112</ele>
        <time>2017-07-30T08:56:32Z</time>
      </trkpt>
      <trkpt lat="48.24159" lon="3.21738">
        <ele>113</ele>
        <time>2017-07-30T08:56:35Z</time>
      </trkpt>
      <trkpt lat="48.2416" lon="3.21725">
        <ele>114</ele>
        <time>2017-07-30T08:56:39Z</time>
      </trkpt>
      <trkpt lat="48.24163" lon="3.21712">
        <ele>114</ele>
        <time>2017-07-30T08:56:43Z</time>
      </trkpt>
      <trkpt lat="48.24163" lon="3.217">
        <ele>115</ele>
        <time>2017-07-30T08:56:46Z</time>
      </trkpt>
      <trkpt lat="48.24165" lon="3.21688">
        <ele>115</ele>
        <time>2017-07-30T08:56:49Z</time>
      </trkpt>
      <trkpt lat="48.24168" lon="3.21675">
        <ele>115</ele>
        <time>2017-07-30T08:56:52Z</time>
      </trkpt>
      <trkpt lat="48.24168" lon="3.21664">
        <ele>116</ele>
        <time>2017-07-30T08:56:55Z</time>
      </trkpt>
      <trkpt lat="48.2417" lon="3.21654">
        <ele>117</ele>
        <time>2017-07-30T08:56:58Z</time>
      </trkpt>
      <trkpt lat="48.24173" lon="3.21642">
        <ele>117</ele>
        <time>2017-07-30T08:57:02Z</time>
      </trkpt>
      <trkpt lat="48.24173" lon="3.2163">
        <ele>117</ele>
        <time>2017-07-30T08:57:05Z</time>
      </trkpt>
      <trkpt lat="48.24174" lon="3.21617">
        <ele>118</ele>
        <time>2017-07-30T08:57:09Z</time>
      </trkpt>
      <trkpt lat="48.24176" lon="3.21603">
        <ele>119</ele>
        <time>2017-07-30T08:57:13Z</time>
      </trkpt>
      <trkpt lat="48.24177" lon="3.21593">
        <ele>119</ele>
        <time>2017-07-30T08:57:16Z</time>
      </trkpt>
      <trkpt lat="48.2418" lon="3.21577">
        <ele>121</ele>
        <time>2017-07-30T08:57:20Z</time>
      </trkpt>
      <trkpt lat="48.24181" lon="3.21563">
        <ele>121</ele>
        <time>2017-07-30T08:57:24Z</time>
      </trkpt>
      <trkpt lat="48.24183" lon="3.2155">
        <ele>121</ele>
        <time>2017-07-30T08:57:28Z</time>
      </trkpt>
      <trkpt lat="48.24186" lon="3.2154">
        <ele>121</ele>
        <time>2017-07-30T08:57:31Z</time>
      </trkpt>
      <trkpt lat="48.24188" lon="3.21528">
        <ele>121</ele>
        <time>2017-07-30T08:57:34Z</time>
      </trkpt>
      <trkpt lat="48.2419" lon="3.21515">
        <ele>122</ele>
        <time>2017-07-30T08:57:37Z</time>
      </trkpt>
      <trkpt lat="48.24191" lon="3.21503">
        <ele>122</ele>
        <time>2017-07-30T08:57:40Z</time>
      </trkpt>
      <trkpt lat="48.24192" lon="3.21492">
        <ele>122</ele>
        <time>2017-07-30T08:57:43Z</time>
      </trkpt>
      <trkpt lat="48.24195" lon="3.21479">
        <ele>122</ele>
        <time>2017-07-30T08:57:46Z</time>
      </trkpt>
      <trkpt lat="48.24197" lon="3.21467">
        <ele>122</ele>
        <time>2017-07-30T08:57:49Z</time>
      </trkpt>
      <trkpt lat="48.242" lon="3.21455">
        <ele>122</ele>
        <time>2017-07-30T08:57:53Z</time>
      </trkpt>
      <trkpt lat="48.24203" lon="3.21441">
        <ele>122</ele>
        <time>2017-07-30T08:57:57Z</time>
      </trkpt>
      <trkpt lat="48.24204" lon="3.21426">
        <ele>122</ele>
        <time>2017-07-30T08:58:00Z</time>
      </trkpt>
      <trkpt lat="48.24206" lon="3.2141">
        <ele>120</ele>
        <time>2017-07-30T08:58:03Z</time>
      </trkpt>
      <trkpt lat="48.24208" lon="3.21396">
        <ele>120</ele>
        <time>2017-07-30T08:58:05Z</time>
      </trkpt>
      <trkpt lat="48.24211" lon="3.21379">
        <ele>120</ele>
        <time>2017-07-30T08:58:07Z</time>
      </trkpt>
      <trkpt lat="48.24215" lon="3.21361">
        <ele>119</ele>
        <time>2017-07-30T08:58:09Z</time>
      </trkpt>
      <trkpt lat="48.24216" lon="3.21344">
        <ele>119</ele>
        <time>2017-07-30T08:58:11Z</time>
      </trkpt>
      <trkpt lat="48.24217" lon="3.21331">
        <ele>117</ele>
        <time>2017-07-30T08:58:13Z</time>
      </trkpt>
      <trkpt lat="48.24211" lon="3.21322">
        <ele>117</ele>
        <time>2017-07-30T08:58:15Z</time>
      </trkpt>
      <trkpt lat="48.24203" lon="3.21322">
        <ele>118</ele>
        <time>2017-07-30T08:58:20Z</time>
      </trkpt>
      <trkpt lat="48.24193" lon="3.21318">
        <ele>118</ele>
        <time>2017-07-30T08:58:26Z</time>
      </trkpt>
      <trkpt lat="48.24184" lon="3.21318">
        <ele>118</ele>
        <time>2017-07-30T08:58:29Z</time>
      </trkpt>
      <trkpt lat="48.24175" lon="3.21317">
        <ele>118</ele>
        <time>2017-07-30T08:58:32Z</time>
      </trkpt>
      <trkpt lat="48.24167" lon="3.21316">
        <ele>121</ele>
        <time>2017-07-30T08:58:35Z</time>
      </trkpt>
      <trkpt lat="48.24159" lon="3.21312">
        <ele>122</ele>
        <time>2017-07-30T08:58:38Z</time>
      </trkpt>
      <trkpt lat="48.24151" lon="3.21307">
        <ele>122</ele>
        <time>2017-07-30T08:58:41Z</time>
      </trkpt>
      <trkpt lat="48.24142" lon="3.21299">
        <ele>122</ele>
        <time>2017-07-30T08:58:44Z</time>
      </trkpt>
      <trkpt lat="48.24134" lon="3.21293">
        <ele>122</ele>
        <time>2017-07-30T08:58:47Z</time>
      </trkpt>
      <trkpt lat="48.24126" lon="3.21287">
        <ele>123</ele>
        <time>2017-07-30T08:58:50Z</time>
      </trkpt>
      <trkpt lat="48.2412" lon="3.21282">
        <ele>123</ele>
        <time>2017-07-30T08:58:52Z</time>
      </trkpt>
      <trkpt lat="48.24111" lon="3.21277">
        <ele>123</ele>
        <time>2017-07-30T08:58:55Z</time>
      </trkpt>
      <trkpt lat="48.24103" lon="3.21269">
        <ele>123</ele>
        <time>2017-07-30T08:58:58Z</time>
      </trkpt>
      <trkpt lat="48.24095" lon="3.21263">
        <ele>123</ele>
        <time>2017-07-30T08:59:01Z</time>
      </trkpt>
      <trkpt lat="48.24087" lon="3.21256">
        <ele>124</ele>
        <time>2017-07-30T08:59:04Z</time>
      </trkpt>
      <trkpt lat="48.24078" lon="3.21249">
        <ele>124</ele>
        <time>2017-07-30T08:59:07Z</time>
      </trkpt>
      <trkpt lat="48.24069" lon="3.21241">
        <ele>125</ele>
        <time>2017-07-30T08:59:10Z</time>
      </trkpt>
      <trkpt lat="48.24062" lon="3.21236">
        <ele>125</ele>
        <time>2017-07-30T08:59:13Z</time>
      </trkpt>
      <trkpt lat="48.24054" lon="3.21231">
        <ele>126</ele>
        <time>2017-07-30T08:59:16Z</time>
      </trkpt>
      <trkpt lat="48.24045" lon="3.21227">
        <ele>126</ele>
        <time>2017-07-30T08:59:19Z</time>
      </trkpt>
      <trkpt lat="48.24036" lon="3.21229">
        <ele>127</ele>
        <time>2017-07-30T08:59:23Z</time>
      </trkpt>
      <trkpt lat="48.24028" lon="3.21228">
        <ele>127</ele>
        <time>2017-07-30T08:59:26Z</time>
      </trkpt>
      <trkpt lat="48.24022" lon="3.21221">
        <ele>127</ele>
        <time>2017-07-30T08:59:29Z</time>
      </trkpt>
      <trkpt lat="48.24015" lon="3.21216">
        <ele>127</ele>
        <time>2017-07-30T08:59:33Z</time>
      </trkpt>
      <trkpt lat="48.24005" lon="3.21209">
        <ele>127</ele>
        <time>2017-07-30T08:59:37Z</time>
      </trkpt>
      <trkpt lat="48.24001" lon="3.212">
        <ele>127</ele>
        <time>2017-07-30T08:59:40Z</time>
      </trkpt>
      <trkpt lat="48.23995" lon="3.21192">
        <ele>130</ele>
        <time>2017-07-30T08:59:42Z</time>
      </trkpt>
      <trkpt lat="48.23987" lon="3.21181">
        <ele>129</ele>
        <time>2017-07-30T08:59:45Z</time>
      </trkpt>
      <trkpt lat="48.23983" lon="3.21171">
        <ele>129</ele>
        <time>2017-07-30T08:59:47Z</time>
      </trkpt>
      <trkpt lat="48.23978" lon="3.21163">
        <ele>129</ele>
        <time>2017-07-30T08:59:49Z</time>
      </trkpt>
      <trkpt lat="48.23972" lon="3.21155">
        <ele>129</ele>
        <time>2017-07-30T08:59:51Z</time>
      </trkpt>
      <trkpt lat="48.23965" lon="3.21149">
        <ele>130</ele>
        <time>2017-07-30T08:59:53Z</time>
      </trkpt>
      <trkpt lat="48.23957" lon="3.21139">
        <ele>130</ele>
        <time>2017-07-30T08:59:56Z</time>
      </trkpt>
      <trkpt lat="48.23954" lon="3.21128">
        <ele>130</ele>
        <time>2017-07-30T09:00:01Z</time>
      </trkpt>
      <trkpt lat="48.23945" lon="3.21117">
        <ele>131</ele>
        <time>2017-07-30T09:00:04Z</time>
      </trkpt>
      <trkpt lat="48.23939" lon="3.2111">
        <ele>131</ele>
        <time>2017-07-30T09:00:06Z</time>
      </trkpt>
      <trkpt lat="48.2393" lon="3.21104">
        <ele>131</ele>
        <time>2017-07-30T09:00:08Z</time>
      </trkpt>
      <trkpt lat="48.23925" lon="3.21095">
        <ele>131</ele>
        <time>2017-07-30T09:00:11Z</time>
      </trkpt>
      <trkpt lat="48.23917" lon="3.21087">
        <ele>132</ele>
        <time>2017-07-30T09:00:13Z</time>
      </trkpt>
      <trkpt lat="48.23911" lon="3.21078">
        <ele>133</ele>
        <time>2017-07-30T09:00:15Z</time>
      </trkpt>
      <trkpt lat="48.23907" lon="3.2107">
        <ele>134</ele>
        <time>2017-07-30T09:00:17Z</time>
      </trkpt>
      <trkpt lat="48.23899" lon="3.21064">
        <ele>135</ele>
        <time>2017-07-30T09:00:19Z</time>
      </trkpt>
      <trkpt lat="48.23892" lon="3.21054">
        <ele>135</ele>
        <time>2017-07-30T09:00:22Z</time>
      </trkpt>
      <trkpt lat="48.23886" lon="3.21047">
        <ele>136</ele>
        <time>2017-07-30T09:00:24Z</time>
      </trkpt>
      <trkpt lat="48.23878" lon="3.21037">
        <ele>136</ele>
        <time>2017-07-30T09:00:27Z</time>
      </trkpt>
      <trkpt lat="48.23871" lon="3.21027">
        <ele>137</ele>
        <time>2017-07-30T09:00:30Z</time>
      </trkpt>
      <trkpt lat="48.23863" lon="3.21018">
        <ele>137</ele>
        <time>2017-07-30T09:00:33Z</time>
      </trkpt>
      <trkpt lat="48.23855" lon="3.2101">
        <ele>137</ele>
        <time>2017-07-30T09:00:36Z</time>
      </trkpt>
      <trkpt lat="48.23848" lon="3.21004">
        <ele>138</ele>
        <time>2017-07-30T09:00:39Z</time>
      </trkpt>
      <trkpt lat="48.2384" lon="3.20999">
        <ele>139</ele>
        <time>2017-07-30T09:00:42Z</time>
      </trkpt>
      <trkpt lat="48.23831" lon="3.20989">
        <ele>140</ele>
        <time>2017-07-30T09:00:47Z</time>
      </trkpt>
      <trkpt lat="48.23824" lon="3.20982">
        <ele>141</ele>
        <time>2017-07-30T09:00:52Z</time>
      </trkpt>
      <trkpt lat="48.23819" lon="3.20972">
        <ele>142</ele>
        <time>2017-07-30T09:00:55Z</time>
      </trkpt>
      <trkpt lat="48.23811" lon="3.20964">
        <ele>142</ele>
        <time>2017-07-30T09:00:58Z</time>
      </trkpt>
      <trkpt lat="48.23802" lon="3.2096">
        <ele>142</ele>
        <time>2017-07-30T09:01:00Z</time>
      </trkpt>
      <trkpt lat="48.23795" lon="3.20955">
        <ele>143</ele>
        <time>2017-07-30T09:01:02Z</time>
      </trkpt>
      <trkpt lat="48.23789" lon="3.20944">
        <ele>143</ele>
        <time>2017-07-30T09:01:05Z</time>
      </trkpt>
      <trkpt lat="48.23783" lon="3.20937">
        <ele>143</ele>
        <time>2017-07-30T09:01:07Z</time>
      </trkpt>
      <trkpt lat="48.23776" lon="3.20931">
        <ele>143</ele>
        <time>2017-07-30T09:01:09Z</time>
      </trkpt>
      <trkpt lat="48.2377" lon="3.20922">
        <ele>144</ele>
        <time>2017-07-30T09:01:12Z</time>
      </trkpt>
      <trkpt lat="48.23762" lon="3.20914">
        <ele>145</ele>
        <time>2017-07-30T09:01:15Z</time>
      </trkpt>
      <trkpt lat="48.23753" lon="3.20907">
        <ele>145</ele>
        <time>2017-07-30T09:01:18Z</time>
      </trkpt>
      <trkpt lat="48.23745" lon="3.20899">
        <ele>148</ele>
        <time>2017-07-30T09:01:21Z</time>
      </trkpt>
      <trkpt lat="48.23736" lon="3.20891">
        <ele>149</ele>
        <time>2017-07-30T09:01:24Z</time>
      </trkpt>
      <trkpt lat="48.23728" lon="3.2088">
        <ele>149</ele>
        <time>2017-07-30T09:01:27Z</time>
      </trkpt>
      <trkpt lat="48.23723" lon="3.20872">
        <ele>149</ele>
        <time>2017-07-30T09:01:31Z</time>
      </trkpt>
      <trkpt lat="48.23714" lon="3.20865">
        <ele>150</ele>
        <time>2017-07-30T09:01:35Z</time>
      </trkpt>
      <trkpt lat="48.23709" lon="3.20857">
        <ele>150</ele>
        <time>2017-07-30T09:01:37Z</time>
      </trkpt>
      <trkpt lat="48.23704" lon="3.20847">
        <ele>150</ele>
        <time>2017-07-30T09:01:41Z</time>
      </trkpt>
      <trkpt lat="48.23697" lon="3.20841">
        <ele>150</ele>
        <time>2017-07-30T09:01:43Z</time>
      </trkpt>
      <trkpt lat="48.23688" lon="3.20835">
        <ele>150</ele>
        <time>2017-07-30T09:01:46Z</time>
      </trkpt>
      <trkpt lat="48.23682" lon="3.20828">
        <ele>151</ele>
        <time>2017-07-30T09:01:48Z</time>
      </trkpt>
      <trkpt lat="48.23671" lon="3.20818">
        <ele>151</ele>
        <time>2017-07-30T09:01:51Z</time>
      </trkpt>
      <trkpt lat="48.23665" lon="3.20812">
        <ele>155</ele>
        <time>2017-07-30T09:01:54Z</time>
      </trkpt>
      <trkpt lat="48.23662" lon="3.20801">
        <ele>156</ele>
        <time>2017-07-30T09:01:57Z</time>
      </trkpt>
      <trkpt lat="48.2366" lon="3.20787">
        <ele>156</ele>
        <time>2017-07-30T09:02:00Z</time>
      </trkpt>
      <trkpt lat="48.23655" lon="3.20776">
        <ele>156</ele>
        <time>2017-07-30T09:02:04Z</time>
      </trkpt>
      <trkpt lat="48.23652" lon="3.20766">
        <ele>156</ele>
        <time>2017-07-30T09:02:06Z</time>
      </trkpt>
      <trkpt lat="48.23644" lon="3.20758">
        <ele>156</ele>
        <time>2017-07-30T09:02:09Z</time>
      </trkpt>
      <trkpt lat="48.23638" lon="3.20749">
        <ele>157</ele>
        <time>2017-07-30T09:02:11Z</time>
      </trkpt>
      <trkpt lat="48.23633" lon="3.20741">
        <ele>157</ele>
        <time>2017-07-30T09:02:13Z</time>
      </trkpt>
      <trkpt lat="48.23625" lon="3.20734">
        <ele>158</ele>
        <time>2017-07-30T09:02:15Z</time>
      </trkpt>
      <trkpt lat="48.23617" lon="3.20727">
        <ele>158</ele>
        <time>2017-07-30T09:02:17Z</time>
      </trkpt>
      <trkpt lat="48.2361" lon="3.20721">
        <ele>158</ele>
        <time>2017-07-30T09:02:19Z</time>
      </trkpt>
      <trkpt lat="48.23607" lon="3.20711">
        <ele>158</ele>
        <time>2017-07-30T09:02:21Z</time>
      </trkpt>
      <trkpt lat="48.23601" lon="3.20698">
        <ele>158</ele>
        <time>2017-07-30T09:02:25Z</time>
      </trkpt>
      <trkpt lat="48.23594" lon="3.20692">
        <ele>158</ele>
        <time>2017-07-30T09:02:27Z</time>
      </trkpt>
      <trkpt lat="48.23586" lon="3.2068">
        <ele>157</ele>
        <time>2017-07-30T09:02:29Z</time>
      </trkpt>
      <trkpt lat="48.23579" lon="3.20675">
        <ele>159</ele>
        <time>2017-07-30T09:02:31Z</time>
      </trkpt>
      <trkpt lat="48.23574" lon="3.20662">
        <ele>159</ele>
        <time>2017-07-30T09:02:34Z</time>
      </trkpt>
      <trkpt lat="48.23568" lon="3.20652">
        <ele>160</ele>
        <time>2017-07-30T09:02:37Z</time>
      </trkpt>
      <trkpt lat="48.23561" lon="3.20645">
        <ele>161</ele>
        <time>2017-07-30T09:02:40Z</time>
      </trkpt>
      <trkpt lat="48.23555" lon="3.20635">
        <ele>162</ele>
        <time>2017-07-30T09:02:43Z</time>
      </trkpt>
      <trkpt lat="48.2355" lon="3.20623">
        <ele>162</ele>
        <time>2017-07-30T09:02:46Z</time>
      </trkpt>
      <trkpt lat="48.2354" lon="3.20619">
        <ele>163</ele>
        <time>2017-07-30T09:02:49Z</time>
      </trkpt>
      <trkpt lat="48.2353" lon="3.20608">
        <ele>163</ele>
        <time>2017-07-30T09:02:53Z</time>
      </trkpt>
      <trkpt lat="48.23523" lon="3.20598">
        <ele>163</ele>
        <time>2017-07-30T09:02:56Z</time>
      </trkpt>
      <trkpt lat="48.23517" lon="3.20588">
        <ele>163</ele>
        <time>2017-07-30T09:02:59Z</time>
      </trkpt>
      <trkpt lat="48.23509" lon="3.20581">
        <ele>164</ele>
        <time>2017-07-30T09:03:01Z</time>
      </trkpt>
      <trkpt lat="48.23503" lon="3.20569">
        <ele>164</ele>
        <time>2017-07-30T09:03:05Z</time>
      </trkpt>
      <trkpt lat="48.23503" lon="3.20558">
        <ele>165</ele>
        <time>2017-07-30T09:03:07Z</time>
      </trkpt>
      <trkpt lat="48.23495" lon="3.2055">
        <ele>167</ele>
        <time>2017-07-30T09:03:10Z</time>
      </trkpt>
      <trkpt lat="48.23487" lon="3.20541">
        <ele>168</ele>
        <time>2017-07-30T09:03:13Z</time>
      </trkpt>
      <trkpt lat="48.23479" lon="3.2053">
        <ele>168</ele>
        <time>2017-07-30T09:03:16Z</time>
      </trkpt>
      <trkpt lat="48.23474" lon="3.20523">
        <ele>168</ele>
        <time>2017-07-30T09:03:18Z</time>
      </trkpt>
      <trkpt lat="48.23466" lon="3.20518">
        <ele>169</ele>
        <time>2017-07-30T09:03:21Z</time>
      </trkpt>
      <trkpt lat="48.23458" lon="3.2051">
        <ele>169</ele>
        <time>2017-07-30T09:03:23Z</time>
      </trkpt>
      <trkpt lat="48.23451" lon="3.20503">
        <ele>169</ele>
        <time>2017-07-30T09:03:27Z</time>
      </trkpt>
      <trkpt lat="48.23443" lon="3.20498">
        <ele>170</ele>
        <time>2017-07-30T09:03:31Z</time>
      </trkpt>
      <trkpt lat="48.23436" lon="3.2049">
        <ele>170</ele>
        <time>2017-07-30T09:03:34Z</time>
      </trkpt>
      <trkpt lat="48.23431" lon="3.20481">
        <ele>170</ele>
        <time>2017-07-30T09:03:38Z</time>
      </trkpt>
      <trkpt lat="48.23426" lon="3.20472">
        <ele>170</ele>
        <time>2017-07-30T09:03:42Z</time>
      </trkpt>
      <trkpt lat="48.23422" lon="3.20462">
        <ele>170</ele>
        <time>2017-07-30T09:03:46Z</time>
      </trkpt>
      <trkpt lat="48.23418" lon="3.20457">
        <ele>170</ele>
        <time>2017-07-30T09:03:53Z</time>
      </trkpt>
      <trkpt lat="48.23412" lon="3.20449">
        <ele>172</ele>
        <time>2017-07-30T09:04:00Z</time>
      </trkpt>
      <trkpt lat="48.23409" lon="3.2044">
        <ele>172</ele>
        <time>2017-07-30T09:04:07Z</time>
      </trkpt>
      <trkpt lat="48.23406" lon="3.20434">
        <ele>172</ele>
        <time>2017-07-30T09:04:14Z</time>
      </trkpt>
      <trkpt lat="48.23403" lon="3.20433">
        <ele>172</ele>
        <time>2017-07-30T09:04:21Z</time>
      </trkpt>
      <trkpt lat="48.23399" lon="3.20425">
        <ele>172</ele>
        <time>2017-07-30T09:04:24Z</time>
      </trkpt>
      <trkpt lat="48.23393" lon="3.20417">
        <ele>173</ele>
        <time>2017-07-30T09:04:27Z</time>
      </trkpt>
      <trkpt lat="48.23388" lon="3.20406">
        <ele>173</ele>
        <time>2017-07-30T09:04:30Z</time>
      </trkpt>
      <trkpt lat="48.23385" lon="3.20397">
        <ele>174</ele>
        <time>2017-07-30T09:04:34Z</time>
      </trkpt>
      <trkpt lat="48.23378" lon="3.20388">
        <ele>174</ele>
        <time>2017-07-30T09:04:37Z</time>
      </trkpt>
      <trkpt lat="48.23375" lon="3.20375">
        <ele>174</ele>
        <time>2017-07-30T09:04:40Z</time>
      </trkpt>
      <trkpt lat="48.23371" lon="3.20367">
        <ele>174</ele>
        <time>2017-07-30T09:04:43Z</time>
      </trkpt>
      <trkpt lat="48.23368" lon="3.20356">
        <ele>174</ele>
        <time>2017-07-30T09:04:46Z</time>
      </trkpt>
      <trkpt lat="48.23364" lon="3.20344">
        <ele>175</ele>
        <time>2017-07-30T09:04:50Z</time>
      </trkpt>
      <trkpt lat="48.2336" lon="3.20333">
        <ele>176</ele>
        <time>2017-07-30T09:04:54Z</time>
      </trkpt>
      <trkpt lat="48.23355" lon="3.20325">
        <ele>176</ele>
        <time>2017-07-30T09:05:00Z</time>
      </trkpt>
      <trkpt lat="48.23353" lon="3.20324">
        <ele>176</ele>
        <time>2017-07-30T09:05:07Z</time>
      </trkpt>
      <trkpt lat="48.23354" lon="3.20323">
        <ele>176</ele>
        <time>2017-07-30T09:05:08Z</time>
      </trkpt>
      <trkpt lat="48.23351" lon="3.20322">
        <ele>176</ele>
        <time>2017-07-30T09:05:16Z</time>
      </trkpt>
      <trkpt lat="48.23351" lon="3.20322">
        <ele>176</ele>
        <time>2017-07-30T09:05:23Z</time>
      </trkpt>
      <trkpt lat="48.23352" lon="3.20322">
        <ele>176</ele>
        <time>2017-07-30T09:05:31Z</time>
      </trkpt>
      <trkpt lat="48.23352" lon="3.20322">
        <ele>176</ele>
        <time>2017-07-30T09:05:32Z</time>
      </trkpt>
      <trkpt lat="48.23344" lon="3.20326">
        <ele>176</ele>
        <time>2017-07-30T09:06:01Z</time>
      </trkpt>
      <trkpt lat="48.23337" lon="3.20333">
        <ele>176</ele>
        <time>2017-07-30T09:06:06Z</time>
      </trkpt>
      <trkpt lat="48.2333" lon="3.20341">
        <ele>176</ele>
        <time>2017-07-30T09:06:09Z</time>
      </trkpt>
      <trkpt lat="48.23324" lon="3.20348">
        <ele>177</ele>
        <time>2017-07-30T09:06:12Z</time>
      </trkpt>
      <trkpt lat="48.23316" lon="3.20355">
        <ele>177</ele>
        <time>2017-07-30T09:06:15Z</time>
      </trkpt>
      <trkpt lat="48.23308" lon="3.20361">
        <ele>177</ele>
        <time>2017-07-30T09:06:19Z</time>
      </trkpt>
      <trkpt lat="48.23302" lon="3.20366">
        <ele>177</ele>
        <time>2017-07-30T09:06:22Z</time>
      </trkpt>
      <trkpt lat="48.23296" lon="3.20375">
        <ele>178</ele>
        <time>2017-07-30T09:06:25Z</time>
      </trkpt>
      <trkpt lat="48.2329" lon="3.20382">
        <ele>178</ele>
        <time>2017-07-30T09:06:27Z</time>
      </trkpt>
      <trkpt lat="48.23283" lon="3.20387">
        <ele>178</ele>
        <time>2017-07-30T09:06:29Z</time>
      </trkpt>
      <trkpt lat="48.23278" lon="3.20395">
        <ele>178</ele>
        <time>2017-07-30T09:06:32Z</time>
      </trkpt>
      <trkpt lat="48.23271" lon="3.20402">
        <ele>179</ele>
        <time>2017-07-30T09:06:35Z</time>
      </trkpt>
      <trkpt lat="48.23265" lon="3.2041">
        <ele>179</ele>
        <time>2017-07-30T09:06:37Z</time>
      </trkpt>
      <trkpt lat="48.23257" lon="3.20418">
        <ele>180</ele>
        <time>2017-07-30T09:06:40Z</time>
      </trkpt>
      <trkpt lat="48.23247" lon="3.20424">
        <ele>181</ele>
        <time>2017-07-30T09:06:43Z</time>
      </trkpt>
      <trkpt lat="48.23237" lon="3.20426">
        <ele>182</ele>
        <time>2017-07-30T09:06:46Z</time>
      </trkpt>
      <trkpt lat="48.23228" lon="3.20421">
        <ele>182</ele>
        <time>2017-07-30T09:06:49Z</time>
      </trkpt>
      <trkpt lat="48.2322" lon="3.20412">
        <ele>182</ele>
        <time>2017-07-30T09:06:52Z</time>
      </trkpt>
      <trkpt lat="48.23212" lon="3.20402">
        <ele>183</ele>
        <time>2017-07-30T09:06:55Z</time>
      </trkpt>
      <trkpt lat="48.23203" lon="3.20392">
        <ele>183</ele>
        <time>2017-07-30T09:06:58Z</time>
      </trkpt>
      <trkpt lat="48.23197" lon="3.20386">
        <ele>183</ele>
        <time>2017-07-30T09:07:00Z</time>
      </trkpt>
      <trkpt lat="48.23189" lon="3.20376">
        <ele>183</ele>
        <time>2017-07-30T09:07:03Z</time>
      </trkpt>
      <trkpt lat="48.23182" lon="3.20369">
        <ele>184</ele>
        <time>2017-07-30T09:07:05Z</time>
      </trkpt>
      <trkpt lat="48.23176" lon="3.20362">
        <ele>184</ele>
        <time>2017-07-30T09:07:07Z</time>
      </trkpt>
      <trkpt lat="48.23169" lon="3.20352">
        <ele>184</ele>
        <time>2017-07-30T09:07:10Z</time>
      </trkpt>
      <trkpt lat="48.23161" lon="3.20344">
        <ele>186</ele>
        <time>2017-07-30T09:07:13Z</time>
      </trkpt>
      <trkpt lat="48.23155" lon="3.20335">
        <ele>186</ele>
        <time>2017-07-30T09:07:17Z</time>
      </trkpt>
      <trkpt lat="48.23153" lon="3.20322">
        <ele>187</ele>
        <time>2017-07-30T09:07:21Z</time>
      </trkpt>
      <trkpt lat="48.23158" lon="3.20312">
        <ele>187</ele>
        <time>2017-07-30T09:07:24Z</time>
      </trkpt>
      <trkpt lat="48.23161" lon="3.20302">
        <ele>187</ele>
        <time>2017-07-30T09:07:27Z</time>
      </trkpt>
      <trkpt lat="48.23166" lon="3.2029">
        <ele>187</ele>
        <time>2017-07-30T09:07:30Z</time>
      </trkpt>
      <trkpt lat="48.23169" lon="3.20276">
        <ele>185</ele>
        <time>2017-07-30T09:07:33Z</time>
      </trkpt>
      <trkpt lat="48.23173" lon="3.20264">
        <ele>185</ele>
        <time>2017-07-30T09:07:36Z</time>
      </trkpt>
      <trkpt lat="48.23178" lon="3.20249">
        <ele>185</ele>
        <time>2017-07-30T09:07:38Z</time>
      </trkpt>
      <trkpt lat="48.23184" lon="3.20239">
        <ele>185</ele>
        <time>2017-07-30T09:07:40Z</time>
      </trkpt>
      <trkpt lat="48.23187" lon="3.20227">
        <ele>185</ele>
        <time>2017-07-30T09:07:42Z</time>
      </trkpt>
      <trkpt lat="48.23188" lon="3.20216">
        <ele>185</ele>
        <time>2017-07-30T09:07:44Z</time>
      </trkpt>
      <trkpt lat="48.23193" lon="3.20206">
        <ele>185</ele>
        <time>2017-07-30T09:07:46Z</time>
      </trkpt>
      <trkpt lat="48.232" lon="3.20196">
        <ele>185</ele>
        <time>2017-07-30T09:07:49Z</time>
      </trkpt>
      <trkpt lat="48.23204" lon="3.20186">
        <ele>185</ele>
        <time>2017-07-30T09:07:51Z</time>
      </trkpt>
      <trkpt lat="48.23209" lon="3.20175">
        <ele>185</ele>
        <time>2017-07-30T09:07:53Z</time>
      </trkpt>
      <trkpt lat="48.23215" lon="3.20167">
        <ele>185</ele>
        <time>2017-07-30T09:07:55Z</time>
      </trkpt>
      <trkpt lat="48.2322" lon="3.20157">
        <ele>185</ele>
        <time>2017-07-30T09:07:57Z</time>
      </trkpt>
      <trkpt lat="48.23227" lon="3.20144">
        <ele>185</ele>
        <time>2017-07-30T09:07:59Z</time>
      </trkpt>
      <trkpt lat="48.23233" lon="3.20135">
        <ele>185</ele>
        <time>2017-07-30T09:08:01Z</time>
      </trkpt>
      <trkpt lat="48.2324" lon="3.20125">
        <ele>186</ele>
        <time>2017-07-30T09:08:03Z</time>
      </trkpt>
      <trkpt lat="48.23247" lon="3.20116">
        <ele>186</ele>
        <time>2017-07-30T09:08:05Z</time>
      </trkpt>
      <trkpt lat="48.23254" lon="3.20109">
        <ele>184</ele>
        <time>2017-07-30T09:08:07Z</time>
      </trkpt>
      <trkpt lat="48.23261" lon="3.20101">
        <ele>185</ele>
        <time>2017-07-30T09:08:09Z</time>
      </trkpt>
      <trkpt lat="48.23268" lon="3.20095">
        <ele>184</ele>
        <time>2017-07-30T09:08:11Z</time>
      </trkpt>
      <trkpt lat="48.23275" lon="3.20087">
        <ele>184</ele>
        <time>2017-07-30T09:08:13Z</time>
      </trkpt>
      <trkpt lat="48.23281" lon="3.20079">
        <ele>185</ele>
        <time>2017-07-30T09:08:15Z</time>
      </trkpt>
      <trkpt lat="48.23287" lon="3.2007">
        <ele>184</ele>
        <time>2017-07-30T09:08:17Z</time>
      </trkpt>
      <trkpt lat="48.23294" lon="3.20062">
        <ele>184</ele>
        <time>2017-07-30T09:08:19Z</time>
      </trkpt>
      <trkpt lat="48.23301" lon="3.20052">
        <ele>184</ele>
        <time>2017-07-30T09:08:21Z</time>
      </trkpt>
      <trkpt lat="48.23308" lon="3.20043">
        <ele>184</ele>
        <time>2017-07-30T09:08:23Z</time>
      </trkpt>
      <trkpt lat="48.23317" lon="3.20034">
        <ele>184</ele>
        <time>2017-07-30T09:08:25Z</time>
      </trkpt>
      <trkpt lat="48.23323" lon="3.20024">
        <ele>184</ele>
        <time>2017-07-30T09:08:27Z</time>
      </trkpt>
      <trkpt lat="48.23328" lon="3.20014">
        <ele>184</ele>
        <time>2017-07-30T09:08:29Z</time>
      </trkpt>
      <trkpt lat="48.23333" lon="3.20002">
        <ele>184</ele>
        <time>2017-07-30T09:08:31Z</time>
      </trkpt>
      <trkpt lat="48.23337" lon="3.1999">
        <ele>184</ele>
        <time>2017-07-30T09:08:33Z</time>
      </trkpt>
      <trkpt lat="48.23344" lon="3.19981">
        <ele>183</ele>
        <time>2017-07-30T09:08:35Z</time>
      </trkpt>
      <trkpt lat="48.23349" lon="3.1997">
        <ele>183</ele>
        <time>2017-07-30T09:08:37Z</time>
      </trkpt>
      <trkpt lat="48.23354" lon="3.19955">
        <ele>183</ele>
        <time>2017-07-30T09:08:40Z</time>
      </trkpt>
      <trkpt lat="48.23361" lon="3.19942">
        <ele>183</ele>
        <time>2017-07-30T09:08:42Z</time>
      </trkpt>
      <trkpt lat="48.23365" lon="3.19931">
        <ele>183</ele>
        <time>2017-07-30T09:08:44Z</time>
      </trkpt>
      <trkpt lat="48.2337" lon="3.1992">
        <ele>183</ele>
        <time>2017-07-30T09:08:46Z</time>
      </trkpt>
      <trkpt lat="48.23374" lon="3.19909">
        <ele>183</ele>
        <time>2017-07-30T09:08:48Z</time>
      </trkpt>
      <trkpt lat="48.23378" lon="3.19899">
        <ele>183</ele>
        <time>2017-07-30T09:08:50Z</time>
      </trkpt>
      <trkpt lat="48.23382" lon="3.19887">
        <ele>183</ele>
        <time>2017-07-30T09:08:52Z</time>
      </trkpt>
      <trkpt lat="48.23386" lon="3.19875">
        <ele>183</ele>
        <time>2017-07-30T09:08:54Z</time>
      </trkpt>
      <trkpt lat="48.23389" lon="3.19864">
        <ele>184</ele>
        <time>2017-07-30T09:08:56Z</time>
      </trkpt>
      <trkpt lat="48.23394" lon="3.19852">
        <ele>184</ele>
        <time>2017-07-30T09:08:58Z</time>
      </trkpt>
      <trkpt lat="48.23396" lon="3.19839">
        <ele>184</ele>
        <time>2017-07-30T09:09:00Z</time>
      </trkpt>
      <trkpt lat="48.234" lon="3.19827">
        <ele>184</ele>
        <time>2017-07-30T09:09:02Z</time>
      </trkpt>
      <trkpt lat="48.23402" lon="3.19817">
        <ele>184</ele>
        <time>2017-07-30T09:09:04Z</time>
      </trkpt>
      <trkpt lat="48.23404" lon="3.19805">
        <ele>185</ele>
        <time>2017-07-30T09:09:06Z</time>
      </trkpt>
      <trkpt lat="48.23407" lon="3.19793">
        <ele>185</ele>
        <time>2017-07-30T09:09:08Z</time>
      </trkpt>
      <trkpt lat="48.23409" lon="3.19781">
        <ele>185</ele>
        <time>2017-07-30T09:09:10Z</time>
      </trkpt>
      <trkpt lat="48.23411" lon="3.19769">
        <ele>185</ele>
        <time>2017-07-30T09:09:12Z</time>
      </trkpt>
      <trkpt lat="48.23413" lon="3.19757">
        <ele>185</ele>
        <time>2017-07-30T09:09:14Z</time>
      </trkpt>
      <trkpt lat="48.23414" lon="3.19744">
        <ele>185</ele>
        <time>2017-07-30T09:09:16Z</time>
      </trkpt>
      <trkpt lat="48.23415" lon="3.19731">
        <ele>185</ele>
        <time>2017-07-30T09:09:18Z</time>
      </trkpt>
      <trkpt lat="48.23418" lon="3.19719">
        <ele>184</ele>
        <time>2017-07-30T09:09:20Z</time>
      </trkpt>
      <trkpt lat="48.2342" lon="3.19704">
        <ele>184</ele>
        <time>2017-07-30T09:09:22Z</time>
      </trkpt>
      <trkpt lat="48.23422" lon="3.19692">
        <ele>184</ele>
        <time>2017-07-30T09:09:24Z</time>
      </trkpt>
      <trkpt lat="48.23423" lon="3.19679">
        <ele>184</ele>
        <time>2017-07-30T09:09:26Z</time>
      </trkpt>
      <trkpt lat="48.23424" lon="3.19668">
        <ele>184</ele>
        <time>2017-07-30T09:09:28Z</time>
      </trkpt>
      <trkpt lat="48.23427" lon="3.19655">
        <ele>184</ele>
        <time>2017-07-30T09:09:30Z</time>
      </trkpt>
      <trkpt lat="48.2343" lon="3.19644">
        <ele>184</ele>
        <time>2017-07-30T09:09:32Z</time>
      </trkpt>
      <trkpt lat="48.23433" lon="3.19631">
        <ele>184</ele>
        <time>2017-07-30T09:09:34Z</time>
      </trkpt>
      <trkpt lat="48.23438" lon="3.19619">
        <ele>184</ele>
        <time>2017-07-30T09:09:36Z</time>
      </trkpt>
      <trkpt lat="48.23442" lon="3.19605">
        <ele>184</ele>
        <time>2017-07-30T09:09:38Z</time>
      </trkpt>
      <trkpt lat="48.23448" lon="3.19591">
        <ele>184</ele>
        <time>2017-07-30T09:09:40Z</time>
      </trkpt>
      <trkpt lat="48.23455" lon="3.19583">
        <ele>184</ele>
        <time>2017-07-30T09:09:42Z</time>
      </trkpt>
      <trkpt lat="48.23462" lon="3.19587">
        <ele>183</ele>
        <time>2017-07-30T09:09:44Z</time>
      </trkpt>
      <trkpt lat="48.23467" lon="3.19597">
        <ele>183</ele>
        <time>2017-07-30T09:09:46Z</time>
      </trkpt>
      <trkpt lat="48.23471" lon="3.19609">
        <ele>183</ele>
        <time>2017-07-30T09:09:48Z</time>
      </trkpt>
      <trkpt lat="48.23476" lon="3.19619">
        <ele>183</ele>
        <time>2017-07-30T09:09:50Z</time>
      </trkpt>
      <trkpt lat="48.23481" lon="3.1963">
        <ele>183</ele>
        <time>2017-07-30T09:09:52Z</time>
      </trkpt>
      <trkpt lat="48.23487" lon="3.19643">
        <ele>183</ele>
        <time>2017-07-30T09:09:54Z</time>
      </trkpt>
      <trkpt lat="48.23494" lon="3.19656">
        <ele>182</ele>
        <time>2017-07-30T09:09:56Z</time>
      </trkpt>
      <trkpt lat="48.235" lon="3.1967">
        <ele>182</ele>
        <time>2017-07-30T09:09:58Z</time>
      </trkpt>
      <trkpt lat="48.23511" lon="3.19692">
        <ele>181</ele>
        <time>2017-07-30T09:10:01Z</time>
      </trkpt>
      <trkpt lat="48.23518" lon="3.19707">
        <ele>181</ele>
        <time>2017-07-30T09:10:03Z</time>
      </trkpt>
      <trkpt lat="48.23525" lon="3.1972">
        <ele>181</ele>
        <time>2017-07-30T09:10:05Z</time>
      </trkpt>
      <trkpt lat="48.23532" lon="3.19736">
        <ele>181</ele>
        <time>2017-07-30T09:10:07Z</time>
      </trkpt>
      <trkpt lat="48.23539" lon="3.19751">
        <ele>181</ele>
        <time>2017-07-30T09:10:09Z</time>
      </trkpt>
      <trkpt lat="48.23545" lon="3.19764">
        <ele>181</ele>
        <time>2017-07-30T09:10:11Z</time>
      </trkpt>
      <trkpt lat="48.23552" lon="3.19778">
        <ele>181</ele>
        <time>2017-07-30T09:10:13Z</time>
      </trkpt>
      <trkpt lat="48.2356" lon="3.19791">
        <ele>181</ele>
        <time>2017-07-30T09:10:15Z</time>
      </trkpt>
      <trkpt lat="48.23568" lon="3.19806">
        <ele>181</ele>
        <time>2017-07-30T09:10:17Z</time>
      </trkpt>
      <trkpt lat="48.23574" lon="3.19821">
        <ele>181</ele>
        <time>2017-07-30T09:10:19Z</time>
      </trkpt>
      <trkpt lat="48.23579" lon="3.1983">
        <ele>181</ele>
        <time>2017-07-30T09:10:20Z</time>
      </trkpt>
      <trkpt lat="48.23586" lon="3.19846">
        <ele>181</ele>
        <time>2017-07-30T09:10:22Z</time>
      </trkpt>
      <trkpt lat="48.23591" lon="3.19861">
        <ele>181</ele>
        <time>2017-07-30T09:10:24Z</time>
      </trkpt>
      <trkpt lat="48.23597" lon="3.19874">
        <ele>181</ele>
        <time>2017-07-30T09:10:26Z</time>
      </trkpt>
      <trkpt lat="48.23603" lon="3.19886">
        <ele>181</ele>
        <time>2017-07-30T09:10:28Z</time>
      </trkpt>
      <trkpt lat="48.23608" lon="3.199">
        <ele>181</ele>
        <time>2017-07-30T09:10:30Z</time>
      </trkpt>
      <trkpt lat="48.23616" lon="3.19914">
        <ele>181</ele>
        <time>2017-07-30T09:10:32Z</time>
      </trkpt>
      <trkpt lat="48.23623" lon="3.19927">
        <ele>181</ele>
        <time>2017-07-30T09:10:34Z</time>
      </trkpt>
      <trkpt lat="48.2363" lon="3.19942">
        <ele>181</ele>
        <time>2017-07-30T09:10:36Z</time>
      </trkpt>
      <trkpt lat="48.23635" lon="3.19955">
        <ele>181</ele>
        <time>2017-07-30T09:10:38Z</time>
      </trkpt>
      <trkpt lat="48.23641" lon="3.1997">
        <ele>181</ele>
        <time>2017-07-30T09:10:40Z</time>
      </trkpt>
      <trkpt lat="48.23646" lon="3.19984">
        <ele>180</ele>
        <time>2017-07-30T09:10:42Z</time>
      </trkpt>
      <trkpt lat="48.23653" lon="3.19997">
        <ele>180</ele>
        <time>2017-07-30T09:10:44Z</time>
      </trkpt>
      <trkpt lat="48.23659" lon="3.20007">
        <ele>180</ele>
        <time>2017-07-30T09:10:46Z</time>
      </trkpt>
      <trkpt lat="48.23665" lon="3.20018">
        <ele>180</ele>
        <time>2017-07-30T09:10:49Z</time>
      </trkpt>
      <trkpt lat="48.23675" lon="3.20023">
        <ele>179</ele>
        <time>2017-07-30T09:10:51Z</time>
      </trkpt>
      <trkpt lat="48.23671" lon="3.20033">
        <ele>179</ele>
        <time>2017-07-30T09:10:54Z</time>
      </trkpt>
      <trkpt lat="48.23669" lon="3.20044">
        <ele>179</ele>
        <time>2017-07-30T09:10:58Z</time>
      </trkpt>
      <trkpt lat="48.23662" lon="3.20052">
        <ele>180</ele>
        <time>2017-07-30T09:11:01Z</time>
      </trkpt>
      <trkpt lat="48.23669" lon="3.20061">
        <ele>179</ele>
        <time>2017-07-30T09:11:03Z</time>
      </trkpt>
      <trkpt lat="48.23674" lon="3.20073">
        <ele>179</ele>
        <time>2017-07-30T09:11:06Z</time>
      </trkpt>
      <trkpt lat="48.23678" lon="3.20087">
        <ele>179</ele>
        <time>2017-07-30T09:11:09Z</time>
      </trkpt>
      <trkpt lat="48.23681" lon="3.20096">
        <ele>179</ele>
        <time>2017-07-30T09:11:11Z</time>
      </trkpt>
      <trkpt lat="48.23684" lon="3.20108">
        <ele>178</ele>
        <time>2017-07-30T09:11:13Z</time>
      </trkpt>
      <trkpt lat="48.23689" lon="3.2012">
        <ele>178</ele>
        <time>2017-07-30T09:11:15Z</time>
      </trkpt>
      <trkpt lat="48.23693" lon="3.20133">
        <ele>178</ele>
        <time>2017-07-30T09:11:17Z</time>
      </trkpt>
      <trkpt lat="48.23698" lon="3.20144">
        <ele>178</ele>
        <time>2017-07-30T09:11:19Z</time>
      </trkpt>
      <trkpt lat="48.23703" lon="3.20158">
        <ele>178</ele>
        <time>2017-07-30T09:11:21Z</time>
      </trkpt>
      <trkpt lat="48.23708" lon="3.2017">
        <ele>177</ele>
        <time>2017-07-30T09:11:23Z</time>
      </trkpt>
      <trkpt lat="48.23713" lon="3.20184">
        <ele>177</ele>
        <time>2017-07-30T09:11:25Z</time>
      </trkpt>
      <trkpt lat="48.23718" lon="3.20197">
        <ele>177</ele>
        <time>2017-07-30T09:11:27Z</time>
      </trkpt>
      <trkpt lat="48.23723" lon="3.2021">
        <ele>177</ele>
        <time>2017-07-30T09:11:29Z</time>
      </trkpt>
      <trkpt lat="48.23729" lon="3.20225">
        <ele>177</ele>
        <time>2017-07-30T09:11:31Z</time>
      </trkpt>
      <trkpt lat="48.23735" lon="3.20239">
        <ele>176</ele>
        <time>2017-07-30T09:11:33Z</time>
      </trkpt>
      <trkpt lat="48.2374" lon="3.20254">
        <ele>176</ele>
        <time>2017-07-30T09:11:35Z</time>
      </trkpt>
      <trkpt lat="48.23745" lon="3.20268">
        <ele>175</ele>
        <time>2017-07-30T09:11:37Z</time>
      </trkpt>
      <trkpt lat="48.23751" lon="3.20281">
        <ele>174</ele>
        <time>2017-07-30T09:11:39Z</time>
      </trkpt>
      <trkpt lat="48.23756" lon="3.20295">
        <ele>173</ele>
        <time>2017-07-30T09:11:41Z</time>
      </trkpt>
      <trkpt lat="48.23761" lon="3.2031">
        <ele>173</ele>
        <time>2017-07-30T09:11:43Z</time>
      </trkpt>
      <trkpt lat="48.23767" lon="3.20324">
        <ele>173</ele>
        <time>2017-07-30T09:11:45Z</time>
      </trkpt>
      <trkpt lat="48.23773" lon="3.20339">
        <ele>172</ele>
        <time>2017-07-30T09:11:47Z</time>
      </trkpt>
      <trkpt lat="48.23778" lon="3.2035">
        <ele>172</ele>
        <time>2017-07-30T09:11:49Z</time>
      </trkpt>
      <trkpt lat="48.23785" lon="3.20363">
        <ele>172</ele>
        <time>2017-07-30T09:11:51Z</time>
      </trkpt>
      <trkpt lat="48.23789" lon="3.20376">
        <ele>172</ele>
        <time>2017-07-30T09:11:53Z</time>
      </trkpt>
      <trkpt lat="48.23793" lon="3.20387">
        <ele>172</ele>
        <time>2017-07-30T09:11:55Z</time>
      </trkpt>
      <trkpt lat="48.23797" lon="3.204">
        <ele>172</ele>
        <time>2017-07-30T09:11:57Z</time>
      </trkpt>
      <trkpt lat="48.23802" lon="3.2041">
        <ele>172</ele>
        <time>2017-07-30T09:11:59Z</time>
      </trkpt>
      <trkpt lat="48.23806" lon="3.20421">
        <ele>172</ele>
        <time>2017-07-30T09:12:01Z</time>
      </trkpt>
      <trkpt lat="48.23807" lon="3.20431">
        <ele>172</ele>
        <time>2017-07-30T09:12:03Z</time>
      </trkpt>
      <trkpt lat="48.2381" lon="3.20442">
        <ele>172</ele>
        <time>2017-07-30T09:12:05Z</time>
      </trkpt>
      <trkpt lat="48.23812" lon="3.20452">
        <ele>171</ele>
        <time>2017-07-30T09:12:07Z</time>
      </trkpt>
      <trkpt lat="48.23814" lon="3.20462">
        <ele>171</ele>
        <time>2017-07-30T09:12:09Z</time>
      </trkpt>
      <trkpt lat="48.23814" lon="3.20473">
        <ele>171</ele>
        <time>2017-07-30T09:12:11Z</time>
      </trkpt>
      <trkpt lat="48.23821" lon="3.20484">
        <ele>171</ele>
        <time>2017-07-30T09:12:13Z</time>
      </trkpt>
      <trkpt lat="48.23824" lon="3.20495">
        <ele>172</ele>
        <time>2017-07-30T09:12:15Z</time>
      </trkpt>
      <trkpt lat="48.23827" lon="3.20504">
        <ele>171</ele>
        <time>2017-07-30T09:12:17Z</time>
      </trkpt>
      <trkpt lat="48.23833" lon="3.20515">
        <ele>170</ele>
        <time>2017-07-30T09:12:19Z</time>
      </trkpt>
      <trkpt lat="48.23839" lon="3.20526">
        <ele>170</ele>
        <time>2017-07-30T09:12:21Z</time>
      </trkpt>
      <trkpt lat="48.23845" lon="3.20538">
        <ele>169</ele>
        <time>2017-07-30T09:12:23Z</time>
      </trkpt>
      <trkpt lat="48.23852" lon="3.20551">
        <ele>169</ele>
        <time>2017-07-30T09:12:25Z</time>
      </trkpt>
      <trkpt lat="48.23859" lon="3.20565">
        <ele>168</ele>
        <time>2017-07-30T09:12:27Z</time>
      </trkpt>
      <trkpt lat="48.23866" lon="3.20575">
        <ele>168</ele>
        <time>2017-07-30T09:12:29Z</time>
      </trkpt>
      <trkpt lat="48.23872" lon="3.20587">
        <ele>165</ele>
        <time>2017-07-30T09:12:32Z</time>
      </trkpt>
      <trkpt lat="48.23879" lon="3.20598">
        <ele>165</ele>
        <time>2017-07-30T09:12:35Z</time>
      </trkpt>
      <trkpt lat="48.23884" lon="3.20605">
        <ele>165</ele>
        <time>2017-07-30T09:12:38Z</time>
      </trkpt>
      <trkpt lat="48.2389" lon="3.20613">
        <ele>165</ele>
        <time>2017-07-30T09:12:41Z</time>
      </trkpt>
      <trkpt lat="48.23896" lon="3.20624">
        <ele>165</ele>
        <time>2017-07-30T09:12:44Z</time>
      </trkpt>
      <trkpt lat="48.239" lon="3.20635">
        <ele>165</ele>
        <time>2017-07-30T09:12:48Z</time>
      </trkpt>
      <trkpt lat="48.23904" lon="3.20645">
        <ele>164</ele>
        <time>2017-07-30T09:12:51Z</time>
      </trkpt>
      <trkpt lat="48.23908" lon="3.20654">
        <ele>164</ele>
        <time>2017-07-30T09:12:55Z</time>
      </trkpt>
      <trkpt lat="48.23914" lon="3.20662">
        <ele>164</ele>
        <time>2017-07-30T09:12:58Z</time>
      </trkpt>
      <trkpt lat="48.23918" lon="3.20673">
        <ele>164</ele>
        <time>2017-07-30T09:13:01Z</time>
      </trkpt>
      <trkpt lat="48.23923" lon="3.20683">
        <ele>163</ele>
        <time>2017-07-30T09:13:03Z</time>
      </trkpt>
      <trkpt lat="48.23928" lon="3.20692">
        <ele>163</ele>
        <time>2017-07-30T09:13:05Z</time>
      </trkpt>
      <trkpt lat="48.23934" lon="3.207">
        <ele>163</ele>
        <time>2017-07-30T09:13:07Z</time>
      </trkpt>
      <trkpt lat="48.23941" lon="3.20709">
        <ele>163</ele>
        <time>2017-07-30T09:13:10Z</time>
      </trkpt>
      <trkpt lat="48.2395" lon="3.20713">
        <ele>163</ele>
        <time>2017-07-30T09:13:13Z</time>
      </trkpt>
      <trkpt lat="48.23961" lon="3.20713">
        <ele>163</ele>
        <time>2017-07-30T09:13:17Z</time>
      </trkpt>
      <trkpt lat="48.23967" lon="3.20706">
        <ele>163</ele>
        <time>2017-07-30T09:13:22Z</time>
      </trkpt>
      <trkpt lat="48.23973" lon="3.20698">
        <ele>163</ele>
        <time>2017-07-30T09:13:24Z</time>
      </trkpt>
      <trkpt lat="48.23976" lon="3.20688">
        <ele>164</ele>
        <time>2017-07-30T09:13:26Z</time>
      </trkpt>
      <trkpt lat="48.23983" lon="3.20676">
        <ele>164</ele>
        <time>2017-07-30T09:13:29Z</time>
      </trkpt>
      <trkpt lat="48.23993" lon="3.20669">
        <ele>165</ele>
        <time>2017-07-30T09:13:31Z</time>
      </trkpt>
      <trkpt lat="48.24001" lon="3.20658">
        <ele>165</ele>
        <time>2017-07-30T09:13:33Z</time>
      </trkpt>
      <trkpt lat="48.2401" lon="3.20651">
        <ele>164</ele>
        <time>2017-07-30T09:13:35Z</time>
      </trkpt>
      <trkpt lat="48.24022" lon="3.20641">
        <ele>162</ele>
        <time>2017-07-30T09:13:37Z</time>
      </trkpt>
      <trkpt lat="48.24032" lon="3.20629">
        <ele>162</ele>
        <time>2017-07-30T09:13:39Z</time>
      </trkpt>
      <trkpt lat="48.24036" lon="3.20615">
        <ele>162</ele>
        <time>2017-07-30T09:13:41Z</time>
      </trkpt>
      <trkpt lat="48.24042" lon="3.20602">
        <ele>161</ele>
        <time>2017-07-30T09:13:43Z</time>
      </trkpt>
      <trkpt lat="48.24051" lon="3.206">
        <ele>161</ele>
        <time>2017-07-30T09:13:44Z</time>
      </trkpt>
      <trkpt lat="48.24066" lon="3.20596">
        <ele>160</ele>
        <time>2017-07-30T09:13:46Z</time>
      </trkpt>
      <trkpt lat="48.24079" lon="3.20588">
        <ele>158</ele>
        <time>2017-07-30T09:13:48Z</time>
      </trkpt>
      <trkpt lat="48.24091" lon="3.20581">
        <ele>155</ele>
        <time>2017-07-30T09:13:50Z</time>
      </trkpt>
      <trkpt lat="48.24099" lon="3.20581">
        <ele>154</ele>
        <time>2017-07-30T09:13:51Z</time>
      </trkpt>
      <trkpt lat="48.24109" lon="3.2058">
        <ele>153</ele>
        <time>2017-07-30T09:13:52Z</time>
      </trkpt>
      <trkpt lat="48.24121" lon="3.20578">
        <ele>152</ele>
        <time>2017-07-30T09:13:54Z</time>
      </trkpt>
      <trkpt lat="48.24129" lon="3.20575">
        <ele>151</ele>
        <time>2017-07-30T09:13:55Z</time>
      </trkpt>
      <trkpt lat="48.24136" lon="3.20569">
        <ele>151</ele>
        <time>2017-07-30T09:13:57Z</time>
      </trkpt>
      <trkpt lat="48.24146" lon="3.20555">
        <ele>150</ele>
        <time>2017-07-30T09:13:59Z</time>
      </trkpt>
      <trkpt lat="48.24154" lon="3.20546">
        <ele>150</ele>
        <time>2017-07-30T09:14:01Z</time>
      </trkpt>
      <trkpt lat="48.24166" lon="3.20539">
        <ele>149</ele>
        <time>2017-07-30T09:14:03Z</time>
      </trkpt>
      <trkpt lat="48.24174" lon="3.20531">
        <ele>140</ele>
        <time>2017-07-30T09:14:04Z</time>
      </trkpt>
      <trkpt lat="48.24181" lon="3.20526">
        <ele>140</ele>
        <time>2017-07-30T09:14:05Z</time>
      </trkpt>
      <trkpt lat="48.24188" lon="3.20524">
        <ele>139</ele>
        <time>2017-07-30T09:14:06Z</time>
      </trkpt>
      <trkpt lat="48.24195" lon="3.20518">
        <ele>139</ele>
        <time>2017-07-30T09:14:07Z</time>
      </trkpt>
      <trkpt lat="48.242" lon="3.20508">
        <ele>138</ele>
        <time>2017-07-30T09:14:09Z</time>
      </trkpt>
      <trkpt lat="48.24204" lon="3.20497">
        <ele>136</ele>
        <time>2017-07-30T09:14:11Z</time>
      </trkpt>
      <trkpt lat="48.24206" lon="3.20482">
        <ele>136</ele>
        <time>2017-07-30T09:14:14Z</time>
      </trkpt>
      <trkpt lat="48.24206" lon="3.20468">
        <ele>136</ele>
        <time>2017-07-30T09:14:16Z</time>
      </trkpt>
      <trkpt lat="48.24208" lon="3.20455">
        <ele>136</ele>
        <time>2017-07-30T09:14:18Z</time>
      </trkpt>
      <trkpt lat="48.24215" lon="3.20448">
        <ele>135</ele>
        <time>2017-07-30T09:14:20Z</time>
      </trkpt>
      <trkpt lat="48.24226" lon="3.20444">
        <ele>134</ele>
        <time>2017-07-30T09:14:22Z</time>
      </trkpt>
      <trkpt lat="48.24238" lon="3.20441">
        <ele>132</ele>
        <time>2017-07-30T09:14:24Z</time>
      </trkpt>
      <trkpt lat="48.24246" lon="3.2044">
        <ele>132</ele>
        <time>2017-07-30T09:14:25Z</time>
      </trkpt>
      <trkpt lat="48.24253" lon="3.20438">
        <ele>125</ele>
        <time>2017-07-30T09:14:26Z</time>
      </trkpt>
      <trkpt lat="48.24267" lon="3.20435">
        <ele>125</ele>
        <time>2017-07-30T09:14:28Z</time>
      </trkpt>
      <trkpt lat="48.24275" lon="3.20434">
        <ele>124</ele>
        <time>2017-07-30T09:14:29Z</time>
      </trkpt>
      <trkpt lat="48.24284" lon="3.20432">
        <ele>124</ele>
        <time>2017-07-30T09:14:30Z</time>
      </trkpt>
      <trkpt lat="48.24293" lon="3.20429">
        <ele>123</ele>
        <time>2017-07-30T09:14:31Z</time>
      </trkpt>
      <trkpt lat="48.24302" lon="3.20427">
        <ele>123</ele>
        <time>2017-07-30T09:14:32Z</time>
      </trkpt>
      <trkpt lat="48.24312" lon="3.20425">
        <ele>122</ele>
        <time>2017-07-30T09:14:33Z</time>
      </trkpt>
      <trkpt lat="48.24322" lon="3.20422">
        <ele>121</ele>
        <time>2017-07-30T09:14:34Z</time>
      </trkpt>
      <trkpt lat="48.24332" lon="3.2042">
        <ele>120</ele>
        <time>2017-07-30T09:14:35Z</time>
      </trkpt>
      <trkpt lat="48.24343" lon="3.20417">
        <ele>120</ele>
        <time>2017-07-30T09:14:36Z</time>
      </trkpt>
      <trkpt lat="48.24352" lon="3.20415">
        <ele>121</ele>
        <time>2017-07-30T09:14:37Z</time>
      </trkpt>
      <trkpt lat="48.24361" lon="3.20412">
        <ele>121</ele>
        <time>2017-07-30T09:14:38Z</time>
      </trkpt>
      <trkpt lat="48.24374" lon="3.20409">
        <ele>121</ele>
        <time>2017-07-30T09:14:40Z</time>
      </trkpt>
      <trkpt lat="48.24381" lon="3.20407">
        <ele>121</ele>
        <time>2017-07-30T09:14:42Z</time>
      </trkpt>
      <trkpt lat="48.2439" lon="3.20407">
        <ele>121</ele>
        <time>2017-07-30T09:14:46Z</time>
      </trkpt>
      <trkpt lat="48.24397" lon="3.20417">
        <ele>121</ele>
        <time>2017-07-30T09:14:52Z</time>
      </trkpt>
      <trkpt lat="48.24401" lon="3.20429">
        <ele>119</ele>
        <time>2017-07-30T09:14:55Z</time>
      </trkpt>
      <trkpt lat="48.24404" lon="3.2044">
        <ele>119</ele>
        <time>2017-07-30T09:14:57Z</time>
      </trkpt>
      <trkpt lat="48.24407" lon="3.20452">
        <ele>118</ele>
        <time>2017-07-30T09:14:59Z</time>
      </trkpt>
      <trkpt lat="48.2441" lon="3.20464">
        <ele>118</ele>
        <time>2017-07-30T09:15:01Z</time>
      </trkpt>
      <trkpt lat="48.24412" lon="3.20476">
        <ele>117</ele>
        <time>2017-07-30T09:15:03Z</time>
      </trkpt>
      <trkpt lat="48.24417" lon="3.20489">
        <ele>116</ele>
        <time>2017-07-30T09:15:05Z</time>
      </trkpt>
      <trkpt lat="48.24419" lon="3.205">
        <ele>115</ele>
        <time>2017-07-30T09:15:07Z</time>
      </trkpt>
      <trkpt lat="48.24425" lon="3.20516">
        <ele>116</ele>
        <time>2017-07-30T09:15:09Z</time>
      </trkpt>
      <trkpt lat="48.24428" lon="3.20532">
        <ele>117</ele>
        <time>2017-07-30T09:15:11Z</time>
      </trkpt>
      <trkpt lat="48.2443" lon="3.20548">
        <ele>116</ele>
        <time>2017-07-30T09:15:13Z</time>
      </trkpt>
      <trkpt lat="48.24435" lon="3.20564">
        <ele>116</ele>
        <time>2017-07-30T09:15:15Z</time>
      </trkpt>
      <trkpt lat="48.24439" lon="3.20581">
        <ele>116</ele>
        <time>2017-07-30T09:15:17Z</time>
      </trkpt>
      <trkpt lat="48.24442" lon="3.20598">
        <ele>114</ele>
        <time>2017-07-30T09:15:19Z</time>
      </trkpt>
      <trkpt lat="48.24445" lon="3.20616">
        <ele>114</ele>
        <time>2017-07-30T09:15:21Z</time>
      </trkpt>
      <trkpt lat="48.24449" lon="3.20633">
        <ele>113</ele>
        <time>2017-07-30T09:15:23Z</time>
      </trkpt>
      <trkpt lat="48.24452" lon="3.20651">
        <ele>113</ele>
        <time>2017-07-30T09:15:25Z</time>
      </trkpt>
      <trkpt lat="48.24455" lon="3.2067">
        <ele>111</ele>
        <time>2017-07-30T09:15:27Z</time>
      </trkpt>
      <trkpt lat="48.2446" lon="3.20688">
        <ele>111</ele>
        <time>2017-07-30T09:15:29Z</time>
      </trkpt>
      <trkpt lat="48.24464" lon="3.20707">
        <ele>111</ele>
        <time>2017-07-30T09:15:31Z</time>
      </trkpt>
      <trkpt lat="48.24466" lon="3.20726">
        <ele>111</ele>
        <time>2017-07-30T09:15:33Z</time>
      </trkpt>
      <trkpt lat="48.2447" lon="3.20744">
        <ele>111</ele>
        <time>2017-07-30T09:15:35Z</time>
      </trkpt>
      <trkpt lat="48.24474" lon="3.20763">
        <ele>110</ele>
        <time>2017-07-30T09:15:37Z</time>
      </trkpt>
      <trkpt lat="48.24477" lon="3.20782">
        <ele>109</ele>
        <time>2017-07-30T09:15:39Z</time>
      </trkpt>
      <trkpt lat="48.24481" lon="3.20802">
        <ele>109</ele>
        <time>2017-07-30T09:15:41Z</time>
      </trkpt>
      <trkpt lat="48.24483" lon="3.20812">
        <ele>109</ele>
        <time>2017-07-30T09:15:42Z</time>
      </trkpt>
      <trkpt lat="48.24485" lon="3.20824">
        <ele>109</ele>
        <time>2017-07-30T09:15:43Z</time>
      </trkpt>
      <trkpt lat="48.24486" lon="3.20835">
        <ele>108</ele>
        <time>2017-07-30T09:15:44Z</time>
      </trkpt>
      <trkpt lat="48.24491" lon="3.20854">
        <ele>108</ele>
        <time>2017-07-30T09:15:46Z</time>
      </trkpt>
      <trkpt lat="48.24494" lon="3.20864">
        <ele>107</ele>
        <time>2017-07-30T09:15:47Z</time>
      </trkpt>
      <trkpt lat="48.24495" lon="3.20876">
        <ele>107</ele>
        <time>2017-07-30T09:15:48Z</time>
      </trkpt>
      <trkpt lat="48.24499" lon="3.20896">
        <ele>107</ele>
        <time>2017-07-30T09:15:50Z</time>
      </trkpt>
      <trkpt lat="48.24502" lon="3.20916">
        <ele>107</ele>
        <time>2017-07-30T09:15:52Z</time>
      </trkpt>
      <trkpt lat="48.24502" lon="3.20927">
        <ele>108</ele>
        <time>2017-07-30T09:15:53Z</time>
      </trkpt>
      <trkpt lat="48.24503" lon="3.20948">
        <ele>108</ele>
        <time>2017-07-30T09:15:55Z</time>
      </trkpt>
      <trkpt lat="48.24504" lon="3.20961">
        <ele>108</ele>
        <time>2017-07-30T09:15:56Z</time>
      </trkpt>
      <trkpt lat="48.24506" lon="3.20972">
        <ele>108</ele>
        <time>2017-07-30T09:15:57Z</time>
      </trkpt>
      <trkpt lat="48.24506" lon="3.20983">
        <ele>108</ele>
        <time>2017-07-30T09:15:58Z</time>
      </trkpt>
      <trkpt lat="48.24507" lon="3.20996">
        <ele>107</ele>
        <time>2017-07-30T09:15:59Z</time>
      </trkpt>
      <trkpt lat="48.24508" lon="3.21007">
        <ele>107</ele>
        <time>2017-07-30T09:16:00Z</time>
      </trkpt>
      <trkpt lat="48.24509" lon="3.21019">
        <ele>107</ele>
        <time>2017-07-30T09:16:01Z</time>
      </trkpt>
      <trkpt lat="48.24511" lon="3.21042">
        <ele>107</ele>
        <time>2017-07-30T09:16:03Z</time>
      </trkpt>
      <trkpt lat="48.24512" lon="3.21054">
        <ele>106</ele>
        <time>2017-07-30T09:16:04Z</time>
      </trkpt>
      <trkpt lat="48.2451" lon="3.21066">
        <ele>106</ele>
        <time>2017-07-30T09:16:05Z</time>
      </trkpt>
      <trkpt lat="48.24511" lon="3.21078">
        <ele>105</ele>
        <time>2017-07-30T09:16:06Z</time>
      </trkpt>
      <trkpt lat="48.24511" lon="3.2109">
        <ele>105</ele>
        <time>2017-07-30T09:16:07Z</time>
      </trkpt>
      <trkpt lat="48.24512" lon="3.21103">
        <ele>105</ele>
        <time>2017-07-30T09:16:08Z</time>
      </trkpt>
      <trkpt lat="48.24514" lon="3.21116">
        <ele>105</ele>
        <time>2017-07-30T09:16:09Z</time>
      </trkpt>
      <trkpt lat="48.24516" lon="3.21128">
        <ele>105</ele>
        <time>2017-07-30T09:16:10Z</time>
      </trkpt>
      <trkpt lat="48.24519" lon="3.21139">
        <ele>105</ele>
        <time>2017-07-30T09:16:11Z</time>
      </trkpt>
      <trkpt lat="48.24521" lon="3.21153">
        <ele>104</ele>
        <time>2017-07-30T09:16:12Z</time>
      </trkpt>
      <trkpt lat="48.24523" lon="3.21167">
        <ele>103</ele>
        <time>2017-07-30T09:16:13Z</time>
      </trkpt>
      <trkpt lat="48.24526" lon="3.21181">
        <ele>103</ele>
        <time>2017-07-30T09:16:14Z</time>
      </trkpt>
      <trkpt lat="48.24528" lon="3.21192">
        <ele>103</ele>
        <time>2017-07-30T09:16:15Z</time>
      </trkpt>
      <trkpt lat="48.24531" lon="3.21205">
        <ele>103</ele>
        <time>2017-07-30T09:16:16Z</time>
      </trkpt>
      <trkpt lat="48.24532" lon="3.21217">
        <ele>103</ele>
        <time>2017-07-30T09:16:17Z</time>
      </trkpt>
      <trkpt lat="48.24534" lon="3.21229">
        <ele>103</ele>
        <time>2017-07-30T09:16:18Z</time>
      </trkpt>
      <trkpt lat="48.24537" lon="3.2124">
        <ele>103</ele>
        <time>2017-07-30T09:16:19Z</time>
      </trkpt>
      <trkpt lat="48.2454" lon="3.21252">
        <ele>101</ele>
        <time>2017-07-30T09:16:20Z</time>
      </trkpt>
      <trkpt lat="48.24542" lon="3.21264">
        <ele>101</ele>
        <time>2017-07-30T09:16:21Z</time>
      </trkpt>
      <trkpt lat="48.24545" lon="3.21275">
        <ele>101</ele>
        <time>2017-07-30T09:16:22Z</time>
      </trkpt>
      <trkpt lat="48.24548" lon="3.21285">
        <ele>101</ele>
        <time>2017-07-30T09:16:23Z</time>
      </trkpt>
      <trkpt lat="48.24554" lon="3.21304">
        <ele>101</ele>
        <time>2017-07-30T09:16:25Z</time>
      </trkpt>
      <trkpt lat="48.24557" lon="3.21321">
        <ele>101</ele>
        <time>2017-07-30T09:16:27Z</time>
      </trkpt>
      <trkpt lat="48.24553" lon="3.21334">
        <ele>100</ele>
        <time>2017-07-30T09:16:29Z</time>
      </trkpt>
      <trkpt lat="48.24546" lon="3.21342">
        <ele>100</ele>
        <time>2017-07-30T09:16:31Z</time>
      </trkpt>
      <trkpt lat="48.2454" lon="3.21349">
        <ele>101</ele>
        <time>2017-07-30T09:16:33Z</time>
      </trkpt>
      <trkpt lat="48.24532" lon="3.21358">
        <ele>101</ele>
        <time>2017-07-30T09:16:37Z</time>
      </trkpt>
      <trkpt lat="48.24525" lon="3.21365">
        <ele>101</ele>
        <time>2017-07-30T09:16:40Z</time>
      </trkpt>
      <trkpt lat="48.24517" lon="3.21371">
        <ele>101</ele>
        <time>2017-07-30T09:16:43Z</time>
      </trkpt>
      <trkpt lat="48.24509" lon="3.21379">
        <ele>101</ele>
        <time>2017-07-30T09:16:46Z</time>
      </trkpt>
      <trkpt lat="48.24501" lon="3.21385">
        <ele>101</ele>
        <time>2017-07-30T09:16:49Z</time>
      </trkpt>
      <trkpt lat="48.24494" lon="3.21392">
        <ele>104</ele>
        <time>2017-07-30T09:16:52Z</time>
      </trkpt>
      <trkpt lat="48.24487" lon="3.21398">
        <ele>104</ele>
        <time>2017-07-30T09:16:55Z</time>
      </trkpt>
      <trkpt lat="48.24479" lon="3.21405">
        <ele>104</ele>
        <time>2017-07-30T09:16:58Z</time>
      </trkpt>
      <trkpt lat="48.24472" lon="3.21414">
        <ele>104</ele>
        <time>2017-07-30T09:17:01Z</time>
      </trkpt>
      <trkpt lat="48.24469" lon="3.21425">
        <ele>105</ele>
        <time>2017-07-30T09:17:04Z</time>
      </trkpt>
      <trkpt lat="48.24466" lon="3.21436">
        <ele>105</ele>
        <time>2017-07-30T09:17:07Z</time>
      </trkpt>
      <trkpt lat="48.24464" lon="3.21449">
        <ele>105</ele>
        <time>2017-07-30T09:17:10Z</time>
      </trkpt>
      <trkpt lat="48.24462" lon="3.21461">
        <ele>105</ele>
        <time>2017-07-30T09:17:13Z</time>
      </trkpt>
      <trkpt lat="48.2446" lon="3.21473">
        <ele>105</ele>
        <time>2017-07-30T09:17:16Z</time>
      </trkpt>
      <trkpt lat="48.24457" lon="3.21487">
        <ele>106</ele>
        <time>2017-07-30T09:17:19Z</time>
      </trkpt>
      <trkpt lat="48.24457" lon="3.21497">
        <ele>106</ele>
        <time>2017-07-30T09:17:21Z</time>
      </trkpt>
      <trkpt lat="48.24454" lon="3.21511">
        <ele>105</ele>
        <time>2017-07-30T09:17:24Z</time>
      </trkpt>
      <trkpt lat="48.24452" lon="3.21524">
        <ele>105</ele>
        <time>2017-07-30T09:17:27Z</time>
      </trkpt>
      <trkpt lat="48.24449" lon="3.21539">
        <ele>105</ele>
        <time>2017-07-30T09:17:30Z</time>
      </trkpt>
      <trkpt lat="48.24446" lon="3.21553">
        <ele>105</ele>
        <time>2017-07-30T09:17:33Z</time>
      </trkpt>
      <trkpt lat="48.24442" lon="3.21567">
        <ele>106</ele>
        <time>2017-07-30T09:17:36Z</time>
      </trkpt>
      <trkpt lat="48.24437" lon="3.21581">
        <ele>106</ele>
        <time>2017-07-30T09:17:39Z</time>
      </trkpt>
      <trkpt lat="48.24434" lon="3.21595">
        <ele>106</ele>
        <time>2017-07-30T09:17:42Z</time>
      </trkpt>
      <trkpt lat="48.24433" lon="3.21606">
        <ele>106</ele>
        <time>2017-07-30T09:17:44Z</time>
      </trkpt>
      <trkpt lat="48.24431" lon="3.21621">
        <ele>106</ele>
        <time>2017-07-30T09:17:47Z</time>
      </trkpt>
      <trkpt lat="48.24429" lon="3.21632">
        <ele>106</ele>
        <time>2017-07-30T09:17:49Z</time>
      </trkpt>
      <trkpt lat="48.24426" lon="3.21648">
        <ele>107</ele>
        <time>2017-07-30T09:17:52Z</time>
      </trkpt>
      <trkpt lat="48.24423" lon="3.21657">
        <ele>108</ele>
        <time>2017-07-30T09:17:54Z</time>
      </trkpt>
      <trkpt lat="48.24419" lon="3.21672">
        <ele>109</ele>
        <time>2017-07-30T09:17:57Z</time>
      </trkpt>
      <trkpt lat="48.24417" lon="3.21682">
        <ele>107</ele>
        <time>2017-07-30T09:17:59Z</time>
      </trkpt>
      <trkpt lat="48.24414" lon="3.21693">
        <ele>109</ele>
        <time>2017-07-30T09:18:01Z</time>
      </trkpt>
      <trkpt lat="48.24411" lon="3.21703">
        <ele>109</ele>
        <time>2017-07-30T09:18:03Z</time>
      </trkpt>
      <trkpt lat="48.24409" lon="3.21713">
        <ele>109</ele>
        <time>2017-07-30T09:18:05Z</time>
      </trkpt>
      <trkpt lat="48.24404" lon="3.21727">
        <ele>108</ele>
        <time>2017-07-30T09:18:08Z</time>
      </trkpt>
      <trkpt lat="48.24405" lon="3.21742">
        <ele>107</ele>
        <time>2017-07-30T09:18:11Z</time>
      </trkpt>
      <trkpt lat="48.2441" lon="3.21754">
        <ele>106</ele>
        <time>2017-07-30T09:18:13Z</time>
      </trkpt>
      <trkpt lat="48.24415" lon="3.21768">
        <ele>105</ele>
        <time>2017-07-30T09:18:15Z</time>
      </trkpt>
      <trkpt lat="48.24422" lon="3.21785">
        <ele>102</ele>
        <time>2017-07-30T09:18:17Z</time>
      </trkpt>
      <trkpt lat="48.24426" lon="3.21795">
        <ele>101</ele>
        <time>2017-07-30T09:18:18Z</time>
      </trkpt>
      <trkpt lat="48.2443" lon="3.21805">
        <ele>101</ele>
        <time>2017-07-30T09:18:19Z</time>
      </trkpt>
      <trkpt lat="48.24434" lon="3.21815">
        <ele>100</ele>
        <time>2017-07-30T09:18:20Z</time>
      </trkpt>
      <trkpt lat="48.24439" lon="3.21826">
        <ele>100</ele>
        <time>2017-07-30T09:18:21Z</time>
      </trkpt>
      <trkpt lat="48.24444" lon="3.21838">
        <ele>99</ele>
        <time>2017-07-30T09:18:22Z</time>
      </trkpt>
      <trkpt lat="48.24449" lon="3.21851">
        <ele>99</ele>
        <time>2017-07-30T09:18:23Z</time>
      </trkpt>
      <trkpt lat="48.24455" lon="3.21864">
        <ele>98</ele>
        <time>2017-07-30T09:18:24Z</time>
      </trkpt>
      <trkpt lat="48.24461" lon="3.21878">
        <ele>98</ele>
        <time>2017-07-30T09:18:25Z</time>
      </trkpt>
      <trkpt lat="48.24466" lon="3.21892">
        <ele>98</ele>
        <time>2017-07-30T09:18:26Z</time>
      </trkpt>
      <trkpt lat="48.24472" lon="3.21904">
        <ele>98</ele>
        <time>2017-07-30T09:18:27Z</time>
      </trkpt>
      <trkpt lat="48.24477" lon="3.21917">
        <ele>97</ele>
        <time>2017-07-30T09:18:28Z</time>
      </trkpt>
      <trkpt lat="48.24481" lon="3.21928">
        <ele>99</ele>
        <time>2017-07-30T09:18:29Z</time>
      </trkpt>
      <trkpt lat="48.24487" lon="3.21944">
        <ele>99</ele>
        <time>2017-07-30T09:18:31Z</time>
      </trkpt>
      <trkpt lat="48.24487" lon="3.21958">
        <ele>100</ele>
        <time>2017-07-30T09:18:34Z</time>
      </trkpt>
      <trkpt lat="48.2448" lon="3.2196">
        <ele>100</ele>
        <time>2017-07-30T09:18:38Z</time>
      </trkpt>
      <trkpt lat="48.24471" lon="3.21959">
        <ele>101</ele>
        <time>2017-07-30T09:18:42Z</time>
      </trkpt>
      <trkpt lat="48.24463" lon="3.21954">
        <ele>101</ele>
        <time>2017-07-30T09:18:46Z</time>
      </trkpt>
      <trkpt lat="48.24456" lon="3.21951">
        <ele>101</ele>
        <time>2017-07-30T09:18:49Z</time>
      </trkpt>
      <trkpt lat="48.24447" lon="3.21949">
        <ele>101</ele>
        <time>2017-07-30T09:18:52Z</time>
      </trkpt>
      <trkpt lat="48.24439" lon="3.21947">
        <ele>102</ele>
        <time>2017-07-30T09:18:55Z</time>
      </trkpt>
      <trkpt lat="48.2443" lon="3.21947">
        <ele>102</ele>
        <time>2017-07-30T09:18:58Z</time>
      </trkpt>
      <trkpt lat="48.24421" lon="3.21945">
        <ele>102</ele>
        <time>2017-07-30T09:19:02Z</time>
      </trkpt>
      <trkpt lat="48.24412" lon="3.21944">
        <ele>105</ele>
        <time>2017-07-30T09:19:05Z</time>
      </trkpt>
      <trkpt lat="48.24403" lon="3.21946">
        <ele>106</ele>
        <time>2017-07-30T09:19:08Z</time>
      </trkpt>
      <trkpt lat="48.24393" lon="3.2195">
        <ele>106</ele>
        <time>2017-07-30T09:19:11Z</time>
      </trkpt>
      <trkpt lat="48.24383" lon="3.21952">
        <ele>107</ele>
        <time>2017-07-30T09:19:14Z</time>
      </trkpt>
      <trkpt lat="48.24374" lon="3.21952">
        <ele>107</ele>
        <time>2017-07-30T09:19:17Z</time>
      </trkpt>
      <trkpt lat="48.24364" lon="3.21954">
        <ele>107</ele>
        <time>2017-07-30T09:19:20Z</time>
      </trkpt>
      <trkpt lat="48.24354" lon="3.21956">
        <ele>107</ele>
        <time>2017-07-30T09:19:23Z</time>
      </trkpt>
      <trkpt lat="48.24344" lon="3.21961">
        <ele>108</ele>
        <time>2017-07-30T09:19:26Z</time>
      </trkpt>
      <trkpt lat="48.24336" lon="3.21962">
        <ele>108</ele>
        <time>2017-07-30T09:19:29Z</time>
      </trkpt>
      <trkpt lat="48.24329" lon="3.21966">
        <ele>110</ele>
        <time>2017-07-30T09:19:32Z</time>
      </trkpt>
      <trkpt lat="48.24321" lon="3.21969">
        <ele>110</ele>
        <time>2017-07-30T09:19:35Z</time>
      </trkpt>
      <trkpt lat="48.24313" lon="3.21973">
        <ele>110</ele>
        <time>2017-07-30T09:19:38Z</time>
      </trkpt>
      <trkpt lat="48.24305" lon="3.21976">
        <ele>110</ele>
        <time>2017-07-30T09:19:41Z</time>
      </trkpt>
      <trkpt lat="48.24296" lon="3.21975">
        <ele>110</ele>
        <time>2017-07-30T09:19:44Z</time>
      </trkpt>
      <trkpt lat="48.24286" lon="3.21974">
        <ele>110</ele>
        <time>2017-07-30T09:19:47Z</time>
      </trkpt>
      <trkpt lat="48.24278" lon="3.21973">
        <ele>110</ele>
        <time>2017-07-30T09:19:50Z</time>
      </trkpt>
      <trkpt lat="48.24271" lon="3.21973">
        <ele>110</ele>
        <time>2017-07-30T09:19:53Z</time>
      </trkpt>
      <trkpt lat="48.24262" lon="3.21976">
        <ele>111</ele>
        <time>2017-07-30T09:19:57Z</time>
      </trkpt>
      <trkpt lat="48.24253" lon="3.21973">
        <ele>110</ele>
        <time>2017-07-30T09:20:02Z</time>
      </trkpt>
      <trkpt lat="48.24246" lon="3.21977">
        <ele>112</ele>
        <time>2017-07-30T09:20:05Z</time>
      </trkpt>
      <trkpt lat="48.24237" lon="3.21976">
        <ele>112</ele>
        <time>2017-07-30T09:20:08Z</time>
      </trkpt>
      <trkpt lat="48.24228" lon="3.2198">
        <ele>112</ele>
        <time>2017-07-30T09:20:11Z</time>
      </trkpt>
      <trkpt lat="48.24225" lon="3.2199">
        <ele>112</ele>
        <time>2017-07-30T09:20:14Z</time>
      </trkpt>
      <trkpt lat="48.2422" lon="3.21999">
        <ele>112</ele>
        <time>2017-07-30T09:20:19Z</time>
      </trkpt>
      <trkpt lat="48.24213" lon="3.22007">
        <ele>118</ele>
        <time>2017-07-30T09:20:25Z</time>
      </trkpt>
      <trkpt lat="48.24207" lon="3.22016">
        <ele>118</ele>
        <time>2017-07-30T09:20:30Z</time>
      </trkpt>
      <trkpt lat="48.24199" lon="3.22024">
        <ele>119</ele>
        <time>2017-07-30T09:20:34Z</time>
      </trkpt>
      <trkpt lat="48.24193" lon="3.22032">
        <ele>119</ele>
        <time>2017-07-30T09:20:37Z</time>
      </trkpt>
      <trkpt lat="48.24186" lon="3.22039">
        <ele>120</ele>
        <time>2017-07-30T09:20:40Z</time>
      </trkpt>
      <trkpt lat="48.24178" lon="3.22048">
        <ele>120</ele>
        <time>2017-07-30T09:20:44Z</time>
      </trkpt>
      <trkpt lat="48.24173" lon="3.22057">
        <ele>121</ele>
        <time>2017-07-30T09:20:50Z</time>
      </trkpt>
      <trkpt lat="48.24169" lon="3.22067">
        <ele>122</ele>
        <time>2017-07-30T09:20:54Z</time>
      </trkpt>
      <trkpt lat="48.24162" lon="3.22075">
        <ele>124</ele>
        <time>2017-07-30T09:20:57Z</time>
      </trkpt>
      <trkpt lat="48.24158" lon="3.22085">
        <ele>126</ele>
        <time>2017-07-30T09:21:01Z</time>
      </trkpt>
      <trkpt lat="48.24154" lon="3.22096">
        <ele>127</ele>
        <time>2017-07-30T09:21:04Z</time>
      </trkpt>
      <trkpt lat="48.24148" lon="3.22103">
        <ele>127</ele>
        <time>2017-07-30T09:21:07Z</time>
      </trkpt>
      <trkpt lat="48.24142" lon="3.22112">
        <ele>128</ele>
        <time>2017-07-30T09:21:10Z</time>
      </trkpt>
      <trkpt lat="48.24138" lon="3.22123">
        <ele>128</ele>
        <time>2017-07-30T09:21:14Z</time>
      </trkpt>
      <trkpt lat="48.24132" lon="3.22131">
        <ele>128</ele>
        <time>2017-07-30T09:21:18Z</time>
      </trkpt>
      <trkpt lat="48.24128" lon="3.22142">
        <ele>129</ele>
        <time>2017-07-30T09:21:22Z</time>
      </trkpt>
      <trkpt lat="48.24125" lon="3.22153">
        <ele>129</ele>
        <time>2017-07-30T09:21:26Z</time>
      </trkpt>
      <trkpt lat="48.24118" lon="3.2216">
        <ele>129</ele>
        <time>2017-07-30T09:21:29Z</time>
      </trkpt>
      <trkpt lat="48.2411" lon="3.22166">
        <ele>130</ele>
        <time>2017-07-30T09:21:32Z</time>
      </trkpt>
      <trkpt lat="48.24101" lon="3.22171">
        <ele>133</ele>
        <time>2017-07-30T09:21:35Z</time>
      </trkpt>
      <trkpt lat="48.24092" lon="3.22177">
        <ele>133</ele>
        <time>2017-07-30T09:21:40Z</time>
      </trkpt>
      <trkpt lat="48.24083" lon="3.22181">
        <ele>134</ele>
        <time>2017-07-30T09:21:43Z</time>
      </trkpt>
      <trkpt lat="48.24078" lon="3.2219">
        <ele>135</ele>
        <time>2017-07-30T09:21:46Z</time>
      </trkpt>
      <trkpt lat="48.2407" lon="3.22193">
        <ele>136</ele>
        <time>2017-07-30T09:21:48Z</time>
      </trkpt>
      <trkpt lat="48.24063" lon="3.222">
        <ele>136</ele>
        <time>2017-07-30T09:21:52Z</time>
      </trkpt>
      <trkpt lat="48.24056" lon="3.22205">
        <ele>137</ele>
        <time>2017-07-30T09:21:55Z</time>
      </trkpt>
      <trkpt lat="48.24049" lon="3.22208">
        <ele>137</ele>
        <time>2017-07-30T09:21:57Z</time>
      </trkpt>
      <trkpt lat="48.24042" lon="3.22213">
        <ele>137</ele>
        <time>2017-07-30T09:22:01Z</time>
      </trkpt>
      <trkpt lat="48.24034" lon="3.22222">
        <ele>138</ele>
        <time>2017-07-30T09:22:05Z</time>
      </trkpt>
      <trkpt lat="48.24031" lon="3.22232">
        <ele>139</ele>
        <time>2017-07-30T09:22:09Z</time>
      </trkpt>
      <trkpt lat="48.24025" lon="3.22244">
        <ele>140</ele>
        <time>2017-07-30T09:22:13Z</time>
      </trkpt>
      <trkpt lat="48.24021" lon="3.22255">
        <ele>143</ele>
        <time>2017-07-30T09:22:18Z</time>
      </trkpt>
      <trkpt lat="48.24017" lon="3.22264">
        <ele>143</ele>
        <time>2017-07-30T09:22:22Z</time>
      </trkpt>
      <trkpt lat="48.24012" lon="3.22273">
        <ele>144</ele>
        <time>2017-07-30T09:22:27Z</time>
      </trkpt>
      <trkpt lat="48.24009" lon="3.22284">
        <ele>144</ele>
        <time>2017-07-30T09:22:31Z</time>
      </trkpt>
      <trkpt lat="48.24003" lon="3.2229">
        <ele>144</ele>
        <time>2017-07-30T09:22:34Z</time>
      </trkpt>
      <trkpt lat="48.23997" lon="3.22296">
        <ele>147</ele>
        <time>2017-07-30T09:22:38Z</time>
      </trkpt>
      <trkpt lat="48.23995" lon="3.22308">
        <ele>147</ele>
        <time>2017-07-30T09:22:42Z</time>
      </trkpt>
      <trkpt lat="48.23993" lon="3.22312">
        <ele>147</ele>
        <time>2017-07-30T09:22:49Z</time>
      </trkpt>
      <trkpt lat="48.23995" lon="3.22317">
        <ele>147</ele>
        <time>2017-07-30T09:22:56Z</time>
      </trkpt>
      <trkpt lat="48.23998" lon="3.22315">
        <ele>147</ele>
        <time>2017-07-30T09:23:03Z</time>
      </trkpt>
      <trkpt lat="48.23991" lon="3.22307">
        <ele>147</ele>
        <time>2017-07-30T09:23:10Z</time>
      </trkpt>
      <trkpt lat="48.23985" lon="3.22299">
        <ele>147</ele>
        <time>2017-07-30T09:23:15Z</time>
      </trkpt>
      <trkpt lat="48.23977" lon="3.22293">
        <ele>147</ele>
        <time>2017-07-30T09:23:21Z</time>
      </trkpt>
      <trkpt lat="48.23968" lon="3.22288">
        <ele>147</ele>
        <time>2017-07-30T09:23:24Z</time>
      </trkpt>
      <trkpt lat="48.23959" lon="3.22281">
        <ele>148</ele>
        <time>2017-07-30T09:23:27Z</time>
      </trkpt>
      <trkpt lat="48.23948" lon="3.22279">
        <ele>148</ele>
        <time>2017-07-30T09:23:30Z</time>
      </trkpt>
      <trkpt lat="48.23939" lon="3.22277">
        <ele>148</ele>
        <time>2017-07-30T09:23:32Z</time>
      </trkpt>
      <trkpt lat="48.2393" lon="3.22276">
        <ele>148</ele>
        <time>2017-07-30T09:23:35Z</time>
      </trkpt>
      <trkpt lat="48.23923" lon="3.22276">
        <ele>148</ele>
        <time>2017-07-30T09:23:42Z</time>
      </trkpt>
      <trkpt lat="48.23921" lon="3.22277">
        <ele>148</ele>
        <time>2017-07-30T09:23:49Z</time>
      </trkpt>
      <trkpt lat="48.23913" lon="3.22276">
        <ele>151</ele>
        <time>2017-07-30T09:23:53Z</time>
      </trkpt>
      <trkpt lat="48.2391" lon="3.22274">
        <ele>151</ele>
        <time>2017-07-30T09:24:00Z</time>
      </trkpt>
      <trkpt lat="48.23911" lon="3.22274">
        <ele>151</ele>
        <time>2017-07-30T09:24:07Z</time>
      </trkpt>
      <trkpt lat="48.2391" lon="3.22271">
        <ele>151</ele>
        <time>2017-07-30T09:24:14Z</time>
      </trkpt>
      <trkpt lat="48.23901" lon="3.22263">
        <ele>151</ele>
        <time>2017-07-30T09:24:19Z</time>
      </trkpt>
      <trkpt lat="48.23892" lon="3.2226">
        <ele>151</ele>
        <time>2017-07-30T09:24:24Z</time>
      </trkpt>
      <trkpt lat="48.23885" lon="3.22254">
        <ele>151</ele>
        <time>2017-07-30T09:24:26Z</time>
      </trkpt>
      <trkpt lat="48.23879" lon="3.22249">
        <ele>150</ele>
        <time>2017-07-30T09:24:28Z</time>
      </trkpt>
      <trkpt lat="48.23869" lon="3.22244">
        <ele>151</ele>
        <time>2017-07-30T09:24:31Z</time>
      </trkpt>
      <trkpt lat="48.23863" lon="3.22237">
        <ele>151</ele>
        <time>2017-07-30T09:24:34Z</time>
      </trkpt>
      <trkpt lat="48.23854" lon="3.22235">
        <ele>152</ele>
        <time>2017-07-30T09:24:36Z</time>
      </trkpt>
      <trkpt lat="48.23846" lon="3.22233">
        <ele>152</ele>
        <time>2017-07-30T09:24:37Z</time>
      </trkpt>
      <trkpt lat="48.23835" lon="3.22229">
        <ele>152</ele>
        <time>2017-07-30T09:24:39Z</time>
      </trkpt>
      <trkpt lat="48.23826" lon="3.22229">
        <ele>156</ele>
        <time>2017-07-30T09:24:41Z</time>
      </trkpt>
      <trkpt lat="48.23819" lon="3.22222">
        <ele>156</ele>
        <time>2017-07-30T09:24:45Z</time>
      </trkpt>
      <trkpt lat="48.23812" lon="3.22215">
        <ele>156</ele>
        <time>2017-07-30T09:24:49Z</time>
      </trkpt>
      <trkpt lat="48.23803" lon="3.22209">
        <ele>157</ele>
        <time>2017-07-30T09:24:53Z</time>
      </trkpt>
      <trkpt lat="48.23796" lon="3.22203">
        <ele>157</ele>
        <time>2017-07-30T09:24:57Z</time>
      </trkpt>
      <trkpt lat="48.23788" lon="3.22194">
        <ele>157</ele>
        <time>2017-07-30T09:25:02Z</time>
      </trkpt>
      <trkpt lat="48.23783" lon="3.22185">
        <ele>158</ele>
        <time>2017-07-30T09:25:04Z</time>
      </trkpt>
      <trkpt lat="48.23779" lon="3.22177">
        <ele>158</ele>
        <time>2017-07-30T09:25:07Z</time>
      </trkpt>
      <trkpt lat="48.23773" lon="3.22169">
        <ele>159</ele>
        <time>2017-07-30T09:25:11Z</time>
      </trkpt>
      <trkpt lat="48.23765" lon="3.22165">
        <ele>158</ele>
        <time>2017-07-30T09:25:13Z</time>
      </trkpt>
      <trkpt lat="48.23758" lon="3.22158">
        <ele>159</ele>
        <time>2017-07-30T09:25:15Z</time>
      </trkpt>
      <trkpt lat="48.23752" lon="3.22147">
        <ele>157</ele>
        <time>2017-07-30T09:25:18Z</time>
      </trkpt>
      <trkpt lat="48.23747" lon="3.22136">
        <ele>160</ele>
        <time>2017-07-30T09:25:21Z</time>
      </trkpt>
      <trkpt lat="48.23741" lon="3.22127">
        <ele>160</ele>
        <time>2017-07-30T09:25:24Z</time>
      </trkpt>
      <trkpt lat="48.23734" lon="3.2212">
        <ele>160</ele>
        <time>2017-07-30T09:25:27Z</time>
      </trkpt>
      <trkpt lat="48.23726" lon="3.22112">
        <ele>160</ele>
        <time>2017-07-30T09:25:32Z</time>
      </trkpt>
      <trkpt lat="48.23718" lon="3.22113">
        <ele>160</ele>
        <time>2017-07-30T09:25:36Z</time>
      </trkpt>
      <trkpt lat="48.23709" lon="3.22118">
        <ele>161</ele>
        <time>2017-07-30T09:25:42Z</time>
      </trkpt>
      <trkpt lat="48.237" lon="3.22118">
        <ele>161</ele>
        <time>2017-07-30T09:25:45Z</time>
      </trkpt>
      <trkpt lat="48.23691" lon="3.22124">
        <ele>161</ele>
        <time>2017-07-30T09:25:48Z</time>
      </trkpt>
      <trkpt lat="48.23682" lon="3.22129">
        <ele>162</ele>
        <time>2017-07-30T09:25:52Z</time>
      </trkpt>
      <trkpt lat="48.23676" lon="3.22138">
        <ele>162</ele>
        <time>2017-07-30T09:25:54Z</time>
      </trkpt>
      <trkpt lat="48.23669" lon="3.22151">
        <ele>163</ele>
        <time>2017-07-30T09:25:57Z</time>
      </trkpt>
      <trkpt lat="48.23662" lon="3.22165">
        <ele>165</ele>
        <time>2017-07-30T09:26:00Z</time>
      </trkpt>
      <trkpt lat="48.23655" lon="3.22176">
        <ele>165</ele>
        <time>2017-07-30T09:26:02Z</time>
      </trkpt>
      <trkpt lat="48.23648" lon="3.22187">
        <ele>165</ele>
        <time>2017-07-30T09:26:05Z</time>
      </trkpt>
      <trkpt lat="48.23644" lon="3.222">
        <ele>165</ele>
        <time>2017-07-30T09:26:07Z</time>
      </trkpt>
      <trkpt lat="48.23639" lon="3.22214">
        <ele>165</ele>
        <time>2017-07-30T09:26:09Z</time>
      </trkpt>
      <trkpt lat="48.23632" lon="3.22228">
        <ele>165</ele>
        <time>2017-07-30T09:26:11Z</time>
      </trkpt>
      <trkpt lat="48.23636" lon="3.22247">
        <ele>164</ele>
        <time>2017-07-30T09:26:14Z</time>
      </trkpt>
      <trkpt lat="48.23638" lon="3.22257">
        <ele>163</ele>
        <time>2017-07-30T09:26:15Z</time>
      </trkpt>
      <trkpt lat="48.23643" lon="3.22268">
        <ele>163</ele>
        <time>2017-07-30T09:26:16Z</time>
      </trkpt>
      <trkpt lat="48.23647" lon="3.22278">
        <ele>163</ele>
        <time>2017-07-30T09:26:17Z</time>
      </trkpt>
      <trkpt lat="48.23655" lon="3.2229">
        <ele>163</ele>
        <time>2017-07-30T09:26:20Z</time>
      </trkpt>
      <trkpt lat="48.23651" lon="3.22303">
        <ele>163</ele>
        <time>2017-07-30T09:26:22Z</time>
      </trkpt>
      <trkpt lat="48.23648" lon="3.22318">
        <ele>162</ele>
        <time>2017-07-30T09:26:24Z</time>
      </trkpt>
      <trkpt lat="48.23648" lon="3.22329">
        <ele>162</ele>
        <time>2017-07-30T09:26:26Z</time>
      </trkpt>
      <trkpt lat="48.23645" lon="3.22342">
        <ele>163</ele>
        <time>2017-07-30T09:26:28Z</time>
      </trkpt>
      <trkpt lat="48.23638" lon="3.22353">
        <ele>164</ele>
        <time>2017-07-30T09:26:30Z</time>
      </trkpt>
      <trkpt lat="48.23637" lon="3.22365">
        <ele>164</ele>
        <time>2017-07-30T09:26:32Z</time>
      </trkpt>
      <trkpt lat="48.23639" lon="3.22378">
        <ele>164</ele>
        <time>2017-07-30T09:26:34Z</time>
      </trkpt>
      <trkpt lat="48.23635" lon="3.22386">
        <ele>164</ele>
        <time>2017-07-30T09:26:38Z</time>
      </trkpt>
      <trkpt lat="48.23632" lon="3.22395">
        <ele>164</ele>
        <time>2017-07-30T09:26:45Z</time>
      </trkpt>
      <trkpt lat="48.23624" lon="3.22399">
        <ele>165</ele>
        <time>2017-07-30T09:26:50Z</time>
      </trkpt>
      <trkpt lat="48.23618" lon="3.22405">
        <ele>165</ele>
        <time>2017-07-30T09:26:52Z</time>
      </trkpt>
      <trkpt lat="48.23611" lon="3.22413">
        <ele>166</ele>
        <time>2017-07-30T09:26:55Z</time>
      </trkpt>
      <trkpt lat="48.2361" lon="3.22424">
        <ele>167</ele>
        <time>2017-07-30T09:26:57Z</time>
      </trkpt>
      <trkpt lat="48.2361" lon="3.22435">
        <ele>167</ele>
        <time>2017-07-30T09:26:59Z</time>
      </trkpt>
      <trkpt lat="48.23612" lon="3.2245">
        <ele>167</ele>
        <time>2017-07-30T09:27:02Z</time>
      </trkpt>
      <trkpt lat="48.23615" lon="3.22461">
        <ele>167</ele>
        <time>2017-07-30T09:27:04Z</time>
      </trkpt>
      <trkpt lat="48.23617" lon="3.22475">
        <ele>167</ele>
        <time>2017-07-30T09:27:07Z</time>
      </trkpt>
      <trkpt lat="48.23618" lon="3.22488">
        <ele>167</ele>
        <time>2017-07-30T09:27:10Z</time>
      </trkpt>
      <trkpt lat="48.23619" lon="3.22503">
        <ele>168</ele>
        <time>2017-07-30T09:27:13Z</time>
      </trkpt>
      <trkpt lat="48.23616" lon="3.22515">
        <ele>168</ele>
        <time>2017-07-30T09:27:15Z</time>
      </trkpt>
      <trkpt lat="48.23614" lon="3.22526">
        <ele>168</ele>
        <time>2017-07-30T09:27:17Z</time>
      </trkpt>
      <trkpt lat="48.23607" lon="3.22535">
        <ele>169</ele>
        <time>2017-07-30T09:27:20Z</time>
      </trkpt>
      <trkpt lat="48.23601" lon="3.22543">
        <ele>169</ele>
        <time>2017-07-30T09:27:21Z</time>
      </trkpt>
      <trkpt lat="48.236" lon="3.22554">
        <ele>169</ele>
        <time>2017-07-30T09:27:23Z</time>
      </trkpt>
      <trkpt lat="48.23593" lon="3.22561">
        <ele>169</ele>
        <time>2017-07-30T09:27:25Z</time>
      </trkpt>
      <trkpt lat="48.23589" lon="3.2257">
        <ele>170</ele>
        <time>2017-07-30T09:27:27Z</time>
      </trkpt>
      <trkpt lat="48.23585" lon="3.22579">
        <ele>170</ele>
        <time>2017-07-30T09:27:31Z</time>
      </trkpt>
      <trkpt lat="48.23578" lon="3.22586">
        <ele>172</ele>
        <time>2017-07-30T09:27:34Z</time>
      </trkpt>
      <trkpt lat="48.23571" lon="3.2259">
        <ele>173</ele>
        <time>2017-07-30T09:27:37Z</time>
      </trkpt>
      <trkpt lat="48.23563" lon="3.22591">
        <ele>173</ele>
        <time>2017-07-30T09:27:41Z</time>
      </trkpt>
      <trkpt lat="48.23555" lon="3.22596">
        <ele>174</ele>
        <time>2017-07-30T09:27:44Z</time>
      </trkpt>
      <trkpt lat="48.23548" lon="3.22598">
        <ele>174</ele>
        <time>2017-07-30T09:27:47Z</time>
      </trkpt>
      <trkpt lat="48.23541" lon="3.22606">
        <ele>174</ele>
        <time>2017-07-30T09:27:51Z</time>
      </trkpt>
      <trkpt lat="48.23532" lon="3.22606">
        <ele>174</ele>
        <time>2017-07-30T09:27:54Z</time>
      </trkpt>
      <trkpt lat="48.23524" lon="3.22608">
        <ele>175</ele>
        <time>2017-07-30T09:27:56Z</time>
      </trkpt>
      <trkpt lat="48.23515" lon="3.22606">
        <ele>175</ele>
        <time>2017-07-30T09:27:59Z</time>
      </trkpt>
      <trkpt lat="48.23508" lon="3.226">
        <ele>175</ele>
        <time>2017-07-30T09:28:02Z</time>
      </trkpt>
      <trkpt lat="48.23499" lon="3.22598">
        <ele>176</ele>
        <time>2017-07-30T09:28:04Z</time>
      </trkpt>
      <trkpt lat="48.23489" lon="3.22594">
        <ele>176</ele>
        <time>2017-07-30T09:28:08Z</time>
      </trkpt>
      <trkpt lat="48.23482" lon="3.22594">
        <ele>176</ele>
        <time>2017-07-30T09:28:12Z</time>
      </trkpt>
      <trkpt lat="48.23472" lon="3.22591">
        <ele>176</ele>
        <time>2017-07-30T09:28:17Z</time>
      </trkpt>
      <trkpt lat="48.23463" lon="3.22591">
        <ele>177</ele>
        <time>2017-07-30T09:28:21Z</time>
      </trkpt>
      <trkpt lat="48.23454" lon="3.2259">
        <ele>177</ele>
        <time>2017-07-30T09:28:24Z</time>
      </trkpt>
      <trkpt lat="48.23446" lon="3.22589">
        <ele>177</ele>
        <time>2017-07-30T09:28:27Z</time>
      </trkpt>
      <trkpt lat="48.23437" lon="3.22586">
        <ele>177</ele>
        <time>2017-07-30T09:28:30Z</time>
      </trkpt>
      <trkpt lat="48.23428" lon="3.22588">
        <ele>177</ele>
        <time>2017-07-30T09:28:33Z</time>
      </trkpt>
      <trkpt lat="48.23417" lon="3.2259">
        <ele>177</ele>
        <time>2017-07-30T09:28:36Z</time>
      </trkpt>
      <trkpt lat="48.23408" lon="3.22588">
        <ele>177</ele>
        <time>2017-07-30T09:28:39Z</time>
      </trkpt>
      <trkpt lat="48.234" lon="3.22586">
        <ele>177</ele>
        <time>2017-07-30T09:28:45Z</time>
      </trkpt>
      <trkpt lat="48.23398" lon="3.22589">
        <ele>177</ele>
        <time>2017-07-30T09:28:52Z</time>
      </trkpt>
      <trkpt lat="48.23398" lon="3.22591">
        <ele>177</ele>
        <time>2017-07-30T09:28:59Z</time>
      </trkpt>
      <trkpt lat="48.23398" lon="3.22591">
        <ele>177</ele>
        <time>2017-07-30T09:29:04Z</time>
      </trkpt>
      <trkpt lat="48.23396" lon="3.22592">
        <ele>177</ele>
        <time>2017-07-30T09:29:12Z</time>
      </trkpt>
      <trkpt lat="48.23396" lon="3.22591">
        <ele>177</ele>
        <time>2017-07-30T09:29:14Z</time>
      </trkpt>
      <trkpt lat="48.23389" lon="3.22594">
        <ele>177</ele>
        <time>2017-07-30T09:29:28Z</time>
      </trkpt>
      <trkpt lat="48.23382" lon="3.22599">
        <ele>177</ele>
        <time>2017-07-30T09:29:33Z</time>
      </trkpt>
      <trkpt lat="48.23375" lon="3.22606">
        <ele>177</ele>
        <time>2017-07-30T09:29:36Z</time>
      </trkpt>
      <trkpt lat="48.23367" lon="3.22613">
        <ele>177</ele>
        <time>2017-07-30T09:29:39Z</time>
      </trkpt>
      <trkpt lat="48.2336" lon="3.22619">
        <ele>176</ele>
        <time>2017-07-30T09:29:42Z</time>
      </trkpt>
      <trkpt lat="48.23353" lon="3.22626">
        <ele>176</ele>
        <time>2017-07-30T09:29:45Z</time>
      </trkpt>
      <trkpt lat="48.23344" lon="3.22633">
        <ele>176</ele>
        <time>2017-07-30T09:29:48Z</time>
      </trkpt>
      <trkpt lat="48.23337" lon="3.2264">
        <ele>176</ele>
        <time>2017-07-30T09:29:51Z</time>
      </trkpt>
      <trkpt lat="48.2333" lon="3.22646">
        <ele>175</ele>
        <time>2017-07-30T09:29:54Z</time>
      </trkpt>
      <trkpt lat="48.23321" lon="3.22653">
        <ele>175</ele>
        <time>2017-07-30T09:29:57Z</time>
      </trkpt>
      <trkpt lat="48.23316" lon="3.2266">
        <ele>175</ele>
        <time>2017-07-30T09:29:59Z</time>
      </trkpt>
      <trkpt lat="48.23311" lon="3.22673">
        <ele>175</ele>
        <time>2017-07-30T09:30:02Z</time>
      </trkpt>
      <trkpt lat="48.23309" lon="3.22684">
        <ele>175</ele>
        <time>2017-07-30T09:30:04Z</time>
      </trkpt>
      <trkpt lat="48.23309" lon="3.22695">
        <ele>175</ele>
        <time>2017-07-30T09:30:06Z</time>
      </trkpt>
      <trkpt lat="48.23309" lon="3.22712">
        <ele>175</ele>
        <time>2017-07-30T09:30:09Z</time>
      </trkpt>
      <trkpt lat="48.23306" lon="3.22724">
        <ele>175</ele>
        <time>2017-07-30T09:30:11Z</time>
      </trkpt>
      <trkpt lat="48.23306" lon="3.22735">
        <ele>175</ele>
        <time>2017-07-30T09:30:13Z</time>
      </trkpt>
      <trkpt lat="48.23306" lon="3.22747">
        <ele>175</ele>
        <time>2017-07-30T09:30:15Z</time>
      </trkpt>
      <trkpt lat="48.23306" lon="3.22761">
        <ele>177</ele>
        <time>2017-07-30T09:30:18Z</time>
      </trkpt>
      <trkpt lat="48.23304" lon="3.22777">
        <ele>177</ele>
        <time>2017-07-30T09:30:21Z</time>
      </trkpt>
      <trkpt lat="48.23303" lon="3.2279">
        <ele>177</ele>
        <time>2017-07-30T09:30:25Z</time>
      </trkpt>
      <trkpt lat="48.23297" lon="3.22796">
        <ele>177</ele>
        <time>2017-07-30T09:30:26Z</time>
      </trkpt>
      <trkpt lat="48.2329" lon="3.22797">
        <ele>177</ele>
        <time>2017-07-30T09:30:29Z</time>
      </trkpt>
      <trkpt lat="48.23279" lon="3.22797">
        <ele>176</ele>
        <time>2017-07-30T09:30:31Z</time>
      </trkpt>
      <trkpt lat="48.23268" lon="3.22796">
        <ele>176</ele>
        <time>2017-07-30T09:30:34Z</time>
      </trkpt>
      <trkpt lat="48.23258" lon="3.22795">
        <ele>176</ele>
        <time>2017-07-30T09:30:37Z</time>
      </trkpt>
      <trkpt lat="48.23249" lon="3.22794">
        <ele>173</ele>
        <time>2017-07-30T09:30:39Z</time>
      </trkpt>
      <trkpt lat="48.2324" lon="3.22792">
        <ele>173</ele>
        <time>2017-07-30T09:30:41Z</time>
      </trkpt>
      <trkpt lat="48.2323" lon="3.22789">
        <ele>173</ele>
        <time>2017-07-30T09:30:43Z</time>
      </trkpt>
      <trkpt lat="48.2322" lon="3.22787">
        <ele>172</ele>
        <time>2017-07-30T09:30:47Z</time>
      </trkpt>
      <trkpt lat="48.23211" lon="3.22787">
        <ele>172</ele>
        <time>2017-07-30T09:30:48Z</time>
      </trkpt>
      <trkpt lat="48.23202" lon="3.22785">
        <ele>172</ele>
        <time>2017-07-30T09:30:51Z</time>
      </trkpt>
      <trkpt lat="48.23194" lon="3.22786">
        <ele>171</ele>
        <time>2017-07-30T09:30:52Z</time>
      </trkpt>
      <trkpt lat="48.23185" lon="3.22784">
        <ele>171</ele>
        <time>2017-07-30T09:30:54Z</time>
      </trkpt>
      <trkpt lat="48.23174" lon="3.22781">
        <ele>171</ele>
        <time>2017-07-30T09:30:57Z</time>
      </trkpt>
      <trkpt lat="48.23163" lon="3.22781">
        <ele>168</ele>
        <time>2017-07-30T09:30:58Z</time>
      </trkpt>
      <trkpt lat="48.23153" lon="3.2278">
        <ele>168</ele>
        <time>2017-07-30T09:31:00Z</time>
      </trkpt>
      <trkpt lat="48.23144" lon="3.22778">
        <ele>167</ele>
        <time>2017-07-30T09:31:02Z</time>
      </trkpt>
      <trkpt lat="48.23134" lon="3.22777">
        <ele>167</ele>
        <time>2017-07-30T09:31:05Z</time>
      </trkpt>
      <trkpt lat="48.23124" lon="3.22776">
        <ele>167</ele>
        <time>2017-07-30T09:31:06Z</time>
      </trkpt>
      <trkpt lat="48.23116" lon="3.22778">
        <ele>167</ele>
        <time>2017-07-30T09:31:09Z</time>
      </trkpt>
      <trkpt lat="48.2311" lon="3.22785">
        <ele>166</ele>
        <time>2017-07-30T09:31:13Z</time>
      </trkpt>
      <trkpt lat="48.23107" lon="3.22795">
        <ele>166</ele>
        <time>2017-07-30T09:31:15Z</time>
      </trkpt>
      <trkpt lat="48.23105" lon="3.22805">
        <ele>166</ele>
        <time>2017-07-30T09:31:16Z</time>
      </trkpt>
      <trkpt lat="48.23102" lon="3.22821">
        <ele>166</ele>
        <time>2017-07-30T09:31:19Z</time>
      </trkpt>
      <trkpt lat="48.231" lon="3.22837">
        <ele>167</ele>
        <time>2017-07-30T09:31:22Z</time>
      </trkpt>
      <trkpt lat="48.23099" lon="3.22849">
        <ele>167</ele>
        <time>2017-07-30T09:31:24Z</time>
      </trkpt>
      <trkpt lat="48.23097" lon="3.22859">
        <ele>168</ele>
        <time>2017-07-30T09:31:26Z</time>
      </trkpt>
      <trkpt lat="48.23094" lon="3.22871">
        <ele>168</ele>
        <time>2017-07-30T09:31:28Z</time>
      </trkpt>
      <trkpt lat="48.23085" lon="3.22874">
        <ele>168</ele>
        <time>2017-07-30T09:31:30Z</time>
      </trkpt>
      <trkpt lat="48.23075" lon="3.22872">
        <ele>164</ele>
        <time>2017-07-30T09:31:32Z</time>
      </trkpt>
      <trkpt lat="48.23064" lon="3.2287">
        <ele>164</ele>
        <time>2017-07-30T09:31:34Z</time>
      </trkpt>
      <trkpt lat="48.23052" lon="3.22868">
        <ele>164</ele>
        <time>2017-07-30T09:31:36Z</time>
      </trkpt>
      <trkpt lat="48.23038" lon="3.22865">
        <ele>163</ele>
        <time>2017-07-30T09:31:38Z</time>
      </trkpt>
      <trkpt lat="48.23025" lon="3.22865">
        <ele>163</ele>
        <time>2017-07-30T09:31:40Z</time>
      </trkpt>
      <trkpt lat="48.23017" lon="3.22859">
        <ele>162</ele>
        <time>2017-07-30T09:31:42Z</time>
      </trkpt>
      <trkpt lat="48.2301" lon="3.22857">
        <ele>162</ele>
        <time>2017-07-30T09:31:45Z</time>
      </trkpt>
      <trkpt lat="48.23006" lon="3.22869">
        <ele>162</ele>
        <time>2017-07-30T09:31:48Z</time>
      </trkpt>
      <trkpt lat="48.23003" lon="3.22879">
        <ele>162</ele>
        <time>2017-07-30T09:31:50Z</time>
      </trkpt>
      <trkpt lat="48.23001" lon="3.22891">
        <ele>162</ele>
        <time>2017-07-30T09:31:52Z</time>
      </trkpt>
      <trkpt lat="48.22997" lon="3.22903">
        <ele>161</ele>
        <time>2017-07-30T09:31:54Z</time>
      </trkpt>
      <trkpt lat="48.22988" lon="3.22908">
        <ele>161</ele>
        <time>2017-07-30T09:31:56Z</time>
      </trkpt>
      <trkpt lat="48.2298" lon="3.22904">
        <ele>161</ele>
        <time>2017-07-30T09:31:59Z</time>
      </trkpt>
      <trkpt lat="48.22971" lon="3.22901">
        <ele>161</ele>
        <time>2017-07-30T09:32:02Z</time>
      </trkpt>
      <trkpt lat="48.22962" lon="3.22897">
        <ele>161</ele>
        <time>2017-07-30T09:32:05Z</time>
      </trkpt>
      <trkpt lat="48.22954" lon="3.22895">
        <ele>161</ele>
        <time>2017-07-30T09:32:07Z</time>
      </trkpt>
      <trkpt lat="48.22947" lon="3.22887">
        <ele>161</ele>
        <time>2017-07-30T09:32:09Z</time>
      </trkpt>
      <trkpt lat="48.22937" lon="3.22885">
        <ele>161</ele>
        <time>2017-07-30T09:32:12Z</time>
      </trkpt>
      <trkpt lat="48.22928" lon="3.2288">
        <ele>161</ele>
        <time>2017-07-30T09:32:15Z</time>
      </trkpt>
      <trkpt lat="48.2292" lon="3.22879">
        <ele>161</ele>
        <time>2017-07-30T09:32:17Z</time>
      </trkpt>
      <trkpt lat="48.22914" lon="3.22886">
        <ele>160</ele>
        <time>2017-07-30T09:32:19Z</time>
      </trkpt>
      <trkpt lat="48.22909" lon="3.22899">
        <ele>160</ele>
        <time>2017-07-30T09:32:22Z</time>
      </trkpt>
      <trkpt lat="48.22905" lon="3.22913">
        <ele>160</ele>
        <time>2017-07-30T09:32:25Z</time>
      </trkpt>
      <trkpt lat="48.22902" lon="3.22923">
        <ele>160</ele>
        <time>2017-07-30T09:32:27Z</time>
      </trkpt>
      <trkpt lat="48.22898" lon="3.22936">
        <ele>160</ele>
        <time>2017-07-30T09:32:30Z</time>
      </trkpt>
      <trkpt lat="48.22894" lon="3.22947">
        <ele>160</ele>
        <time>2017-07-30T09:32:33Z</time>
      </trkpt>
      <trkpt lat="48.2289" lon="3.22962">
        <ele>160</ele>
        <time>2017-07-30T09:32:36Z</time>
      </trkpt>
      <trkpt lat="48.22885" lon="3.22974">
        <ele>160</ele>
        <time>2017-07-30T09:32:39Z</time>
      </trkpt>
      <trkpt lat="48.22881" lon="3.22985">
        <ele>160</ele>
        <time>2017-07-30T09:32:42Z</time>
      </trkpt>
      <trkpt lat="48.22875" lon="3.22993">
        <ele>160</ele>
        <time>2017-07-30T09:32:45Z</time>
      </trkpt>
      <trkpt lat="48.2287" lon="3.23007">
        <ele>161</ele>
        <time>2017-07-30T09:32:49Z</time>
      </trkpt>
      <trkpt lat="48.22863" lon="3.23018">
        <ele>161</ele>
        <time>2017-07-30T09:32:52Z</time>
      </trkpt>
      <trkpt lat="48.22858" lon="3.23032">
        <ele>161</ele>
        <time>2017-07-30T09:32:55Z</time>
      </trkpt>
      <trkpt lat="48.22855" lon="3.23042">
        <ele>161</ele>
        <time>2017-07-30T09:32:57Z</time>
      </trkpt>
      <trkpt lat="48.2285" lon="3.23055">
        <ele>161</ele>
        <time>2017-07-30T09:33:00Z</time>
      </trkpt>
      <trkpt lat="48.22846" lon="3.23068">
        <ele>161</ele>
        <time>2017-07-30T09:33:03Z</time>
      </trkpt>
      <trkpt lat="48.22842" lon="3.23083">
        <ele>162</ele>
        <time>2017-07-30T09:33:07Z</time>
      </trkpt>
      <trkpt lat="48.22841" lon="3.23095">
        <ele>162</ele>
        <time>2017-07-30T09:33:09Z</time>
      </trkpt>
      <trkpt lat="48.22838" lon="3.23107">
        <ele>161</ele>
        <time>2017-07-30T09:33:12Z</time>
      </trkpt>
      <trkpt lat="48.22834" lon="3.23121">
        <ele>161</ele>
        <time>2017-07-30T09:33:16Z</time>
      </trkpt>
      <trkpt lat="48.22831" lon="3.23131">
        <ele>159</ele>
        <time>2017-07-30T09:33:18Z</time>
      </trkpt>
      <trkpt lat="48.22829" lon="3.23146">
        <ele>160</ele>
        <time>2017-07-30T09:33:21Z</time>
      </trkpt>
      <trkpt lat="48.22827" lon="3.23156">
        <ele>160</ele>
        <time>2017-07-30T09:33:23Z</time>
      </trkpt>
      <trkpt lat="48.22825" lon="3.23168">
        <ele>160</ele>
        <time>2017-07-30T09:33:26Z</time>
      </trkpt>
      <trkpt lat="48.22824" lon="3.23179">
        <ele>160</ele>
        <time>2017-07-30T09:33:27Z</time>
      </trkpt>
      <trkpt lat="48.22822" lon="3.23195">
        <ele>158</ele>
        <time>2017-07-30T09:33:30Z</time>
      </trkpt>
      <trkpt lat="48.22823" lon="3.23207">
        <ele>158</ele>
        <time>2017-07-30T09:33:32Z</time>
      </trkpt>
      <trkpt lat="48.22825" lon="3.23219">
        <ele>158</ele>
        <time>2017-07-30T09:33:35Z</time>
      </trkpt>
      <trkpt lat="48.22828" lon="3.23234">
        <ele>158</ele>
        <time>2017-07-30T09:33:38Z</time>
      </trkpt>
      <trkpt lat="48.22829" lon="3.23245">
        <ele>158</ele>
        <time>2017-07-30T09:33:40Z</time>
      </trkpt>
      <trkpt lat="48.2283" lon="3.23256">
        <ele>158</ele>
        <time>2017-07-30T09:33:42Z</time>
      </trkpt>
      <trkpt lat="48.22831" lon="3.23268">
        <ele>156</ele>
        <time>2017-07-30T09:33:44Z</time>
      </trkpt>
      <trkpt lat="48.22832" lon="3.2328">
        <ele>155</ele>
        <time>2017-07-30T09:33:46Z</time>
      </trkpt>
      <trkpt lat="48.22833" lon="3.23291">
        <ele>155</ele>
        <time>2017-07-30T09:33:48Z</time>
      </trkpt>
      <trkpt lat="48.22836" lon="3.23305">
        <ele>156</ele>
        <time>2017-07-30T09:33:51Z</time>
      </trkpt>
      <trkpt lat="48.22839" lon="3.23318">
        <ele>156</ele>
        <time>2017-07-30T09:33:54Z</time>
      </trkpt>
      <trkpt lat="48.22838" lon="3.23332">
        <ele>155</ele>
        <time>2017-07-30T09:33:57Z</time>
      </trkpt>
      <trkpt lat="48.22839" lon="3.23345">
        <ele>155</ele>
        <time>2017-07-30T09:34:00Z</time>
      </trkpt>
      <trkpt lat="48.22842" lon="3.23356">
        <ele>154</ele>
        <time>2017-07-30T09:34:02Z</time>
      </trkpt>
      <trkpt lat="48.22845" lon="3.23366">
        <ele>154</ele>
        <time>2017-07-30T09:34:04Z</time>
      </trkpt>
      <trkpt lat="48.22848" lon="3.23377">
        <ele>154</ele>
        <time>2017-07-30T09:34:06Z</time>
      </trkpt>
      <trkpt lat="48.2285" lon="3.23388">
        <ele>154</ele>
        <time>2017-07-30T09:34:08Z</time>
      </trkpt>
      <trkpt lat="48.22854" lon="3.23399">
        <ele>153</ele>
        <time>2017-07-30T09:34:10Z</time>
      </trkpt>
      <trkpt lat="48.22857" lon="3.23411">
        <ele>153</ele>
        <time>2017-07-30T09:34:12Z</time>
      </trkpt>
      <trkpt lat="48.2286" lon="3.23422">
        <ele>152</ele>
        <time>2017-07-30T09:34:14Z</time>
      </trkpt>
      <trkpt lat="48.22864" lon="3.23437">
        <ele>152</ele>
        <time>2017-07-30T09:34:17Z</time>
      </trkpt>
      <trkpt lat="48.22866" lon="3.23448">
        <ele>151</ele>
        <time>2017-07-30T09:34:20Z</time>
      </trkpt>
      <trkpt lat="48.22874" lon="3.23452">
        <ele>152</ele>
        <time>2017-07-30T09:34:24Z</time>
      </trkpt>
      <trkpt lat="48.22882" lon="3.23451">
        <ele>152</ele>
        <time>2017-07-30T09:34:28Z</time>
      </trkpt>
      <trkpt lat="48.22891" lon="3.23452">
        <ele>152</ele>
        <time>2017-07-30T09:34:30Z</time>
      </trkpt>
      <trkpt lat="48.22898" lon="3.23447">
        <ele>153</ele>
        <time>2017-07-30T09:34:32Z</time>
      </trkpt>
      <trkpt lat="48.22905" lon="3.2344">
        <ele>153</ele>
        <time>2017-07-30T09:34:35Z</time>
      </trkpt>
      <trkpt lat="48.22912" lon="3.23433">
        <ele>154</ele>
        <time>2017-07-30T09:34:38Z</time>
      </trkpt>
      <trkpt lat="48.2292" lon="3.23438">
        <ele>151</ele>
        <time>2017-07-30T09:34:41Z</time>
      </trkpt>
      <trkpt lat="48.22927" lon="3.23448">
        <ele>150</ele>
        <time>2017-07-30T09:34:44Z</time>
      </trkpt>
      <trkpt lat="48.22933" lon="3.23458">
        <ele>149</ele>
        <time>2017-07-30T09:34:47Z</time>
      </trkpt>
      <trkpt lat="48.22938" lon="3.23471">
        <ele>149</ele>
        <time>2017-07-30T09:34:50Z</time>
      </trkpt>
      <trkpt lat="48.22943" lon="3.23485">
        <ele>149</ele>
        <time>2017-07-30T09:34:52Z</time>
      </trkpt>
      <trkpt lat="48.22949" lon="3.23494">
        <ele>148</ele>
        <time>2017-07-30T09:34:54Z</time>
      </trkpt>
      <trkpt lat="48.22953" lon="3.23502">
        <ele>146</ele>
        <time>2017-07-30T09:35:01Z</time>
      </trkpt>
      <trkpt lat="48.22953" lon="3.23502">
        <ele>146</ele>
        <time>2017-07-30T09:35:08Z</time>
      </trkpt>
      <trkpt lat="48.22954" lon="3.23517">
        <ele>146</ele>
        <time>2017-07-30T09:35:14Z</time>
      </trkpt>
      <trkpt lat="48.22957" lon="3.23532">
        <ele>145</ele>
        <time>2017-07-30T09:35:17Z</time>
      </trkpt>
      <trkpt lat="48.22962" lon="3.2354">
        <ele>145</ele>
        <time>2017-07-30T09:35:19Z</time>
      </trkpt>
      <trkpt lat="48.22967" lon="3.23552">
        <ele>144</ele>
        <time>2017-07-30T09:35:21Z</time>
      </trkpt>
      <trkpt lat="48.2297" lon="3.23563">
        <ele>144</ele>
        <time>2017-07-30T09:35:23Z</time>
      </trkpt>
      <trkpt lat="48.22972" lon="3.23576">
        <ele>143</ele>
        <time>2017-07-30T09:35:27Z</time>
      </trkpt>
      <trkpt lat="48.22967" lon="3.23585">
        <ele>143</ele>
        <time>2017-07-30T09:35:30Z</time>
      </trkpt>
      <trkpt lat="48.22967" lon="3.23596">
        <ele>143</ele>
        <time>2017-07-30T09:35:33Z</time>
      </trkpt>
      <trkpt lat="48.22966" lon="3.23609">
        <ele>143</ele>
        <time>2017-07-30T09:35:36Z</time>
      </trkpt>
      <trkpt lat="48.22964" lon="3.2362">
        <ele>144</ele>
        <time>2017-07-30T09:35:38Z</time>
      </trkpt>
      <trkpt lat="48.22968" lon="3.23629">
        <ele>143</ele>
        <time>2017-07-30T09:35:40Z</time>
      </trkpt>
      <trkpt lat="48.2297" lon="3.23641">
        <ele>143</ele>
        <time>2017-07-30T09:35:42Z</time>
      </trkpt>
      <trkpt lat="48.22973" lon="3.23656">
        <ele>143</ele>
        <time>2017-07-30T09:35:45Z</time>
      </trkpt>
      <trkpt lat="48.22972" lon="3.23668">
        <ele>142</ele>
        <time>2017-07-30T09:35:49Z</time>
      </trkpt>
      <trkpt lat="48.22972" lon="3.2368">
        <ele>142</ele>
        <time>2017-07-30T09:35:52Z</time>
      </trkpt>
      <trkpt lat="48.22971" lon="3.23693">
        <ele>142</ele>
        <time>2017-07-30T09:35:55Z</time>
      </trkpt>
      <trkpt lat="48.22967" lon="3.23702">
        <ele>143</ele>
        <time>2017-07-30T09:35:58Z</time>
      </trkpt>
      <trkpt lat="48.22965" lon="3.23715">
        <ele>142</ele>
        <time>2017-07-30T09:36:01Z</time>
      </trkpt>
      <trkpt lat="48.22964" lon="3.23728">
        <ele>142</ele>
        <time>2017-07-30T09:36:04Z</time>
      </trkpt>
      <trkpt lat="48.22963" lon="3.23739">
        <ele>142</ele>
        <time>2017-07-30T09:36:07Z</time>
      </trkpt>
      <trkpt lat="48.2296" lon="3.23749">
        <ele>142</ele>
        <time>2017-07-30T09:36:10Z</time>
      </trkpt>
      <trkpt lat="48.22954" lon="3.23754">
        <ele>140</ele>
        <time>2017-07-30T09:36:17Z</time>
      </trkpt>
      <trkpt lat="48.22947" lon="3.23759">
        <ele>140</ele>
        <time>2017-07-30T09:36:21Z</time>
      </trkpt>
      <trkpt lat="48.22938" lon="3.23759">
        <ele>141</ele>
        <time>2017-07-30T09:36:25Z</time>
      </trkpt>
      <trkpt lat="48.22933" lon="3.23768">
        <ele>141</ele>
        <time>2017-07-30T09:36:29Z</time>
      </trkpt>
      <trkpt lat="48.22934" lon="3.23779">
        <ele>140</ele>
        <time>2017-07-30T09:36:33Z</time>
      </trkpt>
      <trkpt lat="48.22933" lon="3.23791">
        <ele>139</ele>
        <time>2017-07-30T09:36:37Z</time>
      </trkpt>
      <trkpt lat="48.22932" lon="3.23803">
        <ele>138</ele>
        <time>2017-07-30T09:36:39Z</time>
      </trkpt>
      <trkpt lat="48.22929" lon="3.23817">
        <ele>138</ele>
        <time>2017-07-30T09:36:42Z</time>
      </trkpt>
      <trkpt lat="48.22924" lon="3.2383">
        <ele>139</ele>
        <time>2017-07-30T09:36:44Z</time>
      </trkpt>
      <trkpt lat="48.22919" lon="3.23846">
        <ele>136</ele>
        <time>2017-07-30T09:36:46Z</time>
      </trkpt>
      <trkpt lat="48.22917" lon="3.23864">
        <ele>133</ele>
        <time>2017-07-30T09:36:48Z</time>
      </trkpt>
      <trkpt lat="48.22914" lon="3.23886">
        <ele>132</ele>
        <time>2017-07-30T09:36:50Z</time>
      </trkpt>
      <trkpt lat="48.22911" lon="3.23906">
        <ele>132</ele>
        <time>2017-07-30T09:36:52Z</time>
      </trkpt>
      <trkpt lat="48.2291" lon="3.23923">
        <ele>131</ele>
        <time>2017-07-30T09:36:54Z</time>
      </trkpt>
      <trkpt lat="48.22909" lon="3.23938">
        <ele>129</ele>
        <time>2017-07-30T09:36:56Z</time>
      </trkpt>
      <trkpt lat="48.2291" lon="3.23953">
        <ele>128</ele>
        <time>2017-07-30T09:36:58Z</time>
      </trkpt>
      <trkpt lat="48.22911" lon="3.23968">
        <ele>128</ele>
        <time>2017-07-30T09:37:00Z</time>
      </trkpt>
      <trkpt lat="48.22912" lon="3.23984">
        <ele>130</ele>
        <time>2017-07-30T09:37:02Z</time>
      </trkpt>
      <trkpt lat="48.22915" lon="3.24">
        <ele>132</ele>
        <time>2017-07-30T09:37:04Z</time>
      </trkpt>
      <trkpt lat="48.22919" lon="3.24015">
        <ele>130</ele>
        <time>2017-07-30T09:37:06Z</time>
      </trkpt>
      <trkpt lat="48.22922" lon="3.24028">
        <ele>129</ele>
        <time>2017-07-30T09:37:08Z</time>
      </trkpt>
      <trkpt lat="48.22926" lon="3.24039">
        <ele>128</ele>
        <time>2017-07-30T09:37:10Z</time>
      </trkpt>
      <trkpt lat="48.22927" lon="3.24051">
        <ele>128</ele>
        <time>2017-07-30T09:37:12Z</time>
      </trkpt>
      <trkpt lat="48.22931" lon="3.24065">
        <ele>128</ele>
        <time>2017-07-30T09:37:14Z</time>
      </trkpt>
      <trkpt lat="48.22934" lon="3.24081">
        <ele>128</ele>
        <time>2017-07-30T09:37:16Z</time>
      </trkpt>
      <trkpt lat="48.22938" lon="3.241">
        <ele>125</ele>
        <time>2017-07-30T09:37:18Z</time>
      </trkpt>
      <trkpt lat="48.22941" lon="3.2411">
        <ele>125</ele>
        <time>2017-07-30T09:37:19Z</time>
      </trkpt>
      <trkpt lat="48.22944" lon="3.2413">
        <ele>124</ele>
        <time>2017-07-30T09:37:21Z</time>
      </trkpt>
      <trkpt lat="48.22947" lon="3.24141">
        <ele>123</ele>
        <time>2017-07-30T09:37:22Z</time>
      </trkpt>
      <trkpt lat="48.2295" lon="3.24163">
        <ele>122</ele>
        <time>2017-07-30T09:37:25Z</time>
      </trkpt>
      <trkpt lat="48.22953" lon="3.24174">
        <ele>118</ele>
        <time>2017-07-30T09:37:25Z</time>
      </trkpt>
      <trkpt lat="48.22956" lon="3.24185">
        <ele>117</ele>
        <time>2017-07-30T09:37:26Z</time>
      </trkpt>
      <trkpt lat="48.22958" lon="3.24195">
        <ele>117</ele>
        <time>2017-07-30T09:37:27Z</time>
      </trkpt>
      <trkpt lat="48.22962" lon="3.24206">
        <ele>116</ele>
        <time>2017-07-30T09:37:28Z</time>
      </trkpt>
      <trkpt lat="48.22966" lon="3.24217">
        <ele>116</ele>
        <time>2017-07-30T09:37:29Z</time>
      </trkpt>
      <trkpt lat="48.22972" lon="3.24229">
        <ele>116</ele>
        <time>2017-07-30T09:37:30Z</time>
      </trkpt>
      <trkpt lat="48.22978" lon="3.2424">
        <ele>116</ele>
        <time>2017-07-30T09:37:31Z</time>
      </trkpt>
      <trkpt lat="48.22985" lon="3.24249">
        <ele>116</ele>
        <time>2017-07-30T09:37:32Z</time>
      </trkpt>
      <trkpt lat="48.22993" lon="3.24258">
        <ele>113</ele>
        <time>2017-07-30T09:37:33Z</time>
      </trkpt>
      <trkpt lat="48.23" lon="3.24267">
        <ele>111</ele>
        <time>2017-07-30T09:37:34Z</time>
      </trkpt>
      <trkpt lat="48.23006" lon="3.24275">
        <ele>111</ele>
        <time>2017-07-30T09:37:35Z</time>
      </trkpt>
      <trkpt lat="48.23012" lon="3.24284">
        <ele>110</ele>
        <time>2017-07-30T09:37:36Z</time>
      </trkpt>
      <trkpt lat="48.23017" lon="3.24293">
        <ele>109</ele>
        <time>2017-07-30T09:37:37Z</time>
      </trkpt>
      <trkpt lat="48.23024" lon="3.24311">
        <ele>108</ele>
        <time>2017-07-30T09:37:39Z</time>
      </trkpt>
      <trkpt lat="48.23028" lon="3.24322">
        <ele>107</ele>
        <time>2017-07-30T09:37:40Z</time>
      </trkpt>
      <trkpt lat="48.23033" lon="3.24334">
        <ele>103</ele>
        <time>2017-07-30T09:37:41Z</time>
      </trkpt>
      <trkpt lat="48.23039" lon="3.24348">
        <ele>103</ele>
        <time>2017-07-30T09:37:42Z</time>
      </trkpt>
      <trkpt lat="48.23046" lon="3.24361">
        <ele>102</ele>
        <time>2017-07-30T09:37:43Z</time>
      </trkpt>
      <trkpt lat="48.23054" lon="3.24373">
        <ele>102</ele>
        <time>2017-07-30T09:37:44Z</time>
      </trkpt>
      <trkpt lat="48.23062" lon="3.24387">
        <ele>102</ele>
        <time>2017-07-30T09:37:45Z</time>
      </trkpt>
      <trkpt lat="48.2307" lon="3.244">
        <ele>101</ele>
        <time>2017-07-30T09:37:46Z</time>
      </trkpt>
      <trkpt lat="48.23079" lon="3.24412">
        <ele>100</ele>
        <time>2017-07-30T09:37:47Z</time>
      </trkpt>
      <trkpt lat="48.23088" lon="3.24425">
        <ele>99</ele>
        <time>2017-07-30T09:37:48Z</time>
      </trkpt>
      <trkpt lat="48.23097" lon="3.24436">
        <ele>98</ele>
        <time>2017-07-30T09:37:49Z</time>
      </trkpt>
      <trkpt lat="48.23107" lon="3.24447">
        <ele>97</ele>
        <time>2017-07-30T09:37:50Z</time>
      </trkpt>
      <trkpt lat="48.23116" lon="3.24456">
        <ele>96</ele>
        <time>2017-07-30T09:37:51Z</time>
      </trkpt>
      <trkpt lat="48.23127" lon="3.24466">
        <ele>96</ele>
        <time>2017-07-30T09:37:52Z</time>
      </trkpt>
      <trkpt lat="48.23136" lon="3.24475">
        <ele>95</ele>
        <time>2017-07-30T09:37:53Z</time>
      </trkpt>
      <trkpt lat="48.23145" lon="3.24483">
        <ele>95</ele>
        <time>2017-07-30T09:37:54Z</time>
      </trkpt>
      <trkpt lat="48.23154" lon="3.24491">
        <ele>94</ele>
        <time>2017-07-30T09:37:55Z</time>
      </trkpt>
      <trkpt lat="48.23161" lon="3.24498">
        <ele>94</ele>
        <time>2017-07-30T09:37:56Z</time>
      </trkpt>
      <trkpt lat="48.23167" lon="3.24505">
        <ele>93</ele>
        <time>2017-07-30T09:37:57Z</time>
      </trkpt>
      <trkpt lat="48.23174" lon="3.24519">
        <ele>95</ele>
        <time>2017-07-30T09:37:59Z</time>
      </trkpt>
      <trkpt lat="48.23174" lon="3.2454">
        <ele>95</ele>
        <time>2017-07-30T09:38:01Z</time>
      </trkpt>
      <trkpt lat="48.23165" lon="3.24557">
        <ele>93</ele>
        <time>2017-07-30T09:38:03Z</time>
      </trkpt>
      <trkpt lat="48.23155" lon="3.24576">
        <ele>93</ele>
        <time>2017-07-30T09:38:05Z</time>
      </trkpt>
      <trkpt lat="48.23146" lon="3.24589">
        <ele>92</ele>
        <time>2017-07-30T09:38:07Z</time>
      </trkpt>
      <trkpt lat="48.23138" lon="3.24603">
        <ele>92</ele>
        <time>2017-07-30T09:38:09Z</time>
      </trkpt>
      <trkpt lat="48.23131" lon="3.24618">
        <ele>92</ele>
        <time>2017-07-30T09:38:11Z</time>
      </trkpt>
      <trkpt lat="48.23123" lon="3.2463">
        <ele>92</ele>
        <time>2017-07-30T09:38:13Z</time>
      </trkpt>
      <trkpt lat="48.23119" lon="3.24643">
        <ele>91</ele>
        <time>2017-07-30T09:38:15Z</time>
      </trkpt>
      <trkpt lat="48.23113" lon="3.24653">
        <ele>91</ele>
        <time>2017-07-30T09:38:17Z</time>
      </trkpt>
      <trkpt lat="48.23103" lon="3.24658">
        <ele>91</ele>
        <time>2017-07-30T09:38:20Z</time>
      </trkpt>
      <trkpt lat="48.231" lon="3.24677">
        <ele>89</ele>
        <time>2017-07-30T09:38:21Z</time>
      </trkpt>
      <trkpt lat="48.23092" lon="3.24681">
        <ele>89</ele>
        <time>2017-07-30T09:38:23Z</time>
      </trkpt>
      <trkpt lat="48.23082" lon="3.2469">
        <ele>87</ele>
        <time>2017-07-30T09:38:25Z</time>
      </trkpt>
      <trkpt lat="48.23073" lon="3.24699">
        <ele>87</ele>
        <time>2017-07-30T09:38:27Z</time>
      </trkpt>
      <trkpt lat="48.23062" lon="3.24707">
        <ele>86</ele>
        <time>2017-07-30T09:38:29Z</time>
      </trkpt>
      <trkpt lat="48.23052" lon="3.24715">
        <ele>86</ele>
        <time>2017-07-30T09:38:31Z</time>
      </trkpt>
      <trkpt lat="48.2304" lon="3.24721">
        <ele>86</ele>
        <time>2017-07-30T09:38:33Z</time>
      </trkpt>
      <trkpt lat="48.23028" lon="3.24728">
        <ele>85</ele>
        <time>2017-07-30T09:38:35Z</time>
      </trkpt>
      <trkpt lat="48.23016" lon="3.24736">
        <ele>85</ele>
        <time>2017-07-30T09:38:37Z</time>
      </trkpt>
      <trkpt lat="48.23002" lon="3.24743">
        <ele>84</ele>
        <time>2017-07-30T09:38:39Z</time>
      </trkpt>
      <trkpt lat="48.22991" lon="3.24751">
        <ele>83</ele>
        <time>2017-07-30T09:38:41Z</time>
      </trkpt>
      <trkpt lat="48.22981" lon="3.24761">
        <ele>83</ele>
        <time>2017-07-30T09:38:43Z</time>
      </trkpt>
      <trkpt lat="48.22979" lon="3.24778">
        <ele>82</ele>
        <time>2017-07-30T09:38:45Z</time>
      </trkpt>
      <trkpt lat="48.22983" lon="3.24794">
        <ele>82</ele>
        <time>2017-07-30T09:38:47Z</time>
      </trkpt>
      <trkpt lat="48.22988" lon="3.24807">
        <ele>82</ele>
        <time>2017-07-30T09:38:49Z</time>
      </trkpt>
      <trkpt lat="48.22994" lon="3.2482">
        <ele>82</ele>
        <time>2017-07-30T09:38:51Z</time>
      </trkpt>
      <trkpt lat="48.23" lon="3.24834">
        <ele>82</ele>
        <time>2017-07-30T09:38:53Z</time>
      </trkpt>
      <trkpt lat="48.23007" lon="3.24848">
        <ele>81</ele>
        <time>2017-07-30T09:38:55Z</time>
      </trkpt>
      <trkpt lat="48.23015" lon="3.24864">
        <ele>81</ele>
        <time>2017-07-30T09:38:57Z</time>
      </trkpt>
      <trkpt lat="48.23023" lon="3.24875">
        <ele>81</ele>
        <time>2017-07-30T09:38:59Z</time>
      </trkpt>
      <trkpt lat="48.2303" lon="3.24886">
        <ele>81</ele>
        <time>2017-07-30T09:39:01Z</time>
      </trkpt>
      <trkpt lat="48.23035" lon="3.24896">
        <ele>80</ele>
        <time>2017-07-30T09:39:03Z</time>
      </trkpt>
      <trkpt lat="48.23032" lon="3.24911">
        <ele>80</ele>
        <time>2017-07-30T09:39:05Z</time>
      </trkpt>
      <trkpt lat="48.23027" lon="3.24926">
        <ele>79</ele>
        <time>2017-07-30T09:39:07Z</time>
      </trkpt>
      <trkpt lat="48.23017" lon="3.24935">
        <ele>79</ele>
        <time>2017-07-30T09:39:09Z</time>
      </trkpt>
      <trkpt lat="48.23008" lon="3.24944">
        <ele>79</ele>
        <time>2017-07-30T09:39:11Z</time>
      </trkpt>
      <trkpt lat="48.23" lon="3.24955">
        <ele>78</ele>
        <time>2017-07-30T09:39:13Z</time>
      </trkpt>
      <trkpt lat="48.2299" lon="3.24963">
        <ele>78</ele>
        <time>2017-07-30T09:39:15Z</time>
      </trkpt>
      <trkpt lat="48.22981" lon="3.24975">
        <ele>78</ele>
        <time>2017-07-30T09:39:17Z</time>
      </trkpt>
      <trkpt lat="48.22972" lon="3.24981">
        <ele>78</ele>
        <time>2017-07-30T09:39:19Z</time>
      </trkpt>
      <trkpt lat="48.22964" lon="3.24989">
        <ele>78</ele>
        <time>2017-07-30T09:39:21Z</time>
      </trkpt>
      <trkpt lat="48.22956" lon="3.24999">
        <ele>78</ele>
        <time>2017-07-30T09:39:23Z</time>
      </trkpt>
      <trkpt lat="48.22945" lon="3.25006">
        <ele>77</ele>
        <time>2017-07-30T09:39:25Z</time>
      </trkpt>
      <trkpt lat="48.22936" lon="3.25014">
        <ele>77</ele>
        <time>2017-07-30T09:39:27Z</time>
      </trkpt>
      <trkpt lat="48.22926" lon="3.2502">
        <ele>77</ele>
        <time>2017-07-30T09:39:29Z</time>
      </trkpt>
      <trkpt lat="48.22918" lon="3.25033">
        <ele>77</ele>
        <time>2017-07-30T09:39:31Z</time>
      </trkpt>
      <trkpt lat="48.22909" lon="3.25039">
        <ele>76</ele>
        <time>2017-07-30T09:39:33Z</time>
      </trkpt>
      <trkpt lat="48.229" lon="3.2505">
        <ele>76</ele>
        <time>2017-07-30T09:39:35Z</time>
      </trkpt>
      <trkpt lat="48.22891" lon="3.25058">
        <ele>76</ele>
        <time>2017-07-30T09:39:37Z</time>
      </trkpt>
      <trkpt lat="48.22882" lon="3.25068">
        <ele>76</ele>
        <time>2017-07-30T09:39:39Z</time>
      </trkpt>
      <trkpt lat="48.22873" lon="3.25079">
        <ele>75</ele>
        <time>2017-07-30T09:39:41Z</time>
      </trkpt>
      <trkpt lat="48.22864" lon="3.25092">
        <ele>74</ele>
        <time>2017-07-30T09:39:43Z</time>
      </trkpt>
      <trkpt lat="48.22854" lon="3.25104">
        <ele>74</ele>
        <time>2017-07-30T09:39:45Z</time>
      </trkpt>
      <trkpt lat="48.22845" lon="3.25116">
        <ele>74</ele>
        <time>2017-07-30T09:39:47Z</time>
      </trkpt>
      <trkpt lat="48.22837" lon="3.25126">
        <ele>74</ele>
        <time>2017-07-30T09:39:49Z</time>
      </trkpt>
      <trkpt lat="48.22827" lon="3.25131">
        <ele>72</ele>
        <time>2017-07-30T09:39:51Z</time>
      </trkpt>
      <trkpt lat="48.22817" lon="3.25133">
        <ele>72</ele>
        <time>2017-07-30T09:39:53Z</time>
      </trkpt>
      <trkpt lat="48.22805" lon="3.25139">
        <ele>72</ele>
        <time>2017-07-30T09:39:55Z</time>
      </trkpt>
      <trkpt lat="48.22796" lon="3.25145">
        <ele>72</ele>
        <time>2017-07-30T09:39:57Z</time>
      </trkpt>
      <trkpt lat="48.22786" lon="3.25147">
        <ele>72</ele>
        <time>2017-07-30T09:39:59Z</time>
      </trkpt>
      <trkpt lat="48.22775" lon="3.2515">
        <ele>71</ele>
        <time>2017-07-30T09:40:01Z</time>
      </trkpt>
      <trkpt lat="48.22765" lon="3.25155">
        <ele>71</ele>
        <time>2017-07-30T09:40:03Z</time>
      </trkpt>
      <trkpt lat="48.22756" lon="3.25159">
        <ele>71</ele>
        <time>2017-07-30T09:40:05Z</time>
      </trkpt>
      <trkpt lat="48.22746" lon="3.25166">
        <ele>70</ele>
        <time>2017-07-30T09:40:07Z</time>
      </trkpt>
      <trkpt lat="48.22736" lon="3.2517">
        <ele>70</ele>
        <time>2017-07-30T09:40:09Z</time>
      </trkpt>
      <trkpt lat="48.22726" lon="3.25175">
        <ele>70</ele>
        <time>2017-07-30T09:40:11Z</time>
      </trkpt>
      <trkpt lat="48.22717" lon="3.2518">
        <ele>70</ele>
        <time>2017-07-30T09:40:13Z</time>
      </trkpt>
      <trkpt lat="48.22708" lon="3.25183">
        <ele>70</ele>
        <time>2017-07-30T09:40:15Z</time>
      </trkpt>
      <trkpt lat="48.22699" lon="3.25189">
        <ele>70</ele>
        <time>2017-07-30T09:40:17Z</time>
      </trkpt>
      <trkpt lat="48.22689" lon="3.25191">
        <ele>70</ele>
        <time>2017-07-30T09:40:19Z</time>
      </trkpt>
      <trkpt lat="48.22679" lon="3.25194">
        <ele>70</ele>
        <time>2017-07-30T09:40:21Z</time>
      </trkpt>
      <trkpt lat="48.2267" lon="3.25199">
        <ele>70</ele>
        <time>2017-07-30T09:40:23Z</time>
      </trkpt>
      <trkpt lat="48.22661" lon="3.25201">
        <ele>70</ele>
        <time>2017-07-30T09:40:25Z</time>
      </trkpt>
      <trkpt lat="48.22652" lon="3.25206">
        <ele>70</ele>
        <time>2017-07-30T09:40:27Z</time>
      </trkpt>
      <trkpt lat="48.22643" lon="3.25213">
        <ele>71</ele>
        <time>2017-07-30T09:40:29Z</time>
      </trkpt>
      <trkpt lat="48.22632" lon="3.25216">
        <ele>71</ele>
        <time>2017-07-30T09:40:31Z</time>
      </trkpt>
      <trkpt lat="48.22622" lon="3.25221">
        <ele>71</ele>
        <time>2017-07-30T09:40:33Z</time>
      </trkpt>
      <trkpt lat="48.22613" lon="3.25225">
        <ele>71</ele>
        <time>2017-07-30T09:40:35Z</time>
      </trkpt>
      <trkpt lat="48.22604" lon="3.25231">
        <ele>71</ele>
        <time>2017-07-30T09:40:37Z</time>
      </trkpt>
      <trkpt lat="48.22595" lon="3.25237">
        <ele>71</ele>
        <time>2017-07-30T09:40:39Z</time>
      </trkpt>
      <trkpt lat="48.22586" lon="3.25242">
        <ele>71</ele>
        <time>2017-07-30T09:40:41Z</time>
      </trkpt>
      <trkpt lat="48.22578" lon="3.25244">
        <ele>71</ele>
        <time>2017-07-30T09:40:43Z</time>
      </trkpt>
      <trkpt lat="48.2257" lon="3.25248">
        <ele>72</ele>
        <time>2017-07-30T09:40:46Z</time>
      </trkpt>
      <trkpt lat="48.22563" lon="3.25256">
        <ele>72</ele>
        <time>2017-07-30T09:40:50Z</time>
      </trkpt>
      <trkpt lat="48.22554" lon="3.25263">
        <ele>73</ele>
        <time>2017-07-30T09:40:53Z</time>
      </trkpt>
      <trkpt lat="48.22547" lon="3.25268">
        <ele>73</ele>
        <time>2017-07-30T09:40:55Z</time>
      </trkpt>
      <trkpt lat="48.2254" lon="3.25275">
        <ele>73</ele>
        <time>2017-07-30T09:40:57Z</time>
      </trkpt>
      <trkpt lat="48.22534" lon="3.2528">
        <ele>73</ele>
        <time>2017-07-30T09:40:59Z</time>
      </trkpt>
      <trkpt lat="48.22527" lon="3.25284">
        <ele>74</ele>
        <time>2017-07-30T09:41:01Z</time>
      </trkpt>
      <trkpt lat="48.2252" lon="3.25289">
        <ele>74</ele>
        <time>2017-07-30T09:41:03Z</time>
      </trkpt>
      <trkpt lat="48.22513" lon="3.25293">
        <ele>74</ele>
        <time>2017-07-30T09:41:05Z</time>
      </trkpt>
      <trkpt lat="48.22505" lon="3.25297">
        <ele>74</ele>
        <time>2017-07-30T09:41:07Z</time>
      </trkpt>
      <trkpt lat="48.22497" lon="3.25299">
        <ele>75</ele>
        <time>2017-07-30T09:41:09Z</time>
      </trkpt>
      <trkpt lat="48.2249" lon="3.25306">
        <ele>76</ele>
        <time>2017-07-30T09:41:11Z</time>
      </trkpt>
      <trkpt lat="48.22483" lon="3.2531">
        <ele>76</ele>
        <time>2017-07-30T09:41:14Z</time>
      </trkpt>
      <trkpt lat="48.22473" lon="3.25318">
        <ele>76</ele>
        <time>2017-07-30T09:41:16Z</time>
      </trkpt>
      <trkpt lat="48.22466" lon="3.25322">
        <ele>76</ele>
        <time>2017-07-30T09:41:18Z</time>
      </trkpt>
      <trkpt lat="48.22456" lon="3.25326">
        <ele>76</ele>
        <time>2017-07-30T09:41:21Z</time>
      </trkpt>
      <trkpt lat="48.22449" lon="3.25328">
        <ele>76</ele>
        <time>2017-07-30T09:41:23Z</time>
      </trkpt>
      <trkpt lat="48.22439" lon="3.25336">
        <ele>77</ele>
        <time>2017-07-30T09:41:26Z</time>
      </trkpt>
      <trkpt lat="48.22432" lon="3.2534">
        <ele>77</ele>
        <time>2017-07-30T09:41:28Z</time>
      </trkpt>
      <trkpt lat="48.22424" lon="3.25342">
        <ele>77</ele>
        <time>2017-07-30T09:41:30Z</time>
      </trkpt>
      <trkpt lat="48.22415" lon="3.25345">
        <ele>79</ele>
        <time>2017-07-30T09:41:32Z</time>
      </trkpt>
      <trkpt lat="48.22408" lon="3.25351">
        <ele>79</ele>
        <time>2017-07-30T09:41:34Z</time>
      </trkpt>
      <trkpt lat="48.22401" lon="3.25355">
        <ele>79</ele>
        <time>2017-07-30T09:41:36Z</time>
      </trkpt>
      <trkpt lat="48.22391" lon="3.25362">
        <ele>79</ele>
        <time>2017-07-30T09:41:39Z</time>
      </trkpt>
      <trkpt lat="48.22384" lon="3.25364">
        <ele>80</ele>
        <time>2017-07-30T09:41:41Z</time>
      </trkpt>
      <trkpt lat="48.22376" lon="3.25368">
        <ele>80</ele>
        <time>2017-07-30T09:41:43Z</time>
      </trkpt>
      <trkpt lat="48.22368" lon="3.25371">
        <ele>80</ele>
        <time>2017-07-30T09:41:45Z</time>
      </trkpt>
      <trkpt lat="48.22361" lon="3.25375">
        <ele>80</ele>
        <time>2017-07-30T09:41:47Z</time>
      </trkpt>
      <trkpt lat="48.22351" lon="3.25379">
        <ele>80</ele>
        <time>2017-07-30T09:41:50Z</time>
      </trkpt>
      <trkpt lat="48.22343" lon="3.25384">
        <ele>81</ele>
        <time>2017-07-30T09:41:53Z</time>
      </trkpt>
      <trkpt lat="48.22335" lon="3.25388">
        <ele>81</ele>
        <time>2017-07-30T09:41:55Z</time>
      </trkpt>
      <trkpt lat="48.22325" lon="3.25393">
        <ele>84</ele>
        <time>2017-07-30T09:41:58Z</time>
      </trkpt>
      <trkpt lat="48.22318" lon="3.25396">
        <ele>84</ele>
        <time>2017-07-30T09:42:00Z</time>
      </trkpt>
      <trkpt lat="48.2231" lon="3.25401">
        <ele>84</ele>
        <time>2017-07-30T09:42:02Z</time>
      </trkpt>
      <trkpt lat="48.22302" lon="3.25404">
        <ele>84</ele>
        <time>2017-07-30T09:42:05Z</time>
      </trkpt>
      <trkpt lat="48.22294" lon="3.25405">
        <ele>85</ele>
        <time>2017-07-30T09:42:08Z</time>
      </trkpt>
      <trkpt lat="48.22284" lon="3.2541">
        <ele>85</ele>
        <time>2017-07-30T09:42:11Z</time>
      </trkpt>
      <trkpt lat="48.22275" lon="3.25416">
        <ele>86</ele>
        <time>2017-07-30T09:42:14Z</time>
      </trkpt>
      <trkpt lat="48.22267" lon="3.25419">
        <ele>86</ele>
        <time>2017-07-30T09:42:16Z</time>
      </trkpt>
      <trkpt lat="48.22259" lon="3.25425">
        <ele>87</ele>
        <time>2017-07-30T09:42:19Z</time>
      </trkpt>
      <trkpt lat="48.22249" lon="3.25431">
        <ele>90</ele>
        <time>2017-07-30T09:42:22Z</time>
      </trkpt>
      <trkpt lat="48.22239" lon="3.25435">
        <ele>90</ele>
        <time>2017-07-30T09:42:25Z</time>
      </trkpt>
      <trkpt lat="48.22231" lon="3.25442">
        <ele>91</ele>
        <time>2017-07-30T09:42:28Z</time>
      </trkpt>
      <trkpt lat="48.22224" lon="3.25452">
        <ele>91</ele>
        <time>2017-07-30T09:42:31Z</time>
      </trkpt>
      <trkpt lat="48.22214" lon="3.25459">
        <ele>92</ele>
        <time>2017-07-30T09:42:34Z</time>
      </trkpt>
      <trkpt lat="48.22208" lon="3.25465">
        <ele>92</ele>
        <time>2017-07-30T09:42:36Z</time>
      </trkpt>
      <trkpt lat="48.22201" lon="3.25469">
        <ele>92</ele>
        <time>2017-07-30T09:42:38Z</time>
      </trkpt>
      <trkpt lat="48.22192" lon="3.25476">
        <ele>93</ele>
        <time>2017-07-30T09:42:41Z</time>
      </trkpt>
      <trkpt lat="48.22183" lon="3.25483">
        <ele>93</ele>
        <time>2017-07-30T09:42:44Z</time>
      </trkpt>
      <trkpt lat="48.22174" lon="3.25489">
        <ele>94</ele>
        <time>2017-07-30T09:42:47Z</time>
      </trkpt>
      <trkpt lat="48.22166" lon="3.25495">
        <ele>96</ele>
        <time>2017-07-30T09:42:50Z</time>
      </trkpt>
      <trkpt lat="48.22158" lon="3.25499">
        <ele>96</ele>
        <time>2017-07-30T09:42:53Z</time>
      </trkpt>
      <trkpt lat="48.22151" lon="3.25505">
        <ele>97</ele>
        <time>2017-07-30T09:42:56Z</time>
      </trkpt>
      <trkpt lat="48.22141" lon="3.2551">
        <ele>98</ele>
        <time>2017-07-30T09:42:59Z</time>
      </trkpt>
      <trkpt lat="48.22134" lon="3.25516">
        <ele>98</ele>
        <time>2017-07-30T09:43:02Z</time>
      </trkpt>
      <trkpt lat="48.22125" lon="3.25521">
        <ele>99</ele>
        <time>2017-07-30T09:43:05Z</time>
      </trkpt>
      <trkpt lat="48.22116" lon="3.25526">
        <ele>99</ele>
        <time>2017-07-30T09:43:08Z</time>
      </trkpt>
      <trkpt lat="48.22108" lon="3.25533">
        <ele>99</ele>
        <time>2017-07-30T09:43:11Z</time>
      </trkpt>
      <trkpt lat="48.22099" lon="3.25538">
        <ele>100</ele>
        <time>2017-07-30T09:43:14Z</time>
      </trkpt>
      <trkpt lat="48.22089" lon="3.25542">
        <ele>100</ele>
        <time>2017-07-30T09:43:17Z</time>
      </trkpt>
      <trkpt lat="48.22081" lon="3.25546">
        <ele>100</ele>
        <time>2017-07-30T09:43:19Z</time>
      </trkpt>
      <trkpt lat="48.22074" lon="3.25549">
        <ele>100</ele>
        <time>2017-07-30T09:43:21Z</time>
      </trkpt>
      <trkpt lat="48.22065" lon="3.25552">
        <ele>100</ele>
        <time>2017-07-30T09:43:24Z</time>
      </trkpt>
      <trkpt lat="48.22058" lon="3.25558">
        <ele>99</ele>
        <time>2017-07-30T09:43:27Z</time>
      </trkpt>
      <trkpt lat="48.22051" lon="3.25562">
        <ele>99</ele>
        <time>2017-07-30T09:43:30Z</time>
      </trkpt>
      <trkpt lat="48.22042" lon="3.25565">
        <ele>99</ele>
        <time>2017-07-30T09:43:33Z</time>
      </trkpt>
      <trkpt lat="48.22032" lon="3.2557">
        <ele>98</ele>
        <time>2017-07-30T09:43:36Z</time>
      </trkpt>
      <trkpt lat="48.22022" lon="3.25576">
        <ele>98</ele>
        <time>2017-07-30T09:43:39Z</time>
      </trkpt>
      <trkpt lat="48.22014" lon="3.25581">
        <ele>97</ele>
        <time>2017-07-30T09:43:41Z</time>
      </trkpt>
      <trkpt lat="48.22005" lon="3.25587">
        <ele>95</ele>
        <time>2017-07-30T09:43:43Z</time>
      </trkpt>
      <trkpt lat="48.21996" lon="3.25593">
        <ele>94</ele>
        <time>2017-07-30T09:43:45Z</time>
      </trkpt>
      <trkpt lat="48.21989" lon="3.25596">
        <ele>94</ele>
        <time>2017-07-30T09:43:47Z</time>
      </trkpt>
      <trkpt lat="48.21983" lon="3.25603">
        <ele>94</ele>
        <time>2017-07-30T09:43:50Z</time>
      </trkpt>
      <trkpt lat="48.21975" lon="3.25602">
        <ele>94</ele>
        <time>2017-07-30T09:43:54Z</time>
      </trkpt>
      <trkpt lat="48.21967" lon="3.25602">
        <ele>94</ele>
        <time>2017-07-30T09:43:59Z</time>
      </trkpt>
      <trkpt lat="48.21963" lon="3.25611">
        <ele>93</ele>
        <time>2017-07-30T09:44:02Z</time>
      </trkpt>
      <trkpt lat="48.21957" lon="3.2562">
        <ele>93</ele>
        <time>2017-07-30T09:44:05Z</time>
      </trkpt>
      <trkpt lat="48.21952" lon="3.25629">
        <ele>93</ele>
        <time>2017-07-30T09:44:09Z</time>
      </trkpt>
      <trkpt lat="48.21947" lon="3.2564">
        <ele>93</ele>
        <time>2017-07-30T09:44:12Z</time>
      </trkpt>
      <trkpt lat="48.21941" lon="3.25648">
        <ele>93</ele>
        <time>2017-07-30T09:44:14Z</time>
      </trkpt>
      <trkpt lat="48.21936" lon="3.25658">
        <ele>92</ele>
        <time>2017-07-30T09:44:16Z</time>
      </trkpt>
      <trkpt lat="48.21929" lon="3.25668">
        <ele>91</ele>
        <time>2017-07-30T09:44:18Z</time>
      </trkpt>
      <trkpt lat="48.21923" lon="3.25682">
        <ele>91</ele>
        <time>2017-07-30T09:44:20Z</time>
      </trkpt>
      <trkpt lat="48.21916" lon="3.25698">
        <ele>92</ele>
        <time>2017-07-30T09:44:22Z</time>
      </trkpt>
      <trkpt lat="48.21909" lon="3.25715">
        <ele>91</ele>
        <time>2017-07-30T09:44:24Z</time>
      </trkpt>
      <trkpt lat="48.21904" lon="3.25724">
        <ele>91</ele>
        <time>2017-07-30T09:44:25Z</time>
      </trkpt>
      <trkpt lat="48.219" lon="3.25734">
        <ele>91</ele>
        <time>2017-07-30T09:44:26Z</time>
      </trkpt>
      <trkpt lat="48.21895" lon="3.25744">
        <ele>91</ele>
        <time>2017-07-30T09:44:27Z</time>
      </trkpt>
      <trkpt lat="48.2189" lon="3.25753">
        <ele>89</ele>
        <time>2017-07-30T09:44:28Z</time>
      </trkpt>
      <trkpt lat="48.21884" lon="3.25758">
        <ele>89</ele>
        <time>2017-07-30T09:44:29Z</time>
      </trkpt>
      <trkpt lat="48.2188" lon="3.25769">
        <ele>89</ele>
        <time>2017-07-30T09:44:30Z</time>
      </trkpt>
      <trkpt lat="48.21874" lon="3.25778">
        <ele>89</ele>
        <time>2017-07-30T09:44:31Z</time>
      </trkpt>
      <trkpt lat="48.21869" lon="3.25788">
        <ele>89</ele>
        <time>2017-07-30T09:44:32Z</time>
      </trkpt>
      <trkpt lat="48.21864" lon="3.25798">
        <ele>89</ele>
        <time>2017-07-30T09:44:33Z</time>
      </trkpt>
      <trkpt lat="48.2186" lon="3.25808">
        <ele>89</ele>
        <time>2017-07-30T09:44:34Z</time>
      </trkpt>
      <trkpt lat="48.21855" lon="3.25818">
        <ele>89</ele>
        <time>2017-07-30T09:44:35Z</time>
      </trkpt>
      <trkpt lat="48.21849" lon="3.25826">
        <ele>88</ele>
        <time>2017-07-30T09:44:36Z</time>
      </trkpt>
      <trkpt lat="48.21844" lon="3.25838">
        <ele>87</ele>
        <time>2017-07-30T09:44:38Z</time>
      </trkpt>
      <trkpt lat="48.2184" lon="3.25851">
        <ele>87</ele>
        <time>2017-07-30T09:44:38Z</time>
      </trkpt>
      <trkpt lat="48.21835" lon="3.25862">
        <ele>86</ele>
        <time>2017-07-30T09:44:39Z</time>
      </trkpt>
      <trkpt lat="48.21829" lon="3.25873">
        <ele>85</ele>
        <time>2017-07-30T09:44:40Z</time>
      </trkpt>
      <trkpt lat="48.21823" lon="3.25886">
        <ele>85</ele>
        <time>2017-07-30T09:44:41Z</time>
      </trkpt>
      <trkpt lat="48.21817" lon="3.25898">
        <ele>84</ele>
        <time>2017-07-30T09:44:42Z</time>
      </trkpt>
      <trkpt lat="48.2181" lon="3.25911">
        <ele>84</ele>
        <time>2017-07-30T09:44:43Z</time>
      </trkpt>
      <trkpt lat="48.21804" lon="3.25923">
        <ele>82</ele>
        <time>2017-07-30T09:44:44Z</time>
      </trkpt>
      <trkpt lat="48.21797" lon="3.25936">
        <ele>81</ele>
        <time>2017-07-30T09:44:45Z</time>
      </trkpt>
      <trkpt lat="48.21791" lon="3.25947">
        <ele>81</ele>
        <time>2017-07-30T09:44:46Z</time>
      </trkpt>
      <trkpt lat="48.21785" lon="3.25962">
        <ele>80</ele>
        <time>2017-07-30T09:44:47Z</time>
      </trkpt>
      <trkpt lat="48.21778" lon="3.25976">
        <ele>80</ele>
        <time>2017-07-30T09:44:48Z</time>
      </trkpt>
      <trkpt lat="48.21771" lon="3.2599">
        <ele>79</ele>
        <time>2017-07-30T09:44:49Z</time>
      </trkpt>
      <trkpt lat="48.21764" lon="3.26003">
        <ele>77</ele>
        <time>2017-07-30T09:44:50Z</time>
      </trkpt>
      <trkpt lat="48.21756" lon="3.26016">
        <ele>77</ele>
        <time>2017-07-30T09:44:51Z</time>
      </trkpt>
      <trkpt lat="48.2175" lon="3.26032">
        <ele>75</ele>
        <time>2017-07-30T09:44:52Z</time>
      </trkpt>
      <trkpt lat="48.21743" lon="3.26046">
        <ele>75</ele>
        <time>2017-07-30T09:44:53Z</time>
      </trkpt>
      <trkpt lat="48.21736" lon="3.26061">
        <ele>74</ele>
        <time>2017-07-30T09:44:54Z</time>
      </trkpt>
      <trkpt lat="48.21729" lon="3.26076">
        <ele>74</ele>
        <time>2017-07-30T09:44:55Z</time>
      </trkpt>
      <trkpt lat="48.21721" lon="3.26089">
        <ele>72</ele>
        <time>2017-07-30T09:44:56Z</time>
      </trkpt>
      <trkpt lat="48.21713" lon="3.26102">
        <ele>72</ele>
        <time>2017-07-30T09:44:57Z</time>
      </trkpt>
      <trkpt lat="48.21705" lon="3.26115">
        <ele>71</ele>
        <time>2017-07-30T09:44:58Z</time>
      </trkpt>
      <trkpt lat="48.21697" lon="3.26128">
        <ele>71</ele>
        <time>2017-07-30T09:44:59Z</time>
      </trkpt>
      <trkpt lat="48.21692" lon="3.26143">
        <ele>71</ele>
        <time>2017-07-30T09:45:00Z</time>
      </trkpt>
      <trkpt lat="48.21685" lon="3.26159">
        <ele>70</ele>
        <time>2017-07-30T09:45:01Z</time>
      </trkpt>
      <trkpt lat="48.21679" lon="3.26174">
        <ele>69</ele>
        <time>2017-07-30T09:45:02Z</time>
      </trkpt>
      <trkpt lat="48.21673" lon="3.26187">
        <ele>69</ele>
        <time>2017-07-30T09:45:03Z</time>
      </trkpt>
      <trkpt lat="48.21665" lon="3.26203">
        <ele>67</ele>
        <time>2017-07-30T09:45:04Z</time>
      </trkpt>
      <trkpt lat="48.21657" lon="3.26214">
        <ele>67</ele>
        <time>2017-07-30T09:45:05Z</time>
      </trkpt>
      <trkpt lat="48.21649" lon="3.26226">
        <ele>67</ele>
        <time>2017-07-30T09:45:06Z</time>
      </trkpt>
      <trkpt lat="48.21642" lon="3.26239">
        <ele>67</ele>
        <time>2017-07-30T09:45:07Z</time>
      </trkpt>
      <trkpt lat="48.21637" lon="3.26251">
        <ele>65</ele>
        <time>2017-07-30T09:45:08Z</time>
      </trkpt>
      <trkpt lat="48.21631" lon="3.26263">
        <ele>65</ele>
        <time>2017-07-30T09:45:09Z</time>
      </trkpt>
      <trkpt lat="48.21627" lon="3.26274">
        <ele>65</ele>
        <time>2017-07-30T09:45:10Z</time>
      </trkpt>
      <trkpt lat="48.21621" lon="3.26282">
        <ele>65</ele>
        <time>2017-07-30T09:45:11Z</time>
      </trkpt>
      <trkpt lat="48.21614" lon="3.2629">
        <ele>65</ele>
        <time>2017-07-30T09:45:12Z</time>
      </trkpt>
      <trkpt lat="48.21609" lon="3.26299">
        <ele>65</ele>
        <time>2017-07-30T09:45:13Z</time>
      </trkpt>
      <trkpt lat="48.21603" lon="3.26307">
        <ele>65</ele>
        <time>2017-07-30T09:45:14Z</time>
      </trkpt>
      <trkpt lat="48.21596" lon="3.26312">
        <ele>65</ele>
        <time>2017-07-30T09:45:15Z</time>
      </trkpt>
      <trkpt lat="48.21589" lon="3.26316">
        <ele>65</ele>
        <time>2017-07-30T09:45:16Z</time>
      </trkpt>
      <trkpt lat="48.21582" lon="3.26321">
        <ele>65</ele>
        <time>2017-07-30T09:45:17Z</time>
      </trkpt>
      <trkpt lat="48.2157" lon="3.2633">
        <ele>65</ele>
        <time>2017-07-30T09:45:19Z</time>
      </trkpt>
      <trkpt lat="48.21557" lon="3.26335">
        <ele>66</ele>
        <time>2017-07-30T09:45:21Z</time>
      </trkpt>
      <trkpt lat="48.21547" lon="3.26344">
        <ele>67</ele>
        <time>2017-07-30T09:45:23Z</time>
      </trkpt>
      <trkpt lat="48.21536" lon="3.26348">
        <ele>67</ele>
        <time>2017-07-30T09:45:25Z</time>
      </trkpt>
      <trkpt lat="48.21525" lon="3.26353">
        <ele>67</ele>
        <time>2017-07-30T09:45:27Z</time>
      </trkpt>
      <trkpt lat="48.21517" lon="3.26359">
        <ele>68</ele>
        <time>2017-07-30T09:45:28Z</time>
      </trkpt>
      <trkpt lat="48.21502" lon="3.26362">
        <ele>68</ele>
        <time>2017-07-30T09:45:30Z</time>
      </trkpt>
      <trkpt lat="48.21495" lon="3.26364">
        <ele>71</ele>
        <time>2017-07-30T09:45:31Z</time>
      </trkpt>
      <trkpt lat="48.21482" lon="3.26368">
        <ele>71</ele>
        <time>2017-07-30T09:45:33Z</time>
      </trkpt>
      <trkpt lat="48.21475" lon="3.26371">
        <ele>71</ele>
        <time>2017-07-30T09:45:34Z</time>
      </trkpt>
      <trkpt lat="48.21468" lon="3.26373">
        <ele>71</ele>
        <time>2017-07-30T09:45:35Z</time>
      </trkpt>
      <trkpt lat="48.21454" lon="3.26375">
        <ele>72</ele>
        <time>2017-07-30T09:45:37Z</time>
      </trkpt>
      <trkpt lat="48.21446" lon="3.26377">
        <ele>72</ele>
        <time>2017-07-30T09:45:38Z</time>
      </trkpt>
      <trkpt lat="48.21431" lon="3.2638">
        <ele>72</ele>
        <time>2017-07-30T09:45:40Z</time>
      </trkpt>
      <trkpt lat="48.21422" lon="3.26378">
        <ele>73</ele>
        <time>2017-07-30T09:45:41Z</time>
      </trkpt>
      <trkpt lat="48.21414" lon="3.2638">
        <ele>76</ele>
        <time>2017-07-30T09:45:42Z</time>
      </trkpt>
      <trkpt lat="48.21405" lon="3.26382">
        <ele>76</ele>
        <time>2017-07-30T09:45:43Z</time>
      </trkpt>
      <trkpt lat="48.21391" lon="3.26386">
        <ele>77</ele>
        <time>2017-07-30T09:45:45Z</time>
      </trkpt>
      <trkpt lat="48.21383" lon="3.26386">
        <ele>77</ele>
        <time>2017-07-30T09:45:46Z</time>
      </trkpt>
      <trkpt lat="48.21376" lon="3.26387">
        <ele>77</ele>
        <time>2017-07-30T09:45:47Z</time>
      </trkpt>
      <trkpt lat="48.21362" lon="3.26387">
        <ele>77</ele>
        <time>2017-07-30T09:45:49Z</time>
      </trkpt>
      <trkpt lat="48.2135" lon="3.26384">
        <ele>78</ele>
        <time>2017-07-30T09:45:51Z</time>
      </trkpt>
      <trkpt lat="48.21338" lon="3.2638">
        <ele>78</ele>
        <time>2017-07-30T09:45:53Z</time>
      </trkpt>
      <trkpt lat="48.21329" lon="3.26375">
        <ele>84</ele>
        <time>2017-07-30T09:45:55Z</time>
      </trkpt>
      <trkpt lat="48.21317" lon="3.26375">
        <ele>84</ele>
        <time>2017-07-30T09:45:57Z</time>
      </trkpt>
      <trkpt lat="48.21308" lon="3.26375">
        <ele>85</ele>
        <time>2017-07-30T09:45:59Z</time>
      </trkpt>
      <trkpt lat="48.213" lon="3.26375">
        <ele>85</ele>
        <time>2017-07-30T09:46:01Z</time>
      </trkpt>
      <trkpt lat="48.21289" lon="3.26376">
        <ele>85</ele>
        <time>2017-07-30T09:46:03Z</time>
      </trkpt>
      <trkpt lat="48.21279" lon="3.26384">
        <ele>85</ele>
        <time>2017-07-30T09:46:05Z</time>
      </trkpt>
      <trkpt lat="48.21274" lon="3.26393">
        <ele>84</ele>
        <time>2017-07-30T09:46:06Z</time>
      </trkpt>
      <trkpt lat="48.21265" lon="3.26402">
        <ele>83</ele>
        <time>2017-07-30T09:46:08Z</time>
      </trkpt>
      <trkpt lat="48.21257" lon="3.26405">
        <ele>83</ele>
        <time>2017-07-30T09:46:10Z</time>
      </trkpt>
      <trkpt lat="48.21249" lon="3.26406">
        <ele>85</ele>
        <time>2017-07-30T09:46:12Z</time>
      </trkpt>
      <trkpt lat="48.2124" lon="3.26408">
        <ele>86</ele>
        <time>2017-07-30T09:46:14Z</time>
      </trkpt>
      <trkpt lat="48.21236" lon="3.26418">
        <ele>79</ele>
        <time>2017-07-30T09:46:16Z</time>
      </trkpt>
      <trkpt lat="48.21234" lon="3.2643">
        <ele>78</ele>
        <time>2017-07-30T09:46:18Z</time>
      </trkpt>
      <trkpt lat="48.21229" lon="3.26442">
        <ele>77</ele>
        <time>2017-07-30T09:46:21Z</time>
      </trkpt>
      <trkpt lat="48.21222" lon="3.26452">
        <ele>76</ele>
        <time>2017-07-30T09:46:24Z</time>
      </trkpt>
      <trkpt lat="48.21217" lon="3.26461">
        <ele>75</ele>
        <time>2017-07-30T09:46:26Z</time>
      </trkpt>
      <trkpt lat="48.21212" lon="3.26474">
        <ele>74</ele>
        <time>2017-07-30T09:46:28Z</time>
      </trkpt>
      <trkpt lat="48.2121" lon="3.26492">
        <ele>73</ele>
        <time>2017-07-30T09:46:30Z</time>
      </trkpt>
      <trkpt lat="48.21204" lon="3.26502">
        <ele>67</ele>
        <time>2017-07-30T09:46:32Z</time>
      </trkpt>
      <trkpt lat="48.21195" lon="3.26511">
        <ele>67</ele>
        <time>2017-07-30T09:46:34Z</time>
      </trkpt>
      <trkpt lat="48.21185" lon="3.26523">
        <ele>67</ele>
        <time>2017-07-30T09:46:36Z</time>
      </trkpt>
      <trkpt lat="48.21176" lon="3.26534">
        <ele>67</ele>
        <time>2017-07-30T09:46:38Z</time>
      </trkpt>
      <trkpt lat="48.21166" lon="3.26545">
        <ele>67</ele>
        <time>2017-07-30T09:46:40Z</time>
      </trkpt>
      <trkpt lat="48.21154" lon="3.26553">
        <ele>66</ele>
        <time>2017-07-30T09:46:42Z</time>
      </trkpt>
      <trkpt lat="48.21143" lon="3.2656">
        <ele>66</ele>
        <time>2017-07-30T09:46:44Z</time>
      </trkpt>
      <trkpt lat="48.2113" lon="3.26565">
        <ele>66</ele>
        <time>2017-07-30T09:46:46Z</time>
      </trkpt>
      <trkpt lat="48.21117" lon="3.2657">
        <ele>66</ele>
        <time>2017-07-30T09:46:48Z</time>
      </trkpt>
      <trkpt lat="48.21104" lon="3.26574">
        <ele>66</ele>
        <time>2017-07-30T09:46:50Z</time>
      </trkpt>
      <trkpt lat="48.2109" lon="3.26576">
        <ele>66</ele>
        <time>2017-07-30T09:46:53Z</time>
      </trkpt>
      <trkpt lat="48.21077" lon="3.26576">
        <ele>66</ele>
        <time>2017-07-30T09:46:54Z</time>
      </trkpt>
      <trkpt lat="48.2107" lon="3.26575">
        <ele>66</ele>
        <time>2017-07-30T09:46:55Z</time>
      </trkpt>
      <trkpt lat="48.21062" lon="3.26574">
        <ele>66</ele>
        <time>2017-07-30T09:46:56Z</time>
      </trkpt>
      <trkpt lat="48.21055" lon="3.26572">
        <ele>66</ele>
        <time>2017-07-30T09:46:57Z</time>
      </trkpt>
      <trkpt lat="48.2104" lon="3.26568">
        <ele>66</ele>
        <time>2017-07-30T09:46:59Z</time>
      </trkpt>
      <trkpt lat="48.21028" lon="3.26564">
        <ele>66</ele>
        <time>2017-07-30T09:47:01Z</time>
      </trkpt>
      <trkpt lat="48.21016" lon="3.2656">
        <ele>66</ele>
        <time>2017-07-30T09:47:03Z</time>
      </trkpt>
      <trkpt lat="48.21003" lon="3.26556">
        <ele>66</ele>
        <time>2017-07-30T09:47:05Z</time>
      </trkpt>
      <trkpt lat="48.20992" lon="3.26553">
        <ele>65</ele>
        <time>2017-07-30T09:47:07Z</time>
      </trkpt>
      <trkpt lat="48.20979" lon="3.2655">
        <ele>65</ele>
        <time>2017-07-30T09:47:09Z</time>
      </trkpt>
      <trkpt lat="48.20966" lon="3.2655">
        <ele>65</ele>
        <time>2017-07-30T09:47:11Z</time>
      </trkpt>
      <trkpt lat="48.20954" lon="3.2655">
        <ele>65</ele>
        <time>2017-07-30T09:47:13Z</time>
      </trkpt>
      <trkpt lat="48.20941" lon="3.26551">
        <ele>65</ele>
        <time>2017-07-30T09:47:15Z</time>
      </trkpt>
      <trkpt lat="48.20927" lon="3.26555">
        <ele>65</ele>
        <time>2017-07-30T09:47:17Z</time>
      </trkpt>
      <trkpt lat="48.20913" lon="3.26557">
        <ele>65</ele>
        <time>2017-07-30T09:47:19Z</time>
      </trkpt>
      <trkpt lat="48.209" lon="3.26561">
        <ele>65</ele>
        <time>2017-07-30T09:47:21Z</time>
      </trkpt>
      <trkpt lat="48.20893" lon="3.26562">
        <ele>65</ele>
        <time>2017-07-30T09:47:22Z</time>
      </trkpt>
      <trkpt lat="48.2088" lon="3.26563">
        <ele>66</ele>
        <time>2017-07-30T09:47:24Z</time>
      </trkpt>
      <trkpt lat="48.20866" lon="3.26567">
        <ele>66</ele>
        <time>2017-07-30T09:47:26Z</time>
      </trkpt>
      <trkpt lat="48.20853" lon="3.26568">
        <ele>66</ele>
        <time>2017-07-30T09:47:28Z</time>
      </trkpt>
      <trkpt lat="48.2084" lon="3.26569">
        <ele>66</ele>
        <time>2017-07-30T09:47:30Z</time>
      </trkpt>
      <trkpt lat="48.20826" lon="3.2657">
        <ele>66</ele>
        <time>2017-07-30T09:47:32Z</time>
      </trkpt>
      <trkpt lat="48.20813" lon="3.26573">
        <ele>66</ele>
        <time>2017-07-30T09:47:34Z</time>
      </trkpt>
      <trkpt lat="48.208" lon="3.26576">
        <ele>66</ele>
        <time>2017-07-30T09:47:36Z</time>
      </trkpt>
      <trkpt lat="48.20788" lon="3.2658">
        <ele>66</ele>
        <time>2017-07-30T09:47:38Z</time>
      </trkpt>
      <trkpt lat="48.20775" lon="3.26584">
        <ele>64</ele>
        <time>2017-07-30T09:47:40Z</time>
      </trkpt>
      <trkpt lat="48.20762" lon="3.26587">
        <ele>64</ele>
        <time>2017-07-30T09:47:42Z</time>
      </trkpt>
      <trkpt lat="48.20749" lon="3.26591">
        <ele>64</ele>
        <time>2017-07-30T09:47:44Z</time>
      </trkpt>
      <trkpt lat="48.20736" lon="3.26595">
        <ele>65</ele>
        <time>2017-07-30T09:47:46Z</time>
      </trkpt>
      <trkpt lat="48.20723" lon="3.26602">
        <ele>65</ele>
        <time>2017-07-30T09:47:48Z</time>
      </trkpt>
      <trkpt lat="48.20711" lon="3.26608">
        <ele>65</ele>
        <time>2017-07-30T09:47:50Z</time>
      </trkpt>
      <trkpt lat="48.20698" lon="3.26615">
        <ele>65</ele>
        <time>2017-07-30T09:47:52Z</time>
      </trkpt>
      <trkpt lat="48.20686" lon="3.26619">
        <ele>65</ele>
        <time>2017-07-30T09:47:54Z</time>
      </trkpt>
      <trkpt lat="48.20674" lon="3.26623">
        <ele>65</ele>
        <time>2017-07-30T09:47:56Z</time>
      </trkpt>
      <trkpt lat="48.2066" lon="3.26627">
        <ele>66</ele>
        <time>2017-07-30T09:47:58Z</time>
      </trkpt>
      <trkpt lat="48.20648" lon="3.26632">
        <ele>66</ele>
        <time>2017-07-30T09:48:00Z</time>
      </trkpt>
      <trkpt lat="48.20635" lon="3.26635">
        <ele>66</ele>
        <time>2017-07-30T09:48:02Z</time>
      </trkpt>
      <trkpt lat="48.20622" lon="3.2664">
        <ele>66</ele>
        <time>2017-07-30T09:48:04Z</time>
      </trkpt>
      <trkpt lat="48.2061" lon="3.26644">
        <ele>66</ele>
        <time>2017-07-30T09:48:06Z</time>
      </trkpt>
      <trkpt lat="48.20601" lon="3.26644">
        <ele>66</ele>
        <time>2017-07-30T09:48:07Z</time>
      </trkpt>
      <trkpt lat="48.20593" lon="3.26645">
        <ele>66</ele>
        <time>2017-07-30T09:48:08Z</time>
      </trkpt>
      <trkpt lat="48.20582" lon="3.26646">
        <ele>67</ele>
        <time>2017-07-30T09:48:10Z</time>
      </trkpt>
      <trkpt lat="48.2057" lon="3.26652">
        <ele>66</ele>
        <time>2017-07-30T09:48:12Z</time>
      </trkpt>
      <trkpt lat="48.20557" lon="3.26654">
        <ele>66</ele>
        <time>2017-07-30T09:48:14Z</time>
      </trkpt>
      <trkpt lat="48.20544" lon="3.2666">
        <ele>66</ele>
        <time>2017-07-30T09:48:16Z</time>
      </trkpt>
      <trkpt lat="48.20532" lon="3.26666">
        <ele>66</ele>
        <time>2017-07-30T09:48:18Z</time>
      </trkpt>
      <trkpt lat="48.20521" lon="3.26672">
        <ele>65</ele>
        <time>2017-07-30T09:48:20Z</time>
      </trkpt>
      <trkpt lat="48.20514" lon="3.26676">
        <ele>65</ele>
        <time>2017-07-30T09:48:21Z</time>
      </trkpt>
      <trkpt lat="48.20502" lon="3.26681">
        <ele>65</ele>
        <time>2017-07-30T09:48:23Z</time>
      </trkpt>
      <trkpt lat="48.20489" lon="3.26688">
        <ele>65</ele>
        <time>2017-07-30T09:48:25Z</time>
      </trkpt>
      <trkpt lat="48.20477" lon="3.26695">
        <ele>65</ele>
        <time>2017-07-30T09:48:27Z</time>
      </trkpt>
      <trkpt lat="48.20465" lon="3.26705">
        <ele>65</ele>
        <time>2017-07-30T09:48:29Z</time>
      </trkpt>
      <trkpt lat="48.20454" lon="3.26712">
        <ele>65</ele>
        <time>2017-07-30T09:48:31Z</time>
      </trkpt>
      <trkpt lat="48.20443" lon="3.2672">
        <ele>65</ele>
        <time>2017-07-30T09:48:33Z</time>
      </trkpt>
      <trkpt lat="48.20432" lon="3.26729">
        <ele>65</ele>
        <time>2017-07-30T09:48:35Z</time>
      </trkpt>
      <trkpt lat="48.20422" lon="3.26737">
        <ele>65</ele>
        <time>2017-07-30T09:48:37Z</time>
      </trkpt>
      <trkpt lat="48.20413" lon="3.26743">
        <ele>65</ele>
        <time>2017-07-30T09:48:39Z</time>
      </trkpt>
      <trkpt lat="48.20403" lon="3.26751">
        <ele>65</ele>
        <time>2017-07-30T09:48:41Z</time>
      </trkpt>
      <trkpt lat="48.20395" lon="3.26759">
        <ele>65</ele>
        <time>2017-07-30T09:48:43Z</time>
      </trkpt>
      <trkpt lat="48.20387" lon="3.26768">
        <ele>65</ele>
        <time>2017-07-30T09:48:45Z</time>
      </trkpt>
      <trkpt lat="48.20378" lon="3.26776">
        <ele>65</ele>
        <time>2017-07-30T09:48:47Z</time>
      </trkpt>
      <trkpt lat="48.20368" lon="3.26785">
        <ele>65</ele>
        <time>2017-07-30T09:48:49Z</time>
      </trkpt>
      <trkpt lat="48.20358" lon="3.26793">
        <ele>65</ele>
        <time>2017-07-30T09:48:51Z</time>
      </trkpt>
      <trkpt lat="48.20349" lon="3.268">
        <ele>65</ele>
        <time>2017-07-30T09:48:53Z</time>
      </trkpt>
      <trkpt lat="48.20339" lon="3.26807">
        <ele>65</ele>
        <time>2017-07-30T09:48:55Z</time>
      </trkpt>
      <trkpt lat="48.20332" lon="3.26819">
        <ele>65</ele>
        <time>2017-07-30T09:48:57Z</time>
      </trkpt>
      <trkpt lat="48.20333" lon="3.26836">
        <ele>64</ele>
        <time>2017-07-30T09:48:59Z</time>
      </trkpt>
      <trkpt lat="48.20339" lon="3.2685">
        <ele>65</ele>
        <time>2017-07-30T09:49:01Z</time>
      </trkpt>
      <trkpt lat="48.20344" lon="3.26859">
        <ele>65</ele>
        <time>2017-07-30T09:49:03Z</time>
      </trkpt>
      <trkpt lat="48.20349" lon="3.26869">
        <ele>65</ele>
        <time>2017-07-30T09:49:05Z</time>
      </trkpt>
      <trkpt lat="48.20354" lon="3.26877">
        <ele>65</ele>
        <time>2017-07-30T09:49:07Z</time>
      </trkpt>
      <trkpt lat="48.2036" lon="3.26889">
        <ele>65</ele>
        <time>2017-07-30T09:49:09Z</time>
      </trkpt>
      <trkpt lat="48.20367" lon="3.26902">
        <ele>65</ele>
        <time>2017-07-30T09:49:11Z</time>
      </trkpt>
      <trkpt lat="48.20373" lon="3.26915">
        <ele>65</ele>
        <time>2017-07-30T09:49:13Z</time>
      </trkpt>
      <trkpt lat="48.20377" lon="3.26928">
        <ele>65</ele>
        <time>2017-07-30T09:49:15Z</time>
      </trkpt>
      <trkpt lat="48.20382" lon="3.26941">
        <ele>65</ele>
        <time>2017-07-30T09:49:17Z</time>
      </trkpt>
      <trkpt lat="48.20384" lon="3.26956">
        <ele>65</ele>
        <time>2017-07-30T09:49:19Z</time>
      </trkpt>
      <trkpt lat="48.20387" lon="3.26972">
        <ele>65</ele>
        <time>2017-07-30T09:49:21Z</time>
      </trkpt>
      <trkpt lat="48.2039" lon="3.26988">
        <ele>65</ele>
        <time>2017-07-30T09:49:23Z</time>
      </trkpt>
      <trkpt lat="48.20393" lon="3.27004">
        <ele>64</ele>
        <time>2017-07-30T09:49:25Z</time>
      </trkpt>
      <trkpt lat="48.20395" lon="3.27019">
        <ele>64</ele>
        <time>2017-07-30T09:49:27Z</time>
      </trkpt>
      <trkpt lat="48.20398" lon="3.27034">
        <ele>64</ele>
        <time>2017-07-30T09:49:29Z</time>
      </trkpt>
      <trkpt lat="48.204" lon="3.27048">
        <ele>64</ele>
        <time>2017-07-30T09:49:31Z</time>
      </trkpt>
      <trkpt lat="48.20403" lon="3.27063">
        <ele>64</ele>
        <time>2017-07-30T09:49:33Z</time>
      </trkpt>
      <trkpt lat="48.20405" lon="3.27075">
        <ele>64</ele>
        <time>2017-07-30T09:49:35Z</time>
      </trkpt>
      <trkpt lat="48.20406" lon="3.27089">
        <ele>64</ele>
        <time>2017-07-30T09:49:37Z</time>
      </trkpt>
      <trkpt lat="48.20408" lon="3.27102">
        <ele>64</ele>
        <time>2017-07-30T09:49:39Z</time>
      </trkpt>
      <trkpt lat="48.2041" lon="3.27117">
        <ele>64</ele>
        <time>2017-07-30T09:49:41Z</time>
      </trkpt>
      <trkpt lat="48.20413" lon="3.27131">
        <ele>65</ele>
        <time>2017-07-30T09:49:43Z</time>
      </trkpt>
      <trkpt lat="48.20415" lon="3.27143">
        <ele>65</ele>
        <time>2017-07-30T09:49:45Z</time>
      </trkpt>
      <trkpt lat="48.20415" lon="3.27155">
        <ele>65</ele>
        <time>2017-07-30T09:49:47Z</time>
      </trkpt>
      <trkpt lat="48.20417" lon="3.27166">
        <ele>65</ele>
        <time>2017-07-30T09:49:49Z</time>
      </trkpt>
      <trkpt lat="48.2042" lon="3.27179">
        <ele>65</ele>
        <time>2017-07-30T09:49:52Z</time>
      </trkpt>
      <trkpt lat="48.20424" lon="3.27194">
        <ele>65</ele>
        <time>2017-07-30T09:49:54Z</time>
      </trkpt>
      <trkpt lat="48.20427" lon="3.2721">
        <ele>66</ele>
        <time>2017-07-30T09:49:56Z</time>
      </trkpt>
      <trkpt lat="48.2043" lon="3.27227">
        <ele>66</ele>
        <time>2017-07-30T09:49:58Z</time>
      </trkpt>
      <trkpt lat="48.20434" lon="3.27243">
        <ele>66</ele>
        <time>2017-07-30T09:50:00Z</time>
      </trkpt>
      <trkpt lat="48.20436" lon="3.27254">
        <ele>66</ele>
        <time>2017-07-30T09:50:01Z</time>
      </trkpt>
      <trkpt lat="48.20438" lon="3.27274">
        <ele>66</ele>
        <time>2017-07-30T09:50:03Z</time>
      </trkpt>
      <trkpt lat="48.2044" lon="3.27285">
        <ele>66</ele>
        <time>2017-07-30T09:50:04Z</time>
      </trkpt>
      <trkpt lat="48.20444" lon="3.27304">
        <ele>66</ele>
        <time>2017-07-30T09:50:06Z</time>
      </trkpt>
      <trkpt lat="48.20448" lon="3.27325">
        <ele>66</ele>
        <time>2017-07-30T09:50:08Z</time>
      </trkpt>
      <trkpt lat="48.20451" lon="3.27346">
        <ele>67</ele>
        <time>2017-07-30T09:50:10Z</time>
      </trkpt>
      <trkpt lat="48.20453" lon="3.27358">
        <ele>67</ele>
        <time>2017-07-30T09:50:11Z</time>
      </trkpt>
      <trkpt lat="48.20454" lon="3.27371">
        <ele>67</ele>
        <time>2017-07-30T09:50:12Z</time>
      </trkpt>
      <trkpt lat="48.20458" lon="3.27391">
        <ele>67</ele>
        <time>2017-07-30T09:50:14Z</time>
      </trkpt>
      <trkpt lat="48.20462" lon="3.27411">
        <ele>67</ele>
        <time>2017-07-30T09:50:16Z</time>
      </trkpt>
      <trkpt lat="48.20465" lon="3.27422">
        <ele>67</ele>
        <time>2017-07-30T09:50:17Z</time>
      </trkpt>
      <trkpt lat="48.20467" lon="3.27442">
        <ele>67</ele>
        <time>2017-07-30T09:50:19Z</time>
      </trkpt>
      <trkpt lat="48.20471" lon="3.27463">
        <ele>67</ele>
        <time>2017-07-30T09:50:21Z</time>
      </trkpt>
      <trkpt lat="48.20473" lon="3.27475">
        <ele>66</ele>
        <time>2017-07-30T09:50:22Z</time>
      </trkpt>
      <trkpt lat="48.20475" lon="3.27486">
        <ele>66</ele>
        <time>2017-07-30T09:50:23Z</time>
      </trkpt>
      <trkpt lat="48.20478" lon="3.27505">
        <ele>66</ele>
        <time>2017-07-30T09:50:25Z</time>
      </trkpt>
      <trkpt lat="48.20481" lon="3.27526">
        <ele>66</ele>
        <time>2017-07-30T09:50:27Z</time>
      </trkpt>
      <trkpt lat="48.20483" lon="3.27537">
        <ele>66</ele>
        <time>2017-07-30T09:50:28Z</time>
      </trkpt>
      <trkpt lat="48.20486" lon="3.27556">
        <ele>65</ele>
        <time>2017-07-30T09:50:30Z</time>
      </trkpt>
      <trkpt lat="48.20489" lon="3.27575">
        <ele>65</ele>
        <time>2017-07-30T09:50:32Z</time>
      </trkpt>
      <trkpt lat="48.20493" lon="3.27594">
        <ele>65</ele>
        <time>2017-07-30T09:50:34Z</time>
      </trkpt>
      <trkpt lat="48.20494" lon="3.27605">
        <ele>65</ele>
        <time>2017-07-30T09:50:35Z</time>
      </trkpt>
      <trkpt lat="48.20498" lon="3.27626">
        <ele>65</ele>
        <time>2017-07-30T09:50:37Z</time>
      </trkpt>
      <trkpt lat="48.205" lon="3.27636">
        <ele>65</ele>
        <time>2017-07-30T09:50:38Z</time>
      </trkpt>
      <trkpt lat="48.20503" lon="3.27648">
        <ele>65</ele>
        <time>2017-07-30T09:50:39Z</time>
      </trkpt>
      <trkpt lat="48.20505" lon="3.27659">
        <ele>64</ele>
        <time>2017-07-30T09:50:40Z</time>
      </trkpt>
      <trkpt lat="48.20506" lon="3.27671">
        <ele>64</ele>
        <time>2017-07-30T09:50:41Z</time>
      </trkpt>
      <trkpt lat="48.20508" lon="3.27683">
        <ele>65</ele>
        <time>2017-07-30T09:50:42Z</time>
      </trkpt>
      <trkpt lat="48.2051" lon="3.27695">
        <ele>65</ele>
        <time>2017-07-30T09:50:43Z</time>
      </trkpt>
      <trkpt lat="48.20512" lon="3.27708">
        <ele>65</ele>
        <time>2017-07-30T09:50:44Z</time>
      </trkpt>
      <trkpt lat="48.20515" lon="3.27728">
        <ele>65</ele>
        <time>2017-07-30T09:50:46Z</time>
      </trkpt>
      <trkpt lat="48.20516" lon="3.27749">
        <ele>65</ele>
        <time>2017-07-30T09:50:48Z</time>
      </trkpt>
      <trkpt lat="48.20509" lon="3.27766">
        <ele>64</ele>
        <time>2017-07-30T09:50:50Z</time>
      </trkpt>
      <trkpt lat="48.20506" lon="3.27779">
        <ele>64</ele>
        <time>2017-07-30T09:50:51Z</time>
      </trkpt>
      <trkpt lat="48.20496" lon="3.27793">
        <ele>64</ele>
        <time>2017-07-30T09:50:53Z</time>
      </trkpt>
      <trkpt lat="48.20489" lon="3.27797">
        <ele>65</ele>
        <time>2017-07-30T09:50:54Z</time>
      </trkpt>
      <trkpt lat="48.20478" lon="3.27804">
        <ele>65</ele>
        <time>2017-07-30T09:50:56Z</time>
      </trkpt>
      <trkpt lat="48.20468" lon="3.27815">
        <ele>65</ele>
        <time>2017-07-30T09:50:58Z</time>
      </trkpt>
      <trkpt lat="48.20462" lon="3.2782">
        <ele>65</ele>
        <time>2017-07-30T09:50:59Z</time>
      </trkpt>
      <trkpt lat="48.2045" lon="3.27828">
        <ele>65</ele>
        <time>2017-07-30T09:51:01Z</time>
      </trkpt>
      <trkpt lat="48.20441" lon="3.27841">
        <ele>65</ele>
        <time>2017-07-30T09:51:03Z</time>
      </trkpt>
      <trkpt lat="48.2043" lon="3.27851">
        <ele>65</ele>
        <time>2017-07-30T09:51:05Z</time>
      </trkpt>
      <trkpt lat="48.2042" lon="3.27861">
        <ele>65</ele>
        <time>2017-07-30T09:51:07Z</time>
      </trkpt>
      <trkpt lat="48.2041" lon="3.27874">
        <ele>66</ele>
        <time>2017-07-30T09:51:09Z</time>
      </trkpt>
      <trkpt lat="48.20398" lon="3.27884">
        <ele>67</ele>
        <time>2017-07-30T09:51:11Z</time>
      </trkpt>
      <trkpt lat="48.20389" lon="3.27893">
        <ele>67</ele>
        <time>2017-07-30T09:51:13Z</time>
      </trkpt>
      <trkpt lat="48.20379" lon="3.27904">
        <ele>67</ele>
        <time>2017-07-30T09:51:15Z</time>
      </trkpt>
      <trkpt lat="48.2037" lon="3.27912">
        <ele>67</ele>
        <time>2017-07-30T09:51:17Z</time>
      </trkpt>
      <trkpt lat="48.2036" lon="3.27922">
        <ele>67</ele>
        <time>2017-07-30T09:51:19Z</time>
      </trkpt>
      <trkpt lat="48.20349" lon="3.27931">
        <ele>67</ele>
        <time>2017-07-30T09:51:21Z</time>
      </trkpt>
      <trkpt lat="48.20338" lon="3.27942">
        <ele>67</ele>
        <time>2017-07-30T09:51:23Z</time>
      </trkpt>
      <trkpt lat="48.20326" lon="3.27953">
        <ele>67</ele>
        <time>2017-07-30T09:51:25Z</time>
      </trkpt>
      <trkpt lat="48.20317" lon="3.27968">
        <ele>67</ele>
        <time>2017-07-30T09:51:27Z</time>
      </trkpt>
      <trkpt lat="48.20308" lon="3.27978">
        <ele>67</ele>
        <time>2017-07-30T09:51:29Z</time>
      </trkpt>
      <trkpt lat="48.20298" lon="3.27986">
        <ele>67</ele>
        <time>2017-07-30T09:51:31Z</time>
      </trkpt>
      <trkpt lat="48.20293" lon="3.27995">
        <ele>67</ele>
        <time>2017-07-30T09:51:32Z</time>
      </trkpt>
      <trkpt lat="48.20282" lon="3.28006">
        <ele>67</ele>
        <time>2017-07-30T09:51:34Z</time>
      </trkpt>
      <trkpt lat="48.20271" lon="3.28019">
        <ele>67</ele>
        <time>2017-07-30T09:51:36Z</time>
      </trkpt>
      <trkpt lat="48.20261" lon="3.28029">
        <ele>67</ele>
        <time>2017-07-30T09:51:38Z</time>
      </trkpt>
      <trkpt lat="48.20251" lon="3.2804">
        <ele>67</ele>
        <time>2017-07-30T09:51:40Z</time>
      </trkpt>
      <trkpt lat="48.20247" lon="3.28049">
        <ele>68</ele>
        <time>2017-07-30T09:51:41Z</time>
      </trkpt>
      <trkpt lat="48.20235" lon="3.2806">
        <ele>68</ele>
        <time>2017-07-30T09:51:43Z</time>
      </trkpt>
      <trkpt lat="48.20231" lon="3.2807">
        <ele>68</ele>
        <time>2017-07-30T09:51:44Z</time>
      </trkpt>
      <trkpt lat="48.20221" lon="3.28081">
        <ele>68</ele>
        <time>2017-07-30T09:51:46Z</time>
      </trkpt>
      <trkpt lat="48.20216" lon="3.28088">
        <ele>68</ele>
        <time>2017-07-30T09:51:47Z</time>
      </trkpt>
      <trkpt lat="48.20203" lon="3.28098">
        <ele>69</ele>
        <time>2017-07-30T09:51:49Z</time>
      </trkpt>
      <trkpt lat="48.20192" lon="3.28109">
        <ele>69</ele>
        <time>2017-07-30T09:51:51Z</time>
      </trkpt>
      <trkpt lat="48.20182" lon="3.2812">
        <ele>69</ele>
        <time>2017-07-30T09:51:53Z</time>
      </trkpt>
      <trkpt lat="48.20175" lon="3.28132">
        <ele>69</ele>
        <time>2017-07-30T09:51:55Z</time>
      </trkpt>
      <trkpt lat="48.20167" lon="3.28144">
        <ele>71</ele>
        <time>2017-07-30T09:51:57Z</time>
      </trkpt>
      <trkpt lat="48.20158" lon="3.28156">
        <ele>71</ele>
        <time>2017-07-30T09:51:59Z</time>
      </trkpt>
      <trkpt lat="48.20147" lon="3.28166">
        <ele>71</ele>
        <time>2017-07-30T09:52:01Z</time>
      </trkpt>
      <trkpt lat="48.20138" lon="3.28173">
        <ele>71</ele>
        <time>2017-07-30T09:52:03Z</time>
      </trkpt>
      <trkpt lat="48.20129" lon="3.28188">
        <ele>71</ele>
        <time>2017-07-30T09:52:05Z</time>
      </trkpt>
      <trkpt lat="48.20121" lon="3.28202">
        <ele>71</ele>
        <time>2017-07-30T09:52:07Z</time>
      </trkpt>
      <trkpt lat="48.20113" lon="3.28203">
        <ele>71</ele>
        <time>2017-07-30T09:52:09Z</time>
      </trkpt>
      <trkpt lat="48.20104" lon="3.28208">
        <ele>71</ele>
        <time>2017-07-30T09:52:11Z</time>
      </trkpt>
      <trkpt lat="48.20103" lon="3.2822">
        <ele>71</ele>
        <time>2017-07-30T09:52:13Z</time>
      </trkpt>
      <trkpt lat="48.20108" lon="3.28229">
        <ele>71</ele>
        <time>2017-07-30T09:52:15Z</time>
      </trkpt>
      <trkpt lat="48.20119" lon="3.2823">
        <ele>71</ele>
        <time>2017-07-30T09:52:17Z</time>
      </trkpt>
      <trkpt lat="48.20125" lon="3.28217">
        <ele>71</ele>
        <time>2017-07-30T09:52:19Z</time>
      </trkpt>
      <trkpt lat="48.20132" lon="3.28204">
        <ele>71</ele>
        <time>2017-07-30T09:52:21Z</time>
      </trkpt>
      <trkpt lat="48.20143" lon="3.28192">
        <ele>71</ele>
        <time>2017-07-30T09:52:23Z</time>
      </trkpt>
      <trkpt lat="48.20154" lon="3.28182">
        <ele>71</ele>
        <time>2017-07-30T09:52:25Z</time>
      </trkpt>
      <trkpt lat="48.20165" lon="3.28169">
        <ele>71</ele>
        <time>2017-07-30T09:52:28Z</time>
      </trkpt>
      <trkpt lat="48.20175" lon="3.28158">
        <ele>70</ele>
        <time>2017-07-30T09:52:29Z</time>
      </trkpt>
      <trkpt lat="48.20185" lon="3.28144">
        <ele>69</ele>
        <time>2017-07-30T09:52:31Z</time>
      </trkpt>
      <trkpt lat="48.20191" lon="3.28138">
        <ele>69</ele>
        <time>2017-07-30T09:52:32Z</time>
      </trkpt>
      <trkpt lat="48.20203" lon="3.28127">
        <ele>69</ele>
        <time>2017-07-30T09:52:34Z</time>
      </trkpt>
      <trkpt lat="48.20209" lon="3.28121">
        <ele>69</ele>
        <time>2017-07-30T09:52:35Z</time>
      </trkpt>
      <trkpt lat="48.2022" lon="3.28109">
        <ele>68</ele>
        <time>2017-07-30T09:52:37Z</time>
      </trkpt>
      <trkpt lat="48.2023" lon="3.28097">
        <ele>68</ele>
        <time>2017-07-30T09:52:39Z</time>
      </trkpt>
      <trkpt lat="48.20242" lon="3.28087">
        <ele>68</ele>
        <time>2017-07-30T09:52:41Z</time>
      </trkpt>
      <trkpt lat="48.20251" lon="3.28076">
        <ele>67</ele>
        <time>2017-07-30T09:52:43Z</time>
      </trkpt>
      <trkpt lat="48.20259" lon="3.2807">
        <ele>67</ele>
        <time>2017-07-30T09:52:45Z</time>
      </trkpt>
      <trkpt lat="48.20263" lon="3.28067">
        <ele>67</ele>
        <time>2017-07-30T09:52:52Z</time>
      </trkpt>
      <trkpt lat="48.20262" lon="3.28065">
        <ele>67</ele>
        <time>2017-07-30T09:52:59Z</time>
      </trkpt>
      <trkpt lat="48.20261" lon="3.28062">
        <ele>67</ele>
        <time>2017-07-30T09:53:06Z</time>
      </trkpt>
      <trkpt lat="48.20261" lon="3.28062">
        <ele>67</ele>
        <time>2017-07-30T09:53:14Z</time>
      </trkpt>
      <trkpt lat="48.20261" lon="3.28062">
        <ele>67</ele>
        <time>2017-07-30T09:53:20Z</time>
      </trkpt>
    </trkseg>
  </trk>
</gpx>